<?xml version="1.0" encoding="UTF-8" standalone="no" ?>
<gpx xmlns="http://www.topografix.com/GPX/1/1" xmlns:xsi="http://www.w3.org/2001/XMLSchema-instance" xsi:schemaLocation="http://www.topografix.com/GPX/1/1 http://www.topografix.com/GPX/1/1/gpx.xsd" version="1.1" creator="VisuGPX - https://www.visugpx.com">
  <metadata>
    <name>3 Pignons au départ de Noisy</name>
    <desc><![CDATA[Attention cette trace comporte quelques portages. A réserver aux VTTistes entraînés.]]></desc>
  </metadata>
  <trk>
    <name><![CDATA[3 Pignons au départ de Noisy_1]]></name>
    <trkseg>
      <trkpt lat="48.37097" lon="2.4954">
        <ele>53</ele>
        <time>2014-05-29T07:14:28Z</time>
      </trkpt>
      <trkpt lat="48.37097" lon="2.49541">
        <ele>53</ele>
        <time>2014-05-29T07:14:29Z</time>
      </trkpt>
      <trkpt lat="48.37102" lon="2.49547">
        <ele>52.2</ele>
        <time>2014-05-29T07:14:58Z</time>
      </trkpt>
      <trkpt lat="48.37111" lon="2.49549">
        <ele>52.2</ele>
        <time>2014-05-29T07:15:04Z</time>
      </trkpt>
      <trkpt lat="48.37122" lon="2.49554">
        <ele>52.2</ele>
        <time>2014-05-29T07:15:08Z</time>
      </trkpt>
      <trkpt lat="48.37139" lon="2.49554">
        <ele>52.2</ele>
        <time>2014-05-29T07:15:14Z</time>
      </trkpt>
      <trkpt lat="48.37171" lon="2.49559">
        <ele>52.2</ele>
        <time>2014-05-29T07:15:22Z</time>
      </trkpt>
      <trkpt lat="48.37208" lon="2.49564">
        <ele>52.2</ele>
        <time>2014-05-29T07:15:30Z</time>
      </trkpt>
      <trkpt lat="48.37248" lon="2.49569">
        <ele>52.2</ele>
        <time>2014-05-29T07:15:37Z</time>
      </trkpt>
      <trkpt lat="48.37254" lon="2.4957">
        <ele>52.2</ele>
        <time>2014-05-29T07:15:38Z</time>
      </trkpt>
      <trkpt lat="48.37281" lon="2.4957">
        <ele>52.2</ele>
        <time>2014-05-29T07:15:43Z</time>
      </trkpt>
      <trkpt lat="48.3729" lon="2.49572">
        <ele>51.6</ele>
        <time>2014-05-29T07:15:45Z</time>
      </trkpt>
      <trkpt lat="48.37294" lon="2.49574">
        <ele>51.2</ele>
        <time>2014-05-29T07:15:46Z</time>
      </trkpt>
      <trkpt lat="48.37299" lon="2.49575">
        <ele>50.8</ele>
        <time>2014-05-29T07:15:47Z</time>
      </trkpt>
      <trkpt lat="48.37303" lon="2.49577">
        <ele>50.2</ele>
        <time>2014-05-29T07:15:48Z</time>
      </trkpt>
      <trkpt lat="48.37308" lon="2.49579">
        <ele>49.8</ele>
        <time>2014-05-29T07:15:49Z</time>
      </trkpt>
      <trkpt lat="48.37311" lon="2.49582">
        <ele>49.8</ele>
        <time>2014-05-29T07:15:50Z</time>
      </trkpt>
      <trkpt lat="48.37318" lon="2.49589">
        <ele>49.8</ele>
        <time>2014-05-29T07:15:54Z</time>
      </trkpt>
      <trkpt lat="48.37337" lon="2.49602">
        <ele>49.8</ele>
        <time>2014-05-29T07:16:00Z</time>
      </trkpt>
      <trkpt lat="48.37346" lon="2.49606">
        <ele>49.8</ele>
        <time>2014-05-29T07:16:02Z</time>
      </trkpt>
      <trkpt lat="48.37367" lon="2.4961">
        <ele>49.8</ele>
        <time>2014-05-29T07:16:06Z</time>
      </trkpt>
      <trkpt lat="48.3741" lon="2.49622">
        <ele>49.8</ele>
        <time>2014-05-29T07:16:14Z</time>
      </trkpt>
      <trkpt lat="48.3745" lon="2.49636">
        <ele>49.8</ele>
        <time>2014-05-29T07:16:21Z</time>
      </trkpt>
      <trkpt lat="48.37501" lon="2.49642">
        <ele>49.8</ele>
        <time>2014-05-29T07:16:29Z</time>
      </trkpt>
      <trkpt lat="48.37531" lon="2.49641">
        <ele>49.4</ele>
        <time>2014-05-29T07:16:34Z</time>
      </trkpt>
      <trkpt lat="48.37536" lon="2.49641">
        <ele>49</ele>
        <time>2014-05-29T07:16:35Z</time>
      </trkpt>
      <trkpt lat="48.37543" lon="2.49641">
        <ele>48.6</ele>
        <time>2014-05-29T07:16:36Z</time>
      </trkpt>
      <trkpt lat="48.37549" lon="2.49641">
        <ele>48.2</ele>
        <time>2014-05-29T07:16:37Z</time>
      </trkpt>
      <trkpt lat="48.37555" lon="2.49641">
        <ele>47.8</ele>
        <time>2014-05-29T07:16:38Z</time>
      </trkpt>
      <trkpt lat="48.37582" lon="2.49639">
        <ele>47.8</ele>
        <time>2014-05-29T07:16:43Z</time>
      </trkpt>
      <trkpt lat="48.37635" lon="2.49644">
        <ele>47.8</ele>
        <time>2014-05-29T07:16:51Z</time>
      </trkpt>
      <trkpt lat="48.37667" lon="2.49648">
        <ele>47.8</ele>
        <time>2014-05-29T07:16:57Z</time>
      </trkpt>
      <trkpt lat="48.37689" lon="2.49652">
        <ele>47.8</ele>
        <time>2014-05-29T07:17:01Z</time>
      </trkpt>
      <trkpt lat="48.37699" lon="2.49657">
        <ele>47.8</ele>
        <time>2014-05-29T07:17:03Z</time>
      </trkpt>
      <trkpt lat="48.37708" lon="2.49666">
        <ele>47.8</ele>
        <time>2014-05-29T07:17:06Z</time>
      </trkpt>
      <trkpt lat="48.37714" lon="2.49677">
        <ele>47.8</ele>
        <time>2014-05-29T07:17:08Z</time>
      </trkpt>
      <trkpt lat="48.37725" lon="2.49699">
        <ele>47.8</ele>
        <time>2014-05-29T07:17:11Z</time>
      </trkpt>
      <trkpt lat="48.3774" lon="2.49725">
        <ele>47.8</ele>
        <time>2014-05-29T07:17:15Z</time>
      </trkpt>
      <trkpt lat="48.37744" lon="2.49732">
        <ele>47.8</ele>
        <time>2014-05-29T07:17:16Z</time>
      </trkpt>
      <trkpt lat="48.3775" lon="2.49748">
        <ele>47.8</ele>
        <time>2014-05-29T07:17:18Z</time>
      </trkpt>
      <trkpt lat="48.37767" lon="2.49785">
        <ele>47.8</ele>
        <time>2014-05-29T07:17:23Z</time>
      </trkpt>
      <trkpt lat="48.37775" lon="2.49805">
        <ele>47.8</ele>
        <time>2014-05-29T07:17:26Z</time>
      </trkpt>
      <trkpt lat="48.37781" lon="2.49819">
        <ele>48.2</ele>
        <time>2014-05-29T07:17:28Z</time>
      </trkpt>
      <trkpt lat="48.37783" lon="2.49826">
        <ele>48.6</ele>
        <time>2014-05-29T07:17:29Z</time>
      </trkpt>
      <trkpt lat="48.37786" lon="2.49832">
        <ele>49</ele>
        <time>2014-05-29T07:17:30Z</time>
      </trkpt>
      <trkpt lat="48.37789" lon="2.49839">
        <ele>49.4</ele>
        <time>2014-05-29T07:17:31Z</time>
      </trkpt>
      <trkpt lat="48.37792" lon="2.49845">
        <ele>49.8</ele>
        <time>2014-05-29T07:17:32Z</time>
      </trkpt>
      <trkpt lat="48.37796" lon="2.49851">
        <ele>49.8</ele>
        <time>2014-05-29T07:17:33Z</time>
      </trkpt>
      <trkpt lat="48.37811" lon="2.49885">
        <ele>49.8</ele>
        <time>2014-05-29T07:17:38Z</time>
      </trkpt>
      <trkpt lat="48.37817" lon="2.49903">
        <ele>49.8</ele>
        <time>2014-05-29T07:17:42Z</time>
      </trkpt>
      <trkpt lat="48.37824" lon="2.49912">
        <ele>49.8</ele>
        <time>2014-05-29T07:17:47Z</time>
      </trkpt>
      <trkpt lat="48.37828" lon="2.49921">
        <ele>49.8</ele>
        <time>2014-05-29T07:17:50Z</time>
      </trkpt>
      <trkpt lat="48.37831" lon="2.49932">
        <ele>49.8</ele>
        <time>2014-05-29T07:17:52Z</time>
      </trkpt>
      <trkpt lat="48.37837" lon="2.49955">
        <ele>49.8</ele>
        <time>2014-05-29T07:17:56Z</time>
      </trkpt>
      <trkpt lat="48.37838" lon="2.49961">
        <ele>49.8</ele>
        <time>2014-05-29T07:17:57Z</time>
      </trkpt>
      <trkpt lat="48.37845" lon="2.49986">
        <ele>49.8</ele>
        <time>2014-05-29T07:18:01Z</time>
      </trkpt>
      <trkpt lat="48.37849" lon="2.49995">
        <ele>49.8</ele>
        <time>2014-05-29T07:18:03Z</time>
      </trkpt>
      <trkpt lat="48.37854" lon="2.50003">
        <ele>49.8</ele>
        <time>2014-05-29T07:18:05Z</time>
      </trkpt>
      <trkpt lat="48.37857" lon="2.50006">
        <ele>49.8</ele>
        <time>2014-05-29T07:18:06Z</time>
      </trkpt>
      <trkpt lat="48.37861" lon="2.50008">
        <ele>49.8</ele>
        <time>2014-05-29T07:18:08Z</time>
      </trkpt>
      <trkpt lat="48.37864" lon="2.50009">
        <ele>50.2</ele>
        <time>2014-05-29T07:18:09Z</time>
      </trkpt>
      <trkpt lat="48.37866" lon="2.5001">
        <ele>50.6</ele>
        <time>2014-05-29T07:18:10Z</time>
      </trkpt>
      <trkpt lat="48.37869" lon="2.50015">
        <ele>51</ele>
        <time>2014-05-29T07:18:11Z</time>
      </trkpt>
      <trkpt lat="48.37872" lon="2.50016">
        <ele>51.4</ele>
        <time>2014-05-29T07:18:12Z</time>
      </trkpt>
      <trkpt lat="48.37876" lon="2.50016">
        <ele>51.8</ele>
        <time>2014-05-29T07:18:13Z</time>
      </trkpt>
      <trkpt lat="48.37881" lon="2.50017">
        <ele>51.8</ele>
        <time>2014-05-29T07:18:15Z</time>
      </trkpt>
      <trkpt lat="48.37883" lon="2.50018">
        <ele>51.8</ele>
        <time>2014-05-29T07:18:16Z</time>
      </trkpt>
      <trkpt lat="48.37892" lon="2.50019">
        <ele>51.8</ele>
        <time>2014-05-29T07:18:20Z</time>
      </trkpt>
      <trkpt lat="48.37899" lon="2.5002">
        <ele>52.4</ele>
        <time>2014-05-29T07:18:24Z</time>
      </trkpt>
      <trkpt lat="48.379" lon="2.50021">
        <ele>52.8</ele>
        <time>2014-05-29T07:18:25Z</time>
      </trkpt>
      <trkpt lat="48.37903" lon="2.50021">
        <ele>53.2</ele>
        <time>2014-05-29T07:18:26Z</time>
      </trkpt>
      <trkpt lat="48.37906" lon="2.5002">
        <ele>53.6</ele>
        <time>2014-05-29T07:18:27Z</time>
      </trkpt>
      <trkpt lat="48.37909" lon="2.50021">
        <ele>54</ele>
        <time>2014-05-29T07:18:28Z</time>
      </trkpt>
      <trkpt lat="48.37918" lon="2.50043">
        <ele>54</ele>
        <time>2014-05-29T07:18:34Z</time>
      </trkpt>
      <trkpt lat="48.37925" lon="2.50068">
        <ele>54</ele>
        <time>2014-05-29T07:18:39Z</time>
      </trkpt>
      <trkpt lat="48.37927" lon="2.50084">
        <ele>54</ele>
        <time>2014-05-29T07:18:42Z</time>
      </trkpt>
      <trkpt lat="48.37929" lon="2.50101">
        <ele>54</ele>
        <time>2014-05-29T07:18:45Z</time>
      </trkpt>
      <trkpt lat="48.37929" lon="2.5012">
        <ele>53.6</ele>
        <time>2014-05-29T07:18:49Z</time>
      </trkpt>
      <trkpt lat="48.3793" lon="2.50122">
        <ele>53.2</ele>
        <time>2014-05-29T07:18:50Z</time>
      </trkpt>
      <trkpt lat="48.37931" lon="2.50125">
        <ele>52.6</ele>
        <time>2014-05-29T07:18:51Z</time>
      </trkpt>
      <trkpt lat="48.3793" lon="2.50129">
        <ele>52.2</ele>
        <time>2014-05-29T07:18:52Z</time>
      </trkpt>
      <trkpt lat="48.37929" lon="2.50133">
        <ele>51.8</ele>
        <time>2014-05-29T07:18:53Z</time>
      </trkpt>
      <trkpt lat="48.37928" lon="2.5014">
        <ele>51.8</ele>
        <time>2014-05-29T07:18:55Z</time>
      </trkpt>
      <trkpt lat="48.37926" lon="2.50178">
        <ele>51.8</ele>
        <time>2014-05-29T07:19:01Z</time>
      </trkpt>
      <trkpt lat="48.37913" lon="2.50206">
        <ele>51.8</ele>
        <time>2014-05-29T07:19:08Z</time>
      </trkpt>
      <trkpt lat="48.37912" lon="2.50214">
        <ele>51.8</ele>
        <time>2014-05-29T07:19:11Z</time>
      </trkpt>
      <trkpt lat="48.37914" lon="2.50222">
        <ele>51.8</ele>
        <time>2014-05-29T07:19:13Z</time>
      </trkpt>
      <trkpt lat="48.37915" lon="2.50258">
        <ele>51.8</ele>
        <time>2014-05-29T07:19:20Z</time>
      </trkpt>
      <trkpt lat="48.37924" lon="2.50302">
        <ele>51.8</ele>
        <time>2014-05-29T07:19:26Z</time>
      </trkpt>
      <trkpt lat="48.37922" lon="2.5031">
        <ele>52.2</ele>
        <time>2014-05-29T07:19:29Z</time>
      </trkpt>
      <trkpt lat="48.37921" lon="2.50314">
        <ele>52.6</ele>
        <time>2014-05-29T07:19:30Z</time>
      </trkpt>
      <trkpt lat="48.37919" lon="2.50316">
        <ele>53</ele>
        <time>2014-05-29T07:19:31Z</time>
      </trkpt>
      <trkpt lat="48.37916" lon="2.5032">
        <ele>53.4</ele>
        <time>2014-05-29T07:19:32Z</time>
      </trkpt>
      <trkpt lat="48.37912" lon="2.50322">
        <ele>53.8</ele>
        <time>2014-05-29T07:19:33Z</time>
      </trkpt>
      <trkpt lat="48.37906" lon="2.50334">
        <ele>54.2</ele>
        <time>2014-05-29T07:19:38Z</time>
      </trkpt>
      <trkpt lat="48.37906" lon="2.50338">
        <ele>54.8</ele>
        <time>2014-05-29T07:19:39Z</time>
      </trkpt>
      <trkpt lat="48.37905" lon="2.5034">
        <ele>55.2</ele>
        <time>2014-05-29T07:19:40Z</time>
      </trkpt>
      <trkpt lat="48.37904" lon="2.50342">
        <ele>55.6</ele>
        <time>2014-05-29T07:19:41Z</time>
      </trkpt>
      <trkpt lat="48.37902" lon="2.50344">
        <ele>56</ele>
        <time>2014-05-29T07:19:42Z</time>
      </trkpt>
      <trkpt lat="48.37904" lon="2.50377">
        <ele>56</ele>
        <time>2014-05-29T07:19:47Z</time>
      </trkpt>
      <trkpt lat="48.3789" lon="2.50411">
        <ele>56</ele>
        <time>2014-05-29T07:19:54Z</time>
      </trkpt>
      <trkpt lat="48.3789" lon="2.50435">
        <ele>56</ele>
        <time>2014-05-29T07:20:00Z</time>
      </trkpt>
      <trkpt lat="48.37889" lon="2.50437">
        <ele>56.4</ele>
        <time>2014-05-29T07:20:03Z</time>
      </trkpt>
      <trkpt lat="48.3789" lon="2.50438">
        <ele>57.4</ele>
        <time>2014-05-29T07:20:05Z</time>
      </trkpt>
      <trkpt lat="48.3789" lon="2.50439">
        <ele>57.8</ele>
        <time>2014-05-29T07:20:06Z</time>
      </trkpt>
      <trkpt lat="48.3789" lon="2.5044">
        <ele>58.2</ele>
        <time>2014-05-29T07:20:07Z</time>
      </trkpt>
      <trkpt lat="48.37888" lon="2.50443">
        <ele>58.2</ele>
        <time>2014-05-29T07:20:08Z</time>
      </trkpt>
      <trkpt lat="48.37894" lon="2.5048">
        <ele>58.2</ele>
        <time>2014-05-29T07:20:14Z</time>
      </trkpt>
      <trkpt lat="48.37893" lon="2.50508">
        <ele>58.2</ele>
        <time>2014-05-29T07:20:20Z</time>
      </trkpt>
      <trkpt lat="48.37887" lon="2.50516">
        <ele>58.2</ele>
        <time>2014-05-29T07:20:23Z</time>
      </trkpt>
      <trkpt lat="48.37882" lon="2.50522">
        <ele>58.2</ele>
        <time>2014-05-29T07:20:26Z</time>
      </trkpt>
      <trkpt lat="48.37879" lon="2.50546">
        <ele>58.2</ele>
        <time>2014-05-29T07:20:32Z</time>
      </trkpt>
      <trkpt lat="48.37883" lon="2.50584">
        <ele>58.2</ele>
        <time>2014-05-29T07:20:38Z</time>
      </trkpt>
      <trkpt lat="48.37882" lon="2.5061">
        <ele>57.8</ele>
        <time>2014-05-29T07:20:42Z</time>
      </trkpt>
      <trkpt lat="48.37883" lon="2.50614">
        <ele>57.4</ele>
        <time>2014-05-29T07:20:43Z</time>
      </trkpt>
      <trkpt lat="48.37882" lon="2.50618">
        <ele>57</ele>
        <time>2014-05-29T07:20:44Z</time>
      </trkpt>
      <trkpt lat="48.37881" lon="2.50623">
        <ele>56.6</ele>
        <time>2014-05-29T07:20:45Z</time>
      </trkpt>
      <trkpt lat="48.37881" lon="2.50629">
        <ele>56</ele>
        <time>2014-05-29T07:20:46Z</time>
      </trkpt>
      <trkpt lat="48.37875" lon="2.50646">
        <ele>56</ele>
        <time>2014-05-29T07:20:50Z</time>
      </trkpt>
      <trkpt lat="48.37868" lon="2.50652">
        <ele>56</ele>
        <time>2014-05-29T07:20:53Z</time>
      </trkpt>
      <trkpt lat="48.37867" lon="2.50651">
        <ele>56</ele>
        <time>2014-05-29T07:20:54Z</time>
      </trkpt>
      <trkpt lat="48.37868" lon="2.50652">
        <ele>56.6</ele>
        <time>2014-05-29T07:21:03Z</time>
      </trkpt>
      <trkpt lat="48.37869" lon="2.50653">
        <ele>57</ele>
        <time>2014-05-29T07:21:04Z</time>
      </trkpt>
      <trkpt lat="48.37869" lon="2.50654">
        <ele>57.4</ele>
        <time>2014-05-29T07:21:05Z</time>
      </trkpt>
      <trkpt lat="48.3787" lon="2.50656">
        <ele>57.8</ele>
        <time>2014-05-29T07:21:06Z</time>
      </trkpt>
      <trkpt lat="48.3787" lon="2.50663">
        <ele>58.4</ele>
        <time>2014-05-29T07:21:07Z</time>
      </trkpt>
      <trkpt lat="48.37871" lon="2.50671">
        <ele>57.8</ele>
        <time>2014-05-29T07:21:09Z</time>
      </trkpt>
      <trkpt lat="48.37872" lon="2.50673">
        <ele>57.4</ele>
        <time>2014-05-29T07:21:10Z</time>
      </trkpt>
      <trkpt lat="48.37875" lon="2.50676">
        <ele>57</ele>
        <time>2014-05-29T07:21:11Z</time>
      </trkpt>
      <trkpt lat="48.37875" lon="2.50679">
        <ele>56.6</ele>
        <time>2014-05-29T07:21:12Z</time>
      </trkpt>
      <trkpt lat="48.37876" lon="2.50682">
        <ele>56.2</ele>
        <time>2014-05-29T07:21:13Z</time>
      </trkpt>
      <trkpt lat="48.37876" lon="2.50685">
        <ele>55.8</ele>
        <time>2014-05-29T07:21:14Z</time>
      </trkpt>
      <trkpt lat="48.37876" lon="2.5069">
        <ele>55.2</ele>
        <time>2014-05-29T07:21:15Z</time>
      </trkpt>
      <trkpt lat="48.37878" lon="2.50696">
        <ele>54.8</ele>
        <time>2014-05-29T07:21:16Z</time>
      </trkpt>
      <trkpt lat="48.37879" lon="2.50702">
        <ele>54.2</ele>
        <time>2014-05-29T07:21:17Z</time>
      </trkpt>
      <trkpt lat="48.37881" lon="2.50706">
        <ele>53.6</ele>
        <time>2014-05-29T07:21:18Z</time>
      </trkpt>
      <trkpt lat="48.37883" lon="2.50711">
        <ele>53</ele>
        <time>2014-05-29T07:21:19Z</time>
      </trkpt>
      <trkpt lat="48.37885" lon="2.50716">
        <ele>52.4</ele>
        <time>2014-05-29T07:21:20Z</time>
      </trkpt>
      <trkpt lat="48.37887" lon="2.5072">
        <ele>51.8</ele>
        <time>2014-05-29T07:21:21Z</time>
      </trkpt>
      <trkpt lat="48.37894" lon="2.50733">
        <ele>51.8</ele>
        <time>2014-05-29T07:21:26Z</time>
      </trkpt>
      <trkpt lat="48.37898" lon="2.50739">
        <ele>51.8</ele>
        <time>2014-05-29T07:21:29Z</time>
      </trkpt>
      <trkpt lat="48.37899" lon="2.50742">
        <ele>51.8</ele>
        <time>2014-05-29T07:21:31Z</time>
      </trkpt>
      <trkpt lat="48.379" lon="2.50748">
        <ele>51.8</ele>
        <time>2014-05-29T07:21:34Z</time>
      </trkpt>
      <trkpt lat="48.37902" lon="2.50757">
        <ele>51.8</ele>
        <time>2014-05-29T07:21:37Z</time>
      </trkpt>
      <trkpt lat="48.37907" lon="2.50779">
        <ele>51.8</ele>
        <time>2014-05-29T07:21:42Z</time>
      </trkpt>
      <trkpt lat="48.37909" lon="2.50783">
        <ele>51.8</ele>
        <time>2014-05-29T07:21:43Z</time>
      </trkpt>
      <trkpt lat="48.37916" lon="2.50817">
        <ele>51.8</ele>
        <time>2014-05-29T07:21:49Z</time>
      </trkpt>
      <trkpt lat="48.37918" lon="2.50852">
        <ele>51.8</ele>
        <time>2014-05-29T07:21:55Z</time>
      </trkpt>
      <trkpt lat="48.37918" lon="2.50864">
        <ele>51.8</ele>
        <time>2014-05-29T07:21:57Z</time>
      </trkpt>
      <trkpt lat="48.37916" lon="2.50877">
        <ele>51.8</ele>
        <time>2014-05-29T07:21:59Z</time>
      </trkpt>
      <trkpt lat="48.37912" lon="2.50896">
        <ele>51.8</ele>
        <time>2014-05-29T07:22:02Z</time>
      </trkpt>
      <trkpt lat="48.37911" lon="2.50902">
        <ele>51.8</ele>
        <time>2014-05-29T07:22:03Z</time>
      </trkpt>
      <trkpt lat="48.37907" lon="2.50933">
        <ele>51.8</ele>
        <time>2014-05-29T07:22:08Z</time>
      </trkpt>
      <trkpt lat="48.37906" lon="2.50948">
        <ele>51.8</ele>
        <time>2014-05-29T07:22:10Z</time>
      </trkpt>
      <trkpt lat="48.37907" lon="2.50997">
        <ele>51.4</ele>
        <time>2014-05-29T07:22:16Z</time>
      </trkpt>
      <trkpt lat="48.37908" lon="2.51009">
        <ele>50.6</ele>
        <time>2014-05-29T07:22:18Z</time>
      </trkpt>
      <trkpt lat="48.3791" lon="2.51028">
        <ele>49.8</ele>
        <time>2014-05-29T07:22:20Z</time>
      </trkpt>
      <trkpt lat="48.37915" lon="2.51057">
        <ele>49.8</ele>
        <time>2014-05-29T07:22:23Z</time>
      </trkpt>
      <trkpt lat="48.37914" lon="2.51091">
        <ele>49.8</ele>
        <time>2014-05-29T07:22:28Z</time>
      </trkpt>
      <trkpt lat="48.37906" lon="2.51128">
        <ele>49.8</ele>
        <time>2014-05-29T07:22:34Z</time>
      </trkpt>
      <trkpt lat="48.37898" lon="2.51146">
        <ele>49.8</ele>
        <time>2014-05-29T07:22:38Z</time>
      </trkpt>
      <trkpt lat="48.37896" lon="2.5115">
        <ele>49.8</ele>
        <time>2014-05-29T07:22:39Z</time>
      </trkpt>
      <trkpt lat="48.37892" lon="2.51156">
        <ele>49.8</ele>
        <time>2014-05-29T07:22:40Z</time>
      </trkpt>
      <trkpt lat="48.37882" lon="2.51176">
        <ele>49.8</ele>
        <time>2014-05-29T07:22:44Z</time>
      </trkpt>
      <trkpt lat="48.37871" lon="2.51204">
        <ele>49.8</ele>
        <time>2014-05-29T07:22:50Z</time>
      </trkpt>
      <trkpt lat="48.37868" lon="2.5123">
        <ele>49.8</ele>
        <time>2014-05-29T07:22:56Z</time>
      </trkpt>
      <trkpt lat="48.37863" lon="2.51249">
        <ele>50.4</ele>
        <time>2014-05-29T07:22:59Z</time>
      </trkpt>
      <trkpt lat="48.37862" lon="2.51253">
        <ele>50.8</ele>
        <time>2014-05-29T07:23:00Z</time>
      </trkpt>
      <trkpt lat="48.37858" lon="2.51256">
        <ele>51.4</ele>
        <time>2014-05-29T07:23:01Z</time>
      </trkpt>
      <trkpt lat="48.37857" lon="2.51259">
        <ele>52</ele>
        <time>2014-05-29T07:23:02Z</time>
      </trkpt>
      <trkpt lat="48.37855" lon="2.5126">
        <ele>52.4</ele>
        <time>2014-05-29T07:23:03Z</time>
      </trkpt>
      <trkpt lat="48.3785" lon="2.51261">
        <ele>52.8</ele>
        <time>2014-05-29T07:23:04Z</time>
      </trkpt>
      <trkpt lat="48.37846" lon="2.51262">
        <ele>53.2</ele>
        <time>2014-05-29T07:23:05Z</time>
      </trkpt>
      <trkpt lat="48.37843" lon="2.51264">
        <ele>53.6</ele>
        <time>2014-05-29T07:23:06Z</time>
      </trkpt>
      <trkpt lat="48.37837" lon="2.51268">
        <ele>54</ele>
        <time>2014-05-29T07:23:07Z</time>
      </trkpt>
      <trkpt lat="48.37834" lon="2.51267">
        <ele>54.4</ele>
        <time>2014-05-29T07:23:08Z</time>
      </trkpt>
      <trkpt lat="48.37818" lon="2.51259">
        <ele>54.4</ele>
        <time>2014-05-29T07:23:12Z</time>
      </trkpt>
      <trkpt lat="48.37813" lon="2.51255">
        <ele>54</ele>
        <time>2014-05-29T07:23:13Z</time>
      </trkpt>
      <trkpt lat="48.37807" lon="2.51251">
        <ele>53.6</ele>
        <time>2014-05-29T07:23:14Z</time>
      </trkpt>
      <trkpt lat="48.378" lon="2.51247">
        <ele>53.2</ele>
        <time>2014-05-29T07:23:15Z</time>
      </trkpt>
      <trkpt lat="48.37794" lon="2.51244">
        <ele>52.6</ele>
        <time>2014-05-29T07:23:16Z</time>
      </trkpt>
      <trkpt lat="48.37788" lon="2.51244">
        <ele>52</ele>
        <time>2014-05-29T07:23:17Z</time>
      </trkpt>
      <trkpt lat="48.37781" lon="2.51245">
        <ele>51.4</ele>
        <time>2014-05-29T07:23:18Z</time>
      </trkpt>
      <trkpt lat="48.37777" lon="2.51249">
        <ele>50.8</ele>
        <time>2014-05-29T07:23:19Z</time>
      </trkpt>
      <trkpt lat="48.37772" lon="2.51255">
        <ele>50.2</ele>
        <time>2014-05-29T07:23:20Z</time>
      </trkpt>
      <trkpt lat="48.37749" lon="2.51268">
        <ele>50.2</ele>
        <time>2014-05-29T07:23:24Z</time>
      </trkpt>
      <trkpt lat="48.3774" lon="2.5127">
        <ele>50.2</ele>
        <time>2014-05-29T07:23:26Z</time>
      </trkpt>
      <trkpt lat="48.37722" lon="2.51272">
        <ele>50.2</ele>
        <time>2014-05-29T07:23:29Z</time>
      </trkpt>
      <trkpt lat="48.37711" lon="2.51273">
        <ele>50.2</ele>
        <time>2014-05-29T07:23:31Z</time>
      </trkpt>
      <trkpt lat="48.37703" lon="2.51277">
        <ele>50.2</ele>
        <time>2014-05-29T07:23:33Z</time>
      </trkpt>
      <trkpt lat="48.37696" lon="2.51288">
        <ele>49.8</ele>
        <time>2014-05-29T07:23:36Z</time>
      </trkpt>
      <trkpt lat="48.37693" lon="2.51292">
        <ele>49.4</ele>
        <time>2014-05-29T07:23:37Z</time>
      </trkpt>
      <trkpt lat="48.37692" lon="2.51295">
        <ele>49</ele>
        <time>2014-05-29T07:23:38Z</time>
      </trkpt>
      <trkpt lat="48.37692" lon="2.51299">
        <ele>48.6</ele>
        <time>2014-05-29T07:23:39Z</time>
      </trkpt>
      <trkpt lat="48.37691" lon="2.51303">
        <ele>48.2</ele>
        <time>2014-05-29T07:23:40Z</time>
      </trkpt>
      <trkpt lat="48.37692" lon="2.51316">
        <ele>48.2</ele>
        <time>2014-05-29T07:23:43Z</time>
      </trkpt>
      <trkpt lat="48.37683" lon="2.51338">
        <ele>48.2</ele>
        <time>2014-05-29T07:23:48Z</time>
      </trkpt>
      <trkpt lat="48.37668" lon="2.51354">
        <ele>48.6</ele>
        <time>2014-05-29T07:23:53Z</time>
      </trkpt>
      <trkpt lat="48.37666" lon="2.51355">
        <ele>49</ele>
        <time>2014-05-29T07:23:54Z</time>
      </trkpt>
      <trkpt lat="48.37664" lon="2.51358">
        <ele>49.4</ele>
        <time>2014-05-29T07:23:55Z</time>
      </trkpt>
      <trkpt lat="48.37663" lon="2.51359">
        <ele>49.8</ele>
        <time>2014-05-29T07:23:56Z</time>
      </trkpt>
      <trkpt lat="48.37662" lon="2.5136">
        <ele>50.2</ele>
        <time>2014-05-29T07:23:57Z</time>
      </trkpt>
      <trkpt lat="48.37661" lon="2.51362">
        <ele>50.6</ele>
        <time>2014-05-29T07:23:59Z</time>
      </trkpt>
      <trkpt lat="48.37659" lon="2.51364">
        <ele>51.2</ele>
        <time>2014-05-29T07:24:00Z</time>
      </trkpt>
      <trkpt lat="48.37654" lon="2.51366">
        <ele>51.8</ele>
        <time>2014-05-29T07:24:01Z</time>
      </trkpt>
      <trkpt lat="48.37653" lon="2.51369">
        <ele>52.2</ele>
        <time>2014-05-29T07:24:02Z</time>
      </trkpt>
      <trkpt lat="48.3765" lon="2.5137">
        <ele>52.8</ele>
        <time>2014-05-29T07:24:03Z</time>
      </trkpt>
      <trkpt lat="48.37649" lon="2.51375">
        <ele>52.8</ele>
        <time>2014-05-29T07:24:05Z</time>
      </trkpt>
      <trkpt lat="48.37649" lon="2.51376">
        <ele>52.8</ele>
        <time>2014-05-29T07:24:06Z</time>
      </trkpt>
      <trkpt lat="48.37646" lon="2.51381">
        <ele>52.8</ele>
        <time>2014-05-29T07:24:07Z</time>
      </trkpt>
      <trkpt lat="48.37647" lon="2.51384">
        <ele>53.2</ele>
        <time>2014-05-29T07:24:08Z</time>
      </trkpt>
      <trkpt lat="48.37647" lon="2.51386">
        <ele>53.6</ele>
        <time>2014-05-29T07:24:09Z</time>
      </trkpt>
      <trkpt lat="48.37647" lon="2.51389">
        <ele>54.2</ele>
        <time>2014-05-29T07:24:10Z</time>
      </trkpt>
      <trkpt lat="48.37647" lon="2.51392">
        <ele>54.6</ele>
        <time>2014-05-29T07:24:11Z</time>
      </trkpt>
      <trkpt lat="48.37647" lon="2.51393">
        <ele>55</ele>
        <time>2014-05-29T07:24:12Z</time>
      </trkpt>
      <trkpt lat="48.37647" lon="2.51395">
        <ele>55</ele>
        <time>2014-05-29T07:24:13Z</time>
      </trkpt>
      <trkpt lat="48.37641" lon="2.51401">
        <ele>55.4</ele>
        <time>2014-05-29T07:24:17Z</time>
      </trkpt>
      <trkpt lat="48.37636" lon="2.51403">
        <ele>56</ele>
        <time>2014-05-29T07:24:18Z</time>
      </trkpt>
      <trkpt lat="48.37633" lon="2.51404">
        <ele>56.4</ele>
        <time>2014-05-29T07:24:19Z</time>
      </trkpt>
      <trkpt lat="48.37631" lon="2.51405">
        <ele>56.8</ele>
        <time>2014-05-29T07:24:20Z</time>
      </trkpt>
      <trkpt lat="48.37629" lon="2.51406">
        <ele>57.2</ele>
        <time>2014-05-29T07:24:21Z</time>
      </trkpt>
      <trkpt lat="48.37628" lon="2.51409">
        <ele>57.6</ele>
        <time>2014-05-29T07:24:23Z</time>
      </trkpt>
      <trkpt lat="48.37625" lon="2.51411">
        <ele>58</ele>
        <time>2014-05-29T07:24:24Z</time>
      </trkpt>
      <trkpt lat="48.37624" lon="2.51414">
        <ele>58.4</ele>
        <time>2014-05-29T07:24:25Z</time>
      </trkpt>
      <trkpt lat="48.37622" lon="2.51416">
        <ele>58.8</ele>
        <time>2014-05-29T07:24:26Z</time>
      </trkpt>
      <trkpt lat="48.37621" lon="2.51417">
        <ele>59.2</ele>
        <time>2014-05-29T07:24:27Z</time>
      </trkpt>
      <trkpt lat="48.3756" lon="2.5144">
        <ele>59.2</ele>
        <time>2014-05-29T07:24:33Z</time>
      </trkpt>
      <trkpt lat="48.37544" lon="2.51441">
        <ele>59.2</ele>
        <time>2014-05-29T07:24:38Z</time>
      </trkpt>
      <trkpt lat="48.37541" lon="2.5144">
        <ele>59.2</ele>
        <time>2014-05-29T07:24:39Z</time>
      </trkpt>
      <trkpt lat="48.37527" lon="2.5144">
        <ele>59.2</ele>
        <time>2014-05-29T07:24:43Z</time>
      </trkpt>
      <trkpt lat="48.37519" lon="2.51441">
        <ele>59.2</ele>
        <time>2014-05-29T07:24:45Z</time>
      </trkpt>
      <trkpt lat="48.3751" lon="2.51446">
        <ele>59.2</ele>
        <time>2014-05-29T07:24:49Z</time>
      </trkpt>
      <trkpt lat="48.37508" lon="2.51449">
        <ele>59.2</ele>
        <time>2014-05-29T07:24:52Z</time>
      </trkpt>
      <trkpt lat="48.37508" lon="2.51451">
        <ele>59.2</ele>
        <time>2014-05-29T07:24:53Z</time>
      </trkpt>
      <trkpt lat="48.37497" lon="2.51465">
        <ele>59.2</ele>
        <time>2014-05-29T07:24:58Z</time>
      </trkpt>
      <trkpt lat="48.37492" lon="2.51471">
        <ele>59.2</ele>
        <time>2014-05-29T07:25:00Z</time>
      </trkpt>
      <trkpt lat="48.37488" lon="2.51478">
        <ele>59.2</ele>
        <time>2014-05-29T07:25:04Z</time>
      </trkpt>
      <trkpt lat="48.37489" lon="2.5148">
        <ele>59.2</ele>
        <time>2014-05-29T07:25:06Z</time>
      </trkpt>
      <trkpt lat="48.37488" lon="2.51483">
        <ele>59.6</ele>
        <time>2014-05-29T07:25:07Z</time>
      </trkpt>
      <trkpt lat="48.37486" lon="2.51489">
        <ele>60</ele>
        <time>2014-05-29T07:25:08Z</time>
      </trkpt>
      <trkpt lat="48.37485" lon="2.51494">
        <ele>60.4</ele>
        <time>2014-05-29T07:25:09Z</time>
      </trkpt>
      <trkpt lat="48.37484" lon="2.51496">
        <ele>60.8</ele>
        <time>2014-05-29T07:25:10Z</time>
      </trkpt>
      <trkpt lat="48.37483" lon="2.515">
        <ele>61.2</ele>
        <time>2014-05-29T07:25:11Z</time>
      </trkpt>
      <trkpt lat="48.37482" lon="2.51503">
        <ele>61.2</ele>
        <time>2014-05-29T07:25:12Z</time>
      </trkpt>
      <trkpt lat="48.37476" lon="2.51514">
        <ele>61.8</ele>
        <time>2014-05-29T07:25:17Z</time>
      </trkpt>
      <trkpt lat="48.37475" lon="2.51517">
        <ele>62.2</ele>
        <time>2014-05-29T07:25:18Z</time>
      </trkpt>
      <trkpt lat="48.37474" lon="2.51518">
        <ele>62.6</ele>
        <time>2014-05-29T07:25:19Z</time>
      </trkpt>
      <trkpt lat="48.37473" lon="2.5152">
        <ele>63</ele>
        <time>2014-05-29T07:25:20Z</time>
      </trkpt>
      <trkpt lat="48.37474" lon="2.51521">
        <ele>63.6</ele>
        <time>2014-05-29T07:25:21Z</time>
      </trkpt>
      <trkpt lat="48.37473" lon="2.51524">
        <ele>64</ele>
        <time>2014-05-29T07:25:23Z</time>
      </trkpt>
      <trkpt lat="48.37471" lon="2.51527">
        <ele>64.4</ele>
        <time>2014-05-29T07:25:24Z</time>
      </trkpt>
      <trkpt lat="48.3747" lon="2.51529">
        <ele>64.8</ele>
        <time>2014-05-29T07:25:25Z</time>
      </trkpt>
      <trkpt lat="48.3747" lon="2.51531">
        <ele>65.2</ele>
        <time>2014-05-29T07:25:26Z</time>
      </trkpt>
      <trkpt lat="48.3747" lon="2.51535">
        <ele>65.6</ele>
        <time>2014-05-29T07:25:27Z</time>
      </trkpt>
      <trkpt lat="48.3747" lon="2.51539">
        <ele>65.6</ele>
        <time>2014-05-29T07:25:29Z</time>
      </trkpt>
      <trkpt lat="48.3747" lon="2.51546">
        <ele>66</ele>
        <time>2014-05-29T07:25:32Z</time>
      </trkpt>
      <trkpt lat="48.3747" lon="2.51549">
        <ele>66.6</ele>
        <time>2014-05-29T07:25:33Z</time>
      </trkpt>
      <trkpt lat="48.3747" lon="2.51553">
        <ele>67</ele>
        <time>2014-05-29T07:25:34Z</time>
      </trkpt>
      <trkpt lat="48.37471" lon="2.51557">
        <ele>67.4</ele>
        <time>2014-05-29T07:25:35Z</time>
      </trkpt>
      <trkpt lat="48.37471" lon="2.5156">
        <ele>67.8</ele>
        <time>2014-05-29T07:25:36Z</time>
      </trkpt>
      <trkpt lat="48.37472" lon="2.51564">
        <ele>67.8</ele>
        <time>2014-05-29T07:25:37Z</time>
      </trkpt>
      <trkpt lat="48.37477" lon="2.51584">
        <ele>68.2</ele>
        <time>2014-05-29T07:25:44Z</time>
      </trkpt>
      <trkpt lat="48.37478" lon="2.51587">
        <ele>68.6</ele>
        <time>2014-05-29T07:25:45Z</time>
      </trkpt>
      <trkpt lat="48.37477" lon="2.5159">
        <ele>69</ele>
        <time>2014-05-29T07:25:46Z</time>
      </trkpt>
      <trkpt lat="48.37476" lon="2.51592">
        <ele>69.4</ele>
        <time>2014-05-29T07:25:47Z</time>
      </trkpt>
      <trkpt lat="48.37476" lon="2.51594">
        <ele>69.8</ele>
        <time>2014-05-29T07:25:48Z</time>
      </trkpt>
      <trkpt lat="48.37477" lon="2.51606">
        <ele>69.8</ele>
        <time>2014-05-29T07:25:53Z</time>
      </trkpt>
      <trkpt lat="48.37478" lon="2.5161">
        <ele>70.4</ele>
        <time>2014-05-29T07:25:54Z</time>
      </trkpt>
      <trkpt lat="48.37479" lon="2.51613">
        <ele>70.8</ele>
        <time>2014-05-29T07:25:55Z</time>
      </trkpt>
      <trkpt lat="48.37479" lon="2.51615">
        <ele>71.2</ele>
        <time>2014-05-29T07:25:56Z</time>
      </trkpt>
      <trkpt lat="48.37481" lon="2.51617">
        <ele>71.6</ele>
        <time>2014-05-29T07:25:57Z</time>
      </trkpt>
      <trkpt lat="48.37483" lon="2.51619">
        <ele>72</ele>
        <time>2014-05-29T07:25:58Z</time>
      </trkpt>
      <trkpt lat="48.37486" lon="2.51626">
        <ele>72</ele>
        <time>2014-05-29T07:26:01Z</time>
      </trkpt>
      <trkpt lat="48.37488" lon="2.51628">
        <ele>72.4</ele>
        <time>2014-05-29T07:26:02Z</time>
      </trkpt>
      <trkpt lat="48.37488" lon="2.51631">
        <ele>72.8</ele>
        <time>2014-05-29T07:26:03Z</time>
      </trkpt>
      <trkpt lat="48.37488" lon="2.51633">
        <ele>73.2</ele>
        <time>2014-05-29T07:26:04Z</time>
      </trkpt>
      <trkpt lat="48.37488" lon="2.51635">
        <ele>73.6</ele>
        <time>2014-05-29T07:26:05Z</time>
      </trkpt>
      <trkpt lat="48.37489" lon="2.51636">
        <ele>74</ele>
        <time>2014-05-29T07:26:06Z</time>
      </trkpt>
      <trkpt lat="48.37495" lon="2.51642">
        <ele>74</ele>
        <time>2014-05-29T07:26:10Z</time>
      </trkpt>
      <trkpt lat="48.37503" lon="2.51653">
        <ele>74.4</ele>
        <time>2014-05-29T07:26:13Z</time>
      </trkpt>
      <trkpt lat="48.37506" lon="2.51657">
        <ele>74.8</ele>
        <time>2014-05-29T07:26:14Z</time>
      </trkpt>
      <trkpt lat="48.37509" lon="2.5166">
        <ele>75.2</ele>
        <time>2014-05-29T07:26:15Z</time>
      </trkpt>
      <trkpt lat="48.37511" lon="2.51661">
        <ele>75.6</ele>
        <time>2014-05-29T07:26:16Z</time>
      </trkpt>
      <trkpt lat="48.37512" lon="2.51664">
        <ele>76</ele>
        <time>2014-05-29T07:26:17Z</time>
      </trkpt>
      <trkpt lat="48.37516" lon="2.51671">
        <ele>76.4</ele>
        <time>2014-05-29T07:26:21Z</time>
      </trkpt>
      <trkpt lat="48.37516" lon="2.51674">
        <ele>76.8</ele>
        <time>2014-05-29T07:26:22Z</time>
      </trkpt>
      <trkpt lat="48.37517" lon="2.51677">
        <ele>77.4</ele>
        <time>2014-05-29T07:26:23Z</time>
      </trkpt>
      <trkpt lat="48.37517" lon="2.5168">
        <ele>77.8</ele>
        <time>2014-05-29T07:26:24Z</time>
      </trkpt>
      <trkpt lat="48.37518" lon="2.51682">
        <ele>78.2</ele>
        <time>2014-05-29T07:26:25Z</time>
      </trkpt>
      <trkpt lat="48.3752" lon="2.51692">
        <ele>78.6</ele>
        <time>2014-05-29T07:26:29Z</time>
      </trkpt>
      <trkpt lat="48.3752" lon="2.51694">
        <ele>79</ele>
        <time>2014-05-29T07:26:30Z</time>
      </trkpt>
      <trkpt lat="48.37521" lon="2.51695">
        <ele>79.4</ele>
        <time>2014-05-29T07:26:31Z</time>
      </trkpt>
      <trkpt lat="48.37522" lon="2.51697">
        <ele>79.8</ele>
        <time>2014-05-29T07:26:32Z</time>
      </trkpt>
      <trkpt lat="48.37522" lon="2.51698">
        <ele>80.2</ele>
        <time>2014-05-29T07:26:33Z</time>
      </trkpt>
      <trkpt lat="48.37524" lon="2.51703">
        <ele>80.6</ele>
        <time>2014-05-29T07:26:35Z</time>
      </trkpt>
      <trkpt lat="48.37524" lon="2.51705">
        <ele>81.2</ele>
        <time>2014-05-29T07:26:36Z</time>
      </trkpt>
      <trkpt lat="48.37525" lon="2.51706">
        <ele>81.6</ele>
        <time>2014-05-29T07:26:37Z</time>
      </trkpt>
      <trkpt lat="48.37525" lon="2.51708">
        <ele>82</ele>
        <time>2014-05-29T07:26:38Z</time>
      </trkpt>
      <trkpt lat="48.37527" lon="2.5171">
        <ele>82.4</ele>
        <time>2014-05-29T07:26:39Z</time>
      </trkpt>
      <trkpt lat="48.37532" lon="2.51719">
        <ele>82.8</ele>
        <time>2014-05-29T07:26:43Z</time>
      </trkpt>
      <trkpt lat="48.37533" lon="2.51723">
        <ele>83.2</ele>
        <time>2014-05-29T07:26:44Z</time>
      </trkpt>
      <trkpt lat="48.37534" lon="2.51725">
        <ele>83.6</ele>
        <time>2014-05-29T07:26:45Z</time>
      </trkpt>
      <trkpt lat="48.37534" lon="2.51727">
        <ele>84</ele>
        <time>2014-05-29T07:26:46Z</time>
      </trkpt>
      <trkpt lat="48.37535" lon="2.51729">
        <ele>84.4</ele>
        <time>2014-05-29T07:26:47Z</time>
      </trkpt>
      <trkpt lat="48.37538" lon="2.51732">
        <ele>84.4</ele>
        <time>2014-05-29T07:26:51Z</time>
      </trkpt>
      <trkpt lat="48.37544" lon="2.51744">
        <ele>84.4</ele>
        <time>2014-05-29T07:26:57Z</time>
      </trkpt>
      <trkpt lat="48.37548" lon="2.51758">
        <ele>84.4</ele>
        <time>2014-05-29T07:27:03Z</time>
      </trkpt>
      <trkpt lat="48.37549" lon="2.5176">
        <ele>84.4</ele>
        <time>2014-05-29T07:27:05Z</time>
      </trkpt>
      <trkpt lat="48.37552" lon="2.51764">
        <ele>84.4</ele>
        <time>2014-05-29T07:27:08Z</time>
      </trkpt>
      <trkpt lat="48.37551" lon="2.51766">
        <ele>84.4</ele>
        <time>2014-05-29T07:27:10Z</time>
      </trkpt>
      <trkpt lat="48.37552" lon="2.51767">
        <ele>84</ele>
        <time>2014-05-29T07:27:11Z</time>
      </trkpt>
      <trkpt lat="48.37551" lon="2.5177">
        <ele>83.6</ele>
        <time>2014-05-29T07:27:12Z</time>
      </trkpt>
      <trkpt lat="48.37549" lon="2.51773">
        <ele>82.8</ele>
        <time>2014-05-29T07:27:13Z</time>
      </trkpt>
      <trkpt lat="48.37548" lon="2.51779">
        <ele>81.8</ele>
        <time>2014-05-29T07:27:14Z</time>
      </trkpt>
      <trkpt lat="48.37548" lon="2.51784">
        <ele>80.8</ele>
        <time>2014-05-29T07:27:15Z</time>
      </trkpt>
      <trkpt lat="48.37547" lon="2.51788">
        <ele>80</ele>
        <time>2014-05-29T07:27:16Z</time>
      </trkpt>
      <trkpt lat="48.37547" lon="2.51792">
        <ele>78.8</ele>
        <time>2014-05-29T07:27:17Z</time>
      </trkpt>
      <trkpt lat="48.37548" lon="2.51795">
        <ele>77.8</ele>
        <time>2014-05-29T07:27:18Z</time>
      </trkpt>
      <trkpt lat="48.37547" lon="2.51799">
        <ele>76.6</ele>
        <time>2014-05-29T07:27:19Z</time>
      </trkpt>
      <trkpt lat="48.37548" lon="2.51803">
        <ele>75.6</ele>
        <time>2014-05-29T07:27:20Z</time>
      </trkpt>
      <trkpt lat="48.37548" lon="2.5181">
        <ele>74.6</ele>
        <time>2014-05-29T07:27:21Z</time>
      </trkpt>
      <trkpt lat="48.37546" lon="2.51815">
        <ele>73.4</ele>
        <time>2014-05-29T07:27:22Z</time>
      </trkpt>
      <trkpt lat="48.37545" lon="2.51819">
        <ele>72.4</ele>
        <time>2014-05-29T07:27:23Z</time>
      </trkpt>
      <trkpt lat="48.37545" lon="2.5183">
        <ele>71.2</ele>
        <time>2014-05-29T07:27:24Z</time>
      </trkpt>
      <trkpt lat="48.37545" lon="2.51835">
        <ele>70.2</ele>
        <time>2014-05-29T07:27:25Z</time>
      </trkpt>
      <trkpt lat="48.37548" lon="2.5184">
        <ele>69.4</ele>
        <time>2014-05-29T07:27:26Z</time>
      </trkpt>
      <trkpt lat="48.3755" lon="2.51845">
        <ele>68.4</ele>
        <time>2014-05-29T07:27:27Z</time>
      </trkpt>
      <trkpt lat="48.37551" lon="2.5185">
        <ele>67.4</ele>
        <time>2014-05-29T07:27:28Z</time>
      </trkpt>
      <trkpt lat="48.37552" lon="2.51853">
        <ele>66.6</ele>
        <time>2014-05-29T07:27:29Z</time>
      </trkpt>
      <trkpt lat="48.37551" lon="2.51857">
        <ele>65.6</ele>
        <time>2014-05-29T07:27:30Z</time>
      </trkpt>
      <trkpt lat="48.37552" lon="2.51861">
        <ele>64.4</ele>
        <time>2014-05-29T07:27:31Z</time>
      </trkpt>
      <trkpt lat="48.37555" lon="2.51863">
        <ele>63.4</ele>
        <time>2014-05-29T07:27:32Z</time>
      </trkpt>
      <trkpt lat="48.37556" lon="2.51868">
        <ele>62.4</ele>
        <time>2014-05-29T07:27:33Z</time>
      </trkpt>
      <trkpt lat="48.37556" lon="2.51874">
        <ele>61.4</ele>
        <time>2014-05-29T07:27:34Z</time>
      </trkpt>
      <trkpt lat="48.37556" lon="2.5188">
        <ele>61</ele>
        <time>2014-05-29T07:27:35Z</time>
      </trkpt>
      <trkpt lat="48.37557" lon="2.51884">
        <ele>60.4</ele>
        <time>2014-05-29T07:27:36Z</time>
      </trkpt>
      <trkpt lat="48.37556" lon="2.51893">
        <ele>60</ele>
        <time>2014-05-29T07:27:37Z</time>
      </trkpt>
      <trkpt lat="48.37555" lon="2.51898">
        <ele>59.4</ele>
        <time>2014-05-29T07:27:38Z</time>
      </trkpt>
      <trkpt lat="48.37553" lon="2.51903">
        <ele>58.6</ele>
        <time>2014-05-29T07:27:39Z</time>
      </trkpt>
      <trkpt lat="48.37551" lon="2.51905">
        <ele>58</ele>
        <time>2014-05-29T07:27:40Z</time>
      </trkpt>
      <trkpt lat="48.3755" lon="2.51909">
        <ele>57.4</ele>
        <time>2014-05-29T07:27:41Z</time>
      </trkpt>
      <trkpt lat="48.3755" lon="2.51913">
        <ele>56.8</ele>
        <time>2014-05-29T07:27:42Z</time>
      </trkpt>
      <trkpt lat="48.37549" lon="2.51918">
        <ele>56.8</ele>
        <time>2014-05-29T07:27:43Z</time>
      </trkpt>
      <trkpt lat="48.37549" lon="2.51923">
        <ele>56.4</ele>
        <time>2014-05-29T07:27:44Z</time>
      </trkpt>
      <trkpt lat="48.37549" lon="2.51927">
        <ele>56</ele>
        <time>2014-05-29T07:27:45Z</time>
      </trkpt>
      <trkpt lat="48.37548" lon="2.5193">
        <ele>55.6</ele>
        <time>2014-05-29T07:27:46Z</time>
      </trkpt>
      <trkpt lat="48.37547" lon="2.51934">
        <ele>55.2</ele>
        <time>2014-05-29T07:27:47Z</time>
      </trkpt>
      <trkpt lat="48.37543" lon="2.5194">
        <ele>54.8</ele>
        <time>2014-05-29T07:28:28Z</time>
      </trkpt>
      <trkpt lat="48.37544" lon="2.51941">
        <ele>54.8</ele>
        <time>2014-05-29T07:28:29Z</time>
      </trkpt>
      <trkpt lat="48.37533" lon="2.51945">
        <ele>54.8</ele>
        <time>2014-05-29T07:28:34Z</time>
      </trkpt>
      <trkpt lat="48.37524" lon="2.51949">
        <ele>54.8</ele>
        <time>2014-05-29T07:28:35Z</time>
      </trkpt>
      <trkpt lat="48.37513" lon="2.51953">
        <ele>54.8</ele>
        <time>2014-05-29T07:28:36Z</time>
      </trkpt>
      <trkpt lat="48.37465" lon="2.51949">
        <ele>54.8</ele>
        <time>2014-05-29T07:28:44Z</time>
      </trkpt>
      <trkpt lat="48.37442" lon="2.51941">
        <ele>54.2</ele>
        <time>2014-05-29T07:28:49Z</time>
      </trkpt>
      <trkpt lat="48.37437" lon="2.51938">
        <ele>53.8</ele>
        <time>2014-05-29T07:28:50Z</time>
      </trkpt>
      <trkpt lat="48.37431" lon="2.51936">
        <ele>53.4</ele>
        <time>2014-05-29T07:28:51Z</time>
      </trkpt>
      <trkpt lat="48.37427" lon="2.51934">
        <ele>53</ele>
        <time>2014-05-29T07:28:52Z</time>
      </trkpt>
      <trkpt lat="48.37422" lon="2.51932">
        <ele>52.6</ele>
        <time>2014-05-29T07:28:53Z</time>
      </trkpt>
      <trkpt lat="48.37405" lon="2.51927">
        <ele>52.6</ele>
        <time>2014-05-29T07:28:57Z</time>
      </trkpt>
      <trkpt lat="48.37382" lon="2.51914">
        <ele>52.6</ele>
        <time>2014-05-29T07:29:03Z</time>
      </trkpt>
      <trkpt lat="48.3736" lon="2.51893">
        <ele>52.6</ele>
        <time>2014-05-29T07:29:09Z</time>
      </trkpt>
      <trkpt lat="48.37335" lon="2.51856">
        <ele>52.6</ele>
        <time>2014-05-29T07:29:17Z</time>
      </trkpt>
      <trkpt lat="48.37331" lon="2.51853">
        <ele>52.2</ele>
        <time>2014-05-29T07:29:18Z</time>
      </trkpt>
      <trkpt lat="48.37327" lon="2.5185">
        <ele>51.8</ele>
        <time>2014-05-29T07:29:19Z</time>
      </trkpt>
      <trkpt lat="48.37322" lon="2.51849">
        <ele>51.4</ele>
        <time>2014-05-29T07:29:20Z</time>
      </trkpt>
      <trkpt lat="48.37318" lon="2.51848">
        <ele>51</ele>
        <time>2014-05-29T07:29:21Z</time>
      </trkpt>
      <trkpt lat="48.37302" lon="2.51852">
        <ele>50.6</ele>
        <time>2014-05-29T07:29:26Z</time>
      </trkpt>
      <trkpt lat="48.37298" lon="2.51855">
        <ele>50.2</ele>
        <time>2014-05-29T07:29:27Z</time>
      </trkpt>
      <trkpt lat="48.37296" lon="2.51858">
        <ele>49.8</ele>
        <time>2014-05-29T07:29:28Z</time>
      </trkpt>
      <trkpt lat="48.37293" lon="2.51863">
        <ele>49.2</ele>
        <time>2014-05-29T07:29:29Z</time>
      </trkpt>
      <trkpt lat="48.37288" lon="2.51866">
        <ele>48.8</ele>
        <time>2014-05-29T07:29:30Z</time>
      </trkpt>
      <trkpt lat="48.37283" lon="2.51872">
        <ele>48.4</ele>
        <time>2014-05-29T07:29:31Z</time>
      </trkpt>
      <trkpt lat="48.37275" lon="2.51876">
        <ele>48.4</ele>
        <time>2014-05-29T07:29:33Z</time>
      </trkpt>
      <trkpt lat="48.37264" lon="2.51883">
        <ele>48.4</ele>
        <time>2014-05-29T07:29:36Z</time>
      </trkpt>
      <trkpt lat="48.37255" lon="2.51891">
        <ele>48.4</ele>
        <time>2014-05-29T07:29:39Z</time>
      </trkpt>
      <trkpt lat="48.37237" lon="2.51902">
        <ele>48.4</ele>
        <time>2014-05-29T07:29:44Z</time>
      </trkpt>
      <trkpt lat="48.37234" lon="2.51904">
        <ele>48.4</ele>
        <time>2014-05-29T07:29:45Z</time>
      </trkpt>
      <trkpt lat="48.37213" lon="2.51916">
        <ele>48.4</ele>
        <time>2014-05-29T07:29:50Z</time>
      </trkpt>
      <trkpt lat="48.37212" lon="2.5194">
        <ele>48.4</ele>
        <time>2014-05-29T07:29:54Z</time>
      </trkpt>
      <trkpt lat="48.37212" lon="2.51949">
        <ele>48.4</ele>
        <time>2014-05-29T07:29:55Z</time>
      </trkpt>
      <trkpt lat="48.37217" lon="2.5198">
        <ele>48.4</ele>
        <time>2014-05-29T07:29:59Z</time>
      </trkpt>
      <trkpt lat="48.37223" lon="2.5202">
        <ele>48.4</ele>
        <time>2014-05-29T07:30:05Z</time>
      </trkpt>
      <trkpt lat="48.37225" lon="2.52028">
        <ele>48.4</ele>
        <time>2014-05-29T07:30:06Z</time>
      </trkpt>
      <trkpt lat="48.37227" lon="2.52054">
        <ele>48.4</ele>
        <time>2014-05-29T07:30:11Z</time>
      </trkpt>
      <trkpt lat="48.37218" lon="2.52062">
        <ele>48.4</ele>
        <time>2014-05-29T07:30:15Z</time>
      </trkpt>
      <trkpt lat="48.37198" lon="2.52067">
        <ele>48.4</ele>
        <time>2014-05-29T07:30:19Z</time>
      </trkpt>
      <trkpt lat="48.37168" lon="2.52085">
        <ele>48.4</ele>
        <time>2014-05-29T07:30:25Z</time>
      </trkpt>
      <trkpt lat="48.37132" lon="2.52108">
        <ele>48.4</ele>
        <time>2014-05-29T07:30:32Z</time>
      </trkpt>
      <trkpt lat="48.37098" lon="2.52126">
        <ele>48.4</ele>
        <time>2014-05-29T07:30:39Z</time>
      </trkpt>
      <trkpt lat="48.37086" lon="2.52131">
        <ele>48.4</ele>
        <time>2014-05-29T07:30:42Z</time>
      </trkpt>
      <trkpt lat="48.37079" lon="2.52132">
        <ele>48.4</ele>
        <time>2014-05-29T07:30:44Z</time>
      </trkpt>
      <trkpt lat="48.37048" lon="2.52152">
        <ele>48.4</ele>
        <time>2014-05-29T07:30:50Z</time>
      </trkpt>
      <trkpt lat="48.37043" lon="2.52159">
        <ele>48.4</ele>
        <time>2014-05-29T07:30:52Z</time>
      </trkpt>
      <trkpt lat="48.37032" lon="2.52166">
        <ele>48.4</ele>
        <time>2014-05-29T07:30:55Z</time>
      </trkpt>
      <trkpt lat="48.37023" lon="2.5217">
        <ele>48.4</ele>
        <time>2014-05-29T07:30:57Z</time>
      </trkpt>
      <trkpt lat="48.37009" lon="2.52175">
        <ele>48.4</ele>
        <time>2014-05-29T07:31:01Z</time>
      </trkpt>
      <trkpt lat="48.37" lon="2.52186">
        <ele>48.4</ele>
        <time>2014-05-29T07:31:06Z</time>
      </trkpt>
      <trkpt lat="48.36995" lon="2.52193">
        <ele>48.4</ele>
        <time>2014-05-29T07:31:10Z</time>
      </trkpt>
      <trkpt lat="48.36991" lon="2.52201">
        <ele>48.4</ele>
        <time>2014-05-29T07:31:15Z</time>
      </trkpt>
      <trkpt lat="48.36993" lon="2.52204">
        <ele>48.4</ele>
        <time>2014-05-29T07:31:17Z</time>
      </trkpt>
      <trkpt lat="48.36994" lon="2.52217">
        <ele>48.4</ele>
        <time>2014-05-29T07:31:22Z</time>
      </trkpt>
      <trkpt lat="48.36993" lon="2.52221">
        <ele>48.4</ele>
        <time>2014-05-29T07:31:23Z</time>
      </trkpt>
      <trkpt lat="48.36986" lon="2.5223">
        <ele>48.4</ele>
        <time>2014-05-29T07:31:28Z</time>
      </trkpt>
      <trkpt lat="48.36985" lon="2.52232">
        <ele>48.4</ele>
        <time>2014-05-29T07:31:29Z</time>
      </trkpt>
      <trkpt lat="48.36982" lon="2.52237">
        <ele>49</ele>
        <time>2014-05-29T07:31:32Z</time>
      </trkpt>
      <trkpt lat="48.36982" lon="2.52237">
        <ele>49.4</ele>
        <time>2014-05-29T07:31:33Z</time>
      </trkpt>
      <trkpt lat="48.36982" lon="2.52238">
        <ele>50</ele>
        <time>2014-05-29T07:31:34Z</time>
      </trkpt>
      <trkpt lat="48.3698" lon="2.52237">
        <ele>50.4</ele>
        <time>2014-05-29T07:31:35Z</time>
      </trkpt>
      <trkpt lat="48.36977" lon="2.52239">
        <ele>50.8</ele>
        <time>2014-05-29T07:31:36Z</time>
      </trkpt>
      <trkpt lat="48.36954" lon="2.52266">
        <ele>50.8</ele>
        <time>2014-05-29T07:31:41Z</time>
      </trkpt>
      <trkpt lat="48.36953" lon="2.52266">
        <ele>50.8</ele>
        <time>2014-05-29T07:31:42Z</time>
      </trkpt>
      <trkpt lat="48.36954" lon="2.52281">
        <ele>50.8</ele>
        <time>2014-05-29T07:31:46Z</time>
      </trkpt>
      <trkpt lat="48.36941" lon="2.52308">
        <ele>50.8</ele>
        <time>2014-05-29T07:31:50Z</time>
      </trkpt>
      <trkpt lat="48.36933" lon="2.52323">
        <ele>50.8</ele>
        <time>2014-05-29T07:31:52Z</time>
      </trkpt>
      <trkpt lat="48.36929" lon="2.52341">
        <ele>50.8</ele>
        <time>2014-05-29T07:31:54Z</time>
      </trkpt>
      <trkpt lat="48.36928" lon="2.52354">
        <ele>50.8</ele>
        <time>2014-05-29T07:31:56Z</time>
      </trkpt>
      <trkpt lat="48.36927" lon="2.52387">
        <ele>50.8</ele>
        <time>2014-05-29T07:32:01Z</time>
      </trkpt>
      <trkpt lat="48.36928" lon="2.5241">
        <ele>50.8</ele>
        <time>2014-05-29T07:32:03Z</time>
      </trkpt>
      <trkpt lat="48.36927" lon="2.52436">
        <ele>50.8</ele>
        <time>2014-05-29T07:32:06Z</time>
      </trkpt>
      <trkpt lat="48.36927" lon="2.52443">
        <ele>50.8</ele>
        <time>2014-05-29T07:32:07Z</time>
      </trkpt>
      <trkpt lat="48.36925" lon="2.52483">
        <ele>50.8</ele>
        <time>2014-05-29T07:32:12Z</time>
      </trkpt>
      <trkpt lat="48.36926" lon="2.52488">
        <ele>50.8</ele>
        <time>2014-05-29T07:32:13Z</time>
      </trkpt>
      <trkpt lat="48.36934" lon="2.52509">
        <ele>50.8</ele>
        <time>2014-05-29T07:32:16Z</time>
      </trkpt>
      <trkpt lat="48.36938" lon="2.52518">
        <ele>50.8</ele>
        <time>2014-05-29T07:32:17Z</time>
      </trkpt>
      <trkpt lat="48.36941" lon="2.52524">
        <ele>50.8</ele>
        <time>2014-05-29T07:32:18Z</time>
      </trkpt>
      <trkpt lat="48.36956" lon="2.52554">
        <ele>50.8</ele>
        <time>2014-05-29T07:32:23Z</time>
      </trkpt>
      <trkpt lat="48.36959" lon="2.52563">
        <ele>50.8</ele>
        <time>2014-05-29T07:32:24Z</time>
      </trkpt>
      <trkpt lat="48.36966" lon="2.52586">
        <ele>50.8</ele>
        <time>2014-05-29T07:32:27Z</time>
      </trkpt>
      <trkpt lat="48.36969" lon="2.52593">
        <ele>50.8</ele>
        <time>2014-05-29T07:32:28Z</time>
      </trkpt>
      <trkpt lat="48.36979" lon="2.52613">
        <ele>50.8</ele>
        <time>2014-05-29T07:32:31Z</time>
      </trkpt>
      <trkpt lat="48.36981" lon="2.52618">
        <ele>50.8</ele>
        <time>2014-05-29T07:32:32Z</time>
      </trkpt>
      <trkpt lat="48.36984" lon="2.52627">
        <ele>50.8</ele>
        <time>2014-05-29T07:32:34Z</time>
      </trkpt>
      <trkpt lat="48.36989" lon="2.5264">
        <ele>50.8</ele>
        <time>2014-05-29T07:32:37Z</time>
      </trkpt>
      <trkpt lat="48.36991" lon="2.52645">
        <ele>50.8</ele>
        <time>2014-05-29T07:32:38Z</time>
      </trkpt>
      <trkpt lat="48.37001" lon="2.52673">
        <ele>50.8</ele>
        <time>2014-05-29T07:32:43Z</time>
      </trkpt>
      <trkpt lat="48.37003" lon="2.52691">
        <ele>50.8</ele>
        <time>2014-05-29T07:32:48Z</time>
      </trkpt>
      <trkpt lat="48.37007" lon="2.52701">
        <ele>51.2</ele>
        <time>2014-05-29T07:32:52Z</time>
      </trkpt>
      <trkpt lat="48.37008" lon="2.52704">
        <ele>51.6</ele>
        <time>2014-05-29T07:32:53Z</time>
      </trkpt>
      <trkpt lat="48.3701" lon="2.52708">
        <ele>52.2</ele>
        <time>2014-05-29T07:32:54Z</time>
      </trkpt>
      <trkpt lat="48.37011" lon="2.52713">
        <ele>52.6</ele>
        <time>2014-05-29T07:32:55Z</time>
      </trkpt>
      <trkpt lat="48.37011" lon="2.52717">
        <ele>53</ele>
        <time>2014-05-29T07:32:56Z</time>
      </trkpt>
      <trkpt lat="48.37013" lon="2.52728">
        <ele>53</ele>
        <time>2014-05-29T07:33:00Z</time>
      </trkpt>
      <trkpt lat="48.37017" lon="2.52747">
        <ele>53</ele>
        <time>2014-05-29T07:33:05Z</time>
      </trkpt>
      <trkpt lat="48.37021" lon="2.52766">
        <ele>53</ele>
        <time>2014-05-29T07:33:10Z</time>
      </trkpt>
      <trkpt lat="48.37022" lon="2.52768">
        <ele>53</ele>
        <time>2014-05-29T07:33:11Z</time>
      </trkpt>
      <trkpt lat="48.37029" lon="2.52793">
        <ele>53</ele>
        <time>2014-05-29T07:33:18Z</time>
      </trkpt>
      <trkpt lat="48.37033" lon="2.52812">
        <ele>53</ele>
        <time>2014-05-29T07:33:23Z</time>
      </trkpt>
      <trkpt lat="48.37031" lon="2.52822">
        <ele>53</ele>
        <time>2014-05-29T07:33:27Z</time>
      </trkpt>
      <trkpt lat="48.37033" lon="2.52824">
        <ele>53</ele>
        <time>2014-05-29T07:33:28Z</time>
      </trkpt>
      <trkpt lat="48.37034" lon="2.52824">
        <ele>53</ele>
        <time>2014-05-29T07:33:29Z</time>
      </trkpt>
      <trkpt lat="48.37037" lon="2.52826">
        <ele>53</ele>
        <time>2014-05-29T07:33:30Z</time>
      </trkpt>
      <trkpt lat="48.37042" lon="2.52831">
        <ele>53</ele>
        <time>2014-05-29T07:33:32Z</time>
      </trkpt>
      <trkpt lat="48.3706" lon="2.52844">
        <ele>53</ele>
        <time>2014-05-29T07:33:38Z</time>
      </trkpt>
      <trkpt lat="48.37062" lon="2.52844">
        <ele>53</ele>
        <time>2014-05-29T07:33:39Z</time>
      </trkpt>
      <trkpt lat="48.37068" lon="2.5285">
        <ele>53</ele>
        <time>2014-05-29T07:33:42Z</time>
      </trkpt>
      <trkpt lat="48.37071" lon="2.52862">
        <ele>53</ele>
        <time>2014-05-29T07:33:45Z</time>
      </trkpt>
      <trkpt lat="48.37072" lon="2.52867">
        <ele>53</ele>
        <time>2014-05-29T07:33:46Z</time>
      </trkpt>
      <trkpt lat="48.37075" lon="2.52881">
        <ele>53</ele>
        <time>2014-05-29T07:33:49Z</time>
      </trkpt>
      <trkpt lat="48.37077" lon="2.52885">
        <ele>53</ele>
        <time>2014-05-29T07:33:50Z</time>
      </trkpt>
      <trkpt lat="48.37085" lon="2.52896">
        <ele>53</ele>
        <time>2014-05-29T07:33:53Z</time>
      </trkpt>
      <trkpt lat="48.37087" lon="2.52899">
        <ele>53</ele>
        <time>2014-05-29T07:33:54Z</time>
      </trkpt>
      <trkpt lat="48.37099" lon="2.5293">
        <ele>53</ele>
        <time>2014-05-29T07:34:00Z</time>
      </trkpt>
      <trkpt lat="48.37116" lon="2.52952">
        <ele>53</ele>
        <time>2014-05-29T07:34:07Z</time>
      </trkpt>
      <trkpt lat="48.37136" lon="2.52969">
        <ele>53</ele>
        <time>2014-05-29T07:34:13Z</time>
      </trkpt>
      <trkpt lat="48.37154" lon="2.52999">
        <ele>53</ele>
        <time>2014-05-29T07:34:19Z</time>
      </trkpt>
      <trkpt lat="48.37157" lon="2.5301">
        <ele>53</ele>
        <time>2014-05-29T07:34:20Z</time>
      </trkpt>
      <trkpt lat="48.37167" lon="2.53044">
        <ele>53</ele>
        <time>2014-05-29T07:34:24Z</time>
      </trkpt>
      <trkpt lat="48.37169" lon="2.53051">
        <ele>53</ele>
        <time>2014-05-29T07:34:25Z</time>
      </trkpt>
      <trkpt lat="48.37178" lon="2.53073">
        <ele>53</ele>
        <time>2014-05-29T07:34:28Z</time>
      </trkpt>
      <trkpt lat="48.37185" lon="2.53103">
        <ele>53</ele>
        <time>2014-05-29T07:34:33Z</time>
      </trkpt>
      <trkpt lat="48.37185" lon="2.53116">
        <ele>53</ele>
        <time>2014-05-29T07:34:35Z</time>
      </trkpt>
      <trkpt lat="48.37187" lon="2.53125">
        <ele>53</ele>
        <time>2014-05-29T07:34:37Z</time>
      </trkpt>
      <trkpt lat="48.37201" lon="2.53152">
        <ele>53</ele>
        <time>2014-05-29T07:34:42Z</time>
      </trkpt>
      <trkpt lat="48.37206" lon="2.53167">
        <ele>53</ele>
        <time>2014-05-29T07:34:46Z</time>
      </trkpt>
      <trkpt lat="48.37207" lon="2.53171">
        <ele>53</ele>
        <time>2014-05-29T07:34:47Z</time>
      </trkpt>
      <trkpt lat="48.37211" lon="2.53191">
        <ele>53</ele>
        <time>2014-05-29T07:34:51Z</time>
      </trkpt>
      <trkpt lat="48.37217" lon="2.53211">
        <ele>53</ele>
        <time>2014-05-29T07:34:57Z</time>
      </trkpt>
      <trkpt lat="48.3722" lon="2.53215">
        <ele>53</ele>
        <time>2014-05-29T07:34:58Z</time>
      </trkpt>
      <trkpt lat="48.37221" lon="2.53222">
        <ele>53</ele>
        <time>2014-05-29T07:35:00Z</time>
      </trkpt>
      <trkpt lat="48.37222" lon="2.53224">
        <ele>52.6</ele>
        <time>2014-05-29T07:35:01Z</time>
      </trkpt>
      <trkpt lat="48.37191" lon="2.53242">
        <ele>51.2</ele>
        <time>2014-05-29T07:35:04Z</time>
      </trkpt>
      <trkpt lat="48.37186" lon="2.53244">
        <ele>50.8</ele>
        <time>2014-05-29T07:35:05Z</time>
      </trkpt>
      <trkpt lat="48.3715" lon="2.53271">
        <ele>50.8</ele>
        <time>2014-05-29T07:35:10Z</time>
      </trkpt>
      <trkpt lat="48.37119" lon="2.53275">
        <ele>50.8</ele>
        <time>2014-05-29T07:35:15Z</time>
      </trkpt>
      <trkpt lat="48.37093" lon="2.53274">
        <ele>51.4</ele>
        <time>2014-05-29T07:35:23Z</time>
      </trkpt>
      <trkpt lat="48.37091" lon="2.53273">
        <ele>51.8</ele>
        <time>2014-05-29T07:35:24Z</time>
      </trkpt>
      <trkpt lat="48.37088" lon="2.53273">
        <ele>52.4</ele>
        <time>2014-05-29T07:35:25Z</time>
      </trkpt>
      <trkpt lat="48.37086" lon="2.53272">
        <ele>52.8</ele>
        <time>2014-05-29T07:35:26Z</time>
      </trkpt>
      <trkpt lat="48.37084" lon="2.53271">
        <ele>53.2</ele>
        <time>2014-05-29T07:35:27Z</time>
      </trkpt>
      <trkpt lat="48.37082" lon="2.53269">
        <ele>53.2</ele>
        <time>2014-05-29T07:35:28Z</time>
      </trkpt>
      <trkpt lat="48.37075" lon="2.53268">
        <ele>53.2</ele>
        <time>2014-05-29T07:35:30Z</time>
      </trkpt>
      <trkpt lat="48.37057" lon="2.53252">
        <ele>53.2</ele>
        <time>2014-05-29T07:35:36Z</time>
      </trkpt>
      <trkpt lat="48.37053" lon="2.53249">
        <ele>53.2</ele>
        <time>2014-05-29T07:35:37Z</time>
      </trkpt>
      <trkpt lat="48.37026" lon="2.53234">
        <ele>53.2</ele>
        <time>2014-05-29T07:35:43Z</time>
      </trkpt>
      <trkpt lat="48.37016" lon="2.53236">
        <ele>53.2</ele>
        <time>2014-05-29T07:35:45Z</time>
      </trkpt>
      <trkpt lat="48.37005" lon="2.53232">
        <ele>53.2</ele>
        <time>2014-05-29T07:35:48Z</time>
      </trkpt>
      <trkpt lat="48.36998" lon="2.53218">
        <ele>53.2</ele>
        <time>2014-05-29T07:35:51Z</time>
      </trkpt>
      <trkpt lat="48.36995" lon="2.53216">
        <ele>53.2</ele>
        <time>2014-05-29T07:35:52Z</time>
      </trkpt>
      <trkpt lat="48.36983" lon="2.53203">
        <ele>53.2</ele>
        <time>2014-05-29T07:35:56Z</time>
      </trkpt>
      <trkpt lat="48.3698" lon="2.53205">
        <ele>53.2</ele>
        <time>2014-05-29T07:35:57Z</time>
      </trkpt>
      <trkpt lat="48.36964" lon="2.53223">
        <ele>53.2</ele>
        <time>2014-05-29T07:36:04Z</time>
      </trkpt>
      <trkpt lat="48.36956" lon="2.53242">
        <ele>53.8</ele>
        <time>2014-05-29T07:36:11Z</time>
      </trkpt>
      <trkpt lat="48.36957" lon="2.53245">
        <ele>54.2</ele>
        <time>2014-05-29T07:36:12Z</time>
      </trkpt>
      <trkpt lat="48.36957" lon="2.53249">
        <ele>54.6</ele>
        <time>2014-05-29T07:36:13Z</time>
      </trkpt>
      <trkpt lat="48.36956" lon="2.53253">
        <ele>55</ele>
        <time>2014-05-29T07:36:14Z</time>
      </trkpt>
      <trkpt lat="48.36956" lon="2.53256">
        <ele>55.4</ele>
        <time>2014-05-29T07:36:15Z</time>
      </trkpt>
      <trkpt lat="48.36956" lon="2.5326">
        <ele>56</ele>
        <time>2014-05-29T07:36:16Z</time>
      </trkpt>
      <trkpt lat="48.36956" lon="2.53265">
        <ele>56.4</ele>
        <time>2014-05-29T07:36:17Z</time>
      </trkpt>
      <trkpt lat="48.36958" lon="2.53268">
        <ele>56.8</ele>
        <time>2014-05-29T07:36:18Z</time>
      </trkpt>
      <trkpt lat="48.36959" lon="2.5327">
        <ele>57.2</ele>
        <time>2014-05-29T07:36:19Z</time>
      </trkpt>
      <trkpt lat="48.3696" lon="2.53272">
        <ele>57.6</ele>
        <time>2014-05-29T07:36:20Z</time>
      </trkpt>
      <trkpt lat="48.36964" lon="2.53285">
        <ele>58</ele>
        <time>2014-05-29T07:36:25Z</time>
      </trkpt>
      <trkpt lat="48.36964" lon="2.53288">
        <ele>58.6</ele>
        <time>2014-05-29T07:36:26Z</time>
      </trkpt>
      <trkpt lat="48.36964" lon="2.53289">
        <ele>59.2</ele>
        <time>2014-05-29T07:36:27Z</time>
      </trkpt>
      <trkpt lat="48.36964" lon="2.5329">
        <ele>59.6</ele>
        <time>2014-05-29T07:36:28Z</time>
      </trkpt>
      <trkpt lat="48.36964" lon="2.53292">
        <ele>60.2</ele>
        <time>2014-05-29T07:36:29Z</time>
      </trkpt>
      <trkpt lat="48.36964" lon="2.53298">
        <ele>60.6</ele>
        <time>2014-05-29T07:36:32Z</time>
      </trkpt>
      <trkpt lat="48.36965" lon="2.533">
        <ele>61</ele>
        <time>2014-05-29T07:36:33Z</time>
      </trkpt>
      <trkpt lat="48.36965" lon="2.53301">
        <ele>61.4</ele>
        <time>2014-05-29T07:36:34Z</time>
      </trkpt>
      <trkpt lat="48.36966" lon="2.53303">
        <ele>61.8</ele>
        <time>2014-05-29T07:36:35Z</time>
      </trkpt>
      <trkpt lat="48.36967" lon="2.53305">
        <ele>62.2</ele>
        <time>2014-05-29T07:36:36Z</time>
      </trkpt>
      <trkpt lat="48.3697" lon="2.53309">
        <ele>62.8</ele>
        <time>2014-05-29T07:36:38Z</time>
      </trkpt>
      <trkpt lat="48.36971" lon="2.53312">
        <ele>63.2</ele>
        <time>2014-05-29T07:36:39Z</time>
      </trkpt>
      <trkpt lat="48.36972" lon="2.53314">
        <ele>63.6</ele>
        <time>2014-05-29T07:36:40Z</time>
      </trkpt>
      <trkpt lat="48.36972" lon="2.53315">
        <ele>64</ele>
        <time>2014-05-29T07:36:41Z</time>
      </trkpt>
      <trkpt lat="48.36972" lon="2.53316">
        <ele>64.4</ele>
        <time>2014-05-29T07:36:42Z</time>
      </trkpt>
      <trkpt lat="48.36972" lon="2.53319">
        <ele>64.8</ele>
        <time>2014-05-29T07:36:44Z</time>
      </trkpt>
      <trkpt lat="48.3697" lon="2.5332">
        <ele>65.2</ele>
        <time>2014-05-29T07:36:45Z</time>
      </trkpt>
      <trkpt lat="48.36969" lon="2.5332">
        <ele>65.6</ele>
        <time>2014-05-29T07:36:46Z</time>
      </trkpt>
      <trkpt lat="48.36969" lon="2.53322">
        <ele>66</ele>
        <time>2014-05-29T07:36:47Z</time>
      </trkpt>
      <trkpt lat="48.36968" lon="2.53325">
        <ele>66.4</ele>
        <time>2014-05-29T07:36:48Z</time>
      </trkpt>
      <trkpt lat="48.36967" lon="2.53338">
        <ele>66.8</ele>
        <time>2014-05-29T07:36:52Z</time>
      </trkpt>
      <trkpt lat="48.36967" lon="2.53341">
        <ele>67.2</ele>
        <time>2014-05-29T07:36:53Z</time>
      </trkpt>
      <trkpt lat="48.36965" lon="2.53344">
        <ele>67.8</ele>
        <time>2014-05-29T07:36:54Z</time>
      </trkpt>
      <trkpt lat="48.36965" lon="2.53347">
        <ele>68.2</ele>
        <time>2014-05-29T07:36:55Z</time>
      </trkpt>
      <trkpt lat="48.36965" lon="2.53349">
        <ele>68.6</ele>
        <time>2014-05-29T07:36:56Z</time>
      </trkpt>
      <trkpt lat="48.36966" lon="2.53365">
        <ele>68.6</ele>
        <time>2014-05-29T07:37:02Z</time>
      </trkpt>
      <trkpt lat="48.36966" lon="2.5337">
        <ele>69.2</ele>
        <time>2014-05-29T07:37:04Z</time>
      </trkpt>
      <trkpt lat="48.36966" lon="2.53374">
        <ele>69.6</ele>
        <time>2014-05-29T07:37:05Z</time>
      </trkpt>
      <trkpt lat="48.36966" lon="2.53376">
        <ele>70</ele>
        <time>2014-05-29T07:37:06Z</time>
      </trkpt>
      <trkpt lat="48.36966" lon="2.53378">
        <ele>70.6</ele>
        <time>2014-05-29T07:37:07Z</time>
      </trkpt>
      <trkpt lat="48.36966" lon="2.53381">
        <ele>71</ele>
        <time>2014-05-29T07:37:08Z</time>
      </trkpt>
      <trkpt lat="48.36967" lon="2.53384">
        <ele>71</ele>
        <time>2014-05-29T07:37:10Z</time>
      </trkpt>
      <trkpt lat="48.36966" lon="2.53388">
        <ele>71.4</ele>
        <time>2014-05-29T07:37:13Z</time>
      </trkpt>
      <trkpt lat="48.36966" lon="2.5339">
        <ele>71.8</ele>
        <time>2014-05-29T07:37:14Z</time>
      </trkpt>
      <trkpt lat="48.36966" lon="2.53392">
        <ele>72.2</ele>
        <time>2014-05-29T07:37:15Z</time>
      </trkpt>
      <trkpt lat="48.36966" lon="2.53393">
        <ele>72.6</ele>
        <time>2014-05-29T07:37:16Z</time>
      </trkpt>
      <trkpt lat="48.36966" lon="2.53394">
        <ele>73.2</ele>
        <time>2014-05-29T07:37:17Z</time>
      </trkpt>
      <trkpt lat="48.36968" lon="2.53401">
        <ele>73.2</ele>
        <time>2014-05-29T07:37:20Z</time>
      </trkpt>
      <trkpt lat="48.36963" lon="2.53402">
        <ele>73.6</ele>
        <time>2014-05-29T07:37:23Z</time>
      </trkpt>
      <trkpt lat="48.36962" lon="2.53405">
        <ele>74</ele>
        <time>2014-05-29T07:37:24Z</time>
      </trkpt>
      <trkpt lat="48.36962" lon="2.53408">
        <ele>74.4</ele>
        <time>2014-05-29T07:37:25Z</time>
      </trkpt>
      <trkpt lat="48.36961" lon="2.53409">
        <ele>74.8</ele>
        <time>2014-05-29T07:37:26Z</time>
      </trkpt>
      <trkpt lat="48.36961" lon="2.53411">
        <ele>75.2</ele>
        <time>2014-05-29T07:37:27Z</time>
      </trkpt>
      <trkpt lat="48.36958" lon="2.53418">
        <ele>75.6</ele>
        <time>2014-05-29T07:37:32Z</time>
      </trkpt>
      <trkpt lat="48.36957" lon="2.53418">
        <ele>76</ele>
        <time>2014-05-29T07:37:33Z</time>
      </trkpt>
      <trkpt lat="48.36957" lon="2.53419">
        <ele>76.4</ele>
        <time>2014-05-29T07:37:34Z</time>
      </trkpt>
      <trkpt lat="48.36955" lon="2.5342">
        <ele>77</ele>
        <time>2014-05-29T07:37:35Z</time>
      </trkpt>
      <trkpt lat="48.36954" lon="2.5342">
        <ele>77.4</ele>
        <time>2014-05-29T07:37:36Z</time>
      </trkpt>
      <trkpt lat="48.36948" lon="2.53421">
        <ele>77.8</ele>
        <time>2014-05-29T07:37:41Z</time>
      </trkpt>
      <trkpt lat="48.36947" lon="2.53422">
        <ele>78.2</ele>
        <time>2014-05-29T07:37:42Z</time>
      </trkpt>
      <trkpt lat="48.36947" lon="2.53423">
        <ele>78.6</ele>
        <time>2014-05-29T07:37:43Z</time>
      </trkpt>
      <trkpt lat="48.36947" lon="2.53424">
        <ele>79</ele>
        <time>2014-05-29T07:37:44Z</time>
      </trkpt>
      <trkpt lat="48.36946" lon="2.53425">
        <ele>79.4</ele>
        <time>2014-05-29T07:37:45Z</time>
      </trkpt>
      <trkpt lat="48.36946" lon="2.53429">
        <ele>79.4</ele>
        <time>2014-05-29T07:37:47Z</time>
      </trkpt>
      <trkpt lat="48.36946" lon="2.5343">
        <ele>79.8</ele>
        <time>2014-05-29T07:37:48Z</time>
      </trkpt>
      <trkpt lat="48.36946" lon="2.53432">
        <ele>80.2</ele>
        <time>2014-05-29T07:37:49Z</time>
      </trkpt>
      <trkpt lat="48.36946" lon="2.53433">
        <ele>80.6</ele>
        <time>2014-05-29T07:37:50Z</time>
      </trkpt>
      <trkpt lat="48.36945" lon="2.53435">
        <ele>81</ele>
        <time>2014-05-29T07:37:51Z</time>
      </trkpt>
      <trkpt lat="48.36945" lon="2.53435">
        <ele>81.4</ele>
        <time>2014-05-29T07:37:52Z</time>
      </trkpt>
      <trkpt lat="48.36946" lon="2.53437">
        <ele>81.4</ele>
        <time>2014-05-29T07:37:53Z</time>
      </trkpt>
      <trkpt lat="48.36947" lon="2.53446">
        <ele>81.8</ele>
        <time>2014-05-29T07:37:57Z</time>
      </trkpt>
      <trkpt lat="48.36948" lon="2.53449">
        <ele>82.2</ele>
        <time>2014-05-29T07:37:58Z</time>
      </trkpt>
      <trkpt lat="48.36947" lon="2.53452">
        <ele>82.6</ele>
        <time>2014-05-29T07:37:59Z</time>
      </trkpt>
      <trkpt lat="48.36948" lon="2.53456">
        <ele>83</ele>
        <time>2014-05-29T07:38:00Z</time>
      </trkpt>
      <trkpt lat="48.36948" lon="2.5346">
        <ele>83.4</ele>
        <time>2014-05-29T07:38:01Z</time>
      </trkpt>
      <trkpt lat="48.36948" lon="2.53472">
        <ele>83.4</ele>
        <time>2014-05-29T07:38:04Z</time>
      </trkpt>
      <trkpt lat="48.36948" lon="2.53477">
        <ele>83.4</ele>
        <time>2014-05-29T07:38:05Z</time>
      </trkpt>
      <trkpt lat="48.36948" lon="2.5348">
        <ele>83.4</ele>
        <time>2014-05-29T07:38:06Z</time>
      </trkpt>
      <trkpt lat="48.36948" lon="2.53495">
        <ele>84</ele>
        <time>2014-05-29T07:38:11Z</time>
      </trkpt>
      <trkpt lat="48.36946" lon="2.53498">
        <ele>84.4</ele>
        <time>2014-05-29T07:38:12Z</time>
      </trkpt>
      <trkpt lat="48.36945" lon="2.53499">
        <ele>84.8</ele>
        <time>2014-05-29T07:38:13Z</time>
      </trkpt>
      <trkpt lat="48.36944" lon="2.535">
        <ele>85.2</ele>
        <time>2014-05-29T07:38:14Z</time>
      </trkpt>
      <trkpt lat="48.36943" lon="2.53503">
        <ele>85.8</ele>
        <time>2014-05-29T07:38:15Z</time>
      </trkpt>
      <trkpt lat="48.36942" lon="2.53509">
        <ele>85.8</ele>
        <time>2014-05-29T07:38:19Z</time>
      </trkpt>
      <trkpt lat="48.36936" lon="2.53522">
        <ele>86.2</ele>
        <time>2014-05-29T07:38:27Z</time>
      </trkpt>
      <trkpt lat="48.36935" lon="2.53524">
        <ele>86.6</ele>
        <time>2014-05-29T07:38:28Z</time>
      </trkpt>
      <trkpt lat="48.36935" lon="2.53527">
        <ele>87</ele>
        <time>2014-05-29T07:38:29Z</time>
      </trkpt>
      <trkpt lat="48.36934" lon="2.53529">
        <ele>87.4</ele>
        <time>2014-05-29T07:38:30Z</time>
      </trkpt>
      <trkpt lat="48.36934" lon="2.53532">
        <ele>87.8</ele>
        <time>2014-05-29T07:38:31Z</time>
      </trkpt>
      <trkpt lat="48.36934" lon="2.53536">
        <ele>87.8</ele>
        <time>2014-05-29T07:38:33Z</time>
      </trkpt>
      <trkpt lat="48.36934" lon="2.5354">
        <ele>87.8</ele>
        <time>2014-05-29T07:38:35Z</time>
      </trkpt>
      <trkpt lat="48.36933" lon="2.53545">
        <ele>88.2</ele>
        <time>2014-05-29T07:38:37Z</time>
      </trkpt>
      <trkpt lat="48.36933" lon="2.53548">
        <ele>88.6</ele>
        <time>2014-05-29T07:38:38Z</time>
      </trkpt>
      <trkpt lat="48.36932" lon="2.5355">
        <ele>89</ele>
        <time>2014-05-29T07:38:39Z</time>
      </trkpt>
      <trkpt lat="48.36932" lon="2.53553">
        <ele>89.6</ele>
        <time>2014-05-29T07:38:40Z</time>
      </trkpt>
      <trkpt lat="48.36931" lon="2.53555">
        <ele>90</ele>
        <time>2014-05-29T07:38:41Z</time>
      </trkpt>
      <trkpt lat="48.36931" lon="2.53557">
        <ele>90</ele>
        <time>2014-05-29T07:38:42Z</time>
      </trkpt>
      <trkpt lat="48.36929" lon="2.53566">
        <ele>90.4</ele>
        <time>2014-05-29T07:38:45Z</time>
      </trkpt>
      <trkpt lat="48.36928" lon="2.53569">
        <ele>90.8</ele>
        <time>2014-05-29T07:38:46Z</time>
      </trkpt>
      <trkpt lat="48.36928" lon="2.53572">
        <ele>91.2</ele>
        <time>2014-05-29T07:38:47Z</time>
      </trkpt>
      <trkpt lat="48.36927" lon="2.53575">
        <ele>91.8</ele>
        <time>2014-05-29T07:38:48Z</time>
      </trkpt>
      <trkpt lat="48.36923" lon="2.53601">
        <ele>92.2</ele>
        <time>2014-05-29T07:38:56Z</time>
      </trkpt>
      <trkpt lat="48.36921" lon="2.53605">
        <ele>92.2</ele>
        <time>2014-05-29T07:38:57Z</time>
      </trkpt>
      <trkpt lat="48.36919" lon="2.53616">
        <ele>92.2</ele>
        <time>2014-05-29T07:39:00Z</time>
      </trkpt>
      <trkpt lat="48.36912" lon="2.53645">
        <ele>92.6</ele>
        <time>2014-05-29T07:39:07Z</time>
      </trkpt>
      <trkpt lat="48.3691" lon="2.53647">
        <ele>93.4</ele>
        <time>2014-05-29T07:39:09Z</time>
      </trkpt>
      <trkpt lat="48.3691" lon="2.53649">
        <ele>93.8</ele>
        <time>2014-05-29T07:39:10Z</time>
      </trkpt>
      <trkpt lat="48.3691" lon="2.53651">
        <ele>94.2</ele>
        <time>2014-05-29T07:39:11Z</time>
      </trkpt>
      <trkpt lat="48.3691" lon="2.53653">
        <ele>94.2</ele>
        <time>2014-05-29T07:39:12Z</time>
      </trkpt>
      <trkpt lat="48.3691" lon="2.53656">
        <ele>94.2</ele>
        <time>2014-05-29T07:39:24Z</time>
      </trkpt>
      <trkpt lat="48.3691" lon="2.53658">
        <ele>94.2</ele>
        <time>2014-05-29T07:39:25Z</time>
      </trkpt>
      <trkpt lat="48.36907" lon="2.53662">
        <ele>94.2</ele>
        <time>2014-05-29T07:39:27Z</time>
      </trkpt>
      <trkpt lat="48.36853" lon="2.53724">
        <ele>94.2</ele>
        <time>2014-05-29T07:43:43Z</time>
      </trkpt>
      <trkpt lat="48.36852" lon="2.53723">
        <ele>94.2</ele>
        <time>2014-05-29T07:43:44Z</time>
      </trkpt>
      <trkpt lat="48.36853" lon="2.53725">
        <ele>94.2</ele>
        <time>2014-05-29T07:43:46Z</time>
      </trkpt>
      <trkpt lat="48.36852" lon="2.53725">
        <ele>94.2</ele>
        <time>2014-05-29T07:43:48Z</time>
      </trkpt>
      <trkpt lat="48.36853" lon="2.53729">
        <ele>94.2</ele>
        <time>2014-05-29T07:43:51Z</time>
      </trkpt>
      <trkpt lat="48.36854" lon="2.53731">
        <ele>94.2</ele>
        <time>2014-05-29T07:43:53Z</time>
      </trkpt>
      <trkpt lat="48.36853" lon="2.53731">
        <ele>94.2</ele>
        <time>2014-05-29T07:43:54Z</time>
      </trkpt>
      <trkpt lat="48.36852" lon="2.53731">
        <ele>94.2</ele>
        <time>2014-05-29T07:43:55Z</time>
      </trkpt>
      <trkpt lat="48.36843" lon="2.53736">
        <ele>94.2</ele>
        <time>2014-05-29T07:43:58Z</time>
      </trkpt>
      <trkpt lat="48.36833" lon="2.5374">
        <ele>94.2</ele>
        <time>2014-05-29T07:44:02Z</time>
      </trkpt>
      <trkpt lat="48.36829" lon="2.53741">
        <ele>94.2</ele>
        <time>2014-05-29T07:44:03Z</time>
      </trkpt>
      <trkpt lat="48.36822" lon="2.53749">
        <ele>94.2</ele>
        <time>2014-05-29T07:44:04Z</time>
      </trkpt>
      <trkpt lat="48.36806" lon="2.53761">
        <ele>94.2</ele>
        <time>2014-05-29T07:44:06Z</time>
      </trkpt>
      <trkpt lat="48.36801" lon="2.53764">
        <ele>94.2</ele>
        <time>2014-05-29T07:44:07Z</time>
      </trkpt>
      <trkpt lat="48.36792" lon="2.53778">
        <ele>93.8</ele>
        <time>2014-05-29T07:44:11Z</time>
      </trkpt>
      <trkpt lat="48.36791" lon="2.53783">
        <ele>93.4</ele>
        <time>2014-05-29T07:44:12Z</time>
      </trkpt>
      <trkpt lat="48.36789" lon="2.53789">
        <ele>93</ele>
        <time>2014-05-29T07:44:14Z</time>
      </trkpt>
      <trkpt lat="48.36787" lon="2.53791">
        <ele>92.4</ele>
        <time>2014-05-29T07:44:15Z</time>
      </trkpt>
      <trkpt lat="48.36786" lon="2.53792">
        <ele>91.8</ele>
        <time>2014-05-29T07:44:16Z</time>
      </trkpt>
      <trkpt lat="48.36784" lon="2.53794">
        <ele>91.4</ele>
        <time>2014-05-29T07:44:17Z</time>
      </trkpt>
      <trkpt lat="48.36781" lon="2.53796">
        <ele>90.8</ele>
        <time>2014-05-29T07:44:18Z</time>
      </trkpt>
      <trkpt lat="48.36777" lon="2.53799">
        <ele>90.2</ele>
        <time>2014-05-29T07:44:19Z</time>
      </trkpt>
      <trkpt lat="48.36777" lon="2.53799">
        <ele>89.6</ele>
        <time>2014-05-29T07:44:20Z</time>
      </trkpt>
      <trkpt lat="48.36776" lon="2.53801">
        <ele>89</ele>
        <time>2014-05-29T07:44:21Z</time>
      </trkpt>
      <trkpt lat="48.36776" lon="2.53807">
        <ele>87.8</ele>
        <time>2014-05-29T07:44:23Z</time>
      </trkpt>
      <trkpt lat="48.36776" lon="2.53809">
        <ele>87.2</ele>
        <time>2014-05-29T07:44:24Z</time>
      </trkpt>
      <trkpt lat="48.36775" lon="2.5381">
        <ele>87.2</ele>
        <time>2014-05-29T07:44:25Z</time>
      </trkpt>
      <trkpt lat="48.36775" lon="2.53812">
        <ele>87.2</ele>
        <time>2014-05-29T07:44:26Z</time>
      </trkpt>
      <trkpt lat="48.36774" lon="2.53816">
        <ele>86.8</ele>
        <time>2014-05-29T07:44:28Z</time>
      </trkpt>
      <trkpt lat="48.36773" lon="2.53818">
        <ele>86.4</ele>
        <time>2014-05-29T07:44:29Z</time>
      </trkpt>
      <trkpt lat="48.36772" lon="2.53819">
        <ele>86</ele>
        <time>2014-05-29T07:44:30Z</time>
      </trkpt>
      <trkpt lat="48.36771" lon="2.5382">
        <ele>85.6</ele>
        <time>2014-05-29T07:44:31Z</time>
      </trkpt>
      <trkpt lat="48.3677" lon="2.53824">
        <ele>85.2</ele>
        <time>2014-05-29T07:44:32Z</time>
      </trkpt>
      <trkpt lat="48.36769" lon="2.53827">
        <ele>84.8</ele>
        <time>2014-05-29T07:44:33Z</time>
      </trkpt>
      <trkpt lat="48.36768" lon="2.53831">
        <ele>84.2</ele>
        <time>2014-05-29T07:44:34Z</time>
      </trkpt>
      <trkpt lat="48.36767" lon="2.53832">
        <ele>83.8</ele>
        <time>2014-05-29T07:44:35Z</time>
      </trkpt>
      <trkpt lat="48.36765" lon="2.53837">
        <ele>83.2</ele>
        <time>2014-05-29T07:44:36Z</time>
      </trkpt>
      <trkpt lat="48.36764" lon="2.53838">
        <ele>82.4</ele>
        <time>2014-05-29T07:44:37Z</time>
      </trkpt>
      <trkpt lat="48.36762" lon="2.53843">
        <ele>81.8</ele>
        <time>2014-05-29T07:44:38Z</time>
      </trkpt>
      <trkpt lat="48.36759" lon="2.53848">
        <ele>81</ele>
        <time>2014-05-29T07:44:39Z</time>
      </trkpt>
      <trkpt lat="48.36754" lon="2.53856">
        <ele>80.4</ele>
        <time>2014-05-29T07:44:40Z</time>
      </trkpt>
      <trkpt lat="48.3675" lon="2.5386">
        <ele>80.4</ele>
        <time>2014-05-29T07:44:41Z</time>
      </trkpt>
      <trkpt lat="48.36744" lon="2.5386">
        <ele>79.8</ele>
        <time>2014-05-29T07:44:43Z</time>
      </trkpt>
      <trkpt lat="48.36742" lon="2.53859">
        <ele>79.4</ele>
        <time>2014-05-29T07:44:44Z</time>
      </trkpt>
      <trkpt lat="48.36736" lon="2.53861">
        <ele>79</ele>
        <time>2014-05-29T07:44:45Z</time>
      </trkpt>
      <trkpt lat="48.36731" lon="2.53861">
        <ele>78.6</ele>
        <time>2014-05-29T07:44:46Z</time>
      </trkpt>
      <trkpt lat="48.36727" lon="2.53864">
        <ele>78</ele>
        <time>2014-05-29T07:44:47Z</time>
      </trkpt>
      <trkpt lat="48.36724" lon="2.53865">
        <ele>77.6</ele>
        <time>2014-05-29T07:44:48Z</time>
      </trkpt>
      <trkpt lat="48.36722" lon="2.53866">
        <ele>77.2</ele>
        <time>2014-05-29T07:44:49Z</time>
      </trkpt>
      <trkpt lat="48.3672" lon="2.53865">
        <ele>76.8</ele>
        <time>2014-05-29T07:44:50Z</time>
      </trkpt>
      <trkpt lat="48.36719" lon="2.53867">
        <ele>76.2</ele>
        <time>2014-05-29T07:44:51Z</time>
      </trkpt>
      <trkpt lat="48.3672" lon="2.53872">
        <ele>75.8</ele>
        <time>2014-05-29T07:44:52Z</time>
      </trkpt>
      <trkpt lat="48.36725" lon="2.53898">
        <ele>75.8</ele>
        <time>2014-05-29T07:44:56Z</time>
      </trkpt>
      <trkpt lat="48.36736" lon="2.53936">
        <ele>75.8</ele>
        <time>2014-05-29T07:45:02Z</time>
      </trkpt>
      <trkpt lat="48.36742" lon="2.53958">
        <ele>75.8</ele>
        <time>2014-05-29T07:45:06Z</time>
      </trkpt>
      <trkpt lat="48.36749" lon="2.53998">
        <ele>75.8</ele>
        <time>2014-05-29T07:45:09Z</time>
      </trkpt>
      <trkpt lat="48.36754" lon="2.54023">
        <ele>75.8</ele>
        <time>2014-05-29T07:45:14Z</time>
      </trkpt>
      <trkpt lat="48.36756" lon="2.54028">
        <ele>75.8</ele>
        <time>2014-05-29T07:45:15Z</time>
      </trkpt>
      <trkpt lat="48.36764" lon="2.54051">
        <ele>75.8</ele>
        <time>2014-05-29T07:45:19Z</time>
      </trkpt>
      <trkpt lat="48.36767" lon="2.54062">
        <ele>76.2</ele>
        <time>2014-05-29T07:45:21Z</time>
      </trkpt>
      <trkpt lat="48.36769" lon="2.54068">
        <ele>76.6</ele>
        <time>2014-05-29T07:45:22Z</time>
      </trkpt>
      <trkpt lat="48.36769" lon="2.54074">
        <ele>77</ele>
        <time>2014-05-29T07:45:23Z</time>
      </trkpt>
      <trkpt lat="48.3677" lon="2.54081">
        <ele>77.4</ele>
        <time>2014-05-29T07:45:24Z</time>
      </trkpt>
      <trkpt lat="48.36771" lon="2.54088">
        <ele>77.8</ele>
        <time>2014-05-29T07:45:25Z</time>
      </trkpt>
      <trkpt lat="48.36772" lon="2.541">
        <ele>77.8</ele>
        <time>2014-05-29T07:45:27Z</time>
      </trkpt>
      <trkpt lat="48.36776" lon="2.54118">
        <ele>77.8</ele>
        <time>2014-05-29T07:45:30Z</time>
      </trkpt>
      <trkpt lat="48.36778" lon="2.54135">
        <ele>78.4</ele>
        <time>2014-05-29T07:45:33Z</time>
      </trkpt>
      <trkpt lat="48.36778" lon="2.54141">
        <ele>78.8</ele>
        <time>2014-05-29T07:45:34Z</time>
      </trkpt>
      <trkpt lat="48.36779" lon="2.54144">
        <ele>79.2</ele>
        <time>2014-05-29T07:45:35Z</time>
      </trkpt>
      <trkpt lat="48.36779" lon="2.54148">
        <ele>79.6</ele>
        <time>2014-05-29T07:45:36Z</time>
      </trkpt>
      <trkpt lat="48.3678" lon="2.54153">
        <ele>80.2</ele>
        <time>2014-05-29T07:45:37Z</time>
      </trkpt>
      <trkpt lat="48.36782" lon="2.5417">
        <ele>80.2</ele>
        <time>2014-05-29T07:45:40Z</time>
      </trkpt>
      <trkpt lat="48.36782" lon="2.54174">
        <ele>80.6</ele>
        <time>2014-05-29T07:45:41Z</time>
      </trkpt>
      <trkpt lat="48.36782" lon="2.5418">
        <ele>81</ele>
        <time>2014-05-29T07:45:42Z</time>
      </trkpt>
      <trkpt lat="48.36784" lon="2.54186">
        <ele>81.4</ele>
        <time>2014-05-29T07:45:43Z</time>
      </trkpt>
      <trkpt lat="48.36785" lon="2.54192">
        <ele>81.8</ele>
        <time>2014-05-29T07:45:44Z</time>
      </trkpt>
      <trkpt lat="48.36786" lon="2.54198">
        <ele>82.4</ele>
        <time>2014-05-29T07:45:45Z</time>
      </trkpt>
      <trkpt lat="48.36788" lon="2.54206">
        <ele>82.8</ele>
        <time>2014-05-29T07:45:47Z</time>
      </trkpt>
      <trkpt lat="48.3679" lon="2.54209">
        <ele>83.2</ele>
        <time>2014-05-29T07:45:48Z</time>
      </trkpt>
      <trkpt lat="48.36792" lon="2.54214">
        <ele>83.6</ele>
        <time>2014-05-29T07:45:49Z</time>
      </trkpt>
      <trkpt lat="48.36793" lon="2.54218">
        <ele>84.2</ele>
        <time>2014-05-29T07:45:50Z</time>
      </trkpt>
      <trkpt lat="48.36794" lon="2.54222">
        <ele>84.6</ele>
        <time>2014-05-29T07:45:51Z</time>
      </trkpt>
      <trkpt lat="48.36796" lon="2.54231">
        <ele>85</ele>
        <time>2014-05-29T07:45:53Z</time>
      </trkpt>
      <trkpt lat="48.36796" lon="2.54234">
        <ele>85.4</ele>
        <time>2014-05-29T07:45:54Z</time>
      </trkpt>
      <trkpt lat="48.36797" lon="2.54238">
        <ele>86</ele>
        <time>2014-05-29T07:45:55Z</time>
      </trkpt>
      <trkpt lat="48.36798" lon="2.54243">
        <ele>86.4</ele>
        <time>2014-05-29T07:45:56Z</time>
      </trkpt>
      <trkpt lat="48.36799" lon="2.54249">
        <ele>86.8</ele>
        <time>2014-05-29T07:45:57Z</time>
      </trkpt>
      <trkpt lat="48.36799" lon="2.54265">
        <ele>86.8</ele>
        <time>2014-05-29T07:46:00Z</time>
      </trkpt>
      <trkpt lat="48.36798" lon="2.54271">
        <ele>87.2</ele>
        <time>2014-05-29T07:46:01Z</time>
      </trkpt>
      <trkpt lat="48.36799" lon="2.54276">
        <ele>87.6</ele>
        <time>2014-05-29T07:46:02Z</time>
      </trkpt>
      <trkpt lat="48.368" lon="2.5428">
        <ele>88.2</ele>
        <time>2014-05-29T07:46:03Z</time>
      </trkpt>
      <trkpt lat="48.368" lon="2.54285">
        <ele>88.6</ele>
        <time>2014-05-29T07:46:04Z</time>
      </trkpt>
      <trkpt lat="48.36801" lon="2.54289">
        <ele>89</ele>
        <time>2014-05-29T07:46:05Z</time>
      </trkpt>
      <trkpt lat="48.368" lon="2.54307">
        <ele>89.4</ele>
        <time>2014-05-29T07:46:10Z</time>
      </trkpt>
      <trkpt lat="48.368" lon="2.54311">
        <ele>89.8</ele>
        <time>2014-05-29T07:46:11Z</time>
      </trkpt>
      <trkpt lat="48.368" lon="2.54315">
        <ele>90.4</ele>
        <time>2014-05-29T07:46:12Z</time>
      </trkpt>
      <trkpt lat="48.36799" lon="2.54319">
        <ele>90.8</ele>
        <time>2014-05-29T07:46:13Z</time>
      </trkpt>
      <trkpt lat="48.36799" lon="2.54323">
        <ele>91.2</ele>
        <time>2014-05-29T07:46:14Z</time>
      </trkpt>
      <trkpt lat="48.36798" lon="2.54327">
        <ele>91.2</ele>
        <time>2014-05-29T07:46:15Z</time>
      </trkpt>
      <trkpt lat="48.36797" lon="2.54331">
        <ele>91.2</ele>
        <time>2014-05-29T07:46:16Z</time>
      </trkpt>
      <trkpt lat="48.36796" lon="2.54335">
        <ele>91.2</ele>
        <time>2014-05-29T07:46:17Z</time>
      </trkpt>
      <trkpt lat="48.36791" lon="2.54352">
        <ele>91.6</ele>
        <time>2014-05-29T07:46:21Z</time>
      </trkpt>
      <trkpt lat="48.36789" lon="2.54358">
        <ele>92</ele>
        <time>2014-05-29T07:46:22Z</time>
      </trkpt>
      <trkpt lat="48.36788" lon="2.54365">
        <ele>92.4</ele>
        <time>2014-05-29T07:46:23Z</time>
      </trkpt>
      <trkpt lat="48.36786" lon="2.54371">
        <ele>92.8</ele>
        <time>2014-05-29T07:46:24Z</time>
      </trkpt>
      <trkpt lat="48.36784" lon="2.54376">
        <ele>93.2</ele>
        <time>2014-05-29T07:46:25Z</time>
      </trkpt>
      <trkpt lat="48.36783" lon="2.544">
        <ele>93.2</ele>
        <time>2014-05-29T07:46:29Z</time>
      </trkpt>
      <trkpt lat="48.36782" lon="2.54411">
        <ele>93.2</ele>
        <time>2014-05-29T07:46:31Z</time>
      </trkpt>
      <trkpt lat="48.3678" lon="2.54433">
        <ele>93.2</ele>
        <time>2014-05-29T07:46:35Z</time>
      </trkpt>
      <trkpt lat="48.36779" lon="2.54438">
        <ele>93.2</ele>
        <time>2014-05-29T07:46:36Z</time>
      </trkpt>
      <trkpt lat="48.36767" lon="2.54475">
        <ele>93.2</ele>
        <time>2014-05-29T07:46:41Z</time>
      </trkpt>
      <trkpt lat="48.36763" lon="2.54505">
        <ele>93.2</ele>
        <time>2014-05-29T07:46:46Z</time>
      </trkpt>
      <trkpt lat="48.36757" lon="2.54549">
        <ele>93.2</ele>
        <time>2014-05-29T07:46:53Z</time>
      </trkpt>
      <trkpt lat="48.36756" lon="2.54555">
        <ele>93.2</ele>
        <time>2014-05-29T07:46:54Z</time>
      </trkpt>
      <trkpt lat="48.36752" lon="2.54584">
        <ele>93.2</ele>
        <time>2014-05-29T07:46:59Z</time>
      </trkpt>
      <trkpt lat="48.36746" lon="2.54599">
        <ele>93.2</ele>
        <time>2014-05-29T07:47:03Z</time>
      </trkpt>
      <trkpt lat="48.36714" lon="2.54605">
        <ele>93.2</ele>
        <time>2014-05-29T07:47:07Z</time>
      </trkpt>
      <trkpt lat="48.36684" lon="2.54609">
        <ele>93.6</ele>
        <time>2014-05-29T07:47:13Z</time>
      </trkpt>
      <trkpt lat="48.36682" lon="2.54612">
        <ele>94</ele>
        <time>2014-05-29T07:47:14Z</time>
      </trkpt>
      <trkpt lat="48.36679" lon="2.54615">
        <ele>94.4</ele>
        <time>2014-05-29T07:47:15Z</time>
      </trkpt>
      <trkpt lat="48.36678" lon="2.54618">
        <ele>94.8</ele>
        <time>2014-05-29T07:47:16Z</time>
      </trkpt>
      <trkpt lat="48.36675" lon="2.54621">
        <ele>95.4</ele>
        <time>2014-05-29T07:47:17Z</time>
      </trkpt>
      <trkpt lat="48.3667" lon="2.54626">
        <ele>95.4</ele>
        <time>2014-05-29T07:47:19Z</time>
      </trkpt>
      <trkpt lat="48.36651" lon="2.54633">
        <ele>95.4</ele>
        <time>2014-05-29T07:47:24Z</time>
      </trkpt>
      <trkpt lat="48.36622" lon="2.54648">
        <ele>95.4</ele>
        <time>2014-05-29T07:47:31Z</time>
      </trkpt>
      <trkpt lat="48.36613" lon="2.54653">
        <ele>95.4</ele>
        <time>2014-05-29T07:47:32Z</time>
      </trkpt>
      <trkpt lat="48.36599" lon="2.54653">
        <ele>95.4</ele>
        <time>2014-05-29T07:47:34Z</time>
      </trkpt>
      <trkpt lat="48.3658" lon="2.54641">
        <ele>95.4</ele>
        <time>2014-05-29T07:47:38Z</time>
      </trkpt>
      <trkpt lat="48.36571" lon="2.54631">
        <ele>95.4</ele>
        <time>2014-05-29T07:47:40Z</time>
      </trkpt>
      <trkpt lat="48.36565" lon="2.54619">
        <ele>95.4</ele>
        <time>2014-05-29T07:47:42Z</time>
      </trkpt>
      <trkpt lat="48.36548" lon="2.54587">
        <ele>95.4</ele>
        <time>2014-05-29T07:47:47Z</time>
      </trkpt>
      <trkpt lat="48.36543" lon="2.54566">
        <ele>95.4</ele>
        <time>2014-05-29T07:47:50Z</time>
      </trkpt>
      <trkpt lat="48.36543" lon="2.54553">
        <ele>95.4</ele>
        <time>2014-05-29T07:47:52Z</time>
      </trkpt>
      <trkpt lat="48.3654" lon="2.54513">
        <ele>95.4</ele>
        <time>2014-05-29T07:47:58Z</time>
      </trkpt>
      <trkpt lat="48.36534" lon="2.5447">
        <ele>95.4</ele>
        <time>2014-05-29T07:48:04Z</time>
      </trkpt>
      <trkpt lat="48.36534" lon="2.54462">
        <ele>95.4</ele>
        <time>2014-05-29T07:48:05Z</time>
      </trkpt>
      <trkpt lat="48.36535" lon="2.54434">
        <ele>95.4</ele>
        <time>2014-05-29T07:48:09Z</time>
      </trkpt>
      <trkpt lat="48.36534" lon="2.54421">
        <ele>95.4</ele>
        <time>2014-05-29T07:48:11Z</time>
      </trkpt>
      <trkpt lat="48.36534" lon="2.54413">
        <ele>95.4</ele>
        <time>2014-05-29T07:48:12Z</time>
      </trkpt>
      <trkpt lat="48.36532" lon="2.54386">
        <ele>95.4</ele>
        <time>2014-05-29T07:48:16Z</time>
      </trkpt>
      <trkpt lat="48.3653" lon="2.54344">
        <ele>95.4</ele>
        <time>2014-05-29T07:48:21Z</time>
      </trkpt>
      <trkpt lat="48.36521" lon="2.54276">
        <ele>95.4</ele>
        <time>2014-05-29T07:48:28Z</time>
      </trkpt>
      <trkpt lat="48.36513" lon="2.54228">
        <ele>95.4</ele>
        <time>2014-05-29T07:48:34Z</time>
      </trkpt>
      <trkpt lat="48.36499" lon="2.54192">
        <ele>95.4</ele>
        <time>2014-05-29T07:48:40Z</time>
      </trkpt>
      <trkpt lat="48.36489" lon="2.54194">
        <ele>95.4</ele>
        <time>2014-05-29T07:48:42Z</time>
      </trkpt>
      <trkpt lat="48.36473" lon="2.54197">
        <ele>95.4</ele>
        <time>2014-05-29T07:48:45Z</time>
      </trkpt>
      <trkpt lat="48.36462" lon="2.54195">
        <ele>95.4</ele>
        <time>2014-05-29T07:48:47Z</time>
      </trkpt>
      <trkpt lat="48.36457" lon="2.54192">
        <ele>95.4</ele>
        <time>2014-05-29T07:48:48Z</time>
      </trkpt>
      <trkpt lat="48.36447" lon="2.5417">
        <ele>95.4</ele>
        <time>2014-05-29T07:48:51Z</time>
      </trkpt>
      <trkpt lat="48.36442" lon="2.54138">
        <ele>95.4</ele>
        <time>2014-05-29T07:48:55Z</time>
      </trkpt>
      <trkpt lat="48.3644" lon="2.5413">
        <ele>95.4</ele>
        <time>2014-05-29T07:48:56Z</time>
      </trkpt>
      <trkpt lat="48.36435" lon="2.54114">
        <ele>95.4</ele>
        <time>2014-05-29T07:48:58Z</time>
      </trkpt>
      <trkpt lat="48.36427" lon="2.54079">
        <ele>95.4</ele>
        <time>2014-05-29T07:49:02Z</time>
      </trkpt>
      <trkpt lat="48.36424" lon="2.54055">
        <ele>95.4</ele>
        <time>2014-05-29T07:49:05Z</time>
      </trkpt>
      <trkpt lat="48.36422" lon="2.54037">
        <ele>95.4</ele>
        <time>2014-05-29T07:49:07Z</time>
      </trkpt>
      <trkpt lat="48.36419" lon="2.5402">
        <ele>95</ele>
        <time>2014-05-29T07:49:09Z</time>
      </trkpt>
      <trkpt lat="48.36418" lon="2.54011">
        <ele>94.6</ele>
        <time>2014-05-29T07:49:10Z</time>
      </trkpt>
      <trkpt lat="48.36417" lon="2.54003">
        <ele>94.2</ele>
        <time>2014-05-29T07:49:11Z</time>
      </trkpt>
      <trkpt lat="48.36415" lon="2.53994">
        <ele>93.8</ele>
        <time>2014-05-29T07:49:12Z</time>
      </trkpt>
      <trkpt lat="48.36414" lon="2.53986">
        <ele>93.4</ele>
        <time>2014-05-29T07:49:13Z</time>
      </trkpt>
      <trkpt lat="48.36412" lon="2.53956">
        <ele>93.4</ele>
        <time>2014-05-29T07:49:17Z</time>
      </trkpt>
      <trkpt lat="48.3641" lon="2.53942">
        <ele>93.4</ele>
        <time>2014-05-29T07:49:19Z</time>
      </trkpt>
      <trkpt lat="48.36404" lon="2.53935">
        <ele>93</ele>
        <time>2014-05-29T07:49:20Z</time>
      </trkpt>
      <trkpt lat="48.36398" lon="2.53932">
        <ele>92.6</ele>
        <time>2014-05-29T07:49:21Z</time>
      </trkpt>
      <trkpt lat="48.36393" lon="2.53927">
        <ele>92.2</ele>
        <time>2014-05-29T07:49:22Z</time>
      </trkpt>
      <trkpt lat="48.36389" lon="2.53924">
        <ele>91.8</ele>
        <time>2014-05-29T07:49:23Z</time>
      </trkpt>
      <trkpt lat="48.36385" lon="2.53921">
        <ele>91.4</ele>
        <time>2014-05-29T07:49:24Z</time>
      </trkpt>
      <trkpt lat="48.36379" lon="2.53921">
        <ele>91.4</ele>
        <time>2014-05-29T07:49:25Z</time>
      </trkpt>
      <trkpt lat="48.36375" lon="2.53923">
        <ele>91.4</ele>
        <time>2014-05-29T07:49:26Z</time>
      </trkpt>
      <trkpt lat="48.36359" lon="2.53934">
        <ele>91.4</ele>
        <time>2014-05-29T07:49:30Z</time>
      </trkpt>
      <trkpt lat="48.36357" lon="2.53938">
        <ele>91.4</ele>
        <time>2014-05-29T07:49:31Z</time>
      </trkpt>
      <trkpt lat="48.36341" lon="2.53948">
        <ele>91.4</ele>
        <time>2014-05-29T07:49:35Z</time>
      </trkpt>
      <trkpt lat="48.3633" lon="2.53938">
        <ele>91.4</ele>
        <time>2014-05-29T07:49:40Z</time>
      </trkpt>
      <trkpt lat="48.36341" lon="2.53919">
        <ele>91.4</ele>
        <time>2014-05-29T07:49:44Z</time>
      </trkpt>
      <trkpt lat="48.36343" lon="2.53914">
        <ele>90.8</ele>
        <time>2014-05-29T07:49:45Z</time>
      </trkpt>
      <trkpt lat="48.36345" lon="2.53907">
        <ele>90.2</ele>
        <time>2014-05-29T07:49:46Z</time>
      </trkpt>
      <trkpt lat="48.36347" lon="2.53899">
        <ele>89.6</ele>
        <time>2014-05-29T07:49:47Z</time>
      </trkpt>
      <trkpt lat="48.3635" lon="2.53888">
        <ele>88.8</ele>
        <time>2014-05-29T07:49:48Z</time>
      </trkpt>
      <trkpt lat="48.36352" lon="2.53878">
        <ele>88.2</ele>
        <time>2014-05-29T07:49:49Z</time>
      </trkpt>
      <trkpt lat="48.3635" lon="2.53867">
        <ele>87.2</ele>
        <time>2014-05-29T07:49:50Z</time>
      </trkpt>
      <trkpt lat="48.36349" lon="2.53859">
        <ele>86.4</ele>
        <time>2014-05-29T07:49:51Z</time>
      </trkpt>
      <trkpt lat="48.36348" lon="2.53852">
        <ele>85.4</ele>
        <time>2014-05-29T07:49:52Z</time>
      </trkpt>
      <trkpt lat="48.36348" lon="2.53845">
        <ele>84.4</ele>
        <time>2014-05-29T07:49:53Z</time>
      </trkpt>
      <trkpt lat="48.36349" lon="2.53839">
        <ele>83.6</ele>
        <time>2014-05-29T07:49:54Z</time>
      </trkpt>
      <trkpt lat="48.36351" lon="2.53835">
        <ele>82.6</ele>
        <time>2014-05-29T07:49:55Z</time>
      </trkpt>
      <trkpt lat="48.36352" lon="2.53831">
        <ele>82</ele>
        <time>2014-05-29T07:49:56Z</time>
      </trkpt>
      <trkpt lat="48.36353" lon="2.53833">
        <ele>81.2</ele>
        <time>2014-05-29T07:49:57Z</time>
      </trkpt>
      <trkpt lat="48.36354" lon="2.53833">
        <ele>80.6</ele>
        <time>2014-05-29T07:49:58Z</time>
      </trkpt>
      <trkpt lat="48.36353" lon="2.53833">
        <ele>79.8</ele>
        <time>2014-05-29T07:49:59Z</time>
      </trkpt>
      <trkpt lat="48.36355" lon="2.53827">
        <ele>78.8</ele>
        <time>2014-05-29T07:50:08Z</time>
      </trkpt>
      <trkpt lat="48.36357" lon="2.53821">
        <ele>78.4</ele>
        <time>2014-05-29T07:50:09Z</time>
      </trkpt>
      <trkpt lat="48.3636" lon="2.53816">
        <ele>77.4</ele>
        <time>2014-05-29T07:50:10Z</time>
      </trkpt>
      <trkpt lat="48.36364" lon="2.53812">
        <ele>77</ele>
        <time>2014-05-29T07:50:11Z</time>
      </trkpt>
      <trkpt lat="48.36368" lon="2.53808">
        <ele>77</ele>
        <time>2014-05-29T07:50:12Z</time>
      </trkpt>
      <trkpt lat="48.36373" lon="2.53796">
        <ele>76.4</ele>
        <time>2014-05-29T07:50:14Z</time>
      </trkpt>
      <trkpt lat="48.36375" lon="2.53789">
        <ele>76</ele>
        <time>2014-05-29T07:50:15Z</time>
      </trkpt>
      <trkpt lat="48.36378" lon="2.53782">
        <ele>75.4</ele>
        <time>2014-05-29T07:50:16Z</time>
      </trkpt>
      <trkpt lat="48.36382" lon="2.53777">
        <ele>74.8</ele>
        <time>2014-05-29T07:50:17Z</time>
      </trkpt>
      <trkpt lat="48.36386" lon="2.53771">
        <ele>74.4</ele>
        <time>2014-05-29T07:50:18Z</time>
      </trkpt>
      <trkpt lat="48.3639" lon="2.53766">
        <ele>74</ele>
        <time>2014-05-29T07:50:19Z</time>
      </trkpt>
      <trkpt lat="48.36393" lon="2.53762">
        <ele>73.4</ele>
        <time>2014-05-29T07:50:20Z</time>
      </trkpt>
      <trkpt lat="48.36395" lon="2.53758">
        <ele>73</ele>
        <time>2014-05-29T07:50:21Z</time>
      </trkpt>
      <trkpt lat="48.36396" lon="2.53753">
        <ele>72.6</ele>
        <time>2014-05-29T07:50:22Z</time>
      </trkpt>
      <trkpt lat="48.36397" lon="2.53746">
        <ele>72.2</ele>
        <time>2014-05-29T07:50:23Z</time>
      </trkpt>
      <trkpt lat="48.36398" lon="2.53738">
        <ele>72.2</ele>
        <time>2014-05-29T07:50:24Z</time>
      </trkpt>
      <trkpt lat="48.36401" lon="2.53733">
        <ele>72.2</ele>
        <time>2014-05-29T07:50:25Z</time>
      </trkpt>
      <trkpt lat="48.36403" lon="2.53727">
        <ele>71.8</ele>
        <time>2014-05-29T07:50:26Z</time>
      </trkpt>
      <trkpt lat="48.36404" lon="2.53721">
        <ele>71.4</ele>
        <time>2014-05-29T07:50:27Z</time>
      </trkpt>
      <trkpt lat="48.36403" lon="2.53712">
        <ele>71</ele>
        <time>2014-05-29T07:50:28Z</time>
      </trkpt>
      <trkpt lat="48.36403" lon="2.53705">
        <ele>70.6</ele>
        <time>2014-05-29T07:50:29Z</time>
      </trkpt>
      <trkpt lat="48.36403" lon="2.53697">
        <ele>70.2</ele>
        <time>2014-05-29T07:50:30Z</time>
      </trkpt>
      <trkpt lat="48.36403" lon="2.53689">
        <ele>70.2</ele>
        <time>2014-05-29T07:50:31Z</time>
      </trkpt>
      <trkpt lat="48.36403" lon="2.53682">
        <ele>69.8</ele>
        <time>2014-05-29T07:50:32Z</time>
      </trkpt>
      <trkpt lat="48.36402" lon="2.53675">
        <ele>69.2</ele>
        <time>2014-05-29T07:50:33Z</time>
      </trkpt>
      <trkpt lat="48.36401" lon="2.53669">
        <ele>68.8</ele>
        <time>2014-05-29T07:50:34Z</time>
      </trkpt>
      <trkpt lat="48.364" lon="2.53664">
        <ele>68.4</ele>
        <time>2014-05-29T07:50:35Z</time>
      </trkpt>
      <trkpt lat="48.36402" lon="2.53662">
        <ele>68</ele>
        <time>2014-05-29T07:50:36Z</time>
      </trkpt>
      <trkpt lat="48.36404" lon="2.5366">
        <ele>67.6</ele>
        <time>2014-05-29T07:50:37Z</time>
      </trkpt>
      <trkpt lat="48.36407" lon="2.53657">
        <ele>67.2</ele>
        <time>2014-05-29T07:50:38Z</time>
      </trkpt>
      <trkpt lat="48.3641" lon="2.53656">
        <ele>66.8</ele>
        <time>2014-05-29T07:50:39Z</time>
      </trkpt>
      <trkpt lat="48.36413" lon="2.53653">
        <ele>66.4</ele>
        <time>2014-05-29T07:50:40Z</time>
      </trkpt>
      <trkpt lat="48.36416" lon="2.5365">
        <ele>66</ele>
        <time>2014-05-29T07:50:41Z</time>
      </trkpt>
      <trkpt lat="48.36419" lon="2.53646">
        <ele>66</ele>
        <time>2014-05-29T07:50:42Z</time>
      </trkpt>
      <trkpt lat="48.36432" lon="2.53629">
        <ele>66.4</ele>
        <time>2014-05-29T07:50:47Z</time>
      </trkpt>
      <trkpt lat="48.36436" lon="2.53626">
        <ele>66.8</ele>
        <time>2014-05-29T07:50:48Z</time>
      </trkpt>
      <trkpt lat="48.36438" lon="2.53625">
        <ele>67.2</ele>
        <time>2014-05-29T07:50:49Z</time>
      </trkpt>
      <trkpt lat="48.3644" lon="2.53625">
        <ele>67.6</ele>
        <time>2014-05-29T07:50:50Z</time>
      </trkpt>
      <trkpt lat="48.36442" lon="2.53625">
        <ele>68.2</ele>
        <time>2014-05-29T07:50:52Z</time>
      </trkpt>
      <trkpt lat="48.36445" lon="2.53625">
        <ele>68.2</ele>
        <time>2014-05-29T07:50:53Z</time>
      </trkpt>
      <trkpt lat="48.36455" lon="2.53621">
        <ele>68.2</ele>
        <time>2014-05-29T07:50:57Z</time>
      </trkpt>
      <trkpt lat="48.36457" lon="2.53618">
        <ele>68.6</ele>
        <time>2014-05-29T07:50:58Z</time>
      </trkpt>
      <trkpt lat="48.36459" lon="2.53614">
        <ele>69</ele>
        <time>2014-05-29T07:50:59Z</time>
      </trkpt>
      <trkpt lat="48.36462" lon="2.53611">
        <ele>69.4</ele>
        <time>2014-05-29T07:51:00Z</time>
      </trkpt>
      <trkpt lat="48.36464" lon="2.53608">
        <ele>69.8</ele>
        <time>2014-05-29T07:51:01Z</time>
      </trkpt>
      <trkpt lat="48.36468" lon="2.53605">
        <ele>70.2</ele>
        <time>2014-05-29T07:51:02Z</time>
      </trkpt>
      <trkpt lat="48.36471" lon="2.53603">
        <ele>70.2</ele>
        <time>2014-05-29T07:51:03Z</time>
      </trkpt>
      <trkpt lat="48.36484" lon="2.53595">
        <ele>70.2</ele>
        <time>2014-05-29T07:51:06Z</time>
      </trkpt>
      <trkpt lat="48.36486" lon="2.53593">
        <ele>70.2</ele>
        <time>2014-05-29T07:51:07Z</time>
      </trkpt>
      <trkpt lat="48.36497" lon="2.53598">
        <ele>70.2</ele>
        <time>2014-05-29T07:51:10Z</time>
      </trkpt>
      <trkpt lat="48.36499" lon="2.53599">
        <ele>70.2</ele>
        <time>2014-05-29T07:51:11Z</time>
      </trkpt>
      <trkpt lat="48.36513" lon="2.53594">
        <ele>70.2</ele>
        <time>2014-05-29T07:51:15Z</time>
      </trkpt>
      <trkpt lat="48.36528" lon="2.53591">
        <ele>70.2</ele>
        <time>2014-05-29T07:51:19Z</time>
      </trkpt>
      <trkpt lat="48.36531" lon="2.53594">
        <ele>70.2</ele>
        <time>2014-05-29T07:51:20Z</time>
      </trkpt>
      <trkpt lat="48.3654" lon="2.53603">
        <ele>70.2</ele>
        <time>2014-05-29T07:51:23Z</time>
      </trkpt>
      <trkpt lat="48.36547" lon="2.53608">
        <ele>70.2</ele>
        <time>2014-05-29T07:51:25Z</time>
      </trkpt>
      <trkpt lat="48.36552" lon="2.53615">
        <ele>70.2</ele>
        <time>2014-05-29T07:51:27Z</time>
      </trkpt>
      <trkpt lat="48.36566" lon="2.53635">
        <ele>70.2</ele>
        <time>2014-05-29T07:51:31Z</time>
      </trkpt>
      <trkpt lat="48.36583" lon="2.5365">
        <ele>70.2</ele>
        <time>2014-05-29T07:51:37Z</time>
      </trkpt>
      <trkpt lat="48.36593" lon="2.53651">
        <ele>70.2</ele>
        <time>2014-05-29T07:51:42Z</time>
      </trkpt>
      <trkpt lat="48.36598" lon="2.53656">
        <ele>70.8</ele>
        <time>2014-05-29T07:51:46Z</time>
      </trkpt>
      <trkpt lat="48.366" lon="2.53656">
        <ele>71.2</ele>
        <time>2014-05-29T07:51:47Z</time>
      </trkpt>
      <trkpt lat="48.36601" lon="2.53656">
        <ele>71.8</ele>
        <time>2014-05-29T07:51:48Z</time>
      </trkpt>
      <trkpt lat="48.36604" lon="2.53658">
        <ele>72.2</ele>
        <time>2014-05-29T07:51:49Z</time>
      </trkpt>
      <trkpt lat="48.36604" lon="2.53658">
        <ele>72.6</ele>
        <time>2014-05-29T07:51:50Z</time>
      </trkpt>
      <trkpt lat="48.36609" lon="2.53655">
        <ele>73</ele>
        <time>2014-05-29T07:51:54Z</time>
      </trkpt>
      <trkpt lat="48.36609" lon="2.53654">
        <ele>73.4</ele>
        <time>2014-05-29T07:51:55Z</time>
      </trkpt>
      <trkpt lat="48.36611" lon="2.53654">
        <ele>74</ele>
        <time>2014-05-29T07:51:56Z</time>
      </trkpt>
      <trkpt lat="48.36612" lon="2.53653">
        <ele>74.4</ele>
        <time>2014-05-29T07:51:57Z</time>
      </trkpt>
      <trkpt lat="48.36613" lon="2.53654">
        <ele>74.8</ele>
        <time>2014-05-29T07:51:58Z</time>
      </trkpt>
      <trkpt lat="48.36614" lon="2.53653">
        <ele>75.2</ele>
        <time>2014-05-29T07:51:59Z</time>
      </trkpt>
      <trkpt lat="48.36615" lon="2.53652">
        <ele>75.6</ele>
        <time>2014-05-29T07:52:00Z</time>
      </trkpt>
      <trkpt lat="48.36616" lon="2.53651">
        <ele>76.2</ele>
        <time>2014-05-29T07:52:01Z</time>
      </trkpt>
      <trkpt lat="48.36616" lon="2.53651">
        <ele>76.6</ele>
        <time>2014-05-29T07:52:02Z</time>
      </trkpt>
      <trkpt lat="48.36618" lon="2.53651">
        <ele>77.2</ele>
        <time>2014-05-29T07:52:03Z</time>
      </trkpt>
      <trkpt lat="48.36619" lon="2.5365">
        <ele>77.6</ele>
        <time>2014-05-29T07:52:04Z</time>
      </trkpt>
      <trkpt lat="48.36619" lon="2.53649">
        <ele>78</ele>
        <time>2014-05-29T07:52:05Z</time>
      </trkpt>
      <trkpt lat="48.3662" lon="2.53649">
        <ele>78.6</ele>
        <time>2014-05-29T07:52:06Z</time>
      </trkpt>
      <trkpt lat="48.3662" lon="2.53648">
        <ele>79</ele>
        <time>2014-05-29T07:52:07Z</time>
      </trkpt>
      <trkpt lat="48.36621" lon="2.53647">
        <ele>79.4</ele>
        <time>2014-05-29T07:52:08Z</time>
      </trkpt>
      <trkpt lat="48.36623" lon="2.53641">
        <ele>80</ele>
        <time>2014-05-29T07:52:11Z</time>
      </trkpt>
      <trkpt lat="48.36623" lon="2.53638">
        <ele>80.4</ele>
        <time>2014-05-29T07:52:12Z</time>
      </trkpt>
      <trkpt lat="48.36623" lon="2.53636">
        <ele>80.8</ele>
        <time>2014-05-29T07:52:13Z</time>
      </trkpt>
      <trkpt lat="48.36625" lon="2.53633">
        <ele>81.4</ele>
        <time>2014-05-29T07:52:14Z</time>
      </trkpt>
      <trkpt lat="48.36627" lon="2.53627">
        <ele>81.8</ele>
        <time>2014-05-29T07:52:15Z</time>
      </trkpt>
      <trkpt lat="48.36634" lon="2.53615">
        <ele>81.8</ele>
        <time>2014-05-29T07:52:21Z</time>
      </trkpt>
      <trkpt lat="48.3664" lon="2.536">
        <ele>81.8</ele>
        <time>2014-05-29T07:52:29Z</time>
      </trkpt>
      <trkpt lat="48.36642" lon="2.53599">
        <ele>81.8</ele>
        <time>2014-05-29T07:52:31Z</time>
      </trkpt>
      <trkpt lat="48.36642" lon="2.53595">
        <ele>81.8</ele>
        <time>2014-05-29T07:52:33Z</time>
      </trkpt>
      <trkpt lat="48.36644" lon="2.53591">
        <ele>81.8</ele>
        <time>2014-05-29T07:52:35Z</time>
      </trkpt>
      <trkpt lat="48.36645" lon="2.5359">
        <ele>81.8</ele>
        <time>2014-05-29T07:52:36Z</time>
      </trkpt>
      <trkpt lat="48.36645" lon="2.53585">
        <ele>81.8</ele>
        <time>2014-05-29T07:53:02Z</time>
      </trkpt>
      <trkpt lat="48.36645" lon="2.53583">
        <ele>81.4</ele>
        <time>2014-05-29T07:53:03Z</time>
      </trkpt>
      <trkpt lat="48.36645" lon="2.5358">
        <ele>81</ele>
        <time>2014-05-29T07:53:04Z</time>
      </trkpt>
      <trkpt lat="48.36645" lon="2.53578">
        <ele>80.6</ele>
        <time>2014-05-29T07:53:05Z</time>
      </trkpt>
      <trkpt lat="48.36643" lon="2.53574">
        <ele>79.8</ele>
        <time>2014-05-29T07:53:06Z</time>
      </trkpt>
      <trkpt lat="48.36642" lon="2.53571">
        <ele>79.2</ele>
        <time>2014-05-29T07:53:07Z</time>
      </trkpt>
      <trkpt lat="48.36641" lon="2.53569">
        <ele>78.6</ele>
        <time>2014-05-29T07:53:08Z</time>
      </trkpt>
      <trkpt lat="48.36641" lon="2.53567">
        <ele>77.8</ele>
        <time>2014-05-29T07:53:09Z</time>
      </trkpt>
      <trkpt lat="48.3664" lon="2.53563">
        <ele>77.2</ele>
        <time>2014-05-29T07:53:10Z</time>
      </trkpt>
      <trkpt lat="48.36641" lon="2.53559">
        <ele>76.4</ele>
        <time>2014-05-29T07:53:11Z</time>
      </trkpt>
      <trkpt lat="48.36641" lon="2.53554">
        <ele>75.6</ele>
        <time>2014-05-29T07:53:12Z</time>
      </trkpt>
      <trkpt lat="48.36643" lon="2.5355">
        <ele>74.6</ele>
        <time>2014-05-29T07:53:13Z</time>
      </trkpt>
      <trkpt lat="48.36644" lon="2.53546">
        <ele>73.4</ele>
        <time>2014-05-29T07:53:14Z</time>
      </trkpt>
      <trkpt lat="48.36645" lon="2.53542">
        <ele>72.4</ele>
        <time>2014-05-29T07:53:15Z</time>
      </trkpt>
      <trkpt lat="48.36647" lon="2.53539">
        <ele>71.2</ele>
        <time>2014-05-29T07:53:16Z</time>
      </trkpt>
      <trkpt lat="48.36649" lon="2.53536">
        <ele>70.2</ele>
        <time>2014-05-29T07:53:17Z</time>
      </trkpt>
      <trkpt lat="48.36651" lon="2.53533">
        <ele>69.2</ele>
        <time>2014-05-29T07:53:18Z</time>
      </trkpt>
      <trkpt lat="48.36653" lon="2.5353">
        <ele>68.2</ele>
        <time>2014-05-29T07:53:19Z</time>
      </trkpt>
      <trkpt lat="48.36655" lon="2.53527">
        <ele>67.2</ele>
        <time>2014-05-29T07:53:20Z</time>
      </trkpt>
      <trkpt lat="48.36656" lon="2.53524">
        <ele>66.6</ele>
        <time>2014-05-29T07:53:21Z</time>
      </trkpt>
      <trkpt lat="48.36657" lon="2.53522">
        <ele>66</ele>
        <time>2014-05-29T07:53:22Z</time>
      </trkpt>
      <trkpt lat="48.36658" lon="2.5352">
        <ele>65.4</ele>
        <time>2014-05-29T07:53:23Z</time>
      </trkpt>
      <trkpt lat="48.36658" lon="2.53517">
        <ele>64.8</ele>
        <time>2014-05-29T07:53:24Z</time>
      </trkpt>
      <trkpt lat="48.36658" lon="2.53513">
        <ele>64.2</ele>
        <time>2014-05-29T07:53:25Z</time>
      </trkpt>
      <trkpt lat="48.36658" lon="2.53508">
        <ele>63.6</ele>
        <time>2014-05-29T07:53:26Z</time>
      </trkpt>
      <trkpt lat="48.36659" lon="2.53498">
        <ele>62.8</ele>
        <time>2014-05-29T07:53:27Z</time>
      </trkpt>
      <trkpt lat="48.36659" lon="2.5349">
        <ele>62.2</ele>
        <time>2014-05-29T07:53:28Z</time>
      </trkpt>
      <trkpt lat="48.36657" lon="2.53478">
        <ele>61.6</ele>
        <time>2014-05-29T07:53:29Z</time>
      </trkpt>
      <trkpt lat="48.36654" lon="2.53466">
        <ele>61</ele>
        <time>2014-05-29T07:53:30Z</time>
      </trkpt>
      <trkpt lat="48.36651" lon="2.53454">
        <ele>60.4</ele>
        <time>2014-05-29T07:53:31Z</time>
      </trkpt>
      <trkpt lat="48.36649" lon="2.53442">
        <ele>59.8</ele>
        <time>2014-05-29T07:53:32Z</time>
      </trkpt>
      <trkpt lat="48.36647" lon="2.53432">
        <ele>59</ele>
        <time>2014-05-29T07:53:33Z</time>
      </trkpt>
      <trkpt lat="48.36645" lon="2.5342">
        <ele>58.4</ele>
        <time>2014-05-29T07:53:34Z</time>
      </trkpt>
      <trkpt lat="48.36643" lon="2.53409">
        <ele>57.8</ele>
        <time>2014-05-29T07:53:35Z</time>
      </trkpt>
      <trkpt lat="48.3664" lon="2.53397">
        <ele>57</ele>
        <time>2014-05-29T07:53:36Z</time>
      </trkpt>
      <trkpt lat="48.36638" lon="2.53389">
        <ele>56.4</ele>
        <time>2014-05-29T07:53:37Z</time>
      </trkpt>
      <trkpt lat="48.36634" lon="2.53382">
        <ele>55.6</ele>
        <time>2014-05-29T07:53:38Z</time>
      </trkpt>
      <trkpt lat="48.36629" lon="2.53381">
        <ele>55</ele>
        <time>2014-05-29T07:53:39Z</time>
      </trkpt>
      <trkpt lat="48.36625" lon="2.5338">
        <ele>55</ele>
        <time>2014-05-29T07:53:40Z</time>
      </trkpt>
      <trkpt lat="48.36623" lon="2.53378">
        <ele>55</ele>
        <time>2014-05-29T07:53:41Z</time>
      </trkpt>
      <trkpt lat="48.36618" lon="2.53367">
        <ele>55</ele>
        <time>2014-05-29T07:53:44Z</time>
      </trkpt>
      <trkpt lat="48.36604" lon="2.53353">
        <ele>55</ele>
        <time>2014-05-29T07:53:49Z</time>
      </trkpt>
      <trkpt lat="48.36593" lon="2.53348">
        <ele>55</ele>
        <time>2014-05-29T07:53:53Z</time>
      </trkpt>
      <trkpt lat="48.36591" lon="2.53347">
        <ele>55</ele>
        <time>2014-05-29T07:53:54Z</time>
      </trkpt>
      <trkpt lat="48.36585" lon="2.53345">
        <ele>55.4</ele>
        <time>2014-05-29T07:53:58Z</time>
      </trkpt>
      <trkpt lat="48.36583" lon="2.53344">
        <ele>55.8</ele>
        <time>2014-05-29T07:53:59Z</time>
      </trkpt>
      <trkpt lat="48.36581" lon="2.53343">
        <ele>56.2</ele>
        <time>2014-05-29T07:54:00Z</time>
      </trkpt>
      <trkpt lat="48.36579" lon="2.53342">
        <ele>56.6</ele>
        <time>2014-05-29T07:54:01Z</time>
      </trkpt>
      <trkpt lat="48.36577" lon="2.53341">
        <ele>57</ele>
        <time>2014-05-29T07:54:02Z</time>
      </trkpt>
      <trkpt lat="48.36568" lon="2.53338">
        <ele>57.4</ele>
        <time>2014-05-29T07:54:05Z</time>
      </trkpt>
      <trkpt lat="48.36564" lon="2.53339">
        <ele>57.8</ele>
        <time>2014-05-29T07:54:06Z</time>
      </trkpt>
      <trkpt lat="48.36562" lon="2.53338">
        <ele>58.4</ele>
        <time>2014-05-29T07:54:07Z</time>
      </trkpt>
      <trkpt lat="48.36559" lon="2.53338">
        <ele>58.8</ele>
        <time>2014-05-29T07:54:08Z</time>
      </trkpt>
      <trkpt lat="48.36552" lon="2.53338">
        <ele>59.2</ele>
        <time>2014-05-29T07:54:09Z</time>
      </trkpt>
      <trkpt lat="48.36545" lon="2.53333">
        <ele>59.2</ele>
        <time>2014-05-29T07:54:11Z</time>
      </trkpt>
      <trkpt lat="48.36541" lon="2.53333">
        <ele>59.2</ele>
        <time>2014-05-29T07:54:13Z</time>
      </trkpt>
      <trkpt lat="48.36535" lon="2.5333">
        <ele>59.2</ele>
        <time>2014-05-29T07:54:15Z</time>
      </trkpt>
      <trkpt lat="48.36524" lon="2.53326">
        <ele>59.2</ele>
        <time>2014-05-29T07:54:19Z</time>
      </trkpt>
      <trkpt lat="48.36511" lon="2.53329">
        <ele>59.2</ele>
        <time>2014-05-29T07:54:23Z</time>
      </trkpt>
      <trkpt lat="48.36506" lon="2.53331">
        <ele>60</ele>
        <time>2014-05-29T07:54:25Z</time>
      </trkpt>
      <trkpt lat="48.36503" lon="2.5333">
        <ele>60.4</ele>
        <time>2014-05-29T07:54:26Z</time>
      </trkpt>
      <trkpt lat="48.36501" lon="2.53329">
        <ele>60.8</ele>
        <time>2014-05-29T07:54:27Z</time>
      </trkpt>
      <trkpt lat="48.36499" lon="2.53328">
        <ele>61.4</ele>
        <time>2014-05-29T07:54:28Z</time>
      </trkpt>
      <trkpt lat="48.36496" lon="2.53326">
        <ele>61.4</ele>
        <time>2014-05-29T07:54:30Z</time>
      </trkpt>
      <trkpt lat="48.3649" lon="2.53324">
        <ele>61.4</ele>
        <time>2014-05-29T07:54:34Z</time>
      </trkpt>
      <trkpt lat="48.3649" lon="2.53327">
        <ele>61.4</ele>
        <time>2014-05-29T07:54:35Z</time>
      </trkpt>
      <trkpt lat="48.36489" lon="2.5333">
        <ele>61.4</ele>
        <time>2014-05-29T07:54:36Z</time>
      </trkpt>
      <trkpt lat="48.36494" lon="2.53339">
        <ele>61.4</ele>
        <time>2014-05-29T07:54:41Z</time>
      </trkpt>
      <trkpt lat="48.36493" lon="2.5334">
        <ele>61.4</ele>
        <time>2014-05-29T07:54:48Z</time>
      </trkpt>
      <trkpt lat="48.36491" lon="2.5334">
        <ele>60.8</ele>
        <time>2014-05-29T07:54:50Z</time>
      </trkpt>
      <trkpt lat="48.36491" lon="2.53339">
        <ele>60.4</ele>
        <time>2014-05-29T07:54:51Z</time>
      </trkpt>
      <trkpt lat="48.36488" lon="2.53333">
        <ele>60</ele>
        <time>2014-05-29T07:54:52Z</time>
      </trkpt>
      <trkpt lat="48.36483" lon="2.53329">
        <ele>59.6</ele>
        <time>2014-05-29T07:54:53Z</time>
      </trkpt>
      <trkpt lat="48.36477" lon="2.53326">
        <ele>59.2</ele>
        <time>2014-05-29T07:54:54Z</time>
      </trkpt>
      <trkpt lat="48.36472" lon="2.53325">
        <ele>59.2</ele>
        <time>2014-05-29T07:54:55Z</time>
      </trkpt>
      <trkpt lat="48.36465" lon="2.53322">
        <ele>59.2</ele>
        <time>2014-05-29T07:54:56Z</time>
      </trkpt>
      <trkpt lat="48.36454" lon="2.53317">
        <ele>58.8</ele>
        <time>2014-05-29T07:54:58Z</time>
      </trkpt>
      <trkpt lat="48.36448" lon="2.53314">
        <ele>58.4</ele>
        <time>2014-05-29T07:54:59Z</time>
      </trkpt>
      <trkpt lat="48.36443" lon="2.5331">
        <ele>57.8</ele>
        <time>2014-05-29T07:55:00Z</time>
      </trkpt>
      <trkpt lat="48.36439" lon="2.53306">
        <ele>57.4</ele>
        <time>2014-05-29T07:55:01Z</time>
      </trkpt>
      <trkpt lat="48.36432" lon="2.533">
        <ele>57</ele>
        <time>2014-05-29T07:55:02Z</time>
      </trkpt>
      <trkpt lat="48.36416" lon="2.53287">
        <ele>56.6</ele>
        <time>2014-05-29T07:55:05Z</time>
      </trkpt>
      <trkpt lat="48.36411" lon="2.53282">
        <ele>56.2</ele>
        <time>2014-05-29T07:55:06Z</time>
      </trkpt>
      <trkpt lat="48.36406" lon="2.53277">
        <ele>55.6</ele>
        <time>2014-05-29T07:55:07Z</time>
      </trkpt>
      <trkpt lat="48.36402" lon="2.5327">
        <ele>55.2</ele>
        <time>2014-05-29T07:55:08Z</time>
      </trkpt>
      <trkpt lat="48.36398" lon="2.53263">
        <ele>54.8</ele>
        <time>2014-05-29T07:55:09Z</time>
      </trkpt>
      <trkpt lat="48.36394" lon="2.53256">
        <ele>54.8</ele>
        <time>2014-05-29T07:55:10Z</time>
      </trkpt>
      <trkpt lat="48.3639" lon="2.53246">
        <ele>54.8</ele>
        <time>2014-05-29T07:55:11Z</time>
      </trkpt>
      <trkpt lat="48.36384" lon="2.5324">
        <ele>54.4</ele>
        <time>2014-05-29T07:55:12Z</time>
      </trkpt>
      <trkpt lat="48.36379" lon="2.53233">
        <ele>54</ele>
        <time>2014-05-29T07:55:13Z</time>
      </trkpt>
      <trkpt lat="48.36378" lon="2.53223">
        <ele>53.6</ele>
        <time>2014-05-29T07:55:14Z</time>
      </trkpt>
      <trkpt lat="48.36375" lon="2.53214">
        <ele>53</ele>
        <time>2014-05-29T07:55:15Z</time>
      </trkpt>
      <trkpt lat="48.36373" lon="2.53207">
        <ele>52.6</ele>
        <time>2014-05-29T07:55:16Z</time>
      </trkpt>
      <trkpt lat="48.36369" lon="2.53194">
        <ele>52.6</ele>
        <time>2014-05-29T07:55:18Z</time>
      </trkpt>
      <trkpt lat="48.36364" lon="2.5318">
        <ele>52.6</ele>
        <time>2014-05-29T07:55:20Z</time>
      </trkpt>
      <trkpt lat="48.36362" lon="2.53175">
        <ele>52.6</ele>
        <time>2014-05-29T07:55:21Z</time>
      </trkpt>
      <trkpt lat="48.36355" lon="2.53169">
        <ele>52.6</ele>
        <time>2014-05-29T07:55:24Z</time>
      </trkpt>
      <trkpt lat="48.36347" lon="2.53167">
        <ele>52.6</ele>
        <time>2014-05-29T07:55:28Z</time>
      </trkpt>
      <trkpt lat="48.36345" lon="2.53167">
        <ele>52.6</ele>
        <time>2014-05-29T07:55:29Z</time>
      </trkpt>
      <trkpt lat="48.36341" lon="2.53166">
        <ele>52.6</ele>
        <time>2014-05-29T07:55:30Z</time>
      </trkpt>
      <trkpt lat="48.36338" lon="2.53167">
        <ele>52.6</ele>
        <time>2014-05-29T07:55:31Z</time>
      </trkpt>
      <trkpt lat="48.36336" lon="2.53168">
        <ele>52.6</ele>
        <time>2014-05-29T07:55:32Z</time>
      </trkpt>
      <trkpt lat="48.36335" lon="2.53177">
        <ele>52.6</ele>
        <time>2014-05-29T07:55:38Z</time>
      </trkpt>
      <trkpt lat="48.36338" lon="2.53179">
        <ele>52.6</ele>
        <time>2014-05-29T07:55:42Z</time>
      </trkpt>
      <trkpt lat="48.3634" lon="2.53178">
        <ele>52.6</ele>
        <time>2014-05-29T07:55:43Z</time>
      </trkpt>
      <trkpt lat="48.3634" lon="2.53179">
        <ele>53.2</ele>
        <time>2014-05-29T07:55:44Z</time>
      </trkpt>
      <trkpt lat="48.3634" lon="2.53182">
        <ele>53.6</ele>
        <time>2014-05-29T07:55:45Z</time>
      </trkpt>
      <trkpt lat="48.3634" lon="2.53184">
        <ele>54</ele>
        <time>2014-05-29T07:55:46Z</time>
      </trkpt>
      <trkpt lat="48.3634" lon="2.53188">
        <ele>54.4</ele>
        <time>2014-05-29T07:55:47Z</time>
      </trkpt>
      <trkpt lat="48.36341" lon="2.53191">
        <ele>54.8</ele>
        <time>2014-05-29T07:55:48Z</time>
      </trkpt>
      <trkpt lat="48.3634" lon="2.53194">
        <ele>54.8</ele>
        <time>2014-05-29T07:55:49Z</time>
      </trkpt>
      <trkpt lat="48.36336" lon="2.53208">
        <ele>55.4</ele>
        <time>2014-05-29T07:55:53Z</time>
      </trkpt>
      <trkpt lat="48.36335" lon="2.53211">
        <ele>55.8</ele>
        <time>2014-05-29T07:55:54Z</time>
      </trkpt>
      <trkpt lat="48.36334" lon="2.53214">
        <ele>56.4</ele>
        <time>2014-05-29T07:55:55Z</time>
      </trkpt>
      <trkpt lat="48.36333" lon="2.53216">
        <ele>56.8</ele>
        <time>2014-05-29T07:55:56Z</time>
      </trkpt>
      <trkpt lat="48.36332" lon="2.53218">
        <ele>57.4</ele>
        <time>2014-05-29T07:55:57Z</time>
      </trkpt>
      <trkpt lat="48.36329" lon="2.53222">
        <ele>57.8</ele>
        <time>2014-05-29T07:55:59Z</time>
      </trkpt>
      <trkpt lat="48.36327" lon="2.53225">
        <ele>58.2</ele>
        <time>2014-05-29T07:56:00Z</time>
      </trkpt>
      <trkpt lat="48.36326" lon="2.53227">
        <ele>58.8</ele>
        <time>2014-05-29T07:56:01Z</time>
      </trkpt>
      <trkpt lat="48.36325" lon="2.5323">
        <ele>59.2</ele>
        <time>2014-05-29T07:56:02Z</time>
      </trkpt>
      <trkpt lat="48.36325" lon="2.53233">
        <ele>59.6</ele>
        <time>2014-05-29T07:56:03Z</time>
      </trkpt>
      <trkpt lat="48.36324" lon="2.53238">
        <ele>60</ele>
        <time>2014-05-29T07:56:05Z</time>
      </trkpt>
      <trkpt lat="48.36323" lon="2.53241">
        <ele>60.4</ele>
        <time>2014-05-29T07:56:06Z</time>
      </trkpt>
      <trkpt lat="48.36324" lon="2.53242">
        <ele>60.8</ele>
        <time>2014-05-29T07:56:07Z</time>
      </trkpt>
      <trkpt lat="48.36324" lon="2.53244">
        <ele>61.2</ele>
        <time>2014-05-29T07:56:08Z</time>
      </trkpt>
      <trkpt lat="48.36323" lon="2.53246">
        <ele>61.6</ele>
        <time>2014-05-29T07:56:09Z</time>
      </trkpt>
      <trkpt lat="48.36323" lon="2.5325">
        <ele>62.2</ele>
        <time>2014-05-29T07:56:12Z</time>
      </trkpt>
      <trkpt lat="48.36323" lon="2.53251">
        <ele>62.6</ele>
        <time>2014-05-29T07:56:13Z</time>
      </trkpt>
      <trkpt lat="48.36322" lon="2.53253">
        <ele>63.2</ele>
        <time>2014-05-29T07:56:14Z</time>
      </trkpt>
      <trkpt lat="48.3632" lon="2.53254">
        <ele>63.6</ele>
        <time>2014-05-29T07:56:15Z</time>
      </trkpt>
      <trkpt lat="48.36318" lon="2.53256">
        <ele>64</ele>
        <time>2014-05-29T07:56:16Z</time>
      </trkpt>
      <trkpt lat="48.36315" lon="2.53259">
        <ele>64.4</ele>
        <time>2014-05-29T07:56:18Z</time>
      </trkpt>
      <trkpt lat="48.36313" lon="2.53261">
        <ele>64.8</ele>
        <time>2014-05-29T07:56:19Z</time>
      </trkpt>
      <trkpt lat="48.36311" lon="2.53264">
        <ele>65.2</ele>
        <time>2014-05-29T07:56:20Z</time>
      </trkpt>
      <trkpt lat="48.36306" lon="2.53266">
        <ele>65.6</ele>
        <time>2014-05-29T07:56:21Z</time>
      </trkpt>
      <trkpt lat="48.36302" lon="2.53268">
        <ele>66</ele>
        <time>2014-05-29T07:56:22Z</time>
      </trkpt>
      <trkpt lat="48.36298" lon="2.5327">
        <ele>66</ele>
        <time>2014-05-29T07:56:23Z</time>
      </trkpt>
      <trkpt lat="48.36291" lon="2.53272">
        <ele>66</ele>
        <time>2014-05-29T07:56:25Z</time>
      </trkpt>
      <trkpt lat="48.36288" lon="2.53278">
        <ele>66</ele>
        <time>2014-05-29T07:56:27Z</time>
      </trkpt>
      <trkpt lat="48.36281" lon="2.53285">
        <ele>66</ele>
        <time>2014-05-29T07:56:30Z</time>
      </trkpt>
      <trkpt lat="48.36275" lon="2.53294">
        <ele>66</ele>
        <time>2014-05-29T07:56:35Z</time>
      </trkpt>
      <trkpt lat="48.36273" lon="2.53296">
        <ele>66.6</ele>
        <time>2014-05-29T07:56:37Z</time>
      </trkpt>
      <trkpt lat="48.36272" lon="2.53297">
        <ele>67</ele>
        <time>2014-05-29T07:56:38Z</time>
      </trkpt>
      <trkpt lat="48.36273" lon="2.53298">
        <ele>67.4</ele>
        <time>2014-05-29T07:56:39Z</time>
      </trkpt>
      <trkpt lat="48.36273" lon="2.53298">
        <ele>67.8</ele>
        <time>2014-05-29T07:56:40Z</time>
      </trkpt>
      <trkpt lat="48.36274" lon="2.53299">
        <ele>68.4</ele>
        <time>2014-05-29T07:56:41Z</time>
      </trkpt>
      <trkpt lat="48.36265" lon="2.53315">
        <ele>68.8</ele>
        <time>2014-05-29T07:56:48Z</time>
      </trkpt>
      <trkpt lat="48.36263" lon="2.53317">
        <ele>69.2</ele>
        <time>2014-05-29T07:56:49Z</time>
      </trkpt>
      <trkpt lat="48.36262" lon="2.53319">
        <ele>69.8</ele>
        <time>2014-05-29T07:56:50Z</time>
      </trkpt>
      <trkpt lat="48.36261" lon="2.5332">
        <ele>70.2</ele>
        <time>2014-05-29T07:56:51Z</time>
      </trkpt>
      <trkpt lat="48.36259" lon="2.53324">
        <ele>70.6</ele>
        <time>2014-05-29T07:56:52Z</time>
      </trkpt>
      <trkpt lat="48.3625" lon="2.5333">
        <ele>70.6</ele>
        <time>2014-05-29T07:56:56Z</time>
      </trkpt>
      <trkpt lat="48.36241" lon="2.53336">
        <ele>70.6</ele>
        <time>2014-05-29T07:57:01Z</time>
      </trkpt>
      <trkpt lat="48.36239" lon="2.53338">
        <ele>71</ele>
        <time>2014-05-29T07:57:02Z</time>
      </trkpt>
      <trkpt lat="48.36237" lon="2.53339">
        <ele>71.4</ele>
        <time>2014-05-29T07:57:03Z</time>
      </trkpt>
      <trkpt lat="48.36237" lon="2.53341">
        <ele>72</ele>
        <time>2014-05-29T07:57:04Z</time>
      </trkpt>
      <trkpt lat="48.36235" lon="2.53343">
        <ele>72.4</ele>
        <time>2014-05-29T07:57:05Z</time>
      </trkpt>
      <trkpt lat="48.36233" lon="2.53344">
        <ele>72.8</ele>
        <time>2014-05-29T07:57:06Z</time>
      </trkpt>
      <trkpt lat="48.3623" lon="2.53346">
        <ele>72.8</ele>
        <time>2014-05-29T07:57:07Z</time>
      </trkpt>
      <trkpt lat="48.36226" lon="2.53346">
        <ele>72.8</ele>
        <time>2014-05-29T07:57:08Z</time>
      </trkpt>
      <trkpt lat="48.36225" lon="2.53345">
        <ele>72.8</ele>
        <time>2014-05-29T07:57:09Z</time>
      </trkpt>
      <trkpt lat="48.36221" lon="2.53349">
        <ele>72.8</ele>
        <time>2014-05-29T07:57:12Z</time>
      </trkpt>
      <trkpt lat="48.36218" lon="2.53364">
        <ele>72.8</ele>
        <time>2014-05-29T07:57:20Z</time>
      </trkpt>
      <trkpt lat="48.36218" lon="2.53383">
        <ele>73.2</ele>
        <time>2014-05-29T07:57:28Z</time>
      </trkpt>
      <trkpt lat="48.36218" lon="2.53385">
        <ele>73.6</ele>
        <time>2014-05-29T07:57:29Z</time>
      </trkpt>
      <trkpt lat="48.36218" lon="2.53388">
        <ele>74.2</ele>
        <time>2014-05-29T07:57:30Z</time>
      </trkpt>
      <trkpt lat="48.36218" lon="2.53391">
        <ele>74.6</ele>
        <time>2014-05-29T07:57:31Z</time>
      </trkpt>
      <trkpt lat="48.36219" lon="2.53394">
        <ele>75</ele>
        <time>2014-05-29T07:57:32Z</time>
      </trkpt>
      <trkpt lat="48.3622" lon="2.534">
        <ele>75</ele>
        <time>2014-05-29T07:57:34Z</time>
      </trkpt>
      <trkpt lat="48.36219" lon="2.5342">
        <ele>75.4</ele>
        <time>2014-05-29T07:57:42Z</time>
      </trkpt>
      <trkpt lat="48.36219" lon="2.53423">
        <ele>76</ele>
        <time>2014-05-29T07:57:43Z</time>
      </trkpt>
      <trkpt lat="48.36219" lon="2.53425">
        <ele>76.4</ele>
        <time>2014-05-29T07:57:44Z</time>
      </trkpt>
      <trkpt lat="48.3622" lon="2.53428">
        <ele>76.8</ele>
        <time>2014-05-29T07:57:45Z</time>
      </trkpt>
      <trkpt lat="48.3622" lon="2.5343">
        <ele>77.2</ele>
        <time>2014-05-29T07:57:46Z</time>
      </trkpt>
      <trkpt lat="48.36219" lon="2.53444">
        <ele>77.6</ele>
        <time>2014-05-29T07:57:52Z</time>
      </trkpt>
      <trkpt lat="48.36219" lon="2.53446">
        <ele>78</ele>
        <time>2014-05-29T07:57:53Z</time>
      </trkpt>
      <trkpt lat="48.36218" lon="2.53446">
        <ele>78.4</ele>
        <time>2014-05-29T07:57:54Z</time>
      </trkpt>
      <trkpt lat="48.36218" lon="2.53446">
        <ele>78.8</ele>
        <time>2014-05-29T07:57:55Z</time>
      </trkpt>
      <trkpt lat="48.36217" lon="2.53447">
        <ele>79.2</ele>
        <time>2014-05-29T07:57:56Z</time>
      </trkpt>
      <trkpt lat="48.36218" lon="2.5345">
        <ele>79.6</ele>
        <time>2014-05-29T07:57:58Z</time>
      </trkpt>
      <trkpt lat="48.36217" lon="2.53451">
        <ele>80.2</ele>
        <time>2014-05-29T07:57:59Z</time>
      </trkpt>
      <trkpt lat="48.36217" lon="2.53451">
        <ele>80.6</ele>
        <time>2014-05-29T07:58:00Z</time>
      </trkpt>
      <trkpt lat="48.36217" lon="2.53451">
        <ele>81</ele>
        <time>2014-05-29T07:58:01Z</time>
      </trkpt>
      <trkpt lat="48.36216" lon="2.53451">
        <ele>81.4</ele>
        <time>2014-05-29T07:58:02Z</time>
      </trkpt>
      <trkpt lat="48.36216" lon="2.53454">
        <ele>81.4</ele>
        <time>2014-05-29T07:58:04Z</time>
      </trkpt>
      <trkpt lat="48.36216" lon="2.53456">
        <ele>82</ele>
        <time>2014-05-29T07:58:05Z</time>
      </trkpt>
      <trkpt lat="48.36216" lon="2.53458">
        <ele>82.4</ele>
        <time>2014-05-29T07:58:06Z</time>
      </trkpt>
      <trkpt lat="48.36216" lon="2.5346">
        <ele>82.8</ele>
        <time>2014-05-29T07:58:07Z</time>
      </trkpt>
      <trkpt lat="48.36218" lon="2.53464">
        <ele>83.2</ele>
        <time>2014-05-29T07:58:08Z</time>
      </trkpt>
      <trkpt lat="48.36219" lon="2.53467">
        <ele>83.6</ele>
        <time>2014-05-29T07:58:09Z</time>
      </trkpt>
      <trkpt lat="48.36219" lon="2.53475">
        <ele>83.6</ele>
        <time>2014-05-29T07:58:11Z</time>
      </trkpt>
      <trkpt lat="48.36208" lon="2.53496">
        <ele>83.6</ele>
        <time>2014-05-29T07:58:18Z</time>
      </trkpt>
      <trkpt lat="48.36206" lon="2.53514">
        <ele>83.6</ele>
        <time>2014-05-29T07:58:23Z</time>
      </trkpt>
      <trkpt lat="48.36207" lon="2.53517">
        <ele>83.6</ele>
        <time>2014-05-29T07:58:24Z</time>
      </trkpt>
      <trkpt lat="48.36208" lon="2.53523">
        <ele>84</ele>
        <time>2014-05-29T07:58:26Z</time>
      </trkpt>
      <trkpt lat="48.36208" lon="2.53525">
        <ele>84.4</ele>
        <time>2014-05-29T07:58:27Z</time>
      </trkpt>
      <trkpt lat="48.36208" lon="2.53528">
        <ele>84.8</ele>
        <time>2014-05-29T07:58:28Z</time>
      </trkpt>
      <trkpt lat="48.36208" lon="2.5353">
        <ele>85.4</ele>
        <time>2014-05-29T07:58:29Z</time>
      </trkpt>
      <trkpt lat="48.36208" lon="2.53533">
        <ele>85.8</ele>
        <time>2014-05-29T07:58:30Z</time>
      </trkpt>
      <trkpt lat="48.36198" lon="2.53558">
        <ele>85.4</ele>
        <time>2014-05-29T07:58:37Z</time>
      </trkpt>
      <trkpt lat="48.36197" lon="2.53563">
        <ele>84.8</ele>
        <time>2014-05-29T07:58:38Z</time>
      </trkpt>
      <trkpt lat="48.36195" lon="2.53566">
        <ele>84.2</ele>
        <time>2014-05-29T07:58:39Z</time>
      </trkpt>
      <trkpt lat="48.36192" lon="2.53567">
        <ele>83.6</ele>
        <time>2014-05-29T07:58:40Z</time>
      </trkpt>
      <trkpt lat="48.36184" lon="2.53573">
        <ele>81</ele>
        <time>2014-05-29T07:58:43Z</time>
      </trkpt>
      <trkpt lat="48.36183" lon="2.53576">
        <ele>80.2</ele>
        <time>2014-05-29T07:58:44Z</time>
      </trkpt>
      <trkpt lat="48.36181" lon="2.53581">
        <ele>79.6</ele>
        <time>2014-05-29T07:58:45Z</time>
      </trkpt>
      <trkpt lat="48.36179" lon="2.53584">
        <ele>78.8</ele>
        <time>2014-05-29T07:58:46Z</time>
      </trkpt>
      <trkpt lat="48.36178" lon="2.53587">
        <ele>77.8</ele>
        <time>2014-05-29T07:58:47Z</time>
      </trkpt>
      <trkpt lat="48.3617" lon="2.53594">
        <ele>76.8</ele>
        <time>2014-05-29T07:58:48Z</time>
      </trkpt>
      <trkpt lat="48.36166" lon="2.53596">
        <ele>75.6</ele>
        <time>2014-05-29T07:58:49Z</time>
      </trkpt>
      <trkpt lat="48.36158" lon="2.53602">
        <ele>74.4</ele>
        <time>2014-05-29T07:58:50Z</time>
      </trkpt>
      <trkpt lat="48.36152" lon="2.53609">
        <ele>73.2</ele>
        <time>2014-05-29T07:58:51Z</time>
      </trkpt>
      <trkpt lat="48.36147" lon="2.53615">
        <ele>72</ele>
        <time>2014-05-29T07:58:52Z</time>
      </trkpt>
      <trkpt lat="48.36142" lon="2.53621">
        <ele>70.8</ele>
        <time>2014-05-29T07:58:53Z</time>
      </trkpt>
      <trkpt lat="48.36131" lon="2.53631">
        <ele>69.6</ele>
        <time>2014-05-29T07:58:55Z</time>
      </trkpt>
      <trkpt lat="48.36128" lon="2.53631">
        <ele>68.6</ele>
        <time>2014-05-29T07:58:56Z</time>
      </trkpt>
      <trkpt lat="48.36124" lon="2.5363">
        <ele>67.4</ele>
        <time>2014-05-29T07:58:57Z</time>
      </trkpt>
      <trkpt lat="48.36121" lon="2.53629">
        <ele>66</ele>
        <time>2014-05-29T07:58:58Z</time>
      </trkpt>
      <trkpt lat="48.36118" lon="2.53627">
        <ele>64.8</ele>
        <time>2014-05-29T07:58:59Z</time>
      </trkpt>
      <trkpt lat="48.36114" lon="2.53624">
        <ele>63.6</ele>
        <time>2014-05-29T07:59:00Z</time>
      </trkpt>
      <trkpt lat="48.36109" lon="2.53623">
        <ele>62.4</ele>
        <time>2014-05-29T07:59:01Z</time>
      </trkpt>
      <trkpt lat="48.36107" lon="2.53621">
        <ele>61.2</ele>
        <time>2014-05-29T07:59:02Z</time>
      </trkpt>
      <trkpt lat="48.36099" lon="2.53622">
        <ele>60.6</ele>
        <time>2014-05-29T07:59:04Z</time>
      </trkpt>
      <trkpt lat="48.36093" lon="2.53625">
        <ele>60.2</ele>
        <time>2014-05-29T07:59:05Z</time>
      </trkpt>
      <trkpt lat="48.36089" lon="2.53624">
        <ele>59.8</ele>
        <time>2014-05-29T07:59:06Z</time>
      </trkpt>
      <trkpt lat="48.36085" lon="2.53622">
        <ele>59.2</ele>
        <time>2014-05-29T07:59:07Z</time>
      </trkpt>
      <trkpt lat="48.36082" lon="2.5362">
        <ele>58.8</ele>
        <time>2014-05-29T07:59:08Z</time>
      </trkpt>
      <trkpt lat="48.36075" lon="2.53618">
        <ele>58.4</ele>
        <time>2014-05-29T07:59:09Z</time>
      </trkpt>
      <trkpt lat="48.3607" lon="2.53617">
        <ele>58</ele>
        <time>2014-05-29T07:59:10Z</time>
      </trkpt>
      <trkpt lat="48.36064" lon="2.53614">
        <ele>57.6</ele>
        <time>2014-05-29T07:59:11Z</time>
      </trkpt>
      <trkpt lat="48.36058" lon="2.53609">
        <ele>57.2</ele>
        <time>2014-05-29T07:59:12Z</time>
      </trkpt>
      <trkpt lat="48.36052" lon="2.53603">
        <ele>56.8</ele>
        <time>2014-05-29T07:59:13Z</time>
      </trkpt>
      <trkpt lat="48.36047" lon="2.536">
        <ele>56.4</ele>
        <time>2014-05-29T07:59:14Z</time>
      </trkpt>
      <trkpt lat="48.36041" lon="2.53593">
        <ele>56</ele>
        <time>2014-05-29T07:59:15Z</time>
      </trkpt>
      <trkpt lat="48.36035" lon="2.53588">
        <ele>55.6</ele>
        <time>2014-05-29T07:59:16Z</time>
      </trkpt>
      <trkpt lat="48.36031" lon="2.53584">
        <ele>55.2</ele>
        <time>2014-05-29T07:59:17Z</time>
      </trkpt>
      <trkpt lat="48.36027" lon="2.53575">
        <ele>54.8</ele>
        <time>2014-05-29T07:59:18Z</time>
      </trkpt>
      <trkpt lat="48.36023" lon="2.53567">
        <ele>54.8</ele>
        <time>2014-05-29T07:59:19Z</time>
      </trkpt>
      <trkpt lat="48.36017" lon="2.53559">
        <ele>54.4</ele>
        <time>2014-05-29T07:59:21Z</time>
      </trkpt>
      <trkpt lat="48.36014" lon="2.53558">
        <ele>53.8</ele>
        <time>2014-05-29T07:59:22Z</time>
      </trkpt>
      <trkpt lat="48.36009" lon="2.53559">
        <ele>53.4</ele>
        <time>2014-05-29T07:59:23Z</time>
      </trkpt>
      <trkpt lat="48.36006" lon="2.53556">
        <ele>53</ele>
        <time>2014-05-29T07:59:24Z</time>
      </trkpt>
      <trkpt lat="48.36003" lon="2.53552">
        <ele>52.6</ele>
        <time>2014-05-29T07:59:25Z</time>
      </trkpt>
      <trkpt lat="48.35995" lon="2.53534">
        <ele>52.6</ele>
        <time>2014-05-29T07:59:29Z</time>
      </trkpt>
      <trkpt lat="48.35996" lon="2.53526">
        <ele>52.6</ele>
        <time>2014-05-29T07:59:30Z</time>
      </trkpt>
      <trkpt lat="48.35996" lon="2.53518">
        <ele>52.2</ele>
        <time>2014-05-29T07:59:31Z</time>
      </trkpt>
      <trkpt lat="48.35995" lon="2.53512">
        <ele>51.8</ele>
        <time>2014-05-29T07:59:32Z</time>
      </trkpt>
      <trkpt lat="48.35994" lon="2.53505">
        <ele>51.4</ele>
        <time>2014-05-29T07:59:33Z</time>
      </trkpt>
      <trkpt lat="48.35992" lon="2.53499">
        <ele>51</ele>
        <time>2014-05-29T07:59:34Z</time>
      </trkpt>
      <trkpt lat="48.35991" lon="2.53493">
        <ele>50.6</ele>
        <time>2014-05-29T07:59:35Z</time>
      </trkpt>
      <trkpt lat="48.35987" lon="2.53479">
        <ele>50.6</ele>
        <time>2014-05-29T07:59:37Z</time>
      </trkpt>
      <trkpt lat="48.35986" lon="2.53473">
        <ele>50.6</ele>
        <time>2014-05-29T07:59:38Z</time>
      </trkpt>
      <trkpt lat="48.35982" lon="2.5345">
        <ele>50.6</ele>
        <time>2014-05-29T07:59:42Z</time>
      </trkpt>
      <trkpt lat="48.35979" lon="2.53401">
        <ele>50.6</ele>
        <time>2014-05-29T07:59:50Z</time>
      </trkpt>
      <trkpt lat="48.35984" lon="2.53394">
        <ele>50.6</ele>
        <time>2014-05-29T07:59:51Z</time>
      </trkpt>
      <trkpt lat="48.35994" lon="2.53371">
        <ele>50.6</ele>
        <time>2014-05-29T07:59:55Z</time>
      </trkpt>
      <trkpt lat="48.35999" lon="2.53357">
        <ele>50.6</ele>
        <time>2014-05-29T07:59:59Z</time>
      </trkpt>
      <trkpt lat="48.36012" lon="2.53339">
        <ele>50.6</ele>
        <time>2014-05-29T08:00:04Z</time>
      </trkpt>
      <trkpt lat="48.36017" lon="2.53333">
        <ele>51</ele>
        <time>2014-05-29T08:00:06Z</time>
      </trkpt>
      <trkpt lat="48.3602" lon="2.53331">
        <ele>51.4</ele>
        <time>2014-05-29T08:00:07Z</time>
      </trkpt>
      <trkpt lat="48.36022" lon="2.53329">
        <ele>51.8</ele>
        <time>2014-05-29T08:00:08Z</time>
      </trkpt>
      <trkpt lat="48.36023" lon="2.53327">
        <ele>52.2</ele>
        <time>2014-05-29T08:00:09Z</time>
      </trkpt>
      <trkpt lat="48.36025" lon="2.53324">
        <ele>52.6</ele>
        <time>2014-05-29T08:00:10Z</time>
      </trkpt>
      <trkpt lat="48.3603" lon="2.53316">
        <ele>52.6</ele>
        <time>2014-05-29T08:00:13Z</time>
      </trkpt>
      <trkpt lat="48.36036" lon="2.53292">
        <ele>52.6</ele>
        <time>2014-05-29T08:00:20Z</time>
      </trkpt>
      <trkpt lat="48.36045" lon="2.53267">
        <ele>52.6</ele>
        <time>2014-05-29T08:00:25Z</time>
      </trkpt>
      <trkpt lat="48.36045" lon="2.53233">
        <ele>52.6</ele>
        <time>2014-05-29T08:00:32Z</time>
      </trkpt>
      <trkpt lat="48.36052" lon="2.5321">
        <ele>52.6</ele>
        <time>2014-05-29T08:00:37Z</time>
      </trkpt>
      <trkpt lat="48.36047" lon="2.53207">
        <ele>52.6</ele>
        <time>2014-05-29T08:00:39Z</time>
      </trkpt>
      <trkpt lat="48.36044" lon="2.53204">
        <ele>52.6</ele>
        <time>2014-05-29T08:00:40Z</time>
      </trkpt>
      <trkpt lat="48.36017" lon="2.53191">
        <ele>52.2</ele>
        <time>2014-05-29T08:00:47Z</time>
      </trkpt>
      <trkpt lat="48.36013" lon="2.53189">
        <ele>51.8</ele>
        <time>2014-05-29T08:00:48Z</time>
      </trkpt>
      <trkpt lat="48.36009" lon="2.53187">
        <ele>51.4</ele>
        <time>2014-05-29T08:00:49Z</time>
      </trkpt>
      <trkpt lat="48.36004" lon="2.53183">
        <ele>51</ele>
        <time>2014-05-29T08:00:50Z</time>
      </trkpt>
      <trkpt lat="48.35998" lon="2.53179">
        <ele>50.6</ele>
        <time>2014-05-29T08:00:51Z</time>
      </trkpt>
      <trkpt lat="48.35993" lon="2.53176">
        <ele>50.6</ele>
        <time>2014-05-29T08:00:52Z</time>
      </trkpt>
      <trkpt lat="48.35989" lon="2.53173">
        <ele>50</ele>
        <time>2014-05-29T08:00:53Z</time>
      </trkpt>
      <trkpt lat="48.35984" lon="2.53167">
        <ele>49.4</ele>
        <time>2014-05-29T08:00:54Z</time>
      </trkpt>
      <trkpt lat="48.35983" lon="2.53161">
        <ele>49</ele>
        <time>2014-05-29T08:00:55Z</time>
      </trkpt>
      <trkpt lat="48.35983" lon="2.53154">
        <ele>48.4</ele>
        <time>2014-05-29T08:00:56Z</time>
      </trkpt>
      <trkpt lat="48.35981" lon="2.53152">
        <ele>48</ele>
        <time>2014-05-29T08:00:57Z</time>
      </trkpt>
      <trkpt lat="48.35989" lon="2.53126">
        <ele>48</ele>
        <time>2014-05-29T08:01:00Z</time>
      </trkpt>
      <trkpt lat="48.35993" lon="2.53114">
        <ele>48</ele>
        <time>2014-05-29T08:01:02Z</time>
      </trkpt>
      <trkpt lat="48.35994" lon="2.53102">
        <ele>48</ele>
        <time>2014-05-29T08:01:04Z</time>
      </trkpt>
      <trkpt lat="48.35999" lon="2.53087">
        <ele>48</ele>
        <time>2014-05-29T08:01:06Z</time>
      </trkpt>
      <trkpt lat="48.36002" lon="2.53075">
        <ele>48</ele>
        <time>2014-05-29T08:01:08Z</time>
      </trkpt>
      <trkpt lat="48.3601" lon="2.53042">
        <ele>48</ele>
        <time>2014-05-29T08:01:12Z</time>
      </trkpt>
      <trkpt lat="48.36029" lon="2.52983">
        <ele>48</ele>
        <time>2014-05-29T08:01:20Z</time>
      </trkpt>
      <trkpt lat="48.36031" lon="2.52977">
        <ele>48</ele>
        <time>2014-05-29T08:01:21Z</time>
      </trkpt>
      <trkpt lat="48.36042" lon="2.52953">
        <ele>48</ele>
        <time>2014-05-29T08:01:25Z</time>
      </trkpt>
      <trkpt lat="48.36045" lon="2.52941">
        <ele>48</ele>
        <time>2014-05-29T08:01:27Z</time>
      </trkpt>
      <trkpt lat="48.36054" lon="2.52923">
        <ele>48</ele>
        <time>2014-05-29T08:01:30Z</time>
      </trkpt>
      <trkpt lat="48.36065" lon="2.52908">
        <ele>48</ele>
        <time>2014-05-29T08:01:34Z</time>
      </trkpt>
      <trkpt lat="48.3607" lon="2.52908">
        <ele>48</ele>
        <time>2014-05-29T08:01:36Z</time>
      </trkpt>
      <trkpt lat="48.36073" lon="2.52908">
        <ele>48</ele>
        <time>2014-05-29T08:01:37Z</time>
      </trkpt>
      <trkpt lat="48.36089" lon="2.52905">
        <ele>48</ele>
        <time>2014-05-29T08:01:43Z</time>
      </trkpt>
      <trkpt lat="48.36095" lon="2.52903">
        <ele>48.4</ele>
        <time>2014-05-29T08:01:46Z</time>
      </trkpt>
      <trkpt lat="48.36097" lon="2.52901">
        <ele>48.8</ele>
        <time>2014-05-29T08:01:47Z</time>
      </trkpt>
      <trkpt lat="48.361" lon="2.529">
        <ele>49.2</ele>
        <time>2014-05-29T08:01:48Z</time>
      </trkpt>
      <trkpt lat="48.36102" lon="2.52899">
        <ele>49.6</ele>
        <time>2014-05-29T08:01:49Z</time>
      </trkpt>
      <trkpt lat="48.36104" lon="2.52899">
        <ele>50</ele>
        <time>2014-05-29T08:01:50Z</time>
      </trkpt>
      <trkpt lat="48.36112" lon="2.52899">
        <ele>50</ele>
        <time>2014-05-29T08:01:53Z</time>
      </trkpt>
      <trkpt lat="48.36112" lon="2.529">
        <ele>50</ele>
        <time>2014-05-29T08:01:54Z</time>
      </trkpt>
      <trkpt lat="48.3612" lon="2.52905">
        <ele>50.4</ele>
        <time>2014-05-29T08:01:56Z</time>
      </trkpt>
      <trkpt lat="48.36124" lon="2.52907">
        <ele>50.8</ele>
        <time>2014-05-29T08:01:57Z</time>
      </trkpt>
      <trkpt lat="48.36127" lon="2.52908">
        <ele>51.4</ele>
        <time>2014-05-29T08:01:58Z</time>
      </trkpt>
      <trkpt lat="48.36131" lon="2.52905">
        <ele>51.8</ele>
        <time>2014-05-29T08:01:59Z</time>
      </trkpt>
      <trkpt lat="48.36133" lon="2.52904">
        <ele>52.2</ele>
        <time>2014-05-29T08:02:00Z</time>
      </trkpt>
      <trkpt lat="48.36141" lon="2.52908">
        <ele>52.2</ele>
        <time>2014-05-29T08:02:03Z</time>
      </trkpt>
      <trkpt lat="48.3615" lon="2.52915">
        <ele>52.2</ele>
        <time>2014-05-29T08:02:06Z</time>
      </trkpt>
      <trkpt lat="48.36178" lon="2.5294">
        <ele>52.2</ele>
        <time>2014-05-29T08:02:14Z</time>
      </trkpt>
      <trkpt lat="48.36202" lon="2.52958">
        <ele>52.2</ele>
        <time>2014-05-29T08:02:20Z</time>
      </trkpt>
      <trkpt lat="48.36215" lon="2.5297">
        <ele>52.2</ele>
        <time>2014-05-29T08:02:23Z</time>
      </trkpt>
      <trkpt lat="48.36228" lon="2.5298">
        <ele>52.2</ele>
        <time>2014-05-29T08:02:27Z</time>
      </trkpt>
      <trkpt lat="48.36254" lon="2.52998">
        <ele>52.2</ele>
        <time>2014-05-29T08:02:33Z</time>
      </trkpt>
      <trkpt lat="48.36257" lon="2.53011">
        <ele>52.2</ele>
        <time>2014-05-29T08:02:35Z</time>
      </trkpt>
      <trkpt lat="48.36268" lon="2.5303">
        <ele>52.2</ele>
        <time>2014-05-29T08:02:38Z</time>
      </trkpt>
      <trkpt lat="48.36286" lon="2.53061">
        <ele>52.2</ele>
        <time>2014-05-29T08:02:42Z</time>
      </trkpt>
      <trkpt lat="48.36288" lon="2.53067">
        <ele>52.2</ele>
        <time>2014-05-29T08:02:43Z</time>
      </trkpt>
      <trkpt lat="48.36298" lon="2.53079">
        <ele>52.2</ele>
        <time>2014-05-29T08:02:47Z</time>
      </trkpt>
      <trkpt lat="48.36306" lon="2.53085">
        <ele>52.2</ele>
        <time>2014-05-29T08:02:49Z</time>
      </trkpt>
      <trkpt lat="48.36324" lon="2.53114">
        <ele>52.2</ele>
        <time>2014-05-29T08:02:55Z</time>
      </trkpt>
      <trkpt lat="48.36325" lon="2.53113">
        <ele>52.2</ele>
        <time>2014-05-29T08:02:56Z</time>
      </trkpt>
      <trkpt lat="48.36327" lon="2.53113">
        <ele>52.2</ele>
        <time>2014-05-29T08:02:58Z</time>
      </trkpt>
      <trkpt lat="48.36341" lon="2.53109">
        <ele>52.2</ele>
        <time>2014-05-29T08:03:03Z</time>
      </trkpt>
      <trkpt lat="48.36352" lon="2.5311">
        <ele>52.2</ele>
        <time>2014-05-29T08:03:07Z</time>
      </trkpt>
      <trkpt lat="48.36358" lon="2.5311">
        <ele>52.2</ele>
        <time>2014-05-29T08:03:13Z</time>
      </trkpt>
      <trkpt lat="48.36363" lon="2.5312">
        <ele>52.2</ele>
        <time>2014-05-29T08:03:19Z</time>
      </trkpt>
      <trkpt lat="48.36365" lon="2.53127">
        <ele>52.2</ele>
        <time>2014-05-29T08:03:22Z</time>
      </trkpt>
      <trkpt lat="48.36366" lon="2.53127">
        <ele>52.2</ele>
        <time>2014-05-29T08:03:26Z</time>
      </trkpt>
      <trkpt lat="48.3638" lon="2.53119">
        <ele>52.2</ele>
        <time>2014-05-29T08:03:34Z</time>
      </trkpt>
      <trkpt lat="48.36382" lon="2.53119">
        <ele>52.2</ele>
        <time>2014-05-29T08:03:35Z</time>
      </trkpt>
      <trkpt lat="48.36388" lon="2.53116">
        <ele>52.6</ele>
        <time>2014-05-29T08:03:38Z</time>
      </trkpt>
      <trkpt lat="48.3639" lon="2.53116">
        <ele>53</ele>
        <time>2014-05-29T08:03:39Z</time>
      </trkpt>
      <trkpt lat="48.36392" lon="2.53115">
        <ele>53.4</ele>
        <time>2014-05-29T08:03:40Z</time>
      </trkpt>
      <trkpt lat="48.36394" lon="2.53115">
        <ele>53.8</ele>
        <time>2014-05-29T08:03:41Z</time>
      </trkpt>
      <trkpt lat="48.36395" lon="2.53114">
        <ele>54.2</ele>
        <time>2014-05-29T08:03:42Z</time>
      </trkpt>
      <trkpt lat="48.36399" lon="2.53115">
        <ele>54.2</ele>
        <time>2014-05-29T08:03:44Z</time>
      </trkpt>
      <trkpt lat="48.364" lon="2.53115">
        <ele>54.6</ele>
        <time>2014-05-29T08:03:45Z</time>
      </trkpt>
      <trkpt lat="48.36402" lon="2.53118">
        <ele>55</ele>
        <time>2014-05-29T08:03:46Z</time>
      </trkpt>
      <trkpt lat="48.36402" lon="2.53118">
        <ele>55.4</ele>
        <time>2014-05-29T08:03:47Z</time>
      </trkpt>
      <trkpt lat="48.36403" lon="2.53117">
        <ele>55.8</ele>
        <time>2014-05-29T08:03:48Z</time>
      </trkpt>
      <trkpt lat="48.36405" lon="2.53117">
        <ele>56.2</ele>
        <time>2014-05-29T08:03:49Z</time>
      </trkpt>
      <trkpt lat="48.36406" lon="2.53117">
        <ele>56.2</ele>
        <time>2014-05-29T08:03:50Z</time>
      </trkpt>
      <trkpt lat="48.36407" lon="2.53117">
        <ele>56.2</ele>
        <time>2014-05-29T08:03:51Z</time>
      </trkpt>
      <trkpt lat="48.36409" lon="2.53116">
        <ele>56.2</ele>
        <time>2014-05-29T08:03:53Z</time>
      </trkpt>
      <trkpt lat="48.36419" lon="2.53113">
        <ele>56.6</ele>
        <time>2014-05-29T08:03:57Z</time>
      </trkpt>
      <trkpt lat="48.3642" lon="2.53112">
        <ele>57</ele>
        <time>2014-05-29T08:03:58Z</time>
      </trkpt>
      <trkpt lat="48.36422" lon="2.5311">
        <ele>57.6</ele>
        <time>2014-05-29T08:03:59Z</time>
      </trkpt>
      <trkpt lat="48.36424" lon="2.53109">
        <ele>58</ele>
        <time>2014-05-29T08:04:00Z</time>
      </trkpt>
      <trkpt lat="48.36425" lon="2.53108">
        <ele>58.4</ele>
        <time>2014-05-29T08:04:01Z</time>
      </trkpt>
      <trkpt lat="48.36426" lon="2.53102">
        <ele>58.4</ele>
        <time>2014-05-29T08:04:04Z</time>
      </trkpt>
      <trkpt lat="48.36428" lon="2.53101">
        <ele>58.8</ele>
        <time>2014-05-29T08:04:06Z</time>
      </trkpt>
      <trkpt lat="48.36428" lon="2.53099">
        <ele>59.2</ele>
        <time>2014-05-29T08:04:07Z</time>
      </trkpt>
      <trkpt lat="48.36428" lon="2.53097">
        <ele>59.6</ele>
        <time>2014-05-29T08:04:08Z</time>
      </trkpt>
      <trkpt lat="48.36427" lon="2.53095">
        <ele>60</ele>
        <time>2014-05-29T08:04:09Z</time>
      </trkpt>
      <trkpt lat="48.36428" lon="2.53091">
        <ele>60.4</ele>
        <time>2014-05-29T08:04:10Z</time>
      </trkpt>
      <trkpt lat="48.36437" lon="2.53068">
        <ele>60.4</ele>
        <time>2014-05-29T08:04:16Z</time>
      </trkpt>
      <trkpt lat="48.36446" lon="2.53051">
        <ele>60</ele>
        <time>2014-05-29T08:04:20Z</time>
      </trkpt>
      <trkpt lat="48.36448" lon="2.53048">
        <ele>59.6</ele>
        <time>2014-05-29T08:04:21Z</time>
      </trkpt>
      <trkpt lat="48.36449" lon="2.53044">
        <ele>59.2</ele>
        <time>2014-05-29T08:04:22Z</time>
      </trkpt>
      <trkpt lat="48.3645" lon="2.5304">
        <ele>58.8</ele>
        <time>2014-05-29T08:04:23Z</time>
      </trkpt>
      <trkpt lat="48.36451" lon="2.53034">
        <ele>58.4</ele>
        <time>2014-05-29T08:04:24Z</time>
      </trkpt>
      <trkpt lat="48.36455" lon="2.53033">
        <ele>57.8</ele>
        <time>2014-05-29T08:04:25Z</time>
      </trkpt>
      <trkpt lat="48.36458" lon="2.53033">
        <ele>57.4</ele>
        <time>2014-05-29T08:04:26Z</time>
      </trkpt>
      <trkpt lat="48.36459" lon="2.53029">
        <ele>57</ele>
        <time>2014-05-29T08:04:27Z</time>
      </trkpt>
      <trkpt lat="48.36459" lon="2.5303">
        <ele>56.6</ele>
        <time>2014-05-29T08:04:28Z</time>
      </trkpt>
      <trkpt lat="48.3646" lon="2.53027">
        <ele>56.2</ele>
        <time>2014-05-29T08:04:29Z</time>
      </trkpt>
      <trkpt lat="48.36462" lon="2.53017">
        <ele>56.2</ele>
        <time>2014-05-29T08:04:32Z</time>
      </trkpt>
      <trkpt lat="48.36469" lon="2.53006">
        <ele>55.8</ele>
        <time>2014-05-29T08:04:35Z</time>
      </trkpt>
      <trkpt lat="48.3647" lon="2.53004">
        <ele>55.4</ele>
        <time>2014-05-29T08:04:36Z</time>
      </trkpt>
      <trkpt lat="48.36472" lon="2.53003">
        <ele>54.8</ele>
        <time>2014-05-29T08:04:37Z</time>
      </trkpt>
      <trkpt lat="48.36474" lon="2.53002">
        <ele>54.4</ele>
        <time>2014-05-29T08:04:38Z</time>
      </trkpt>
      <trkpt lat="48.36474" lon="2.53001">
        <ele>54</ele>
        <time>2014-05-29T08:04:39Z</time>
      </trkpt>
      <trkpt lat="48.36475" lon="2.53001">
        <ele>54</ele>
        <time>2014-05-29T08:04:41Z</time>
      </trkpt>
      <trkpt lat="48.36478" lon="2.52999">
        <ele>54</ele>
        <time>2014-05-29T08:04:47Z</time>
      </trkpt>
      <trkpt lat="48.36483" lon="2.52988">
        <ele>53.6</ele>
        <time>2014-05-29T08:04:50Z</time>
      </trkpt>
      <trkpt lat="48.36483" lon="2.52984">
        <ele>53</ele>
        <time>2014-05-29T08:04:51Z</time>
      </trkpt>
      <trkpt lat="48.36488" lon="2.52979">
        <ele>52.6</ele>
        <time>2014-05-29T08:04:52Z</time>
      </trkpt>
      <trkpt lat="48.36491" lon="2.52973">
        <ele>52.2</ele>
        <time>2014-05-29T08:04:53Z</time>
      </trkpt>
      <trkpt lat="48.36492" lon="2.52969">
        <ele>51.8</ele>
        <time>2014-05-29T08:04:54Z</time>
      </trkpt>
      <trkpt lat="48.36494" lon="2.52957">
        <ele>51.4</ele>
        <time>2014-05-29T08:04:56Z</time>
      </trkpt>
      <trkpt lat="48.36495" lon="2.52951">
        <ele>51</ele>
        <time>2014-05-29T08:04:57Z</time>
      </trkpt>
      <trkpt lat="48.36498" lon="2.52945">
        <ele>50.6</ele>
        <time>2014-05-29T08:04:58Z</time>
      </trkpt>
      <trkpt lat="48.36501" lon="2.5294">
        <ele>50.2</ele>
        <time>2014-05-29T08:04:59Z</time>
      </trkpt>
      <trkpt lat="48.36504" lon="2.52935">
        <ele>49.8</ele>
        <time>2014-05-29T08:05:00Z</time>
      </trkpt>
      <trkpt lat="48.36524" lon="2.52903">
        <ele>49.8</ele>
        <time>2014-05-29T08:05:06Z</time>
      </trkpt>
      <trkpt lat="48.3654" lon="2.52863">
        <ele>49.8</ele>
        <time>2014-05-29T08:05:14Z</time>
      </trkpt>
      <trkpt lat="48.36545" lon="2.52854">
        <ele>49.8</ele>
        <time>2014-05-29T08:05:16Z</time>
      </trkpt>
      <trkpt lat="48.36552" lon="2.52845">
        <ele>49.8</ele>
        <time>2014-05-29T08:05:19Z</time>
      </trkpt>
      <trkpt lat="48.36557" lon="2.52841">
        <ele>49.8</ele>
        <time>2014-05-29T08:05:21Z</time>
      </trkpt>
      <trkpt lat="48.36558" lon="2.52839">
        <ele>49.8</ele>
        <time>2014-05-29T08:05:23Z</time>
      </trkpt>
      <trkpt lat="48.36559" lon="2.52837">
        <ele>49.8</ele>
        <time>2014-05-29T08:05:25Z</time>
      </trkpt>
      <trkpt lat="48.36559" lon="2.52835">
        <ele>49.8</ele>
        <time>2014-05-29T08:05:30Z</time>
      </trkpt>
      <trkpt lat="48.36562" lon="2.52818">
        <ele>49.8</ele>
        <time>2014-05-29T08:05:36Z</time>
      </trkpt>
      <trkpt lat="48.36556" lon="2.52801">
        <ele>49.8</ele>
        <time>2014-05-29T08:05:41Z</time>
      </trkpt>
      <trkpt lat="48.36554" lon="2.52778">
        <ele>49.8</ele>
        <time>2014-05-29T08:05:46Z</time>
      </trkpt>
      <trkpt lat="48.3656" lon="2.52767">
        <ele>49.8</ele>
        <time>2014-05-29T08:05:49Z</time>
      </trkpt>
      <trkpt lat="48.36564" lon="2.52757">
        <ele>49.8</ele>
        <time>2014-05-29T08:05:51Z</time>
      </trkpt>
      <trkpt lat="48.36569" lon="2.5272">
        <ele>49.8</ele>
        <time>2014-05-29T08:05:57Z</time>
      </trkpt>
      <trkpt lat="48.36579" lon="2.52688">
        <ele>49.8</ele>
        <time>2014-05-29T08:06:02Z</time>
      </trkpt>
      <trkpt lat="48.366" lon="2.52661">
        <ele>49.8</ele>
        <time>2014-05-29T08:06:07Z</time>
      </trkpt>
      <trkpt lat="48.36626" lon="2.52648">
        <ele>49.8</ele>
        <time>2014-05-29T08:06:12Z</time>
      </trkpt>
      <trkpt lat="48.36649" lon="2.52639">
        <ele>49.8</ele>
        <time>2014-05-29T08:06:17Z</time>
      </trkpt>
      <trkpt lat="48.36677" lon="2.52631">
        <ele>49.8</ele>
        <time>2014-05-29T08:06:23Z</time>
      </trkpt>
      <trkpt lat="48.36681" lon="2.52631">
        <ele>49.8</ele>
        <time>2014-05-29T08:06:24Z</time>
      </trkpt>
      <trkpt lat="48.36698" lon="2.52643">
        <ele>49.8</ele>
        <time>2014-05-29T08:06:28Z</time>
      </trkpt>
      <trkpt lat="48.36706" lon="2.52655">
        <ele>49.8</ele>
        <time>2014-05-29T08:06:30Z</time>
      </trkpt>
      <trkpt lat="48.36717" lon="2.52669">
        <ele>49.8</ele>
        <time>2014-05-29T08:06:33Z</time>
      </trkpt>
      <trkpt lat="48.36739" lon="2.52682">
        <ele>49.8</ele>
        <time>2014-05-29T08:06:39Z</time>
      </trkpt>
      <trkpt lat="48.36768" lon="2.52673">
        <ele>49.8</ele>
        <time>2014-05-29T08:06:46Z</time>
      </trkpt>
      <trkpt lat="48.36781" lon="2.52666">
        <ele>49.8</ele>
        <time>2014-05-29T08:06:50Z</time>
      </trkpt>
      <trkpt lat="48.36789" lon="2.52668">
        <ele>49.8</ele>
        <time>2014-05-29T08:06:52Z</time>
      </trkpt>
      <trkpt lat="48.36811" lon="2.52679">
        <ele>49.8</ele>
        <time>2014-05-29T08:06:58Z</time>
      </trkpt>
      <trkpt lat="48.36838" lon="2.52691">
        <ele>49.8</ele>
        <time>2014-05-29T08:07:05Z</time>
      </trkpt>
      <trkpt lat="48.36843" lon="2.52695">
        <ele>49.8</ele>
        <time>2014-05-29T08:07:06Z</time>
      </trkpt>
      <trkpt lat="48.36843" lon="2.52693">
        <ele>49.8</ele>
        <time>2014-05-29T08:07:08Z</time>
      </trkpt>
      <trkpt lat="48.36851" lon="2.52686">
        <ele>49.8</ele>
        <time>2014-05-29T08:07:15Z</time>
      </trkpt>
      <trkpt lat="48.36853" lon="2.52673">
        <ele>49.8</ele>
        <time>2014-05-29T08:07:18Z</time>
      </trkpt>
      <trkpt lat="48.36855" lon="2.52662">
        <ele>49.8</ele>
        <time>2014-05-29T08:07:20Z</time>
      </trkpt>
      <trkpt lat="48.36853" lon="2.52647">
        <ele>49.8</ele>
        <time>2014-05-29T08:07:24Z</time>
      </trkpt>
      <trkpt lat="48.36853" lon="2.52646">
        <ele>49.8</ele>
        <time>2014-05-29T08:07:27Z</time>
      </trkpt>
      <trkpt lat="48.36853" lon="2.52648">
        <ele>49.8</ele>
        <time>2014-05-29T08:07:33Z</time>
      </trkpt>
      <trkpt lat="48.36853" lon="2.52649">
        <ele>49.8</ele>
        <time>2014-05-29T08:07:35Z</time>
      </trkpt>
      <trkpt lat="48.36855" lon="2.52658">
        <ele>49.8</ele>
        <time>2014-05-29T08:07:37Z</time>
      </trkpt>
      <trkpt lat="48.3686" lon="2.5268">
        <ele>49.8</ele>
        <time>2014-05-29T08:07:41Z</time>
      </trkpt>
      <trkpt lat="48.36861" lon="2.52685">
        <ele>49.8</ele>
        <time>2014-05-29T08:07:42Z</time>
      </trkpt>
      <trkpt lat="48.36864" lon="2.52695">
        <ele>49.8</ele>
        <time>2014-05-29T08:07:44Z</time>
      </trkpt>
      <trkpt lat="48.36871" lon="2.5271">
        <ele>49.8</ele>
        <time>2014-05-29T08:07:47Z</time>
      </trkpt>
      <trkpt lat="48.36873" lon="2.52721">
        <ele>49.8</ele>
        <time>2014-05-29T08:07:49Z</time>
      </trkpt>
      <trkpt lat="48.36877" lon="2.52735">
        <ele>49.8</ele>
        <time>2014-05-29T08:07:52Z</time>
      </trkpt>
      <trkpt lat="48.3688" lon="2.52747">
        <ele>49.8</ele>
        <time>2014-05-29T08:07:54Z</time>
      </trkpt>
      <trkpt lat="48.36886" lon="2.52773">
        <ele>49.8</ele>
        <time>2014-05-29T08:07:58Z</time>
      </trkpt>
      <trkpt lat="48.36894" lon="2.52801">
        <ele>49.8</ele>
        <time>2014-05-29T08:08:02Z</time>
      </trkpt>
      <trkpt lat="48.36896" lon="2.52806">
        <ele>49.8</ele>
        <time>2014-05-29T08:08:03Z</time>
      </trkpt>
      <trkpt lat="48.36901" lon="2.52818">
        <ele>49.8</ele>
        <time>2014-05-29T08:08:05Z</time>
      </trkpt>
      <trkpt lat="48.3691" lon="2.52834">
        <ele>49.8</ele>
        <time>2014-05-29T08:08:08Z</time>
      </trkpt>
      <trkpt lat="48.36919" lon="2.52854">
        <ele>49.8</ele>
        <time>2014-05-29T08:08:12Z</time>
      </trkpt>
      <trkpt lat="48.36923" lon="2.52874">
        <ele>49.8</ele>
        <time>2014-05-29T08:08:15Z</time>
      </trkpt>
      <trkpt lat="48.36928" lon="2.52884">
        <ele>49.8</ele>
        <time>2014-05-29T08:08:17Z</time>
      </trkpt>
      <trkpt lat="48.36937" lon="2.52912">
        <ele>49.8</ele>
        <time>2014-05-29T08:08:23Z</time>
      </trkpt>
      <trkpt lat="48.36942" lon="2.52917">
        <ele>50.2</ele>
        <time>2014-05-29T08:08:27Z</time>
      </trkpt>
      <trkpt lat="48.36943" lon="2.52918">
        <ele>50.6</ele>
        <time>2014-05-29T08:08:28Z</time>
      </trkpt>
      <trkpt lat="48.36944" lon="2.5292">
        <ele>51</ele>
        <time>2014-05-29T08:08:29Z</time>
      </trkpt>
      <trkpt lat="48.36944" lon="2.52921">
        <ele>51.4</ele>
        <time>2014-05-29T08:08:30Z</time>
      </trkpt>
      <trkpt lat="48.36945" lon="2.52924">
        <ele>51.8</ele>
        <time>2014-05-29T08:08:31Z</time>
      </trkpt>
      <trkpt lat="48.36947" lon="2.52933">
        <ele>51.8</ele>
        <time>2014-05-29T08:08:34Z</time>
      </trkpt>
      <trkpt lat="48.36948" lon="2.52936">
        <ele>51.8</ele>
        <time>2014-05-29T08:08:35Z</time>
      </trkpt>
      <trkpt lat="48.36948" lon="2.5294">
        <ele>51.8</ele>
        <time>2014-05-29T08:08:36Z</time>
      </trkpt>
      <trkpt lat="48.36952" lon="2.52953">
        <ele>51.8</ele>
        <time>2014-05-29T08:08:38Z</time>
      </trkpt>
      <trkpt lat="48.36955" lon="2.52962">
        <ele>51.8</ele>
        <time>2014-05-29T08:08:40Z</time>
      </trkpt>
      <trkpt lat="48.36953" lon="2.52967">
        <ele>51.8</ele>
        <time>2014-05-29T08:08:43Z</time>
      </trkpt>
      <trkpt lat="48.36956" lon="2.52983">
        <ele>51.8</ele>
        <time>2014-05-29T08:08:48Z</time>
      </trkpt>
      <trkpt lat="48.36961" lon="2.53001">
        <ele>51.8</ele>
        <time>2014-05-29T08:08:53Z</time>
      </trkpt>
      <trkpt lat="48.36971" lon="2.53022">
        <ele>51.8</ele>
        <time>2014-05-29T08:08:59Z</time>
      </trkpt>
      <trkpt lat="48.36972" lon="2.53023">
        <ele>52.2</ele>
        <time>2014-05-29T08:09:00Z</time>
      </trkpt>
      <trkpt lat="48.36973" lon="2.53023">
        <ele>52.6</ele>
        <time>2014-05-29T08:09:01Z</time>
      </trkpt>
      <trkpt lat="48.36973" lon="2.53023">
        <ele>53</ele>
        <time>2014-05-29T08:09:02Z</time>
      </trkpt>
      <trkpt lat="48.36973" lon="2.53023">
        <ele>53.4</ele>
        <time>2014-05-29T08:09:03Z</time>
      </trkpt>
      <trkpt lat="48.36973" lon="2.53022">
        <ele>53.8</ele>
        <time>2014-05-29T08:09:04Z</time>
      </trkpt>
      <trkpt lat="48.36977" lon="2.53019">
        <ele>53.8</ele>
        <time>2014-05-29T08:09:09Z</time>
      </trkpt>
      <trkpt lat="48.36978" lon="2.53021">
        <ele>53.8</ele>
        <time>2014-05-29T08:09:10Z</time>
      </trkpt>
      <trkpt lat="48.36979" lon="2.53023">
        <ele>53.8</ele>
        <time>2014-05-29T08:09:12Z</time>
      </trkpt>
      <trkpt lat="48.3698" lon="2.53028">
        <ele>53.8</ele>
        <time>2014-05-29T08:09:15Z</time>
      </trkpt>
      <trkpt lat="48.36984" lon="2.53027">
        <ele>54.4</ele>
        <time>2014-05-29T08:09:17Z</time>
      </trkpt>
      <trkpt lat="48.36986" lon="2.53025">
        <ele>54.8</ele>
        <time>2014-05-29T08:09:18Z</time>
      </trkpt>
      <trkpt lat="48.36987" lon="2.53023">
        <ele>55.2</ele>
        <time>2014-05-29T08:09:19Z</time>
      </trkpt>
      <trkpt lat="48.36989" lon="2.53021">
        <ele>55.6</ele>
        <time>2014-05-29T08:09:20Z</time>
      </trkpt>
      <trkpt lat="48.36991" lon="2.53021">
        <ele>56</ele>
        <time>2014-05-29T08:09:21Z</time>
      </trkpt>
      <trkpt lat="48.36995" lon="2.53021">
        <ele>56</ele>
        <time>2014-05-29T08:09:23Z</time>
      </trkpt>
      <trkpt lat="48.36998" lon="2.53019">
        <ele>56</ele>
        <time>2014-05-29T08:09:26Z</time>
      </trkpt>
      <trkpt lat="48.36998" lon="2.53019">
        <ele>56</ele>
        <time>2014-05-29T08:09:27Z</time>
      </trkpt>
      <trkpt lat="48.37006" lon="2.53013">
        <ele>56</ele>
        <time>2014-05-29T08:09:32Z</time>
      </trkpt>
      <trkpt lat="48.37015" lon="2.53006">
        <ele>56</ele>
        <time>2014-05-29T08:09:34Z</time>
      </trkpt>
      <trkpt lat="48.37027" lon="2.52999">
        <ele>55.6</ele>
        <time>2014-05-29T08:09:36Z</time>
      </trkpt>
      <trkpt lat="48.37033" lon="2.52995">
        <ele>55.2</ele>
        <time>2014-05-29T08:09:37Z</time>
      </trkpt>
      <trkpt lat="48.37039" lon="2.52992">
        <ele>54.4</ele>
        <time>2014-05-29T08:09:38Z</time>
      </trkpt>
      <trkpt lat="48.37043" lon="2.52993">
        <ele>53.8</ele>
        <time>2014-05-29T08:09:39Z</time>
      </trkpt>
      <trkpt lat="48.37047" lon="2.52994">
        <ele>53</ele>
        <time>2014-05-29T08:09:40Z</time>
      </trkpt>
      <trkpt lat="48.3705" lon="2.52994">
        <ele>52.4</ele>
        <time>2014-05-29T08:09:41Z</time>
      </trkpt>
      <trkpt lat="48.37054" lon="2.52992">
        <ele>51.8</ele>
        <time>2014-05-29T08:09:42Z</time>
      </trkpt>
      <trkpt lat="48.37063" lon="2.5298">
        <ele>51.8</ele>
        <time>2014-05-29T08:09:45Z</time>
      </trkpt>
      <trkpt lat="48.37071" lon="2.52979">
        <ele>51.8</ele>
        <time>2014-05-29T08:09:47Z</time>
      </trkpt>
      <trkpt lat="48.37081" lon="2.52984">
        <ele>51.8</ele>
        <time>2014-05-29T08:09:50Z</time>
      </trkpt>
      <trkpt lat="48.37094" lon="2.52984">
        <ele>51.8</ele>
        <time>2014-05-29T08:09:53Z</time>
      </trkpt>
      <trkpt lat="48.37104" lon="2.52982">
        <ele>51.8</ele>
        <time>2014-05-29T08:09:55Z</time>
      </trkpt>
      <trkpt lat="48.37118" lon="2.52981">
        <ele>51.8</ele>
        <time>2014-05-29T08:09:58Z</time>
      </trkpt>
      <trkpt lat="48.3713" lon="2.52977">
        <ele>51.8</ele>
        <time>2014-05-29T08:10:01Z</time>
      </trkpt>
      <trkpt lat="48.37152" lon="2.52976">
        <ele>51.8</ele>
        <time>2014-05-29T08:10:06Z</time>
      </trkpt>
      <trkpt lat="48.37157" lon="2.52974">
        <ele>51.8</ele>
        <time>2014-05-29T08:10:08Z</time>
      </trkpt>
      <trkpt lat="48.37157" lon="2.52958">
        <ele>51.8</ele>
        <time>2014-05-29T08:10:13Z</time>
      </trkpt>
      <trkpt lat="48.37154" lon="2.52954">
        <ele>51.8</ele>
        <time>2014-05-29T08:10:14Z</time>
      </trkpt>
      <trkpt lat="48.37153" lon="2.52952">
        <ele>51.8</ele>
        <time>2014-05-29T08:10:15Z</time>
      </trkpt>
      <trkpt lat="48.37148" lon="2.52945">
        <ele>51.4</ele>
        <time>2014-05-29T08:10:17Z</time>
      </trkpt>
      <trkpt lat="48.37146" lon="2.5294">
        <ele>50.8</ele>
        <time>2014-05-29T08:10:18Z</time>
      </trkpt>
      <trkpt lat="48.37145" lon="2.52935">
        <ele>50.4</ele>
        <time>2014-05-29T08:10:19Z</time>
      </trkpt>
      <trkpt lat="48.37145" lon="2.52931">
        <ele>50</ele>
        <time>2014-05-29T08:10:20Z</time>
      </trkpt>
      <trkpt lat="48.37145" lon="2.52923">
        <ele>49.6</ele>
        <time>2014-05-29T08:10:22Z</time>
      </trkpt>
      <trkpt lat="48.37143" lon="2.52914">
        <ele>49.6</ele>
        <time>2014-05-29T08:10:25Z</time>
      </trkpt>
      <trkpt lat="48.3714" lon="2.52897">
        <ele>49.6</ele>
        <time>2014-05-29T08:10:33Z</time>
      </trkpt>
      <trkpt lat="48.3714" lon="2.52895">
        <ele>49.6</ele>
        <time>2014-05-29T08:10:34Z</time>
      </trkpt>
      <trkpt lat="48.37138" lon="2.52874">
        <ele>49.6</ele>
        <time>2014-05-29T08:10:41Z</time>
      </trkpt>
      <trkpt lat="48.37137" lon="2.52846">
        <ele>49.6</ele>
        <time>2014-05-29T08:10:46Z</time>
      </trkpt>
      <trkpt lat="48.37143" lon="2.52827">
        <ele>49.6</ele>
        <time>2014-05-29T08:10:50Z</time>
      </trkpt>
      <trkpt lat="48.37151" lon="2.52816">
        <ele>50</ele>
        <time>2014-05-29T08:10:54Z</time>
      </trkpt>
      <trkpt lat="48.37153" lon="2.52813">
        <ele>50.4</ele>
        <time>2014-05-29T08:10:55Z</time>
      </trkpt>
      <trkpt lat="48.37155" lon="2.52811">
        <ele>50.8</ele>
        <time>2014-05-29T08:10:56Z</time>
      </trkpt>
      <trkpt lat="48.37156" lon="2.52808">
        <ele>51.2</ele>
        <time>2014-05-29T08:10:57Z</time>
      </trkpt>
      <trkpt lat="48.37159" lon="2.52807">
        <ele>51.6</ele>
        <time>2014-05-29T08:10:58Z</time>
      </trkpt>
      <trkpt lat="48.37162" lon="2.52805">
        <ele>52</ele>
        <time>2014-05-29T08:11:00Z</time>
      </trkpt>
      <trkpt lat="48.37164" lon="2.52803">
        <ele>52.4</ele>
        <time>2014-05-29T08:11:01Z</time>
      </trkpt>
      <trkpt lat="48.37165" lon="2.52801">
        <ele>52.8</ele>
        <time>2014-05-29T08:11:02Z</time>
      </trkpt>
      <trkpt lat="48.37166" lon="2.528">
        <ele>53.2</ele>
        <time>2014-05-29T08:11:03Z</time>
      </trkpt>
      <trkpt lat="48.37168" lon="2.52797">
        <ele>53.6</ele>
        <time>2014-05-29T08:11:04Z</time>
      </trkpt>
      <trkpt lat="48.37172" lon="2.52792">
        <ele>53.6</ele>
        <time>2014-05-29T08:11:06Z</time>
      </trkpt>
      <trkpt lat="48.37175" lon="2.52788">
        <ele>53.6</ele>
        <time>2014-05-29T08:11:07Z</time>
      </trkpt>
      <trkpt lat="48.37179" lon="2.52782">
        <ele>53.6</ele>
        <time>2014-05-29T08:11:09Z</time>
      </trkpt>
      <trkpt lat="48.37191" lon="2.52773">
        <ele>53.6</ele>
        <time>2014-05-29T08:11:13Z</time>
      </trkpt>
      <trkpt lat="48.3721" lon="2.5276">
        <ele>53.6</ele>
        <time>2014-05-29T08:11:18Z</time>
      </trkpt>
      <trkpt lat="48.37226" lon="2.52752">
        <ele>53.6</ele>
        <time>2014-05-29T08:11:22Z</time>
      </trkpt>
      <trkpt lat="48.37246" lon="2.52741">
        <ele>53.2</ele>
        <time>2014-05-29T08:11:27Z</time>
      </trkpt>
      <trkpt lat="48.37249" lon="2.52738">
        <ele>52.8</ele>
        <time>2014-05-29T08:11:28Z</time>
      </trkpt>
      <trkpt lat="48.37253" lon="2.52735">
        <ele>52.4</ele>
        <time>2014-05-29T08:11:29Z</time>
      </trkpt>
      <trkpt lat="48.37257" lon="2.52733">
        <ele>52</ele>
        <time>2014-05-29T08:11:30Z</time>
      </trkpt>
      <trkpt lat="48.37261" lon="2.5273">
        <ele>51.6</ele>
        <time>2014-05-29T08:11:31Z</time>
      </trkpt>
      <trkpt lat="48.37265" lon="2.52726">
        <ele>51.6</ele>
        <time>2014-05-29T08:11:32Z</time>
      </trkpt>
      <trkpt lat="48.37273" lon="2.52712">
        <ele>51.6</ele>
        <time>2014-05-29T08:11:35Z</time>
      </trkpt>
      <trkpt lat="48.37292" lon="2.52694">
        <ele>51.2</ele>
        <time>2014-05-29T08:11:40Z</time>
      </trkpt>
      <trkpt lat="48.37297" lon="2.52692">
        <ele>50.8</ele>
        <time>2014-05-29T08:11:41Z</time>
      </trkpt>
      <trkpt lat="48.37302" lon="2.52691">
        <ele>50.4</ele>
        <time>2014-05-29T08:11:42Z</time>
      </trkpt>
      <trkpt lat="48.37307" lon="2.52691">
        <ele>50</ele>
        <time>2014-05-29T08:11:43Z</time>
      </trkpt>
      <trkpt lat="48.37312" lon="2.52691">
        <ele>49.6</ele>
        <time>2014-05-29T08:11:44Z</time>
      </trkpt>
      <trkpt lat="48.37317" lon="2.5269">
        <ele>49.6</ele>
        <time>2014-05-29T08:11:45Z</time>
      </trkpt>
      <trkpt lat="48.37334" lon="2.52685">
        <ele>49.6</ele>
        <time>2014-05-29T08:11:48Z</time>
      </trkpt>
      <trkpt lat="48.37339" lon="2.52688">
        <ele>49.6</ele>
        <time>2014-05-29T08:11:49Z</time>
      </trkpt>
      <trkpt lat="48.37361" lon="2.52708">
        <ele>49.6</ele>
        <time>2014-05-29T08:11:55Z</time>
      </trkpt>
      <trkpt lat="48.37368" lon="2.5272">
        <ele>49.6</ele>
        <time>2014-05-29T08:12:00Z</time>
      </trkpt>
      <trkpt lat="48.37378" lon="2.52742">
        <ele>49.6</ele>
        <time>2014-05-29T08:12:03Z</time>
      </trkpt>
      <trkpt lat="48.37391" lon="2.52774">
        <ele>49.6</ele>
        <time>2014-05-29T08:12:08Z</time>
      </trkpt>
      <trkpt lat="48.37395" lon="2.52783">
        <ele>49.6</ele>
        <time>2014-05-29T08:12:09Z</time>
      </trkpt>
      <trkpt lat="48.37405" lon="2.52808">
        <ele>49.6</ele>
        <time>2014-05-29T08:12:12Z</time>
      </trkpt>
      <trkpt lat="48.37407" lon="2.52818">
        <ele>49.6</ele>
        <time>2014-05-29T08:12:14Z</time>
      </trkpt>
      <trkpt lat="48.37408" lon="2.52824">
        <ele>50</ele>
        <time>2014-05-29T08:12:15Z</time>
      </trkpt>
      <trkpt lat="48.37409" lon="2.52829">
        <ele>50.4</ele>
        <time>2014-05-29T08:12:16Z</time>
      </trkpt>
      <trkpt lat="48.3741" lon="2.52834">
        <ele>50.8</ele>
        <time>2014-05-29T08:12:17Z</time>
      </trkpt>
      <trkpt lat="48.37411" lon="2.52837">
        <ele>51.2</ele>
        <time>2014-05-29T08:12:18Z</time>
      </trkpt>
      <trkpt lat="48.3741" lon="2.52842">
        <ele>51.6</ele>
        <time>2014-05-29T08:12:19Z</time>
      </trkpt>
      <trkpt lat="48.37409" lon="2.52847">
        <ele>52</ele>
        <time>2014-05-29T08:12:21Z</time>
      </trkpt>
      <trkpt lat="48.3741" lon="2.52851">
        <ele>52.4</ele>
        <time>2014-05-29T08:12:22Z</time>
      </trkpt>
      <trkpt lat="48.37411" lon="2.52855">
        <ele>53</ele>
        <time>2014-05-29T08:12:23Z</time>
      </trkpt>
      <trkpt lat="48.37414" lon="2.52859">
        <ele>53.4</ele>
        <time>2014-05-29T08:12:24Z</time>
      </trkpt>
      <trkpt lat="48.37415" lon="2.52863">
        <ele>53.8</ele>
        <time>2014-05-29T08:12:25Z</time>
      </trkpt>
      <trkpt lat="48.37419" lon="2.52871">
        <ele>53.8</ele>
        <time>2014-05-29T08:12:27Z</time>
      </trkpt>
      <trkpt lat="48.3742" lon="2.52882">
        <ele>53.8</ele>
        <time>2014-05-29T08:12:30Z</time>
      </trkpt>
      <trkpt lat="48.37427" lon="2.52897">
        <ele>53.8</ele>
        <time>2014-05-29T08:12:33Z</time>
      </trkpt>
      <trkpt lat="48.37439" lon="2.5293">
        <ele>53.8</ele>
        <time>2014-05-29T08:12:39Z</time>
      </trkpt>
      <trkpt lat="48.37442" lon="2.5294">
        <ele>54.2</ele>
        <time>2014-05-29T08:12:42Z</time>
      </trkpt>
      <trkpt lat="48.37443" lon="2.52945">
        <ele>54.6</ele>
        <time>2014-05-29T08:12:43Z</time>
      </trkpt>
      <trkpt lat="48.37444" lon="2.52949">
        <ele>55</ele>
        <time>2014-05-29T08:12:44Z</time>
      </trkpt>
      <trkpt lat="48.37445" lon="2.52952">
        <ele>55.4</ele>
        <time>2014-05-29T08:12:45Z</time>
      </trkpt>
      <trkpt lat="48.37446" lon="2.52955">
        <ele>55.8</ele>
        <time>2014-05-29T08:12:46Z</time>
      </trkpt>
      <trkpt lat="48.3745" lon="2.52965">
        <ele>55.8</ele>
        <time>2014-05-29T08:12:48Z</time>
      </trkpt>
      <trkpt lat="48.37458" lon="2.52979">
        <ele>56.4</ele>
        <time>2014-05-29T08:12:51Z</time>
      </trkpt>
      <trkpt lat="48.37458" lon="2.52981">
        <ele>56.8</ele>
        <time>2014-05-29T08:12:52Z</time>
      </trkpt>
      <trkpt lat="48.3746" lon="2.52985">
        <ele>57.4</ele>
        <time>2014-05-29T08:12:53Z</time>
      </trkpt>
      <trkpt lat="48.37462" lon="2.52988">
        <ele>58</ele>
        <time>2014-05-29T08:12:54Z</time>
      </trkpt>
      <trkpt lat="48.37461" lon="2.52991">
        <ele>58.4</ele>
        <time>2014-05-29T08:12:55Z</time>
      </trkpt>
      <trkpt lat="48.37459" lon="2.53014">
        <ele>58.4</ele>
        <time>2014-05-29T08:13:02Z</time>
      </trkpt>
      <trkpt lat="48.37458" lon="2.53034">
        <ele>58.4</ele>
        <time>2014-05-29T08:13:06Z</time>
      </trkpt>
      <trkpt lat="48.37444" lon="2.53058">
        <ele>58.4</ele>
        <time>2014-05-29T08:13:11Z</time>
      </trkpt>
      <trkpt lat="48.37443" lon="2.53062">
        <ele>58</ele>
        <time>2014-05-29T08:13:12Z</time>
      </trkpt>
      <trkpt lat="48.37442" lon="2.53069">
        <ele>57.6</ele>
        <time>2014-05-29T08:13:13Z</time>
      </trkpt>
      <trkpt lat="48.37442" lon="2.53074">
        <ele>57.2</ele>
        <time>2014-05-29T08:13:14Z</time>
      </trkpt>
      <trkpt lat="48.37441" lon="2.5308">
        <ele>56.6</ele>
        <time>2014-05-29T08:13:15Z</time>
      </trkpt>
      <trkpt lat="48.37443" lon="2.53087">
        <ele>56.2</ele>
        <time>2014-05-29T08:13:16Z</time>
      </trkpt>
      <trkpt lat="48.37443" lon="2.5309">
        <ele>56.2</ele>
        <time>2014-05-29T08:13:17Z</time>
      </trkpt>
      <trkpt lat="48.37445" lon="2.53105">
        <ele>55.8</ele>
        <time>2014-05-29T08:13:20Z</time>
      </trkpt>
      <trkpt lat="48.37446" lon="2.53113">
        <ele>55.4</ele>
        <time>2014-05-29T08:13:21Z</time>
      </trkpt>
      <trkpt lat="48.37447" lon="2.53121">
        <ele>55</ele>
        <time>2014-05-29T08:13:22Z</time>
      </trkpt>
      <trkpt lat="48.37448" lon="2.53127">
        <ele>54.4</ele>
        <time>2014-05-29T08:13:23Z</time>
      </trkpt>
      <trkpt lat="48.37448" lon="2.53134">
        <ele>54</ele>
        <time>2014-05-29T08:13:24Z</time>
      </trkpt>
      <trkpt lat="48.37448" lon="2.5314">
        <ele>54</ele>
        <time>2014-05-29T08:13:25Z</time>
      </trkpt>
      <trkpt lat="48.37447" lon="2.53145">
        <ele>53.6</ele>
        <time>2014-05-29T08:13:27Z</time>
      </trkpt>
      <trkpt lat="48.37446" lon="2.53144">
        <ele>53.2</ele>
        <time>2014-05-29T08:13:28Z</time>
      </trkpt>
      <trkpt lat="48.3744" lon="2.53144">
        <ele>52.6</ele>
        <time>2014-05-29T08:13:29Z</time>
      </trkpt>
      <trkpt lat="48.3744" lon="2.53143">
        <ele>52.2</ele>
        <time>2014-05-29T08:13:30Z</time>
      </trkpt>
      <trkpt lat="48.3744" lon="2.53141">
        <ele>51.8</ele>
        <time>2014-05-29T08:13:31Z</time>
      </trkpt>
      <trkpt lat="48.3744" lon="2.5314">
        <ele>51.8</ele>
        <time>2014-05-29T08:13:32Z</time>
      </trkpt>
      <trkpt lat="48.37446" lon="2.53129">
        <ele>51.8</ele>
        <time>2014-05-29T08:13:38Z</time>
      </trkpt>
      <trkpt lat="48.37464" lon="2.53111">
        <ele>51.8</ele>
        <time>2014-05-29T08:13:46Z</time>
      </trkpt>
      <trkpt lat="48.37483" lon="2.53095">
        <ele>51.8</ele>
        <time>2014-05-29T08:13:53Z</time>
      </trkpt>
      <trkpt lat="48.37495" lon="2.53085">
        <ele>51.8</ele>
        <time>2014-05-29T08:13:57Z</time>
      </trkpt>
      <trkpt lat="48.37501" lon="2.53081">
        <ele>51.8</ele>
        <time>2014-05-29T08:13:59Z</time>
      </trkpt>
      <trkpt lat="48.37512" lon="2.53072">
        <ele>51.8</ele>
        <time>2014-05-29T08:14:04Z</time>
      </trkpt>
      <trkpt lat="48.3753" lon="2.53059">
        <ele>51.8</ele>
        <time>2014-05-29T08:14:09Z</time>
      </trkpt>
      <trkpt lat="48.37552" lon="2.53043">
        <ele>51.8</ele>
        <time>2014-05-29T08:14:15Z</time>
      </trkpt>
      <trkpt lat="48.3757" lon="2.53034">
        <ele>51.8</ele>
        <time>2014-05-29T08:14:20Z</time>
      </trkpt>
      <trkpt lat="48.37608" lon="2.53008">
        <ele>51.8</ele>
        <time>2014-05-29T08:14:29Z</time>
      </trkpt>
      <trkpt lat="48.37622" lon="2.53002">
        <ele>51.8</ele>
        <time>2014-05-29T08:14:32Z</time>
      </trkpt>
      <trkpt lat="48.37629" lon="2.53002">
        <ele>51.8</ele>
        <time>2014-05-29T08:14:34Z</time>
      </trkpt>
      <trkpt lat="48.37646" lon="2.52995">
        <ele>51.8</ele>
        <time>2014-05-29T08:14:39Z</time>
      </trkpt>
      <trkpt lat="48.37663" lon="2.52984">
        <ele>51.8</ele>
        <time>2014-05-29T08:14:43Z</time>
      </trkpt>
      <trkpt lat="48.37665" lon="2.5298">
        <ele>51.8</ele>
        <time>2014-05-29T08:14:44Z</time>
      </trkpt>
      <trkpt lat="48.37677" lon="2.52969">
        <ele>51.8</ele>
        <time>2014-05-29T08:14:47Z</time>
      </trkpt>
      <trkpt lat="48.37689" lon="2.52962">
        <ele>51.8</ele>
        <time>2014-05-29T08:14:50Z</time>
      </trkpt>
      <trkpt lat="48.37696" lon="2.52961">
        <ele>51.8</ele>
        <time>2014-05-29T08:14:52Z</time>
      </trkpt>
      <trkpt lat="48.37702" lon="2.52966">
        <ele>51.8</ele>
        <time>2014-05-29T08:14:54Z</time>
      </trkpt>
      <trkpt lat="48.37714" lon="2.52983">
        <ele>51.8</ele>
        <time>2014-05-29T08:14:58Z</time>
      </trkpt>
      <trkpt lat="48.37722" lon="2.52989">
        <ele>51.8</ele>
        <time>2014-05-29T08:15:00Z</time>
      </trkpt>
      <trkpt lat="48.37753" lon="2.53005">
        <ele>51.8</ele>
        <time>2014-05-29T08:15:07Z</time>
      </trkpt>
      <trkpt lat="48.37777" lon="2.5301">
        <ele>51.8</ele>
        <time>2014-05-29T08:15:12Z</time>
      </trkpt>
      <trkpt lat="48.37786" lon="2.53014">
        <ele>51.8</ele>
        <time>2014-05-29T08:15:14Z</time>
      </trkpt>
      <trkpt lat="48.37812" lon="2.53033">
        <ele>51.8</ele>
        <time>2014-05-29T08:15:20Z</time>
      </trkpt>
      <trkpt lat="48.37821" lon="2.53039">
        <ele>51.8</ele>
        <time>2014-05-29T08:15:22Z</time>
      </trkpt>
      <trkpt lat="48.3783" lon="2.53046">
        <ele>51.8</ele>
        <time>2014-05-29T08:15:25Z</time>
      </trkpt>
      <trkpt lat="48.37834" lon="2.53044">
        <ele>51.8</ele>
        <time>2014-05-29T08:15:27Z</time>
      </trkpt>
      <trkpt lat="48.37836" lon="2.5304">
        <ele>51.8</ele>
        <time>2014-05-29T08:15:28Z</time>
      </trkpt>
      <trkpt lat="48.37842" lon="2.53027">
        <ele>51.8</ele>
        <time>2014-05-29T08:15:31Z</time>
      </trkpt>
      <trkpt lat="48.37843" lon="2.53023">
        <ele>51.8</ele>
        <time>2014-05-29T08:15:32Z</time>
      </trkpt>
      <trkpt lat="48.37844" lon="2.53002">
        <ele>51.8</ele>
        <time>2014-05-29T08:15:35Z</time>
      </trkpt>
      <trkpt lat="48.37847" lon="2.52987">
        <ele>51.8</ele>
        <time>2014-05-29T08:15:37Z</time>
      </trkpt>
      <trkpt lat="48.37854" lon="2.52943">
        <ele>51.8</ele>
        <time>2014-05-29T08:15:42Z</time>
      </trkpt>
      <trkpt lat="48.37858" lon="2.52924">
        <ele>51.4</ele>
        <time>2014-05-29T08:15:44Z</time>
      </trkpt>
      <trkpt lat="48.3786" lon="2.52915">
        <ele>51</ele>
        <time>2014-05-29T08:15:45Z</time>
      </trkpt>
      <trkpt lat="48.37861" lon="2.52906">
        <ele>50.6</ele>
        <time>2014-05-29T08:15:46Z</time>
      </trkpt>
      <trkpt lat="48.37862" lon="2.52897">
        <ele>50.2</ele>
        <time>2014-05-29T08:15:47Z</time>
      </trkpt>
      <trkpt lat="48.37864" lon="2.52888">
        <ele>49.8</ele>
        <time>2014-05-29T08:15:48Z</time>
      </trkpt>
      <trkpt lat="48.37865" lon="2.52878">
        <ele>49.8</ele>
        <time>2014-05-29T08:15:49Z</time>
      </trkpt>
      <trkpt lat="48.37865" lon="2.52869">
        <ele>49.8</ele>
        <time>2014-05-29T08:15:50Z</time>
      </trkpt>
      <trkpt lat="48.37865" lon="2.52844">
        <ele>49.8</ele>
        <time>2014-05-29T08:15:53Z</time>
      </trkpt>
      <trkpt lat="48.37863" lon="2.52835">
        <ele>49.8</ele>
        <time>2014-05-29T08:15:54Z</time>
      </trkpt>
      <trkpt lat="48.37853" lon="2.52807">
        <ele>49.8</ele>
        <time>2014-05-29T08:15:58Z</time>
      </trkpt>
      <trkpt lat="48.3785" lon="2.52801">
        <ele>49.8</ele>
        <time>2014-05-29T08:15:59Z</time>
      </trkpt>
      <trkpt lat="48.37848" lon="2.52794">
        <ele>49.8</ele>
        <time>2014-05-29T08:16:00Z</time>
      </trkpt>
      <trkpt lat="48.37848" lon="2.52778">
        <ele>49.8</ele>
        <time>2014-05-29T08:16:02Z</time>
      </trkpt>
      <trkpt lat="48.37849" lon="2.52757">
        <ele>49.8</ele>
        <time>2014-05-29T08:16:05Z</time>
      </trkpt>
      <trkpt lat="48.37847" lon="2.52745">
        <ele>49.8</ele>
        <time>2014-05-29T08:16:07Z</time>
      </trkpt>
      <trkpt lat="48.37841" lon="2.52708">
        <ele>49.8</ele>
        <time>2014-05-29T08:16:12Z</time>
      </trkpt>
      <trkpt lat="48.37841" lon="2.527">
        <ele>49.8</ele>
        <time>2014-05-29T08:16:13Z</time>
      </trkpt>
      <trkpt lat="48.3784" lon="2.5268">
        <ele>49.8</ele>
        <time>2014-05-29T08:16:16Z</time>
      </trkpt>
      <trkpt lat="48.37839" lon="2.52664">
        <ele>50.2</ele>
        <time>2014-05-29T08:16:19Z</time>
      </trkpt>
      <trkpt lat="48.3784" lon="2.52658">
        <ele>50.6</ele>
        <time>2014-05-29T08:16:20Z</time>
      </trkpt>
      <trkpt lat="48.37841" lon="2.52653">
        <ele>51</ele>
        <time>2014-05-29T08:16:21Z</time>
      </trkpt>
      <trkpt lat="48.37842" lon="2.52647">
        <ele>51.6</ele>
        <time>2014-05-29T08:16:22Z</time>
      </trkpt>
      <trkpt lat="48.37843" lon="2.52641">
        <ele>52</ele>
        <time>2014-05-29T08:16:23Z</time>
      </trkpt>
      <trkpt lat="48.37847" lon="2.52629">
        <ele>52</ele>
        <time>2014-05-29T08:16:26Z</time>
      </trkpt>
      <trkpt lat="48.37857" lon="2.52608">
        <ele>52.4</ele>
        <time>2014-05-29T08:16:31Z</time>
      </trkpt>
      <trkpt lat="48.37859" lon="2.52605">
        <ele>52.8</ele>
        <time>2014-05-29T08:16:32Z</time>
      </trkpt>
      <trkpt lat="48.37862" lon="2.52601">
        <ele>53.2</ele>
        <time>2014-05-29T08:16:33Z</time>
      </trkpt>
      <trkpt lat="48.37863" lon="2.52601">
        <ele>53.6</ele>
        <time>2014-05-29T08:16:34Z</time>
      </trkpt>
      <trkpt lat="48.37865" lon="2.526">
        <ele>54</ele>
        <time>2014-05-29T08:16:35Z</time>
      </trkpt>
      <trkpt lat="48.37869" lon="2.52598">
        <ele>54</ele>
        <time>2014-05-29T08:16:37Z</time>
      </trkpt>
      <trkpt lat="48.37871" lon="2.52597">
        <ele>54.6</ele>
        <time>2014-05-29T08:16:38Z</time>
      </trkpt>
      <trkpt lat="48.37872" lon="2.52596">
        <ele>55</ele>
        <time>2014-05-29T08:16:39Z</time>
      </trkpt>
      <trkpt lat="48.37874" lon="2.52594">
        <ele>55.6</ele>
        <time>2014-05-29T08:16:40Z</time>
      </trkpt>
      <trkpt lat="48.37876" lon="2.52593">
        <ele>56.2</ele>
        <time>2014-05-29T08:16:41Z</time>
      </trkpt>
      <trkpt lat="48.37878" lon="2.52591">
        <ele>56.6</ele>
        <time>2014-05-29T08:16:42Z</time>
      </trkpt>
      <trkpt lat="48.37884" lon="2.52582">
        <ele>56.6</ele>
        <time>2014-05-29T08:16:46Z</time>
      </trkpt>
      <trkpt lat="48.37886" lon="2.5258">
        <ele>57</ele>
        <time>2014-05-29T08:16:47Z</time>
      </trkpt>
      <trkpt lat="48.37887" lon="2.52578">
        <ele>57.4</ele>
        <time>2014-05-29T08:16:48Z</time>
      </trkpt>
      <trkpt lat="48.37888" lon="2.52576">
        <ele>58</ele>
        <time>2014-05-29T08:16:49Z</time>
      </trkpt>
      <trkpt lat="48.3789" lon="2.52575">
        <ele>58.4</ele>
        <time>2014-05-29T08:16:50Z</time>
      </trkpt>
      <trkpt lat="48.37903" lon="2.52564">
        <ele>59.2</ele>
        <time>2014-05-29T08:16:56Z</time>
      </trkpt>
      <trkpt lat="48.37905" lon="2.52563">
        <ele>59.6</ele>
        <time>2014-05-29T08:16:57Z</time>
      </trkpt>
      <trkpt lat="48.37906" lon="2.5256">
        <ele>60</ele>
        <time>2014-05-29T08:16:58Z</time>
      </trkpt>
      <trkpt lat="48.37907" lon="2.52557">
        <ele>60.4</ele>
        <time>2014-05-29T08:16:59Z</time>
      </trkpt>
      <trkpt lat="48.37908" lon="2.52554">
        <ele>60.8</ele>
        <time>2014-05-29T08:17:00Z</time>
      </trkpt>
      <trkpt lat="48.37918" lon="2.52545">
        <ele>60.8</ele>
        <time>2014-05-29T08:17:05Z</time>
      </trkpt>
      <trkpt lat="48.37926" lon="2.52521">
        <ele>60.8</ele>
        <time>2014-05-29T08:17:11Z</time>
      </trkpt>
      <trkpt lat="48.37941" lon="2.52497">
        <ele>60.8</ele>
        <time>2014-05-29T08:17:15Z</time>
      </trkpt>
      <trkpt lat="48.37949" lon="2.52488">
        <ele>60.4</ele>
        <time>2014-05-29T08:17:17Z</time>
      </trkpt>
      <trkpt lat="48.37952" lon="2.52483">
        <ele>60</ele>
        <time>2014-05-29T08:17:18Z</time>
      </trkpt>
      <trkpt lat="48.37957" lon="2.52481">
        <ele>59.6</ele>
        <time>2014-05-29T08:17:19Z</time>
      </trkpt>
      <trkpt lat="48.3796" lon="2.52477">
        <ele>59.2</ele>
        <time>2014-05-29T08:17:20Z</time>
      </trkpt>
      <trkpt lat="48.37964" lon="2.52472">
        <ele>58.4</ele>
        <time>2014-05-29T08:17:21Z</time>
      </trkpt>
      <trkpt lat="48.37969" lon="2.52466">
        <ele>57.8</ele>
        <time>2014-05-29T08:17:22Z</time>
      </trkpt>
      <trkpt lat="48.37974" lon="2.5246">
        <ele>57.2</ele>
        <time>2014-05-29T08:17:23Z</time>
      </trkpt>
      <trkpt lat="48.37978" lon="2.52451">
        <ele>56.6</ele>
        <time>2014-05-29T08:17:24Z</time>
      </trkpt>
      <trkpt lat="48.37982" lon="2.52442">
        <ele>56</ele>
        <time>2014-05-29T08:17:25Z</time>
      </trkpt>
      <trkpt lat="48.37987" lon="2.52432">
        <ele>55.2</ele>
        <time>2014-05-29T08:17:26Z</time>
      </trkpt>
      <trkpt lat="48.37994" lon="2.5242">
        <ele>54.6</ele>
        <time>2014-05-29T08:17:27Z</time>
      </trkpt>
      <trkpt lat="48.38001" lon="2.52413">
        <ele>54</ele>
        <time>2014-05-29T08:17:28Z</time>
      </trkpt>
      <trkpt lat="48.38012" lon="2.52402">
        <ele>53.2</ele>
        <time>2014-05-29T08:17:29Z</time>
      </trkpt>
      <trkpt lat="48.38019" lon="2.52398">
        <ele>52.6</ele>
        <time>2014-05-29T08:17:30Z</time>
      </trkpt>
      <trkpt lat="48.38025" lon="2.5239">
        <ele>52</ele>
        <time>2014-05-29T08:17:31Z</time>
      </trkpt>
      <trkpt lat="48.38032" lon="2.52386">
        <ele>51.4</ele>
        <time>2014-05-29T08:17:32Z</time>
      </trkpt>
      <trkpt lat="48.38039" lon="2.52381">
        <ele>50.6</ele>
        <time>2014-05-29T08:17:33Z</time>
      </trkpt>
      <trkpt lat="48.38047" lon="2.52377">
        <ele>50.6</ele>
        <time>2014-05-29T08:17:34Z</time>
      </trkpt>
      <trkpt lat="48.38053" lon="2.52375">
        <ele>50.6</ele>
        <time>2014-05-29T08:17:35Z</time>
      </trkpt>
      <trkpt lat="48.38058" lon="2.52373">
        <ele>50.6</ele>
        <time>2014-05-29T08:17:36Z</time>
      </trkpt>
      <trkpt lat="48.3808" lon="2.52361">
        <ele>50.2</ele>
        <time>2014-05-29T08:17:40Z</time>
      </trkpt>
      <trkpt lat="48.38086" lon="2.52355">
        <ele>49.8</ele>
        <time>2014-05-29T08:17:41Z</time>
      </trkpt>
      <trkpt lat="48.38092" lon="2.52351">
        <ele>49.4</ele>
        <time>2014-05-29T08:17:42Z</time>
      </trkpt>
      <trkpt lat="48.38099" lon="2.52347">
        <ele>48.8</ele>
        <time>2014-05-29T08:17:43Z</time>
      </trkpt>
      <trkpt lat="48.38105" lon="2.52345">
        <ele>48.4</ele>
        <time>2014-05-29T08:17:44Z</time>
      </trkpt>
      <trkpt lat="48.3811" lon="2.52343">
        <ele>48.4</ele>
        <time>2014-05-29T08:17:45Z</time>
      </trkpt>
      <trkpt lat="48.38122" lon="2.52343">
        <ele>48.4</ele>
        <time>2014-05-29T08:17:47Z</time>
      </trkpt>
      <trkpt lat="48.38136" lon="2.52338">
        <ele>48.4</ele>
        <time>2014-05-29T08:17:50Z</time>
      </trkpt>
      <trkpt lat="48.38147" lon="2.52335">
        <ele>48.4</ele>
        <time>2014-05-29T08:17:52Z</time>
      </trkpt>
      <trkpt lat="48.38161" lon="2.52341">
        <ele>48.4</ele>
        <time>2014-05-29T08:17:55Z</time>
      </trkpt>
      <trkpt lat="48.38167" lon="2.52339">
        <ele>48.4</ele>
        <time>2014-05-29T08:17:56Z</time>
      </trkpt>
      <trkpt lat="48.38179" lon="2.52336">
        <ele>48.4</ele>
        <time>2014-05-29T08:17:58Z</time>
      </trkpt>
      <trkpt lat="48.38191" lon="2.52334">
        <ele>48.4</ele>
        <time>2014-05-29T08:18:00Z</time>
      </trkpt>
      <trkpt lat="48.38209" lon="2.52334">
        <ele>48.4</ele>
        <time>2014-05-29T08:18:03Z</time>
      </trkpt>
      <trkpt lat="48.38244" lon="2.52345">
        <ele>48.4</ele>
        <time>2014-05-29T08:18:09Z</time>
      </trkpt>
      <trkpt lat="48.38282" lon="2.52363">
        <ele>48.4</ele>
        <time>2014-05-29T08:18:17Z</time>
      </trkpt>
      <trkpt lat="48.38299" lon="2.52376">
        <ele>48.4</ele>
        <time>2014-05-29T08:18:21Z</time>
      </trkpt>
      <trkpt lat="48.38329" lon="2.52394">
        <ele>48.4</ele>
        <time>2014-05-29T08:18:27Z</time>
      </trkpt>
      <trkpt lat="48.38351" lon="2.52404">
        <ele>48.4</ele>
        <time>2014-05-29T08:18:31Z</time>
      </trkpt>
      <trkpt lat="48.38383" lon="2.52421">
        <ele>48.4</ele>
        <time>2014-05-29T08:18:37Z</time>
      </trkpt>
      <trkpt lat="48.38386" lon="2.52426">
        <ele>48.4</ele>
        <time>2014-05-29T08:18:38Z</time>
      </trkpt>
      <trkpt lat="48.38407" lon="2.5246">
        <ele>48.4</ele>
        <time>2014-05-29T08:18:43Z</time>
      </trkpt>
      <trkpt lat="48.38416" lon="2.52475">
        <ele>48.4</ele>
        <time>2014-05-29T08:18:46Z</time>
      </trkpt>
      <trkpt lat="48.3842" lon="2.52484">
        <ele>48.8</ele>
        <time>2014-05-29T08:18:48Z</time>
      </trkpt>
      <trkpt lat="48.38422" lon="2.52488">
        <ele>49.2</ele>
        <time>2014-05-29T08:18:49Z</time>
      </trkpt>
      <trkpt lat="48.38423" lon="2.52493">
        <ele>49.6</ele>
        <time>2014-05-29T08:18:50Z</time>
      </trkpt>
      <trkpt lat="48.38424" lon="2.52497">
        <ele>50.2</ele>
        <time>2014-05-29T08:18:51Z</time>
      </trkpt>
      <trkpt lat="48.38425" lon="2.52502">
        <ele>50.6</ele>
        <time>2014-05-29T08:18:52Z</time>
      </trkpt>
      <trkpt lat="48.38435" lon="2.52522">
        <ele>50.6</ele>
        <time>2014-05-29T08:18:54Z</time>
      </trkpt>
      <trkpt lat="48.38439" lon="2.52531">
        <ele>50.6</ele>
        <time>2014-05-29T08:18:55Z</time>
      </trkpt>
      <trkpt lat="48.38449" lon="2.5255">
        <ele>50.6</ele>
        <time>2014-05-29T08:18:58Z</time>
      </trkpt>
      <trkpt lat="48.38452" lon="2.52556">
        <ele>51</ele>
        <time>2014-05-29T08:18:59Z</time>
      </trkpt>
      <trkpt lat="48.38455" lon="2.52562">
        <ele>51.4</ele>
        <time>2014-05-29T08:19:00Z</time>
      </trkpt>
      <trkpt lat="48.38457" lon="2.52567">
        <ele>51.8</ele>
        <time>2014-05-29T08:19:01Z</time>
      </trkpt>
      <trkpt lat="48.38457" lon="2.52571">
        <ele>52.4</ele>
        <time>2014-05-29T08:19:02Z</time>
      </trkpt>
      <trkpt lat="48.38457" lon="2.52575">
        <ele>52.8</ele>
        <time>2014-05-29T08:19:03Z</time>
      </trkpt>
      <trkpt lat="48.38462" lon="2.52592">
        <ele>52.8</ele>
        <time>2014-05-29T08:19:07Z</time>
      </trkpt>
      <trkpt lat="48.38464" lon="2.52602">
        <ele>52.8</ele>
        <time>2014-05-29T08:19:09Z</time>
      </trkpt>
      <trkpt lat="48.3847" lon="2.52621">
        <ele>52.8</ele>
        <time>2014-05-29T08:19:12Z</time>
      </trkpt>
      <trkpt lat="48.38472" lon="2.52625">
        <ele>52.8</ele>
        <time>2014-05-29T08:19:13Z</time>
      </trkpt>
      <trkpt lat="48.38475" lon="2.52632">
        <ele>52.8</ele>
        <time>2014-05-29T08:19:14Z</time>
      </trkpt>
      <trkpt lat="48.38477" lon="2.52639">
        <ele>52.8</ele>
        <time>2014-05-29T08:19:15Z</time>
      </trkpt>
      <trkpt lat="48.38493" lon="2.52689">
        <ele>52.8</ele>
        <time>2014-05-29T08:19:21Z</time>
      </trkpt>
      <trkpt lat="48.38499" lon="2.52724">
        <ele>52.8</ele>
        <time>2014-05-29T08:19:26Z</time>
      </trkpt>
      <trkpt lat="48.38499" lon="2.5273">
        <ele>53.2</ele>
        <time>2014-05-29T08:19:27Z</time>
      </trkpt>
      <trkpt lat="48.385" lon="2.52735">
        <ele>53.6</ele>
        <time>2014-05-29T08:19:28Z</time>
      </trkpt>
      <trkpt lat="48.38501" lon="2.5274">
        <ele>54</ele>
        <time>2014-05-29T08:19:29Z</time>
      </trkpt>
      <trkpt lat="48.38504" lon="2.52744">
        <ele>54.4</ele>
        <time>2014-05-29T08:19:30Z</time>
      </trkpt>
      <trkpt lat="48.38505" lon="2.52747">
        <ele>54.8</ele>
        <time>2014-05-29T08:19:31Z</time>
      </trkpt>
      <trkpt lat="48.38508" lon="2.52755">
        <ele>54.8</ele>
        <time>2014-05-29T08:19:33Z</time>
      </trkpt>
      <trkpt lat="48.38513" lon="2.5278">
        <ele>55.2</ele>
        <time>2014-05-29T08:19:39Z</time>
      </trkpt>
      <trkpt lat="48.38514" lon="2.52783">
        <ele>55.6</ele>
        <time>2014-05-29T08:19:40Z</time>
      </trkpt>
      <trkpt lat="48.38515" lon="2.52787">
        <ele>56</ele>
        <time>2014-05-29T08:19:41Z</time>
      </trkpt>
      <trkpt lat="48.38516" lon="2.5279">
        <ele>56.6</ele>
        <time>2014-05-29T08:19:42Z</time>
      </trkpt>
      <trkpt lat="48.38518" lon="2.52793">
        <ele>57</ele>
        <time>2014-05-29T08:19:43Z</time>
      </trkpt>
      <trkpt lat="48.38523" lon="2.52805">
        <ele>57</ele>
        <time>2014-05-29T08:19:46Z</time>
      </trkpt>
      <trkpt lat="48.38528" lon="2.52815">
        <ele>57.4</ele>
        <time>2014-05-29T08:19:51Z</time>
      </trkpt>
      <trkpt lat="48.38529" lon="2.52816">
        <ele>57.8</ele>
        <time>2014-05-29T08:19:52Z</time>
      </trkpt>
      <trkpt lat="48.3853" lon="2.52817">
        <ele>58.2</ele>
        <time>2014-05-29T08:19:53Z</time>
      </trkpt>
      <trkpt lat="48.38531" lon="2.52818">
        <ele>58.6</ele>
        <time>2014-05-29T08:19:54Z</time>
      </trkpt>
      <trkpt lat="48.38532" lon="2.52819">
        <ele>59</ele>
        <time>2014-05-29T08:19:55Z</time>
      </trkpt>
      <trkpt lat="48.38537" lon="2.52825">
        <ele>59</ele>
        <time>2014-05-29T08:20:01Z</time>
      </trkpt>
      <trkpt lat="48.38538" lon="2.52824">
        <ele>59.6</ele>
        <time>2014-05-29T08:20:03Z</time>
      </trkpt>
      <trkpt lat="48.38536" lon="2.52824">
        <ele>60</ele>
        <time>2014-05-29T08:20:04Z</time>
      </trkpt>
      <trkpt lat="48.38536" lon="2.52824">
        <ele>60.6</ele>
        <time>2014-05-29T08:20:05Z</time>
      </trkpt>
      <trkpt lat="48.38536" lon="2.52824">
        <ele>61</ele>
        <time>2014-05-29T08:20:06Z</time>
      </trkpt>
      <trkpt lat="48.38537" lon="2.52825">
        <ele>61.4</ele>
        <time>2014-05-29T08:20:07Z</time>
      </trkpt>
      <trkpt lat="48.38538" lon="2.52825">
        <ele>62</ele>
        <time>2014-05-29T08:20:08Z</time>
      </trkpt>
      <trkpt lat="48.38539" lon="2.52823">
        <ele>62.4</ele>
        <time>2014-05-29T08:20:09Z</time>
      </trkpt>
      <trkpt lat="48.3854" lon="2.52822">
        <ele>62.8</ele>
        <time>2014-05-29T08:20:10Z</time>
      </trkpt>
      <trkpt lat="48.38542" lon="2.52822">
        <ele>63.2</ele>
        <time>2014-05-29T08:20:11Z</time>
      </trkpt>
      <trkpt lat="48.38544" lon="2.52821">
        <ele>63.8</ele>
        <time>2014-05-29T08:20:12Z</time>
      </trkpt>
      <trkpt lat="48.38545" lon="2.5282">
        <ele>63.8</ele>
        <time>2014-05-29T08:20:13Z</time>
      </trkpt>
      <trkpt lat="48.3855" lon="2.52819">
        <ele>64.2</ele>
        <time>2014-05-29T08:20:17Z</time>
      </trkpt>
      <trkpt lat="48.38552" lon="2.5282">
        <ele>64.6</ele>
        <time>2014-05-29T08:20:18Z</time>
      </trkpt>
      <trkpt lat="48.38554" lon="2.5282">
        <ele>65</ele>
        <time>2014-05-29T08:20:19Z</time>
      </trkpt>
      <trkpt lat="48.38555" lon="2.52821">
        <ele>65.4</ele>
        <time>2014-05-29T08:20:20Z</time>
      </trkpt>
      <trkpt lat="48.38556" lon="2.52824">
        <ele>65.8</ele>
        <time>2014-05-29T08:20:21Z</time>
      </trkpt>
      <trkpt lat="48.38559" lon="2.52822">
        <ele>66.2</ele>
        <time>2014-05-29T08:20:26Z</time>
      </trkpt>
      <trkpt lat="48.3856" lon="2.52822">
        <ele>66.6</ele>
        <time>2014-05-29T08:20:27Z</time>
      </trkpt>
      <trkpt lat="48.3856" lon="2.52822">
        <ele>68</ele>
        <time>2014-05-29T08:20:30Z</time>
      </trkpt>
      <trkpt lat="48.3856" lon="2.52821">
        <ele>68</ele>
        <time>2014-05-29T08:20:36Z</time>
      </trkpt>
      <trkpt lat="48.38561" lon="2.5282">
        <ele>68</ele>
        <time>2014-05-29T08:20:39Z</time>
      </trkpt>
      <trkpt lat="48.38561" lon="2.52818">
        <ele>68</ele>
        <time>2014-05-29T08:20:43Z</time>
      </trkpt>
      <trkpt lat="48.38562" lon="2.52818">
        <ele>68</ele>
        <time>2014-05-29T08:20:46Z</time>
      </trkpt>
      <trkpt lat="48.38562" lon="2.52818">
        <ele>68</ele>
        <time>2014-05-29T08:20:50Z</time>
      </trkpt>
      <trkpt lat="48.38579" lon="2.52802">
        <ele>68</ele>
        <time>2014-05-29T08:20:57Z</time>
      </trkpt>
      <trkpt lat="48.38584" lon="2.52803">
        <ele>68</ele>
        <time>2014-05-29T08:21:00Z</time>
      </trkpt>
      <trkpt lat="48.38584" lon="2.52803">
        <ele>68</ele>
        <time>2014-05-29T08:21:01Z</time>
      </trkpt>
      <trkpt lat="48.38584" lon="2.52801">
        <ele>68</ele>
        <time>2014-05-29T08:21:02Z</time>
      </trkpt>
      <trkpt lat="48.38584" lon="2.52801">
        <ele>68</ele>
        <time>2014-05-29T08:21:03Z</time>
      </trkpt>
      <trkpt lat="48.38584" lon="2.52799">
        <ele>68</ele>
        <time>2014-05-29T08:21:04Z</time>
      </trkpt>
      <trkpt lat="48.38584" lon="2.52796">
        <ele>68.4</ele>
        <time>2014-05-29T08:21:06Z</time>
      </trkpt>
      <trkpt lat="48.38583" lon="2.52795">
        <ele>68.8</ele>
        <time>2014-05-29T08:21:07Z</time>
      </trkpt>
      <trkpt lat="48.38583" lon="2.52793">
        <ele>69.2</ele>
        <time>2014-05-29T08:21:08Z</time>
      </trkpt>
      <trkpt lat="48.38583" lon="2.5279">
        <ele>70</ele>
        <time>2014-05-29T08:21:09Z</time>
      </trkpt>
      <trkpt lat="48.38583" lon="2.52788">
        <ele>70.6</ele>
        <time>2014-05-29T08:21:10Z</time>
      </trkpt>
      <trkpt lat="48.38583" lon="2.52786">
        <ele>71.2</ele>
        <time>2014-05-29T08:21:11Z</time>
      </trkpt>
      <trkpt lat="48.38582" lon="2.52783">
        <ele>71.8</ele>
        <time>2014-05-29T08:21:12Z</time>
      </trkpt>
      <trkpt lat="48.38581" lon="2.52782">
        <ele>72.4</ele>
        <time>2014-05-29T08:21:13Z</time>
      </trkpt>
      <trkpt lat="48.3858" lon="2.52781">
        <ele>72.4</ele>
        <time>2014-05-29T08:21:14Z</time>
      </trkpt>
      <trkpt lat="48.38579" lon="2.52781">
        <ele>72.4</ele>
        <time>2014-05-29T08:21:15Z</time>
      </trkpt>
      <trkpt lat="48.38578" lon="2.52777">
        <ele>72.8</ele>
        <time>2014-05-29T08:21:18Z</time>
      </trkpt>
      <trkpt lat="48.38577" lon="2.52777">
        <ele>73.2</ele>
        <time>2014-05-29T08:21:19Z</time>
      </trkpt>
      <trkpt lat="48.38576" lon="2.52776">
        <ele>73.8</ele>
        <time>2014-05-29T08:21:20Z</time>
      </trkpt>
      <trkpt lat="48.38575" lon="2.52775">
        <ele>74.2</ele>
        <time>2014-05-29T08:21:21Z</time>
      </trkpt>
      <trkpt lat="48.38574" lon="2.52773">
        <ele>74.6</ele>
        <time>2014-05-29T08:21:22Z</time>
      </trkpt>
      <trkpt lat="48.38573" lon="2.52771">
        <ele>74.6</ele>
        <time>2014-05-29T08:21:23Z</time>
      </trkpt>
      <trkpt lat="48.38571" lon="2.5275">
        <ele>74.6</ele>
        <time>2014-05-29T08:21:29Z</time>
      </trkpt>
      <trkpt lat="48.38569" lon="2.52729">
        <ele>74.6</ele>
        <time>2014-05-29T08:21:34Z</time>
      </trkpt>
      <trkpt lat="48.38563" lon="2.5272">
        <ele>74.6</ele>
        <time>2014-05-29T08:21:38Z</time>
      </trkpt>
      <trkpt lat="48.38561" lon="2.52713">
        <ele>74.6</ele>
        <time>2014-05-29T08:21:41Z</time>
      </trkpt>
      <trkpt lat="48.38562" lon="2.52711">
        <ele>74.6</ele>
        <time>2014-05-29T08:21:46Z</time>
      </trkpt>
      <trkpt lat="48.38562" lon="2.52711">
        <ele>74.6</ele>
        <time>2014-05-29T08:21:47Z</time>
      </trkpt>
      <trkpt lat="48.38562" lon="2.52711">
        <ele>74.6</ele>
        <time>2014-05-29T08:21:49Z</time>
      </trkpt>
      <trkpt lat="48.38562" lon="2.52712">
        <ele>74.6</ele>
        <time>2014-05-29T08:21:51Z</time>
      </trkpt>
      <trkpt lat="48.38563" lon="2.52709">
        <ele>74.6</ele>
        <time>2014-05-29T08:22:23Z</time>
      </trkpt>
      <trkpt lat="48.38563" lon="2.52708">
        <ele>74.6</ele>
        <time>2014-05-29T08:22:25Z</time>
      </trkpt>
      <trkpt lat="48.38563" lon="2.52708">
        <ele>74.6</ele>
        <time>2014-05-29T08:22:30Z</time>
      </trkpt>
      <trkpt lat="48.38564" lon="2.52708">
        <ele>74.6</ele>
        <time>2014-05-29T08:22:35Z</time>
      </trkpt>
      <trkpt lat="48.38559" lon="2.52707">
        <ele>74.6</ele>
        <time>2014-05-29T08:22:59Z</time>
      </trkpt>
      <trkpt lat="48.38555" lon="2.52706">
        <ele>74.6</ele>
        <time>2014-05-29T08:23:01Z</time>
      </trkpt>
      <trkpt lat="48.38553" lon="2.52705">
        <ele>74.6</ele>
        <time>2014-05-29T08:23:02Z</time>
      </trkpt>
      <trkpt lat="48.38552" lon="2.52704">
        <ele>74.6</ele>
        <time>2014-05-29T08:23:03Z</time>
      </trkpt>
      <trkpt lat="48.38551" lon="2.52702">
        <ele>74.6</ele>
        <time>2014-05-29T08:23:04Z</time>
      </trkpt>
      <trkpt lat="48.38544" lon="2.52683">
        <ele>74.6</ele>
        <time>2014-05-29T08:23:11Z</time>
      </trkpt>
      <trkpt lat="48.38534" lon="2.52656">
        <ele>74.6</ele>
        <time>2014-05-29T08:23:19Z</time>
      </trkpt>
      <trkpt lat="48.38534" lon="2.52649">
        <ele>74.6</ele>
        <time>2014-05-29T08:23:21Z</time>
      </trkpt>
      <trkpt lat="48.38534" lon="2.52645">
        <ele>74.6</ele>
        <time>2014-05-29T08:23:22Z</time>
      </trkpt>
      <trkpt lat="48.38535" lon="2.52628">
        <ele>74.6</ele>
        <time>2014-05-29T08:23:29Z</time>
      </trkpt>
      <trkpt lat="48.3854" lon="2.5262">
        <ele>74.6</ele>
        <time>2014-05-29T08:23:32Z</time>
      </trkpt>
      <trkpt lat="48.38542" lon="2.52616">
        <ele>74.2</ele>
        <time>2014-05-29T08:23:33Z</time>
      </trkpt>
      <trkpt lat="48.38542" lon="2.52613">
        <ele>73.6</ele>
        <time>2014-05-29T08:23:34Z</time>
      </trkpt>
      <trkpt lat="48.38543" lon="2.52611">
        <ele>73.2</ele>
        <time>2014-05-29T08:23:35Z</time>
      </trkpt>
      <trkpt lat="48.38543" lon="2.52609">
        <ele>72.6</ele>
        <time>2014-05-29T08:23:36Z</time>
      </trkpt>
      <trkpt lat="48.38543" lon="2.52608">
        <ele>72.2</ele>
        <time>2014-05-29T08:23:37Z</time>
      </trkpt>
      <trkpt lat="48.38542" lon="2.52607">
        <ele>72.2</ele>
        <time>2014-05-29T08:23:38Z</time>
      </trkpt>
      <trkpt lat="48.38543" lon="2.52604">
        <ele>72.2</ele>
        <time>2014-05-29T08:23:40Z</time>
      </trkpt>
      <trkpt lat="48.38544" lon="2.5259">
        <ele>71.6</ele>
        <time>2014-05-29T08:23:47Z</time>
      </trkpt>
      <trkpt lat="48.38543" lon="2.52589">
        <ele>71.2</ele>
        <time>2014-05-29T08:23:48Z</time>
      </trkpt>
      <trkpt lat="48.38543" lon="2.52587">
        <ele>70.8</ele>
        <time>2014-05-29T08:23:49Z</time>
      </trkpt>
      <trkpt lat="48.38542" lon="2.52585">
        <ele>70.4</ele>
        <time>2014-05-29T08:23:50Z</time>
      </trkpt>
      <trkpt lat="48.38544" lon="2.52583">
        <ele>70</ele>
        <time>2014-05-29T08:23:51Z</time>
      </trkpt>
      <trkpt lat="48.38545" lon="2.5258">
        <ele>69.4</ele>
        <time>2014-05-29T08:23:52Z</time>
      </trkpt>
      <trkpt lat="48.38546" lon="2.52577">
        <ele>69</ele>
        <time>2014-05-29T08:23:53Z</time>
      </trkpt>
      <trkpt lat="48.38546" lon="2.52574">
        <ele>68.6</ele>
        <time>2014-05-29T08:23:54Z</time>
      </trkpt>
      <trkpt lat="48.38546" lon="2.5257">
        <ele>68.2</ele>
        <time>2014-05-29T08:23:55Z</time>
      </trkpt>
      <trkpt lat="48.38546" lon="2.52567">
        <ele>67.6</ele>
        <time>2014-05-29T08:23:56Z</time>
      </trkpt>
      <trkpt lat="48.38545" lon="2.52563">
        <ele>67.2</ele>
        <time>2014-05-29T08:23:57Z</time>
      </trkpt>
      <trkpt lat="48.38544" lon="2.52559">
        <ele>66.8</ele>
        <time>2014-05-29T08:23:58Z</time>
      </trkpt>
      <trkpt lat="48.38544" lon="2.52555">
        <ele>66.2</ele>
        <time>2014-05-29T08:23:59Z</time>
      </trkpt>
      <trkpt lat="48.38544" lon="2.52552">
        <ele>65.6</ele>
        <time>2014-05-29T08:24:00Z</time>
      </trkpt>
      <trkpt lat="48.38545" lon="2.52549">
        <ele>64.8</ele>
        <time>2014-05-29T08:24:01Z</time>
      </trkpt>
      <trkpt lat="48.38547" lon="2.52545">
        <ele>64.2</ele>
        <time>2014-05-29T08:24:02Z</time>
      </trkpt>
      <trkpt lat="48.38549" lon="2.5254">
        <ele>63.4</ele>
        <time>2014-05-29T08:24:03Z</time>
      </trkpt>
      <trkpt lat="48.38549" lon="2.52536">
        <ele>62.6</ele>
        <time>2014-05-29T08:24:04Z</time>
      </trkpt>
      <trkpt lat="48.38551" lon="2.52527">
        <ele>62</ele>
        <time>2014-05-29T08:24:05Z</time>
      </trkpt>
      <trkpt lat="48.38552" lon="2.5252">
        <ele>61.2</ele>
        <time>2014-05-29T08:24:06Z</time>
      </trkpt>
      <trkpt lat="48.38553" lon="2.52512">
        <ele>60.4</ele>
        <time>2014-05-29T08:24:07Z</time>
      </trkpt>
      <trkpt lat="48.38555" lon="2.52504">
        <ele>59.6</ele>
        <time>2014-05-29T08:24:08Z</time>
      </trkpt>
      <trkpt lat="48.38557" lon="2.52497">
        <ele>58.8</ele>
        <time>2014-05-29T08:24:09Z</time>
      </trkpt>
      <trkpt lat="48.38558" lon="2.52489">
        <ele>57.8</ele>
        <time>2014-05-29T08:24:10Z</time>
      </trkpt>
      <trkpt lat="48.3856" lon="2.52481">
        <ele>56.6</ele>
        <time>2014-05-29T08:24:11Z</time>
      </trkpt>
      <trkpt lat="48.38563" lon="2.52475">
        <ele>55.6</ele>
        <time>2014-05-29T08:24:12Z</time>
      </trkpt>
      <trkpt lat="48.38566" lon="2.52469">
        <ele>54.4</ele>
        <time>2014-05-29T08:24:13Z</time>
      </trkpt>
      <trkpt lat="48.38569" lon="2.52465">
        <ele>53.2</ele>
        <time>2014-05-29T08:24:14Z</time>
      </trkpt>
      <trkpt lat="48.38572" lon="2.52462">
        <ele>52</ele>
        <time>2014-05-29T08:24:15Z</time>
      </trkpt>
      <trkpt lat="48.38575" lon="2.5246">
        <ele>52</ele>
        <time>2014-05-29T08:24:16Z</time>
      </trkpt>
      <trkpt lat="48.38581" lon="2.52452">
        <ele>52</ele>
        <time>2014-05-29T08:24:18Z</time>
      </trkpt>
      <trkpt lat="48.386" lon="2.52434">
        <ele>52</ele>
        <time>2014-05-29T08:24:23Z</time>
      </trkpt>
      <trkpt lat="48.38617" lon="2.52419">
        <ele>52</ele>
        <time>2014-05-29T08:24:28Z</time>
      </trkpt>
      <trkpt lat="48.38624" lon="2.52413">
        <ele>52</ele>
        <time>2014-05-29T08:24:30Z</time>
      </trkpt>
      <trkpt lat="48.38631" lon="2.52407">
        <ele>52</ele>
        <time>2014-05-29T08:24:32Z</time>
      </trkpt>
      <trkpt lat="48.38636" lon="2.52399">
        <ele>52</ele>
        <time>2014-05-29T08:24:34Z</time>
      </trkpt>
      <trkpt lat="48.38647" lon="2.52375">
        <ele>52</ele>
        <time>2014-05-29T08:24:38Z</time>
      </trkpt>
      <trkpt lat="48.38649" lon="2.52369">
        <ele>52</ele>
        <time>2014-05-29T08:24:39Z</time>
      </trkpt>
      <trkpt lat="48.38653" lon="2.52359">
        <ele>52</ele>
        <time>2014-05-29T08:24:41Z</time>
      </trkpt>
      <trkpt lat="48.38658" lon="2.52348">
        <ele>52</ele>
        <time>2014-05-29T08:24:43Z</time>
      </trkpt>
      <trkpt lat="48.38667" lon="2.52325">
        <ele>52</ele>
        <time>2014-05-29T08:24:48Z</time>
      </trkpt>
      <trkpt lat="48.38681" lon="2.5231">
        <ele>52</ele>
        <time>2014-05-29T08:24:54Z</time>
      </trkpt>
      <trkpt lat="48.38683" lon="2.52312">
        <ele>52</ele>
        <time>2014-05-29T08:24:55Z</time>
      </trkpt>
      <trkpt lat="48.38686" lon="2.52317">
        <ele>52</ele>
        <time>2014-05-29T08:24:57Z</time>
      </trkpt>
      <trkpt lat="48.38695" lon="2.52342">
        <ele>52</ele>
        <time>2014-05-29T08:25:03Z</time>
      </trkpt>
      <trkpt lat="48.38709" lon="2.52362">
        <ele>52</ele>
        <time>2014-05-29T08:25:07Z</time>
      </trkpt>
      <trkpt lat="48.38707" lon="2.52365">
        <ele>52</ele>
        <time>2014-05-29T08:25:13Z</time>
      </trkpt>
      <trkpt lat="48.38708" lon="2.52362">
        <ele>52</ele>
        <time>2014-05-29T08:25:16Z</time>
      </trkpt>
      <trkpt lat="48.38708" lon="2.52361">
        <ele>52</ele>
        <time>2014-05-29T08:25:17Z</time>
      </trkpt>
      <trkpt lat="48.3871" lon="2.52359">
        <ele>52</ele>
        <time>2014-05-29T08:25:21Z</time>
      </trkpt>
      <trkpt lat="48.38713" lon="2.5236">
        <ele>52</ele>
        <time>2014-05-29T08:25:22Z</time>
      </trkpt>
      <trkpt lat="48.38715" lon="2.52361">
        <ele>52</ele>
        <time>2014-05-29T08:25:24Z</time>
      </trkpt>
      <trkpt lat="48.38717" lon="2.52362">
        <ele>52.4</ele>
        <time>2014-05-29T08:25:26Z</time>
      </trkpt>
      <trkpt lat="48.38718" lon="2.52362">
        <ele>53</ele>
        <time>2014-05-29T08:25:27Z</time>
      </trkpt>
      <trkpt lat="48.38721" lon="2.52363">
        <ele>53.4</ele>
        <time>2014-05-29T08:25:28Z</time>
      </trkpt>
      <trkpt lat="48.38722" lon="2.52363">
        <ele>53.8</ele>
        <time>2014-05-29T08:25:29Z</time>
      </trkpt>
      <trkpt lat="48.38723" lon="2.52364">
        <ele>54.4</ele>
        <time>2014-05-29T08:25:30Z</time>
      </trkpt>
      <trkpt lat="48.38724" lon="2.52363">
        <ele>54.4</ele>
        <time>2014-05-29T08:25:31Z</time>
      </trkpt>
      <trkpt lat="48.3873" lon="2.52362">
        <ele>54.4</ele>
        <time>2014-05-29T08:25:34Z</time>
      </trkpt>
      <trkpt lat="48.38732" lon="2.52362">
        <ele>54.8</ele>
        <time>2014-05-29T08:25:35Z</time>
      </trkpt>
      <trkpt lat="48.38735" lon="2.52362">
        <ele>55.2</ele>
        <time>2014-05-29T08:25:36Z</time>
      </trkpt>
      <trkpt lat="48.38736" lon="2.52361">
        <ele>55.6</ele>
        <time>2014-05-29T08:25:37Z</time>
      </trkpt>
      <trkpt lat="48.38737" lon="2.5236">
        <ele>56</ele>
        <time>2014-05-29T08:25:38Z</time>
      </trkpt>
      <trkpt lat="48.38738" lon="2.5236">
        <ele>56.4</ele>
        <time>2014-05-29T08:25:39Z</time>
      </trkpt>
      <trkpt lat="48.38739" lon="2.5236">
        <ele>56.4</ele>
        <time>2014-05-29T08:25:41Z</time>
      </trkpt>
      <trkpt lat="48.3874" lon="2.5236">
        <ele>56.4</ele>
        <time>2014-05-29T08:25:42Z</time>
      </trkpt>
      <trkpt lat="48.38742" lon="2.52361">
        <ele>56.8</ele>
        <time>2014-05-29T08:25:44Z</time>
      </trkpt>
      <trkpt lat="48.38743" lon="2.52361">
        <ele>57.2</ele>
        <time>2014-05-29T08:25:45Z</time>
      </trkpt>
      <trkpt lat="48.38745" lon="2.5236">
        <ele>57.6</ele>
        <time>2014-05-29T08:25:46Z</time>
      </trkpt>
      <trkpt lat="48.38747" lon="2.52359">
        <ele>58</ele>
        <time>2014-05-29T08:25:47Z</time>
      </trkpt>
      <trkpt lat="48.38748" lon="2.52359">
        <ele>58.6</ele>
        <time>2014-05-29T08:25:48Z</time>
      </trkpt>
      <trkpt lat="48.3875" lon="2.52358">
        <ele>58.6</ele>
        <time>2014-05-29T08:25:49Z</time>
      </trkpt>
      <trkpt lat="48.38753" lon="2.52357">
        <ele>59</ele>
        <time>2014-05-29T08:25:51Z</time>
      </trkpt>
      <trkpt lat="48.38755" lon="2.52357">
        <ele>59.4</ele>
        <time>2014-05-29T08:25:52Z</time>
      </trkpt>
      <trkpt lat="48.38756" lon="2.52357">
        <ele>59.8</ele>
        <time>2014-05-29T08:25:53Z</time>
      </trkpt>
      <trkpt lat="48.38758" lon="2.52357">
        <ele>60.2</ele>
        <time>2014-05-29T08:25:54Z</time>
      </trkpt>
      <trkpt lat="48.38764" lon="2.52355">
        <ele>61</ele>
        <time>2014-05-29T08:25:58Z</time>
      </trkpt>
      <trkpt lat="48.38766" lon="2.52355">
        <ele>61.4</ele>
        <time>2014-05-29T08:25:59Z</time>
      </trkpt>
      <trkpt lat="48.38768" lon="2.52355">
        <ele>61.8</ele>
        <time>2014-05-29T08:26:00Z</time>
      </trkpt>
      <trkpt lat="48.38769" lon="2.52354">
        <ele>62.2</ele>
        <time>2014-05-29T08:26:01Z</time>
      </trkpt>
      <trkpt lat="48.3877" lon="2.52355">
        <ele>62.6</ele>
        <time>2014-05-29T08:26:02Z</time>
      </trkpt>
      <trkpt lat="48.38771" lon="2.52355">
        <ele>62.6</ele>
        <time>2014-05-29T08:26:03Z</time>
      </trkpt>
      <trkpt lat="48.38772" lon="2.52354">
        <ele>62.6</ele>
        <time>2014-05-29T08:26:04Z</time>
      </trkpt>
      <trkpt lat="48.38773" lon="2.52354">
        <ele>62.6</ele>
        <time>2014-05-29T08:26:05Z</time>
      </trkpt>
      <trkpt lat="48.38776" lon="2.52353">
        <ele>63</ele>
        <time>2014-05-29T08:26:07Z</time>
      </trkpt>
      <trkpt lat="48.38777" lon="2.52354">
        <ele>63.6</ele>
        <time>2014-05-29T08:26:08Z</time>
      </trkpt>
      <trkpt lat="48.38779" lon="2.52354">
        <ele>64</ele>
        <time>2014-05-29T08:26:09Z</time>
      </trkpt>
      <trkpt lat="48.3878" lon="2.52354">
        <ele>64.6</ele>
        <time>2014-05-29T08:26:10Z</time>
      </trkpt>
      <trkpt lat="48.38781" lon="2.52354">
        <ele>65</ele>
        <time>2014-05-29T08:26:11Z</time>
      </trkpt>
      <trkpt lat="48.38783" lon="2.52354">
        <ele>65.4</ele>
        <time>2014-05-29T08:26:13Z</time>
      </trkpt>
      <trkpt lat="48.38784" lon="2.52353">
        <ele>65.8</ele>
        <time>2014-05-29T08:26:14Z</time>
      </trkpt>
      <trkpt lat="48.38785" lon="2.52353">
        <ele>66.2</ele>
        <time>2014-05-29T08:26:15Z</time>
      </trkpt>
      <trkpt lat="48.38786" lon="2.52352">
        <ele>66.6</ele>
        <time>2014-05-29T08:26:16Z</time>
      </trkpt>
      <trkpt lat="48.38788" lon="2.52351">
        <ele>67</ele>
        <time>2014-05-29T08:26:17Z</time>
      </trkpt>
      <trkpt lat="48.3879" lon="2.52349">
        <ele>67.4</ele>
        <time>2014-05-29T08:26:19Z</time>
      </trkpt>
      <trkpt lat="48.38791" lon="2.52348">
        <ele>67.8</ele>
        <time>2014-05-29T08:26:20Z</time>
      </trkpt>
      <trkpt lat="48.38792" lon="2.52347">
        <ele>68.4</ele>
        <time>2014-05-29T08:26:21Z</time>
      </trkpt>
      <trkpt lat="48.38793" lon="2.52346">
        <ele>68.8</ele>
        <time>2014-05-29T08:26:22Z</time>
      </trkpt>
      <trkpt lat="48.38794" lon="2.52347">
        <ele>69.2</ele>
        <time>2014-05-29T08:26:23Z</time>
      </trkpt>
      <trkpt lat="48.38794" lon="2.52346">
        <ele>69.2</ele>
        <time>2014-05-29T08:26:24Z</time>
      </trkpt>
      <trkpt lat="48.38795" lon="2.52346">
        <ele>69.6</ele>
        <time>2014-05-29T08:26:26Z</time>
      </trkpt>
      <trkpt lat="48.38795" lon="2.52346">
        <ele>70</ele>
        <time>2014-05-29T08:26:27Z</time>
      </trkpt>
      <trkpt lat="48.38796" lon="2.52345">
        <ele>70.6</ele>
        <time>2014-05-29T08:26:28Z</time>
      </trkpt>
      <trkpt lat="48.38796" lon="2.52344">
        <ele>71</ele>
        <time>2014-05-29T08:26:29Z</time>
      </trkpt>
      <trkpt lat="48.38797" lon="2.52344">
        <ele>71.4</ele>
        <time>2014-05-29T08:26:30Z</time>
      </trkpt>
      <trkpt lat="48.38799" lon="2.52344">
        <ele>71.4</ele>
        <time>2014-05-29T08:26:31Z</time>
      </trkpt>
      <trkpt lat="48.38801" lon="2.52343">
        <ele>71.8</ele>
        <time>2014-05-29T08:26:33Z</time>
      </trkpt>
      <trkpt lat="48.38802" lon="2.52342">
        <ele>72.2</ele>
        <time>2014-05-29T08:26:34Z</time>
      </trkpt>
      <trkpt lat="48.38804" lon="2.52341">
        <ele>72.6</ele>
        <time>2014-05-29T08:26:35Z</time>
      </trkpt>
      <trkpt lat="48.38805" lon="2.52341">
        <ele>73</ele>
        <time>2014-05-29T08:26:36Z</time>
      </trkpt>
      <trkpt lat="48.38809" lon="2.52341">
        <ele>73.4</ele>
        <time>2014-05-29T08:26:37Z</time>
      </trkpt>
      <trkpt lat="48.38813" lon="2.5234">
        <ele>73.4</ele>
        <time>2014-05-29T08:26:39Z</time>
      </trkpt>
      <trkpt lat="48.38815" lon="2.5234">
        <ele>73.4</ele>
        <time>2014-05-29T08:26:40Z</time>
      </trkpt>
      <trkpt lat="48.38816" lon="2.5234">
        <ele>73.4</ele>
        <time>2014-05-29T08:26:41Z</time>
      </trkpt>
      <trkpt lat="48.38818" lon="2.5234">
        <ele>73.8</ele>
        <time>2014-05-29T08:26:43Z</time>
      </trkpt>
      <trkpt lat="48.38819" lon="2.5234">
        <ele>74.2</ele>
        <time>2014-05-29T08:26:44Z</time>
      </trkpt>
      <trkpt lat="48.38821" lon="2.52342">
        <ele>75.6</ele>
        <time>2014-05-29T08:26:51Z</time>
      </trkpt>
      <trkpt lat="48.38823" lon="2.52343">
        <ele>75.6</ele>
        <time>2014-05-29T08:26:56Z</time>
      </trkpt>
      <trkpt lat="48.38825" lon="2.52343">
        <ele>75.6</ele>
        <time>2014-05-29T08:26:59Z</time>
      </trkpt>
      <trkpt lat="48.38825" lon="2.52342">
        <ele>75.6</ele>
        <time>2014-05-29T08:27:01Z</time>
      </trkpt>
      <trkpt lat="48.38827" lon="2.52342">
        <ele>75.6</ele>
        <time>2014-05-29T08:27:02Z</time>
      </trkpt>
      <trkpt lat="48.38829" lon="2.5234">
        <ele>76</ele>
        <time>2014-05-29T08:27:04Z</time>
      </trkpt>
      <trkpt lat="48.3883" lon="2.5234">
        <ele>76.4</ele>
        <time>2014-05-29T08:27:05Z</time>
      </trkpt>
      <trkpt lat="48.38831" lon="2.5234">
        <ele>76.8</ele>
        <time>2014-05-29T08:27:06Z</time>
      </trkpt>
      <trkpt lat="48.38831" lon="2.52339">
        <ele>77.2</ele>
        <time>2014-05-29T08:27:07Z</time>
      </trkpt>
      <trkpt lat="48.38832" lon="2.52339">
        <ele>77.6</ele>
        <time>2014-05-29T08:27:08Z</time>
      </trkpt>
      <trkpt lat="48.38833" lon="2.52339">
        <ele>77.6</ele>
        <time>2014-05-29T08:27:09Z</time>
      </trkpt>
      <trkpt lat="48.38833" lon="2.52339">
        <ele>77.6</ele>
        <time>2014-05-29T08:27:10Z</time>
      </trkpt>
      <trkpt lat="48.38835" lon="2.52337">
        <ele>77.6</ele>
        <time>2014-05-29T08:27:13Z</time>
      </trkpt>
      <trkpt lat="48.38845" lon="2.52342">
        <ele>79.6</ele>
        <time>2014-05-29T08:27:28Z</time>
      </trkpt>
      <trkpt lat="48.38846" lon="2.52342">
        <ele>80.2</ele>
        <time>2014-05-29T08:27:32Z</time>
      </trkpt>
      <trkpt lat="48.38847" lon="2.52342">
        <ele>80.6</ele>
        <time>2014-05-29T08:27:33Z</time>
      </trkpt>
      <trkpt lat="48.38847" lon="2.52342">
        <ele>81</ele>
        <time>2014-05-29T08:27:34Z</time>
      </trkpt>
      <trkpt lat="48.38848" lon="2.52342">
        <ele>81.4</ele>
        <time>2014-05-29T08:27:35Z</time>
      </trkpt>
      <trkpt lat="48.38848" lon="2.52342">
        <ele>81.8</ele>
        <time>2014-05-29T08:27:36Z</time>
      </trkpt>
      <trkpt lat="48.38849" lon="2.52341">
        <ele>81.8</ele>
        <time>2014-05-29T08:27:37Z</time>
      </trkpt>
      <trkpt lat="48.38849" lon="2.5234">
        <ele>81.8</ele>
        <time>2014-05-29T08:27:41Z</time>
      </trkpt>
      <trkpt lat="48.38849" lon="2.5234">
        <ele>81.8</ele>
        <time>2014-05-29T08:27:42Z</time>
      </trkpt>
      <trkpt lat="48.3885" lon="2.5234">
        <ele>81.8</ele>
        <time>2014-05-29T08:27:43Z</time>
      </trkpt>
      <trkpt lat="48.38851" lon="2.5234">
        <ele>82.2</ele>
        <time>2014-05-29T08:27:45Z</time>
      </trkpt>
      <trkpt lat="48.38851" lon="2.5234">
        <ele>82.6</ele>
        <time>2014-05-29T08:27:46Z</time>
      </trkpt>
      <trkpt lat="48.38852" lon="2.52339">
        <ele>83</ele>
        <time>2014-05-29T08:27:47Z</time>
      </trkpt>
      <trkpt lat="48.38852" lon="2.52338">
        <ele>83.4</ele>
        <time>2014-05-29T08:27:48Z</time>
      </trkpt>
      <trkpt lat="48.38852" lon="2.52338">
        <ele>84</ele>
        <time>2014-05-29T08:27:49Z</time>
      </trkpt>
      <trkpt lat="48.38853" lon="2.52336">
        <ele>84</ele>
        <time>2014-05-29T08:27:51Z</time>
      </trkpt>
      <trkpt lat="48.38854" lon="2.52336">
        <ele>84.4</ele>
        <time>2014-05-29T08:27:52Z</time>
      </trkpt>
      <trkpt lat="48.38854" lon="2.52336">
        <ele>84.8</ele>
        <time>2014-05-29T08:27:53Z</time>
      </trkpt>
      <trkpt lat="48.38855" lon="2.52335">
        <ele>85.2</ele>
        <time>2014-05-29T08:27:54Z</time>
      </trkpt>
      <trkpt lat="48.38856" lon="2.52335">
        <ele>85.6</ele>
        <time>2014-05-29T08:27:55Z</time>
      </trkpt>
      <trkpt lat="48.38857" lon="2.52334">
        <ele>86.2</ele>
        <time>2014-05-29T08:27:56Z</time>
      </trkpt>
      <trkpt lat="48.38858" lon="2.52334">
        <ele>86.2</ele>
        <time>2014-05-29T08:27:57Z</time>
      </trkpt>
      <trkpt lat="48.38865" lon="2.52332">
        <ele>86.6</ele>
        <time>2014-05-29T08:28:03Z</time>
      </trkpt>
      <trkpt lat="48.38866" lon="2.52332">
        <ele>87</ele>
        <time>2014-05-29T08:28:04Z</time>
      </trkpt>
      <trkpt lat="48.38867" lon="2.52332">
        <ele>87.4</ele>
        <time>2014-05-29T08:28:05Z</time>
      </trkpt>
      <trkpt lat="48.38867" lon="2.52331">
        <ele>87.8</ele>
        <time>2014-05-29T08:28:06Z</time>
      </trkpt>
      <trkpt lat="48.38868" lon="2.52331">
        <ele>88.2</ele>
        <time>2014-05-29T08:28:07Z</time>
      </trkpt>
      <trkpt lat="48.38871" lon="2.52328">
        <ele>88.2</ele>
        <time>2014-05-29T08:28:11Z</time>
      </trkpt>
      <trkpt lat="48.38872" lon="2.52326">
        <ele>88.6</ele>
        <time>2014-05-29T08:28:13Z</time>
      </trkpt>
      <trkpt lat="48.38872" lon="2.52326">
        <ele>89.2</ele>
        <time>2014-05-29T08:28:14Z</time>
      </trkpt>
      <trkpt lat="48.38872" lon="2.52325">
        <ele>89.6</ele>
        <time>2014-05-29T08:28:15Z</time>
      </trkpt>
      <trkpt lat="48.38873" lon="2.52325">
        <ele>90</ele>
        <time>2014-05-29T08:28:16Z</time>
      </trkpt>
      <trkpt lat="48.38873" lon="2.52325">
        <ele>90.6</ele>
        <time>2014-05-29T08:28:17Z</time>
      </trkpt>
      <trkpt lat="48.38875" lon="2.52327">
        <ele>90.6</ele>
        <time>2014-05-29T08:28:22Z</time>
      </trkpt>
      <trkpt lat="48.38878" lon="2.52331">
        <ele>90.6</ele>
        <time>2014-05-29T08:28:25Z</time>
      </trkpt>
      <trkpt lat="48.3888" lon="2.52336">
        <ele>91</ele>
        <time>2014-05-29T08:28:28Z</time>
      </trkpt>
      <trkpt lat="48.38881" lon="2.52337">
        <ele>91.4</ele>
        <time>2014-05-29T08:28:29Z</time>
      </trkpt>
      <trkpt lat="48.38882" lon="2.52338">
        <ele>91.8</ele>
        <time>2014-05-29T08:28:30Z</time>
      </trkpt>
      <trkpt lat="48.38884" lon="2.52339">
        <ele>92.2</ele>
        <time>2014-05-29T08:28:31Z</time>
      </trkpt>
      <trkpt lat="48.38885" lon="2.52339">
        <ele>92.8</ele>
        <time>2014-05-29T08:28:32Z</time>
      </trkpt>
      <trkpt lat="48.38887" lon="2.52337">
        <ele>92.8</ele>
        <time>2014-05-29T08:28:34Z</time>
      </trkpt>
      <trkpt lat="48.3889" lon="2.52337">
        <ele>92.8</ele>
        <time>2014-05-29T08:28:36Z</time>
      </trkpt>
      <trkpt lat="48.38893" lon="2.52346">
        <ele>92.8</ele>
        <time>2014-05-29T08:28:40Z</time>
      </trkpt>
      <trkpt lat="48.38894" lon="2.52348">
        <ele>92.8</ele>
        <time>2014-05-29T08:28:41Z</time>
      </trkpt>
      <trkpt lat="48.38895" lon="2.52352">
        <ele>93.6</ele>
        <time>2014-05-29T08:28:43Z</time>
      </trkpt>
      <trkpt lat="48.38895" lon="2.52355">
        <ele>94</ele>
        <time>2014-05-29T08:28:44Z</time>
      </trkpt>
      <trkpt lat="48.38896" lon="2.52357">
        <ele>94.4</ele>
        <time>2014-05-29T08:28:45Z</time>
      </trkpt>
      <trkpt lat="48.38896" lon="2.52358">
        <ele>94.8</ele>
        <time>2014-05-29T08:28:46Z</time>
      </trkpt>
      <trkpt lat="48.38897" lon="2.52361">
        <ele>95.2</ele>
        <time>2014-05-29T08:28:48Z</time>
      </trkpt>
      <trkpt lat="48.38898" lon="2.52363">
        <ele>95.6</ele>
        <time>2014-05-29T08:28:49Z</time>
      </trkpt>
      <trkpt lat="48.38898" lon="2.52366">
        <ele>96.2</ele>
        <time>2014-05-29T08:28:50Z</time>
      </trkpt>
      <trkpt lat="48.38898" lon="2.52368">
        <ele>96.6</ele>
        <time>2014-05-29T08:28:51Z</time>
      </trkpt>
      <trkpt lat="48.38899" lon="2.5237">
        <ele>97</ele>
        <time>2014-05-29T08:28:52Z</time>
      </trkpt>
      <trkpt lat="48.389" lon="2.52374">
        <ele>97</ele>
        <time>2014-05-29T08:28:54Z</time>
      </trkpt>
      <trkpt lat="48.38901" lon="2.52378">
        <ele>97</ele>
        <time>2014-05-29T08:28:56Z</time>
      </trkpt>
      <trkpt lat="48.38905" lon="2.52405">
        <ele>97</ele>
        <time>2014-05-29T08:29:02Z</time>
      </trkpt>
      <trkpt lat="48.38909" lon="2.52412">
        <ele>97</ele>
        <time>2014-05-29T08:29:03Z</time>
      </trkpt>
      <trkpt lat="48.38914" lon="2.52431">
        <ele>97</ele>
        <time>2014-05-29T08:29:08Z</time>
      </trkpt>
      <trkpt lat="48.38915" lon="2.52436">
        <ele>97</ele>
        <time>2014-05-29T08:29:09Z</time>
      </trkpt>
      <trkpt lat="48.38914" lon="2.52459">
        <ele>97</ele>
        <time>2014-05-29T08:29:16Z</time>
      </trkpt>
      <trkpt lat="48.38915" lon="2.52473">
        <ele>97</ele>
        <time>2014-05-29T08:29:20Z</time>
      </trkpt>
      <trkpt lat="48.38916" lon="2.5248">
        <ele>97.4</ele>
        <time>2014-05-29T08:29:22Z</time>
      </trkpt>
      <trkpt lat="48.38916" lon="2.52484">
        <ele>97.8</ele>
        <time>2014-05-29T08:29:23Z</time>
      </trkpt>
      <trkpt lat="48.38917" lon="2.52488">
        <ele>98.4</ele>
        <time>2014-05-29T08:29:24Z</time>
      </trkpt>
      <trkpt lat="48.38919" lon="2.52493">
        <ele>98.8</ele>
        <time>2014-05-29T08:29:25Z</time>
      </trkpt>
      <trkpt lat="48.38919" lon="2.52495">
        <ele>99.2</ele>
        <time>2014-05-29T08:29:26Z</time>
      </trkpt>
      <trkpt lat="48.38921" lon="2.52522">
        <ele>99.2</ele>
        <time>2014-05-29T08:29:33Z</time>
      </trkpt>
      <trkpt lat="48.38917" lon="2.52523">
        <ele>99.2</ele>
        <time>2014-05-29T08:29:34Z</time>
      </trkpt>
      <trkpt lat="48.38916" lon="2.52525">
        <ele>99.2</ele>
        <time>2014-05-29T08:29:35Z</time>
      </trkpt>
      <trkpt lat="48.38914" lon="2.52527">
        <ele>99.2</ele>
        <time>2014-05-29T08:29:36Z</time>
      </trkpt>
      <trkpt lat="48.38912" lon="2.52533">
        <ele>99.2</ele>
        <time>2014-05-29T08:29:38Z</time>
      </trkpt>
      <trkpt lat="48.38911" lon="2.52537">
        <ele>99.2</ele>
        <time>2014-05-29T08:29:39Z</time>
      </trkpt>
      <trkpt lat="48.38909" lon="2.52549">
        <ele>99.2</ele>
        <time>2014-05-29T08:29:42Z</time>
      </trkpt>
      <trkpt lat="48.3891" lon="2.52561">
        <ele>99.2</ele>
        <time>2014-05-29T08:29:45Z</time>
      </trkpt>
      <trkpt lat="48.38912" lon="2.52575">
        <ele>99.2</ele>
        <time>2014-05-29T08:29:48Z</time>
      </trkpt>
      <trkpt lat="48.38911" lon="2.52578">
        <ele>99.2</ele>
        <time>2014-05-29T08:29:49Z</time>
      </trkpt>
      <trkpt lat="48.38899" lon="2.52594">
        <ele>99.2</ele>
        <time>2014-05-29T08:29:55Z</time>
      </trkpt>
      <trkpt lat="48.389" lon="2.52617">
        <ele>99.2</ele>
        <time>2014-05-29T08:30:01Z</time>
      </trkpt>
      <trkpt lat="48.38899" lon="2.52643">
        <ele>99.2</ele>
        <time>2014-05-29T08:30:06Z</time>
      </trkpt>
      <trkpt lat="48.38896" lon="2.52664">
        <ele>99.2</ele>
        <time>2014-05-29T08:30:11Z</time>
      </trkpt>
      <trkpt lat="48.38894" lon="2.5267">
        <ele>99.2</ele>
        <time>2014-05-29T08:30:15Z</time>
      </trkpt>
      <trkpt lat="48.38897" lon="2.52669">
        <ele>99.2</ele>
        <time>2014-05-29T08:30:16Z</time>
      </trkpt>
      <trkpt lat="48.389" lon="2.52664">
        <ele>99.2</ele>
        <time>2014-05-29T08:30:20Z</time>
      </trkpt>
      <trkpt lat="48.38902" lon="2.52665">
        <ele>99.2</ele>
        <time>2014-05-29T08:30:23Z</time>
      </trkpt>
      <trkpt lat="48.38902" lon="2.52668">
        <ele>99.2</ele>
        <time>2014-05-29T08:30:24Z</time>
      </trkpt>
      <trkpt lat="48.38906" lon="2.52674">
        <ele>99.2</ele>
        <time>2014-05-29T08:30:29Z</time>
      </trkpt>
      <trkpt lat="48.38912" lon="2.52678">
        <ele>99.2</ele>
        <time>2014-05-29T08:30:33Z</time>
      </trkpt>
      <trkpt lat="48.38917" lon="2.52677">
        <ele>99.2</ele>
        <time>2014-05-29T08:30:35Z</time>
      </trkpt>
      <trkpt lat="48.38923" lon="2.5268">
        <ele>99.2</ele>
        <time>2014-05-29T08:30:38Z</time>
      </trkpt>
      <trkpt lat="48.38928" lon="2.52684">
        <ele>99.2</ele>
        <time>2014-05-29T08:30:42Z</time>
      </trkpt>
      <trkpt lat="48.3894" lon="2.52694">
        <ele>99.2</ele>
        <time>2014-05-29T08:30:49Z</time>
      </trkpt>
      <trkpt lat="48.38953" lon="2.52707">
        <ele>99.2</ele>
        <time>2014-05-29T08:30:56Z</time>
      </trkpt>
      <trkpt lat="48.3896" lon="2.52705">
        <ele>99.2</ele>
        <time>2014-05-29T08:30:59Z</time>
      </trkpt>
      <trkpt lat="48.38966" lon="2.52706">
        <ele>99.2</ele>
        <time>2014-05-29T08:31:01Z</time>
      </trkpt>
      <trkpt lat="48.38973" lon="2.52707">
        <ele>99.2</ele>
        <time>2014-05-29T08:31:04Z</time>
      </trkpt>
      <trkpt lat="48.38976" lon="2.52709">
        <ele>99.2</ele>
        <time>2014-05-29T08:31:05Z</time>
      </trkpt>
      <trkpt lat="48.38991" lon="2.52714">
        <ele>99.2</ele>
        <time>2014-05-29T08:31:10Z</time>
      </trkpt>
      <trkpt lat="48.39007" lon="2.52703">
        <ele>99.2</ele>
        <time>2014-05-29T08:31:16Z</time>
      </trkpt>
      <trkpt lat="48.39012" lon="2.52699">
        <ele>99.2</ele>
        <time>2014-05-29T08:31:20Z</time>
      </trkpt>
      <trkpt lat="48.39013" lon="2.52698">
        <ele>99.2</ele>
        <time>2014-05-29T08:31:23Z</time>
      </trkpt>
      <trkpt lat="48.39014" lon="2.52697">
        <ele>99.2</ele>
        <time>2014-05-29T08:31:28Z</time>
      </trkpt>
      <trkpt lat="48.39015" lon="2.52696">
        <ele>99.2</ele>
        <time>2014-05-29T08:31:34Z</time>
      </trkpt>
      <trkpt lat="48.39015" lon="2.52693">
        <ele>99.2</ele>
        <time>2014-05-29T08:31:36Z</time>
      </trkpt>
      <trkpt lat="48.39017" lon="2.52685">
        <ele>100</ele>
        <time>2014-05-29T08:31:38Z</time>
      </trkpt>
      <trkpt lat="48.39016" lon="2.5268">
        <ele>100.6</ele>
        <time>2014-05-29T08:31:39Z</time>
      </trkpt>
      <trkpt lat="48.39016" lon="2.52676">
        <ele>101</ele>
        <time>2014-05-29T08:31:40Z</time>
      </trkpt>
      <trkpt lat="48.39016" lon="2.52673">
        <ele>101.4</ele>
        <time>2014-05-29T08:31:41Z</time>
      </trkpt>
      <trkpt lat="48.39014" lon="2.52669">
        <ele>101.4</ele>
        <time>2014-05-29T08:31:42Z</time>
      </trkpt>
      <trkpt lat="48.3901" lon="2.52646">
        <ele>101.4</ele>
        <time>2014-05-29T08:31:47Z</time>
      </trkpt>
      <trkpt lat="48.39018" lon="2.52612">
        <ele>101.4</ele>
        <time>2014-05-29T08:31:55Z</time>
      </trkpt>
      <trkpt lat="48.39021" lon="2.52598">
        <ele>101.4</ele>
        <time>2014-05-29T08:32:01Z</time>
      </trkpt>
      <trkpt lat="48.3903" lon="2.52594">
        <ele>101.4</ele>
        <time>2014-05-29T08:32:04Z</time>
      </trkpt>
      <trkpt lat="48.39032" lon="2.52594">
        <ele>101.4</ele>
        <time>2014-05-29T08:32:05Z</time>
      </trkpt>
      <trkpt lat="48.39042" lon="2.52594">
        <ele>101.4</ele>
        <time>2014-05-29T08:32:11Z</time>
      </trkpt>
      <trkpt lat="48.39049" lon="2.52597">
        <ele>101.4</ele>
        <time>2014-05-29T08:32:15Z</time>
      </trkpt>
      <trkpt lat="48.39051" lon="2.52598">
        <ele>101.4</ele>
        <time>2014-05-29T08:32:16Z</time>
      </trkpt>
      <trkpt lat="48.39053" lon="2.52596">
        <ele>101.4</ele>
        <time>2014-05-29T08:32:17Z</time>
      </trkpt>
      <trkpt lat="48.3906" lon="2.5259">
        <ele>101.4</ele>
        <time>2014-05-29T08:32:20Z</time>
      </trkpt>
      <trkpt lat="48.39065" lon="2.52583">
        <ele>101.4</ele>
        <time>2014-05-29T08:32:23Z</time>
      </trkpt>
      <trkpt lat="48.39068" lon="2.52579">
        <ele>101.4</ele>
        <time>2014-05-29T08:32:25Z</time>
      </trkpt>
      <trkpt lat="48.39074" lon="2.52563">
        <ele>101.4</ele>
        <time>2014-05-29T08:32:31Z</time>
      </trkpt>
      <trkpt lat="48.39085" lon="2.52545">
        <ele>101.4</ele>
        <time>2014-05-29T08:32:38Z</time>
      </trkpt>
      <trkpt lat="48.39095" lon="2.52533">
        <ele>101.4</ele>
        <time>2014-05-29T08:32:42Z</time>
      </trkpt>
      <trkpt lat="48.3911" lon="2.52516">
        <ele>101.4</ele>
        <time>2014-05-29T08:32:48Z</time>
      </trkpt>
      <trkpt lat="48.39117" lon="2.52504">
        <ele>101.4</ele>
        <time>2014-05-29T08:32:54Z</time>
      </trkpt>
      <trkpt lat="48.39117" lon="2.52503">
        <ele>101.4</ele>
        <time>2014-05-29T08:32:55Z</time>
      </trkpt>
      <trkpt lat="48.39118" lon="2.52495">
        <ele>101.4</ele>
        <time>2014-05-29T08:33:00Z</time>
      </trkpt>
      <trkpt lat="48.3912" lon="2.52491">
        <ele>101.4</ele>
        <time>2014-05-29T08:33:02Z</time>
      </trkpt>
      <trkpt lat="48.39122" lon="2.52487">
        <ele>101.4</ele>
        <time>2014-05-29T08:33:05Z</time>
      </trkpt>
      <trkpt lat="48.39126" lon="2.52484">
        <ele>101.4</ele>
        <time>2014-05-29T08:33:09Z</time>
      </trkpt>
      <trkpt lat="48.39129" lon="2.5248">
        <ele>101</ele>
        <time>2014-05-29T08:33:11Z</time>
      </trkpt>
      <trkpt lat="48.39138" lon="2.52475">
        <ele>100.2</ele>
        <time>2014-05-29T08:33:13Z</time>
      </trkpt>
      <trkpt lat="48.39141" lon="2.52474">
        <ele>99.8</ele>
        <time>2014-05-29T08:33:14Z</time>
      </trkpt>
      <trkpt lat="48.39142" lon="2.52475">
        <ele>99.4</ele>
        <time>2014-05-29T08:33:15Z</time>
      </trkpt>
      <trkpt lat="48.39151" lon="2.52468">
        <ele>99.4</ele>
        <time>2014-05-29T08:33:22Z</time>
      </trkpt>
      <trkpt lat="48.39152" lon="2.52467">
        <ele>99.4</ele>
        <time>2014-05-29T08:33:23Z</time>
      </trkpt>
      <trkpt lat="48.39156" lon="2.52463">
        <ele>99.4</ele>
        <time>2014-05-29T08:33:26Z</time>
      </trkpt>
      <trkpt lat="48.39157" lon="2.52462">
        <ele>99</ele>
        <time>2014-05-29T08:33:27Z</time>
      </trkpt>
      <trkpt lat="48.39159" lon="2.52462">
        <ele>98.4</ele>
        <time>2014-05-29T08:33:28Z</time>
      </trkpt>
      <trkpt lat="48.3916" lon="2.52461">
        <ele>98</ele>
        <time>2014-05-29T08:33:29Z</time>
      </trkpt>
      <trkpt lat="48.39161" lon="2.5246">
        <ele>97.6</ele>
        <time>2014-05-29T08:33:30Z</time>
      </trkpt>
      <trkpt lat="48.39163" lon="2.52458">
        <ele>97</ele>
        <time>2014-05-29T08:33:31Z</time>
      </trkpt>
      <trkpt lat="48.39166" lon="2.52455">
        <ele>96.6</ele>
        <time>2014-05-29T08:33:32Z</time>
      </trkpt>
      <trkpt lat="48.39168" lon="2.52452">
        <ele>96</ele>
        <time>2014-05-29T08:33:33Z</time>
      </trkpt>
      <trkpt lat="48.39171" lon="2.52447">
        <ele>95.2</ele>
        <time>2014-05-29T08:33:34Z</time>
      </trkpt>
      <trkpt lat="48.39173" lon="2.52443">
        <ele>94.4</ele>
        <time>2014-05-29T08:33:35Z</time>
      </trkpt>
      <trkpt lat="48.39175" lon="2.52438">
        <ele>93.4</ele>
        <time>2014-05-29T08:33:36Z</time>
      </trkpt>
      <trkpt lat="48.39176" lon="2.52431">
        <ele>92.4</ele>
        <time>2014-05-29T08:33:37Z</time>
      </trkpt>
      <trkpt lat="48.39176" lon="2.52425">
        <ele>91.4</ele>
        <time>2014-05-29T08:33:38Z</time>
      </trkpt>
      <trkpt lat="48.39175" lon="2.5242">
        <ele>90.6</ele>
        <time>2014-05-29T08:33:39Z</time>
      </trkpt>
      <trkpt lat="48.39175" lon="2.52417">
        <ele>89.6</ele>
        <time>2014-05-29T08:33:40Z</time>
      </trkpt>
      <trkpt lat="48.39182" lon="2.52406">
        <ele>89.6</ele>
        <time>2014-05-29T08:33:43Z</time>
      </trkpt>
      <trkpt lat="48.39193" lon="2.52392">
        <ele>89</ele>
        <time>2014-05-29T08:33:46Z</time>
      </trkpt>
      <trkpt lat="48.39197" lon="2.52388">
        <ele>88.6</ele>
        <time>2014-05-29T08:33:47Z</time>
      </trkpt>
      <trkpt lat="48.392" lon="2.52386">
        <ele>88</ele>
        <time>2014-05-29T08:33:48Z</time>
      </trkpt>
      <trkpt lat="48.39202" lon="2.52388">
        <ele>87.4</ele>
        <time>2014-05-29T08:33:49Z</time>
      </trkpt>
      <trkpt lat="48.39203" lon="2.52389">
        <ele>86.6</ele>
        <time>2014-05-29T08:33:50Z</time>
      </trkpt>
      <trkpt lat="48.39204" lon="2.52391">
        <ele>85.6</ele>
        <time>2014-05-29T08:33:51Z</time>
      </trkpt>
      <trkpt lat="48.39205" lon="2.52398">
        <ele>84.6</ele>
        <time>2014-05-29T08:33:52Z</time>
      </trkpt>
      <trkpt lat="48.39208" lon="2.52408">
        <ele>83.6</ele>
        <time>2014-05-29T08:33:53Z</time>
      </trkpt>
      <trkpt lat="48.3921" lon="2.52418">
        <ele>82.6</ele>
        <time>2014-05-29T08:33:54Z</time>
      </trkpt>
      <trkpt lat="48.39211" lon="2.52428">
        <ele>81.6</ele>
        <time>2014-05-29T08:33:55Z</time>
      </trkpt>
      <trkpt lat="48.39213" lon="2.52435">
        <ele>80.6</ele>
        <time>2014-05-29T08:33:56Z</time>
      </trkpt>
      <trkpt lat="48.39215" lon="2.52442">
        <ele>79.6</ele>
        <time>2014-05-29T08:33:57Z</time>
      </trkpt>
      <trkpt lat="48.39217" lon="2.52447">
        <ele>78.8</ele>
        <time>2014-05-29T08:33:58Z</time>
      </trkpt>
      <trkpt lat="48.39222" lon="2.52453">
        <ele>78</ele>
        <time>2014-05-29T08:33:59Z</time>
      </trkpt>
      <trkpt lat="48.39226" lon="2.52457">
        <ele>77.2</ele>
        <time>2014-05-29T08:34:00Z</time>
      </trkpt>
      <trkpt lat="48.3923" lon="2.52464">
        <ele>76.4</ele>
        <time>2014-05-29T08:34:01Z</time>
      </trkpt>
      <trkpt lat="48.39231" lon="2.52469">
        <ele>76.4</ele>
        <time>2014-05-29T08:34:02Z</time>
      </trkpt>
      <trkpt lat="48.39231" lon="2.52473">
        <ele>75.6</ele>
        <time>2014-05-29T08:34:03Z</time>
      </trkpt>
      <trkpt lat="48.39231" lon="2.52476">
        <ele>74.8</ele>
        <time>2014-05-29T08:34:04Z</time>
      </trkpt>
      <trkpt lat="48.39229" lon="2.52481">
        <ele>73</ele>
        <time>2014-05-29T08:34:05Z</time>
      </trkpt>
      <trkpt lat="48.39228" lon="2.5249">
        <ele>73</ele>
        <time>2014-05-29T08:34:07Z</time>
      </trkpt>
      <trkpt lat="48.39225" lon="2.52513">
        <ele>73</ele>
        <time>2014-05-29T08:34:11Z</time>
      </trkpt>
      <trkpt lat="48.39229" lon="2.52524">
        <ele>73</ele>
        <time>2014-05-29T08:34:12Z</time>
      </trkpt>
      <trkpt lat="48.39228" lon="2.52554">
        <ele>73</ele>
        <time>2014-05-29T08:34:17Z</time>
      </trkpt>
      <trkpt lat="48.39227" lon="2.52559">
        <ele>73</ele>
        <time>2014-05-29T08:34:18Z</time>
      </trkpt>
      <trkpt lat="48.39224" lon="2.5257">
        <ele>73.4</ele>
        <time>2014-05-29T08:34:20Z</time>
      </trkpt>
      <trkpt lat="48.39224" lon="2.52576">
        <ele>73.8</ele>
        <time>2014-05-29T08:34:21Z</time>
      </trkpt>
      <trkpt lat="48.39222" lon="2.52582">
        <ele>74.2</ele>
        <time>2014-05-29T08:34:22Z</time>
      </trkpt>
      <trkpt lat="48.3922" lon="2.52586">
        <ele>74.6</ele>
        <time>2014-05-29T08:34:23Z</time>
      </trkpt>
      <trkpt lat="48.39218" lon="2.52589">
        <ele>75</ele>
        <time>2014-05-29T08:34:24Z</time>
      </trkpt>
      <trkpt lat="48.39215" lon="2.52594">
        <ele>75</ele>
        <time>2014-05-29T08:34:25Z</time>
      </trkpt>
      <trkpt lat="48.39213" lon="2.52623">
        <ele>75</ele>
        <time>2014-05-29T08:34:30Z</time>
      </trkpt>
      <trkpt lat="48.39213" lon="2.5263">
        <ele>75</ele>
        <time>2014-05-29T08:34:31Z</time>
      </trkpt>
      <trkpt lat="48.39213" lon="2.52643">
        <ele>75</ele>
        <time>2014-05-29T08:34:33Z</time>
      </trkpt>
      <trkpt lat="48.39209" lon="2.52654">
        <ele>75</ele>
        <time>2014-05-29T08:34:35Z</time>
      </trkpt>
      <trkpt lat="48.39206" lon="2.52669">
        <ele>75</ele>
        <time>2014-05-29T08:34:38Z</time>
      </trkpt>
      <trkpt lat="48.39204" lon="2.52678">
        <ele>75.6</ele>
        <time>2014-05-29T08:34:41Z</time>
      </trkpt>
      <trkpt lat="48.39201" lon="2.5268">
        <ele>76</ele>
        <time>2014-05-29T08:34:42Z</time>
      </trkpt>
      <trkpt lat="48.392" lon="2.52683">
        <ele>76.4</ele>
        <time>2014-05-29T08:34:43Z</time>
      </trkpt>
      <trkpt lat="48.39199" lon="2.52688">
        <ele>76.8</ele>
        <time>2014-05-29T08:34:44Z</time>
      </trkpt>
      <trkpt lat="48.39198" lon="2.52693">
        <ele>77.2</ele>
        <time>2014-05-29T08:34:45Z</time>
      </trkpt>
      <trkpt lat="48.39197" lon="2.52714">
        <ele>77.2</ele>
        <time>2014-05-29T08:34:50Z</time>
      </trkpt>
      <trkpt lat="48.39195" lon="2.52738">
        <ele>77.2</ele>
        <time>2014-05-29T08:34:56Z</time>
      </trkpt>
      <trkpt lat="48.39195" lon="2.52746">
        <ele>77.6</ele>
        <time>2014-05-29T08:34:58Z</time>
      </trkpt>
      <trkpt lat="48.39194" lon="2.52749">
        <ele>78.2</ele>
        <time>2014-05-29T08:34:59Z</time>
      </trkpt>
      <trkpt lat="48.39194" lon="2.52751">
        <ele>78.6</ele>
        <time>2014-05-29T08:35:00Z</time>
      </trkpt>
      <trkpt lat="48.39194" lon="2.52753">
        <ele>79.2</ele>
        <time>2014-05-29T08:35:01Z</time>
      </trkpt>
      <trkpt lat="48.39194" lon="2.52755">
        <ele>79.6</ele>
        <time>2014-05-29T08:35:02Z</time>
      </trkpt>
      <trkpt lat="48.39191" lon="2.52765">
        <ele>80.2</ele>
        <time>2014-05-29T08:35:07Z</time>
      </trkpt>
      <trkpt lat="48.3919" lon="2.52768">
        <ele>80.6</ele>
        <time>2014-05-29T08:35:08Z</time>
      </trkpt>
      <trkpt lat="48.3919" lon="2.52771">
        <ele>81</ele>
        <time>2014-05-29T08:35:09Z</time>
      </trkpt>
      <trkpt lat="48.3919" lon="2.52774">
        <ele>81.4</ele>
        <time>2014-05-29T08:35:10Z</time>
      </trkpt>
      <trkpt lat="48.3919" lon="2.52776">
        <ele>82</ele>
        <time>2014-05-29T08:35:11Z</time>
      </trkpt>
      <trkpt lat="48.3919" lon="2.52799">
        <ele>82</ele>
        <time>2014-05-29T08:35:17Z</time>
      </trkpt>
      <trkpt lat="48.39186" lon="2.5281">
        <ele>82</ele>
        <time>2014-05-29T08:35:20Z</time>
      </trkpt>
      <trkpt lat="48.39177" lon="2.52828">
        <ele>82.4</ele>
        <time>2014-05-29T08:35:26Z</time>
      </trkpt>
      <trkpt lat="48.39176" lon="2.52831">
        <ele>82.8</ele>
        <time>2014-05-29T08:35:27Z</time>
      </trkpt>
      <trkpt lat="48.39173" lon="2.52833">
        <ele>83.2</ele>
        <time>2014-05-29T08:35:28Z</time>
      </trkpt>
      <trkpt lat="48.39172" lon="2.52835">
        <ele>83.6</ele>
        <time>2014-05-29T08:35:29Z</time>
      </trkpt>
      <trkpt lat="48.3917" lon="2.52838">
        <ele>84.2</ele>
        <time>2014-05-29T08:35:30Z</time>
      </trkpt>
      <trkpt lat="48.39166" lon="2.52854">
        <ele>84.6</ele>
        <time>2014-05-29T08:35:35Z</time>
      </trkpt>
      <trkpt lat="48.39167" lon="2.52857">
        <ele>85</ele>
        <time>2014-05-29T08:35:36Z</time>
      </trkpt>
      <trkpt lat="48.39167" lon="2.52859">
        <ele>85.4</ele>
        <time>2014-05-29T08:35:37Z</time>
      </trkpt>
      <trkpt lat="48.39167" lon="2.52863">
        <ele>85.8</ele>
        <time>2014-05-29T08:35:38Z</time>
      </trkpt>
      <trkpt lat="48.39168" lon="2.52865">
        <ele>86.2</ele>
        <time>2014-05-29T08:35:39Z</time>
      </trkpt>
      <trkpt lat="48.39166" lon="2.52875">
        <ele>86.2</ele>
        <time>2014-05-29T08:35:42Z</time>
      </trkpt>
      <trkpt lat="48.39166" lon="2.52901">
        <ele>86.2</ele>
        <time>2014-05-29T08:35:50Z</time>
      </trkpt>
      <trkpt lat="48.39166" lon="2.52908">
        <ele>86.6</ele>
        <time>2014-05-29T08:35:52Z</time>
      </trkpt>
      <trkpt lat="48.39166" lon="2.52911">
        <ele>87</ele>
        <time>2014-05-29T08:35:53Z</time>
      </trkpt>
      <trkpt lat="48.39166" lon="2.52914">
        <ele>87.4</ele>
        <time>2014-05-29T08:35:54Z</time>
      </trkpt>
      <trkpt lat="48.39167" lon="2.52918">
        <ele>87.8</ele>
        <time>2014-05-29T08:35:55Z</time>
      </trkpt>
      <trkpt lat="48.39166" lon="2.5292">
        <ele>88.4</ele>
        <time>2014-05-29T08:35:56Z</time>
      </trkpt>
      <trkpt lat="48.39164" lon="2.52934">
        <ele>88.4</ele>
        <time>2014-05-29T08:36:00Z</time>
      </trkpt>
      <trkpt lat="48.39159" lon="2.52956">
        <ele>88.4</ele>
        <time>2014-05-29T08:36:07Z</time>
      </trkpt>
      <trkpt lat="48.39154" lon="2.52978">
        <ele>88.4</ele>
        <time>2014-05-29T08:36:14Z</time>
      </trkpt>
      <trkpt lat="48.39154" lon="2.52981">
        <ele>88.8</ele>
        <time>2014-05-29T08:36:15Z</time>
      </trkpt>
      <trkpt lat="48.39155" lon="2.52985">
        <ele>89.2</ele>
        <time>2014-05-29T08:36:16Z</time>
      </trkpt>
      <trkpt lat="48.39154" lon="2.52989">
        <ele>89.6</ele>
        <time>2014-05-29T08:36:17Z</time>
      </trkpt>
      <trkpt lat="48.39153" lon="2.52994">
        <ele>90</ele>
        <time>2014-05-29T08:36:18Z</time>
      </trkpt>
      <trkpt lat="48.39152" lon="2.52998">
        <ele>90.6</ele>
        <time>2014-05-29T08:36:19Z</time>
      </trkpt>
      <trkpt lat="48.39153" lon="2.53026">
        <ele>90.6</ele>
        <time>2014-05-29T08:36:26Z</time>
      </trkpt>
      <trkpt lat="48.39145" lon="2.53055">
        <ele>91</ele>
        <time>2014-05-29T08:36:31Z</time>
      </trkpt>
      <trkpt lat="48.39145" lon="2.5306">
        <ele>91.4</ele>
        <time>2014-05-29T08:36:32Z</time>
      </trkpt>
      <trkpt lat="48.39146" lon="2.53066">
        <ele>91.8</ele>
        <time>2014-05-29T08:36:33Z</time>
      </trkpt>
      <trkpt lat="48.39144" lon="2.53071">
        <ele>92.2</ele>
        <time>2014-05-29T08:36:34Z</time>
      </trkpt>
      <trkpt lat="48.39144" lon="2.53077">
        <ele>92.6</ele>
        <time>2014-05-29T08:36:35Z</time>
      </trkpt>
      <trkpt lat="48.39144" lon="2.53092">
        <ele>92.6</ele>
        <time>2014-05-29T08:36:38Z</time>
      </trkpt>
      <trkpt lat="48.39144" lon="2.53119">
        <ele>92.6</ele>
        <time>2014-05-29T08:36:43Z</time>
      </trkpt>
      <trkpt lat="48.39147" lon="2.5313">
        <ele>92.6</ele>
        <time>2014-05-29T08:36:45Z</time>
      </trkpt>
      <trkpt lat="48.39147" lon="2.53137">
        <ele>92.6</ele>
        <time>2014-05-29T08:36:47Z</time>
      </trkpt>
      <trkpt lat="48.39143" lon="2.53162">
        <ele>92.6</ele>
        <time>2014-05-29T08:36:54Z</time>
      </trkpt>
      <trkpt lat="48.39144" lon="2.53169">
        <ele>93.2</ele>
        <time>2014-05-29T08:36:56Z</time>
      </trkpt>
      <trkpt lat="48.39145" lon="2.53172">
        <ele>93.6</ele>
        <time>2014-05-29T08:36:57Z</time>
      </trkpt>
      <trkpt lat="48.39146" lon="2.53175">
        <ele>94</ele>
        <time>2014-05-29T08:36:58Z</time>
      </trkpt>
      <trkpt lat="48.39149" lon="2.53181">
        <ele>94.4</ele>
        <time>2014-05-29T08:36:59Z</time>
      </trkpt>
      <trkpt lat="48.39151" lon="2.53186">
        <ele>94.8</ele>
        <time>2014-05-29T08:37:00Z</time>
      </trkpt>
      <trkpt lat="48.3916" lon="2.53214">
        <ele>94.8</ele>
        <time>2014-05-29T08:37:05Z</time>
      </trkpt>
      <trkpt lat="48.39164" lon="2.53223">
        <ele>94.8</ele>
        <time>2014-05-29T08:37:07Z</time>
      </trkpt>
      <trkpt lat="48.39173" lon="2.53242">
        <ele>94.8</ele>
        <time>2014-05-29T08:37:11Z</time>
      </trkpt>
      <trkpt lat="48.39189" lon="2.5328">
        <ele>94.8</ele>
        <time>2014-05-29T08:37:18Z</time>
      </trkpt>
      <trkpt lat="48.39203" lon="2.53309">
        <ele>94.8</ele>
        <time>2014-05-29T08:37:24Z</time>
      </trkpt>
      <trkpt lat="48.39212" lon="2.53313">
        <ele>94.8</ele>
        <time>2014-05-29T08:37:28Z</time>
      </trkpt>
      <trkpt lat="48.39217" lon="2.53311">
        <ele>94.8</ele>
        <time>2014-05-29T08:37:30Z</time>
      </trkpt>
      <trkpt lat="48.39227" lon="2.53319">
        <ele>94.8</ele>
        <time>2014-05-29T08:37:35Z</time>
      </trkpt>
      <trkpt lat="48.39229" lon="2.53323">
        <ele>94.8</ele>
        <time>2014-05-29T08:37:36Z</time>
      </trkpt>
      <trkpt lat="48.39239" lon="2.53335">
        <ele>95.4</ele>
        <time>2014-05-29T08:37:41Z</time>
      </trkpt>
      <trkpt lat="48.39241" lon="2.53337">
        <ele>95.8</ele>
        <time>2014-05-29T08:37:42Z</time>
      </trkpt>
      <trkpt lat="48.39244" lon="2.53338">
        <ele>96.2</ele>
        <time>2014-05-29T08:37:43Z</time>
      </trkpt>
      <trkpt lat="48.39246" lon="2.53339">
        <ele>96.6</ele>
        <time>2014-05-29T08:37:44Z</time>
      </trkpt>
      <trkpt lat="48.39248" lon="2.53341">
        <ele>97</ele>
        <time>2014-05-29T08:37:45Z</time>
      </trkpt>
      <trkpt lat="48.39269" lon="2.53351">
        <ele>97</ele>
        <time>2014-05-29T08:37:50Z</time>
      </trkpt>
      <trkpt lat="48.39276" lon="2.53352">
        <ele>97</ele>
        <time>2014-05-29T08:37:52Z</time>
      </trkpt>
      <trkpt lat="48.39288" lon="2.53357">
        <ele>97</ele>
        <time>2014-05-29T08:37:55Z</time>
      </trkpt>
      <trkpt lat="48.39297" lon="2.53361">
        <ele>97.4</ele>
        <time>2014-05-29T08:37:57Z</time>
      </trkpt>
      <trkpt lat="48.393" lon="2.53362">
        <ele>97.8</ele>
        <time>2014-05-29T08:37:58Z</time>
      </trkpt>
      <trkpt lat="48.39303" lon="2.53363">
        <ele>98.4</ele>
        <time>2014-05-29T08:37:59Z</time>
      </trkpt>
      <trkpt lat="48.39308" lon="2.53365">
        <ele>98.8</ele>
        <time>2014-05-29T08:38:00Z</time>
      </trkpt>
      <trkpt lat="48.39312" lon="2.53364">
        <ele>99.2</ele>
        <time>2014-05-29T08:38:01Z</time>
      </trkpt>
      <trkpt lat="48.39352" lon="2.53371">
        <ele>99.2</ele>
        <time>2014-05-29T08:38:10Z</time>
      </trkpt>
      <trkpt lat="48.39356" lon="2.53373">
        <ele>99.2</ele>
        <time>2014-05-29T08:38:11Z</time>
      </trkpt>
      <trkpt lat="48.3938" lon="2.5338">
        <ele>99.2</ele>
        <time>2014-05-29T08:38:16Z</time>
      </trkpt>
      <trkpt lat="48.39385" lon="2.53382">
        <ele>99.2</ele>
        <time>2014-05-29T08:38:17Z</time>
      </trkpt>
      <trkpt lat="48.39412" lon="2.5339">
        <ele>99.2</ele>
        <time>2014-05-29T08:38:22Z</time>
      </trkpt>
      <trkpt lat="48.39424" lon="2.53394">
        <ele>99.2</ele>
        <time>2014-05-29T08:38:24Z</time>
      </trkpt>
      <trkpt lat="48.39444" lon="2.53396">
        <ele>99.2</ele>
        <time>2014-05-29T08:38:28Z</time>
      </trkpt>
      <trkpt lat="48.39451" lon="2.53399">
        <ele>99.2</ele>
        <time>2014-05-29T08:38:29Z</time>
      </trkpt>
      <trkpt lat="48.39467" lon="2.53406">
        <ele>99.2</ele>
        <time>2014-05-29T08:38:32Z</time>
      </trkpt>
      <trkpt lat="48.39494" lon="2.53413">
        <ele>99.2</ele>
        <time>2014-05-29T08:38:37Z</time>
      </trkpt>
      <trkpt lat="48.39499" lon="2.53415">
        <ele>99.2</ele>
        <time>2014-05-29T08:38:38Z</time>
      </trkpt>
      <trkpt lat="48.3953" lon="2.53428">
        <ele>99.2</ele>
        <time>2014-05-29T08:38:43Z</time>
      </trkpt>
      <trkpt lat="48.39534" lon="2.53429">
        <ele>99.2</ele>
        <time>2014-05-29T08:38:44Z</time>
      </trkpt>
      <trkpt lat="48.39542" lon="2.53434">
        <ele>99.2</ele>
        <time>2014-05-29T08:38:46Z</time>
      </trkpt>
      <trkpt lat="48.39546" lon="2.53435">
        <ele>99.2</ele>
        <time>2014-05-29T08:38:49Z</time>
      </trkpt>
      <trkpt lat="48.39549" lon="2.53435">
        <ele>99.2</ele>
        <time>2014-05-29T08:38:50Z</time>
      </trkpt>
      <trkpt lat="48.39551" lon="2.53437">
        <ele>99.2</ele>
        <time>2014-05-29T08:38:51Z</time>
      </trkpt>
      <trkpt lat="48.39554" lon="2.5344">
        <ele>99.2</ele>
        <time>2014-05-29T08:38:52Z</time>
      </trkpt>
      <trkpt lat="48.39565" lon="2.53451">
        <ele>99.2</ele>
        <time>2014-05-29T08:38:57Z</time>
      </trkpt>
      <trkpt lat="48.39579" lon="2.5346">
        <ele>99.2</ele>
        <time>2014-05-29T08:39:05Z</time>
      </trkpt>
      <trkpt lat="48.39587" lon="2.53466">
        <ele>99.2</ele>
        <time>2014-05-29T08:39:09Z</time>
      </trkpt>
      <trkpt lat="48.39589" lon="2.53466">
        <ele>99.6</ele>
        <time>2014-05-29T08:39:10Z</time>
      </trkpt>
      <trkpt lat="48.3959" lon="2.53467">
        <ele>100</ele>
        <time>2014-05-29T08:39:11Z</time>
      </trkpt>
      <trkpt lat="48.39592" lon="2.53466">
        <ele>100.4</ele>
        <time>2014-05-29T08:39:12Z</time>
      </trkpt>
      <trkpt lat="48.39594" lon="2.53467">
        <ele>100.8</ele>
        <time>2014-05-29T08:39:13Z</time>
      </trkpt>
      <trkpt lat="48.39596" lon="2.53468">
        <ele>101.2</ele>
        <time>2014-05-29T08:39:14Z</time>
      </trkpt>
      <trkpt lat="48.39608" lon="2.53474">
        <ele>101.2</ele>
        <time>2014-05-29T08:39:18Z</time>
      </trkpt>
      <trkpt lat="48.39616" lon="2.53478">
        <ele>101.2</ele>
        <time>2014-05-29T08:39:21Z</time>
      </trkpt>
      <trkpt lat="48.3963" lon="2.53485">
        <ele>101.2</ele>
        <time>2014-05-29T08:39:27Z</time>
      </trkpt>
      <trkpt lat="48.39634" lon="2.53488">
        <ele>101.2</ele>
        <time>2014-05-29T08:39:29Z</time>
      </trkpt>
      <trkpt lat="48.39641" lon="2.53491">
        <ele>101.2</ele>
        <time>2014-05-29T08:39:32Z</time>
      </trkpt>
      <trkpt lat="48.39654" lon="2.53501">
        <ele>101.2</ele>
        <time>2014-05-29T08:39:37Z</time>
      </trkpt>
      <trkpt lat="48.39663" lon="2.53515">
        <ele>101.2</ele>
        <time>2014-05-29T08:39:42Z</time>
      </trkpt>
      <trkpt lat="48.39673" lon="2.5352">
        <ele>101.2</ele>
        <time>2014-05-29T08:39:47Z</time>
      </trkpt>
      <trkpt lat="48.39677" lon="2.53541">
        <ele>101.2</ele>
        <time>2014-05-29T08:39:52Z</time>
      </trkpt>
      <trkpt lat="48.39677" lon="2.5355">
        <ele>101.2</ele>
        <time>2014-05-29T08:39:54Z</time>
      </trkpt>
      <trkpt lat="48.39684" lon="2.53561">
        <ele>101.2</ele>
        <time>2014-05-29T08:39:58Z</time>
      </trkpt>
      <trkpt lat="48.39691" lon="2.53571">
        <ele>101.2</ele>
        <time>2014-05-29T08:40:02Z</time>
      </trkpt>
      <trkpt lat="48.3969" lon="2.53575">
        <ele>101.2</ele>
        <time>2014-05-29T08:40:03Z</time>
      </trkpt>
      <trkpt lat="48.39691" lon="2.53605">
        <ele>101.2</ele>
        <time>2014-05-29T08:40:09Z</time>
      </trkpt>
      <trkpt lat="48.39687" lon="2.53624">
        <ele>101.2</ele>
        <time>2014-05-29T08:40:13Z</time>
      </trkpt>
      <trkpt lat="48.39677" lon="2.53631">
        <ele>101.2</ele>
        <time>2014-05-29T08:40:16Z</time>
      </trkpt>
      <trkpt lat="48.39673" lon="2.53633">
        <ele>101.2</ele>
        <time>2014-05-29T08:40:18Z</time>
      </trkpt>
      <trkpt lat="48.39666" lon="2.53643">
        <ele>101.2</ele>
        <time>2014-05-29T08:40:22Z</time>
      </trkpt>
      <trkpt lat="48.39657" lon="2.53653">
        <ele>101.2</ele>
        <time>2014-05-29T08:40:28Z</time>
      </trkpt>
      <trkpt lat="48.39657" lon="2.5366">
        <ele>101.2</ele>
        <time>2014-05-29T08:40:33Z</time>
      </trkpt>
      <trkpt lat="48.39649" lon="2.53678">
        <ele>101.2</ele>
        <time>2014-05-29T08:40:42Z</time>
      </trkpt>
      <trkpt lat="48.39647" lon="2.53695">
        <ele>101.2</ele>
        <time>2014-05-29T08:40:47Z</time>
      </trkpt>
      <trkpt lat="48.39649" lon="2.53718">
        <ele>101.2</ele>
        <time>2014-05-29T08:40:53Z</time>
      </trkpt>
      <trkpt lat="48.39647" lon="2.53745">
        <ele>101.2</ele>
        <time>2014-05-29T08:41:00Z</time>
      </trkpt>
      <trkpt lat="48.3965" lon="2.53757">
        <ele>101.2</ele>
        <time>2014-05-29T08:41:04Z</time>
      </trkpt>
      <trkpt lat="48.39655" lon="2.53772">
        <ele>101.2</ele>
        <time>2014-05-29T08:41:09Z</time>
      </trkpt>
      <trkpt lat="48.39653" lon="2.53794">
        <ele>101.2</ele>
        <time>2014-05-29T08:41:15Z</time>
      </trkpt>
      <trkpt lat="48.3965" lon="2.53796">
        <ele>101.2</ele>
        <time>2014-05-29T08:41:16Z</time>
      </trkpt>
      <trkpt lat="48.39648" lon="2.53797">
        <ele>101.2</ele>
        <time>2014-05-29T08:41:17Z</time>
      </trkpt>
      <trkpt lat="48.39632" lon="2.53806">
        <ele>101.2</ele>
        <time>2014-05-29T08:41:25Z</time>
      </trkpt>
      <trkpt lat="48.39616" lon="2.53799">
        <ele>101.2</ele>
        <time>2014-05-29T08:41:31Z</time>
      </trkpt>
      <trkpt lat="48.39604" lon="2.53802">
        <ele>101.2</ele>
        <time>2014-05-29T08:41:35Z</time>
      </trkpt>
      <trkpt lat="48.39587" lon="2.53807">
        <ele>101.2</ele>
        <time>2014-05-29T08:41:42Z</time>
      </trkpt>
      <trkpt lat="48.39585" lon="2.53809">
        <ele>100.8</ele>
        <time>2014-05-29T08:41:43Z</time>
      </trkpt>
      <trkpt lat="48.39584" lon="2.5381">
        <ele>100.2</ele>
        <time>2014-05-29T08:41:44Z</time>
      </trkpt>
      <trkpt lat="48.39584" lon="2.5381">
        <ele>99.8</ele>
        <time>2014-05-29T08:41:45Z</time>
      </trkpt>
      <trkpt lat="48.39584" lon="2.53811">
        <ele>99.2</ele>
        <time>2014-05-29T08:41:46Z</time>
      </trkpt>
      <trkpt lat="48.39585" lon="2.53814">
        <ele>98.8</ele>
        <time>2014-05-29T08:41:47Z</time>
      </trkpt>
      <trkpt lat="48.39587" lon="2.53828">
        <ele>98.8</ele>
        <time>2014-05-29T08:41:53Z</time>
      </trkpt>
      <trkpt lat="48.39588" lon="2.53844">
        <ele>98.8</ele>
        <time>2014-05-29T08:41:58Z</time>
      </trkpt>
      <trkpt lat="48.39589" lon="2.53849">
        <ele>98.8</ele>
        <time>2014-05-29T08:41:59Z</time>
      </trkpt>
      <trkpt lat="48.39588" lon="2.53853">
        <ele>98.8</ele>
        <time>2014-05-29T08:42:00Z</time>
      </trkpt>
      <trkpt lat="48.39588" lon="2.53861">
        <ele>98.8</ele>
        <time>2014-05-29T08:42:03Z</time>
      </trkpt>
      <trkpt lat="48.39587" lon="2.53871">
        <ele>98.8</ele>
        <time>2014-05-29T08:42:06Z</time>
      </trkpt>
      <trkpt lat="48.39586" lon="2.53884">
        <ele>98.8</ele>
        <time>2014-05-29T08:42:10Z</time>
      </trkpt>
      <trkpt lat="48.39591" lon="2.53895">
        <ele>98.8</ele>
        <time>2014-05-29T08:42:15Z</time>
      </trkpt>
      <trkpt lat="48.39601" lon="2.53912">
        <ele>98.8</ele>
        <time>2014-05-29T08:42:21Z</time>
      </trkpt>
      <trkpt lat="48.39602" lon="2.53916">
        <ele>98.8</ele>
        <time>2014-05-29T08:42:22Z</time>
      </trkpt>
      <trkpt lat="48.39604" lon="2.53941">
        <ele>98.8</ele>
        <time>2014-05-29T08:42:27Z</time>
      </trkpt>
      <trkpt lat="48.39602" lon="2.53954">
        <ele>99.2</ele>
        <time>2014-05-29T08:42:29Z</time>
      </trkpt>
      <trkpt lat="48.39601" lon="2.5396">
        <ele>99.6</ele>
        <time>2014-05-29T08:42:30Z</time>
      </trkpt>
      <trkpt lat="48.396" lon="2.53965">
        <ele>100</ele>
        <time>2014-05-29T08:42:31Z</time>
      </trkpt>
      <trkpt lat="48.39599" lon="2.53971">
        <ele>100.4</ele>
        <time>2014-05-29T08:42:32Z</time>
      </trkpt>
      <trkpt lat="48.39599" lon="2.53976">
        <ele>100.8</ele>
        <time>2014-05-29T08:42:33Z</time>
      </trkpt>
      <trkpt lat="48.39599" lon="2.53982">
        <ele>100.8</ele>
        <time>2014-05-29T08:42:34Z</time>
      </trkpt>
      <trkpt lat="48.3959" lon="2.54014">
        <ele>100.8</ele>
        <time>2014-05-29T08:42:40Z</time>
      </trkpt>
      <trkpt lat="48.39586" lon="2.54031">
        <ele>100.8</ele>
        <time>2014-05-29T08:42:44Z</time>
      </trkpt>
      <trkpt lat="48.39584" lon="2.54033">
        <ele>100.8</ele>
        <time>2014-05-29T08:42:45Z</time>
      </trkpt>
      <trkpt lat="48.39583" lon="2.54061">
        <ele>100.8</ele>
        <time>2014-05-29T08:42:52Z</time>
      </trkpt>
      <trkpt lat="48.39584" lon="2.54065">
        <ele>100.8</ele>
        <time>2014-05-29T08:42:53Z</time>
      </trkpt>
      <trkpt lat="48.39586" lon="2.54073">
        <ele>100.8</ele>
        <time>2014-05-29T08:42:55Z</time>
      </trkpt>
      <trkpt lat="48.39584" lon="2.54096">
        <ele>100.8</ele>
        <time>2014-05-29T08:43:00Z</time>
      </trkpt>
      <trkpt lat="48.39582" lon="2.54124">
        <ele>100.8</ele>
        <time>2014-05-29T08:43:07Z</time>
      </trkpt>
      <trkpt lat="48.39582" lon="2.54151">
        <ele>100.8</ele>
        <time>2014-05-29T08:43:13Z</time>
      </trkpt>
      <trkpt lat="48.39582" lon="2.54166">
        <ele>100.8</ele>
        <time>2014-05-29T08:43:16Z</time>
      </trkpt>
      <trkpt lat="48.39581" lon="2.5417">
        <ele>100.8</ele>
        <time>2014-05-29T08:43:17Z</time>
      </trkpt>
      <trkpt lat="48.3957" lon="2.54178">
        <ele>100.8</ele>
        <time>2014-05-29T08:43:20Z</time>
      </trkpt>
      <trkpt lat="48.39567" lon="2.5418">
        <ele>100.8</ele>
        <time>2014-05-29T08:43:21Z</time>
      </trkpt>
      <trkpt lat="48.39555" lon="2.54202">
        <ele>100.8</ele>
        <time>2014-05-29T08:43:27Z</time>
      </trkpt>
      <trkpt lat="48.39551" lon="2.54219">
        <ele>100.8</ele>
        <time>2014-05-29T08:43:30Z</time>
      </trkpt>
      <trkpt lat="48.39547" lon="2.54231">
        <ele>100.8</ele>
        <time>2014-05-29T08:43:32Z</time>
      </trkpt>
      <trkpt lat="48.39543" lon="2.54243">
        <ele>100.8</ele>
        <time>2014-05-29T08:43:35Z</time>
      </trkpt>
      <trkpt lat="48.39542" lon="2.54247">
        <ele>100.8</ele>
        <time>2014-05-29T08:43:36Z</time>
      </trkpt>
      <trkpt lat="48.39538" lon="2.54272">
        <ele>100.8</ele>
        <time>2014-05-29T08:43:41Z</time>
      </trkpt>
      <trkpt lat="48.39535" lon="2.54302">
        <ele>100.8</ele>
        <time>2014-05-29T08:43:47Z</time>
      </trkpt>
      <trkpt lat="48.39527" lon="2.54312">
        <ele>100.8</ele>
        <time>2014-05-29T08:43:51Z</time>
      </trkpt>
      <trkpt lat="48.39503" lon="2.54303">
        <ele>100.8</ele>
        <time>2014-05-29T08:43:58Z</time>
      </trkpt>
      <trkpt lat="48.39501" lon="2.54303">
        <ele>100.8</ele>
        <time>2014-05-29T08:43:59Z</time>
      </trkpt>
      <trkpt lat="48.39497" lon="2.54306">
        <ele>100.8</ele>
        <time>2014-05-29T08:44:01Z</time>
      </trkpt>
      <trkpt lat="48.39491" lon="2.54322">
        <ele>100.8</ele>
        <time>2014-05-29T08:44:06Z</time>
      </trkpt>
      <trkpt lat="48.39482" lon="2.5434">
        <ele>100.8</ele>
        <time>2014-05-29T08:44:11Z</time>
      </trkpt>
      <trkpt lat="48.39481" lon="2.54366">
        <ele>100.8</ele>
        <time>2014-05-29T08:44:17Z</time>
      </trkpt>
      <trkpt lat="48.39468" lon="2.54405">
        <ele>100.8</ele>
        <time>2014-05-29T08:44:25Z</time>
      </trkpt>
      <trkpt lat="48.39467" lon="2.54426">
        <ele>100.8</ele>
        <time>2014-05-29T08:44:29Z</time>
      </trkpt>
      <trkpt lat="48.39465" lon="2.54452">
        <ele>100.4</ele>
        <time>2014-05-29T08:44:34Z</time>
      </trkpt>
      <trkpt lat="48.39467" lon="2.54458">
        <ele>100</ele>
        <time>2014-05-29T08:44:35Z</time>
      </trkpt>
      <trkpt lat="48.39469" lon="2.54463">
        <ele>99.6</ele>
        <time>2014-05-29T08:44:36Z</time>
      </trkpt>
      <trkpt lat="48.3947" lon="2.54469">
        <ele>99.2</ele>
        <time>2014-05-29T08:44:37Z</time>
      </trkpt>
      <trkpt lat="48.3947" lon="2.54474">
        <ele>98.8</ele>
        <time>2014-05-29T08:44:38Z</time>
      </trkpt>
      <trkpt lat="48.39467" lon="2.54492">
        <ele>98.8</ele>
        <time>2014-05-29T08:44:42Z</time>
      </trkpt>
      <trkpt lat="48.39462" lon="2.54511">
        <ele>98.8</ele>
        <time>2014-05-29T08:44:47Z</time>
      </trkpt>
      <trkpt lat="48.39457" lon="2.5454">
        <ele>98.8</ele>
        <time>2014-05-29T08:44:53Z</time>
      </trkpt>
      <trkpt lat="48.39456" lon="2.54556">
        <ele>98.4</ele>
        <time>2014-05-29T08:44:58Z</time>
      </trkpt>
      <trkpt lat="48.39455" lon="2.5456">
        <ele>97.8</ele>
        <time>2014-05-29T08:44:59Z</time>
      </trkpt>
      <trkpt lat="48.39455" lon="2.54562">
        <ele>97.4</ele>
        <time>2014-05-29T08:45:00Z</time>
      </trkpt>
      <trkpt lat="48.39453" lon="2.54564">
        <ele>96.8</ele>
        <time>2014-05-29T08:45:01Z</time>
      </trkpt>
      <trkpt lat="48.39451" lon="2.54564">
        <ele>96.2</ele>
        <time>2014-05-29T08:45:02Z</time>
      </trkpt>
      <trkpt lat="48.3945" lon="2.54564">
        <ele>95.6</ele>
        <time>2014-05-29T08:45:03Z</time>
      </trkpt>
      <trkpt lat="48.39447" lon="2.54566">
        <ele>95</ele>
        <time>2014-05-29T08:45:04Z</time>
      </trkpt>
      <trkpt lat="48.39444" lon="2.54568">
        <ele>94.2</ele>
        <time>2014-05-29T08:45:05Z</time>
      </trkpt>
      <trkpt lat="48.39441" lon="2.54568">
        <ele>93.6</ele>
        <time>2014-05-29T08:45:06Z</time>
      </trkpt>
      <trkpt lat="48.39438" lon="2.54569">
        <ele>92.6</ele>
        <time>2014-05-29T08:45:07Z</time>
      </trkpt>
      <trkpt lat="48.39436" lon="2.54569">
        <ele>91.8</ele>
        <time>2014-05-29T08:45:08Z</time>
      </trkpt>
      <trkpt lat="48.39433" lon="2.54569">
        <ele>90.8</ele>
        <time>2014-05-29T08:45:09Z</time>
      </trkpt>
      <trkpt lat="48.3943" lon="2.54569">
        <ele>90</ele>
        <time>2014-05-29T08:45:10Z</time>
      </trkpt>
      <trkpt lat="48.39428" lon="2.5457">
        <ele>89</ele>
        <time>2014-05-29T08:45:11Z</time>
      </trkpt>
      <trkpt lat="48.39425" lon="2.5457">
        <ele>89</ele>
        <time>2014-05-29T08:45:12Z</time>
      </trkpt>
      <trkpt lat="48.39423" lon="2.5457">
        <ele>89</ele>
        <time>2014-05-29T08:45:13Z</time>
      </trkpt>
      <trkpt lat="48.39421" lon="2.54568">
        <ele>88.6</ele>
        <time>2014-05-29T08:45:14Z</time>
      </trkpt>
      <trkpt lat="48.39418" lon="2.54567">
        <ele>88.2</ele>
        <time>2014-05-29T08:45:15Z</time>
      </trkpt>
      <trkpt lat="48.39416" lon="2.54567">
        <ele>87.8</ele>
        <time>2014-05-29T08:45:16Z</time>
      </trkpt>
      <trkpt lat="48.39414" lon="2.54565">
        <ele>87.2</ele>
        <time>2014-05-29T08:45:17Z</time>
      </trkpt>
      <trkpt lat="48.39411" lon="2.54563">
        <ele>86.6</ele>
        <time>2014-05-29T08:45:18Z</time>
      </trkpt>
      <trkpt lat="48.39408" lon="2.54561">
        <ele>85.6</ele>
        <time>2014-05-29T08:45:19Z</time>
      </trkpt>
      <trkpt lat="48.39405" lon="2.5456">
        <ele>84.8</ele>
        <time>2014-05-29T08:45:20Z</time>
      </trkpt>
      <trkpt lat="48.39403" lon="2.54558">
        <ele>83.8</ele>
        <time>2014-05-29T08:45:21Z</time>
      </trkpt>
      <trkpt lat="48.394" lon="2.54559">
        <ele>82.8</ele>
        <time>2014-05-29T08:45:22Z</time>
      </trkpt>
      <trkpt lat="48.39395" lon="2.54558">
        <ele>80.8</ele>
        <time>2014-05-29T08:45:24Z</time>
      </trkpt>
      <trkpt lat="48.39392" lon="2.5456">
        <ele>79.4</ele>
        <time>2014-05-29T08:45:25Z</time>
      </trkpt>
      <trkpt lat="48.3939" lon="2.54561">
        <ele>78.2</ele>
        <time>2014-05-29T08:45:26Z</time>
      </trkpt>
      <trkpt lat="48.39388" lon="2.54562">
        <ele>77</ele>
        <time>2014-05-29T08:45:27Z</time>
      </trkpt>
      <trkpt lat="48.39386" lon="2.54563">
        <ele>75.8</ele>
        <time>2014-05-29T08:45:28Z</time>
      </trkpt>
      <trkpt lat="48.39384" lon="2.54565">
        <ele>74.6</ele>
        <time>2014-05-29T08:45:29Z</time>
      </trkpt>
      <trkpt lat="48.39382" lon="2.54567">
        <ele>73.4</ele>
        <time>2014-05-29T08:45:30Z</time>
      </trkpt>
      <trkpt lat="48.3938" lon="2.5457">
        <ele>72.2</ele>
        <time>2014-05-29T08:45:31Z</time>
      </trkpt>
      <trkpt lat="48.39379" lon="2.54572">
        <ele>71</ele>
        <time>2014-05-29T08:45:32Z</time>
      </trkpt>
      <trkpt lat="48.39377" lon="2.54573">
        <ele>70.2</ele>
        <time>2014-05-29T08:45:33Z</time>
      </trkpt>
      <trkpt lat="48.39374" lon="2.54572">
        <ele>69.6</ele>
        <time>2014-05-29T08:45:34Z</time>
      </trkpt>
      <trkpt lat="48.39372" lon="2.54572">
        <ele>68.8</ele>
        <time>2014-05-29T08:45:35Z</time>
      </trkpt>
      <trkpt lat="48.39368" lon="2.54575">
        <ele>68.2</ele>
        <time>2014-05-29T08:45:36Z</time>
      </trkpt>
      <trkpt lat="48.39364" lon="2.54576">
        <ele>67.4</ele>
        <time>2014-05-29T08:45:37Z</time>
      </trkpt>
      <trkpt lat="48.39358" lon="2.54576">
        <ele>67</ele>
        <time>2014-05-29T08:45:39Z</time>
      </trkpt>
      <trkpt lat="48.39358" lon="2.54574">
        <ele>66.6</ele>
        <time>2014-05-29T08:45:40Z</time>
      </trkpt>
      <trkpt lat="48.39358" lon="2.54572">
        <ele>66.2</ele>
        <time>2014-05-29T08:45:41Z</time>
      </trkpt>
      <trkpt lat="48.39356" lon="2.54568">
        <ele>65.8</ele>
        <time>2014-05-29T08:45:42Z</time>
      </trkpt>
      <trkpt lat="48.39355" lon="2.54565">
        <ele>65.4</ele>
        <time>2014-05-29T08:45:43Z</time>
      </trkpt>
      <trkpt lat="48.39356" lon="2.54554">
        <ele>65.4</ele>
        <time>2014-05-29T08:45:48Z</time>
      </trkpt>
      <trkpt lat="48.39358" lon="2.54549">
        <ele>65.4</ele>
        <time>2014-05-29T08:45:50Z</time>
      </trkpt>
      <trkpt lat="48.39357" lon="2.54524">
        <ele>65.4</ele>
        <time>2014-05-29T08:45:58Z</time>
      </trkpt>
      <trkpt lat="48.39359" lon="2.54518">
        <ele>65.8</ele>
        <time>2014-05-29T08:46:01Z</time>
      </trkpt>
      <trkpt lat="48.3936" lon="2.54514">
        <ele>66.4</ele>
        <time>2014-05-29T08:46:02Z</time>
      </trkpt>
      <trkpt lat="48.39361" lon="2.54511">
        <ele>66.8</ele>
        <time>2014-05-29T08:46:03Z</time>
      </trkpt>
      <trkpt lat="48.3936" lon="2.54508">
        <ele>67.2</ele>
        <time>2014-05-29T08:46:04Z</time>
      </trkpt>
      <trkpt lat="48.39361" lon="2.54506">
        <ele>67.6</ele>
        <time>2014-05-29T08:46:05Z</time>
      </trkpt>
      <trkpt lat="48.39366" lon="2.54483">
        <ele>67.6</ele>
        <time>2014-05-29T08:46:10Z</time>
      </trkpt>
      <trkpt lat="48.39366" lon="2.54455">
        <ele>67.6</ele>
        <time>2014-05-29T08:46:16Z</time>
      </trkpt>
      <trkpt lat="48.39367" lon="2.54435">
        <ele>67.6</ele>
        <time>2014-05-29T08:46:21Z</time>
      </trkpt>
      <trkpt lat="48.39368" lon="2.54431">
        <ele>68</ele>
        <time>2014-05-29T08:46:22Z</time>
      </trkpt>
      <trkpt lat="48.39368" lon="2.54429">
        <ele>68.4</ele>
        <time>2014-05-29T08:46:23Z</time>
      </trkpt>
      <trkpt lat="48.39368" lon="2.54425">
        <ele>69</ele>
        <time>2014-05-29T08:46:24Z</time>
      </trkpt>
      <trkpt lat="48.39369" lon="2.54421">
        <ele>69.4</ele>
        <time>2014-05-29T08:46:25Z</time>
      </trkpt>
      <trkpt lat="48.39368" lon="2.54419">
        <ele>69.8</ele>
        <time>2014-05-29T08:46:26Z</time>
      </trkpt>
      <trkpt lat="48.3937" lon="2.5441">
        <ele>69.8</ele>
        <time>2014-05-29T08:46:28Z</time>
      </trkpt>
      <trkpt lat="48.3938" lon="2.54379">
        <ele>69.8</ele>
        <time>2014-05-29T08:46:35Z</time>
      </trkpt>
      <trkpt lat="48.39386" lon="2.54356">
        <ele>70.2</ele>
        <time>2014-05-29T08:46:39Z</time>
      </trkpt>
      <trkpt lat="48.39387" lon="2.54352">
        <ele>70.6</ele>
        <time>2014-05-29T08:46:40Z</time>
      </trkpt>
      <trkpt lat="48.39387" lon="2.54346">
        <ele>71</ele>
        <time>2014-05-29T08:46:41Z</time>
      </trkpt>
      <trkpt lat="48.39387" lon="2.54341">
        <ele>71.4</ele>
        <time>2014-05-29T08:46:42Z</time>
      </trkpt>
      <trkpt lat="48.39387" lon="2.54338">
        <ele>71.8</ele>
        <time>2014-05-29T08:46:43Z</time>
      </trkpt>
      <trkpt lat="48.39381" lon="2.54325">
        <ele>72.6</ele>
        <time>2014-05-29T08:46:49Z</time>
      </trkpt>
      <trkpt lat="48.3938" lon="2.54323">
        <ele>73.2</ele>
        <time>2014-05-29T08:46:50Z</time>
      </trkpt>
      <trkpt lat="48.3938" lon="2.5432">
        <ele>73.6</ele>
        <time>2014-05-29T08:46:51Z</time>
      </trkpt>
      <trkpt lat="48.39379" lon="2.54316">
        <ele>74</ele>
        <time>2014-05-29T08:46:52Z</time>
      </trkpt>
      <trkpt lat="48.39377" lon="2.54312">
        <ele>74.4</ele>
        <time>2014-05-29T08:46:55Z</time>
      </trkpt>
      <trkpt lat="48.39377" lon="2.54309">
        <ele>74.8</ele>
        <time>2014-05-29T08:46:56Z</time>
      </trkpt>
      <trkpt lat="48.39375" lon="2.54308">
        <ele>75.2</ele>
        <time>2014-05-29T08:46:57Z</time>
      </trkpt>
      <trkpt lat="48.39376" lon="2.54306">
        <ele>75.6</ele>
        <time>2014-05-29T08:46:58Z</time>
      </trkpt>
      <trkpt lat="48.39376" lon="2.54303">
        <ele>76.2</ele>
        <time>2014-05-29T08:46:59Z</time>
      </trkpt>
      <trkpt lat="48.39374" lon="2.54293">
        <ele>76.6</ele>
        <time>2014-05-29T08:47:03Z</time>
      </trkpt>
      <trkpt lat="48.39374" lon="2.54291">
        <ele>77</ele>
        <time>2014-05-29T08:47:04Z</time>
      </trkpt>
      <trkpt lat="48.39374" lon="2.54288">
        <ele>77.4</ele>
        <time>2014-05-29T08:47:05Z</time>
      </trkpt>
      <trkpt lat="48.39375" lon="2.54286">
        <ele>77.8</ele>
        <time>2014-05-29T08:47:06Z</time>
      </trkpt>
      <trkpt lat="48.39374" lon="2.54284">
        <ele>78.2</ele>
        <time>2014-05-29T08:47:07Z</time>
      </trkpt>
      <trkpt lat="48.39375" lon="2.54282">
        <ele>78.8</ele>
        <time>2014-05-29T08:47:11Z</time>
      </trkpt>
      <trkpt lat="48.39375" lon="2.54282">
        <ele>79.2</ele>
        <time>2014-05-29T08:47:12Z</time>
      </trkpt>
      <trkpt lat="48.39375" lon="2.54281">
        <ele>79.8</ele>
        <time>2014-05-29T08:47:13Z</time>
      </trkpt>
      <trkpt lat="48.39375" lon="2.5428">
        <ele>84.8</ele>
        <time>2014-05-29T08:47:28Z</time>
      </trkpt>
      <trkpt lat="48.39376" lon="2.54278">
        <ele>85.2</ele>
        <time>2014-05-29T08:47:32Z</time>
      </trkpt>
      <trkpt lat="48.39376" lon="2.54278">
        <ele>87.4</ele>
        <time>2014-05-29T08:47:41Z</time>
      </trkpt>
      <trkpt lat="48.39376" lon="2.54277">
        <ele>91.6</ele>
        <time>2014-05-29T08:47:57Z</time>
      </trkpt>
      <trkpt lat="48.39377" lon="2.54276">
        <ele>97.6</ele>
        <time>2014-05-29T08:48:34Z</time>
      </trkpt>
      <trkpt lat="48.39401" lon="2.54156">
        <ele>97.6</ele>
        <time>2014-05-29T08:48:44Z</time>
      </trkpt>
      <trkpt lat="48.39414" lon="2.54119">
        <ele>97.6</ele>
        <time>2014-05-29T08:48:49Z</time>
      </trkpt>
      <trkpt lat="48.39417" lon="2.54108">
        <ele>97.6</ele>
        <time>2014-05-29T08:48:51Z</time>
      </trkpt>
      <trkpt lat="48.3942" lon="2.54103">
        <ele>97.6</ele>
        <time>2014-05-29T08:48:52Z</time>
      </trkpt>
      <trkpt lat="48.39422" lon="2.54098">
        <ele>97.6</ele>
        <time>2014-05-29T08:48:53Z</time>
      </trkpt>
      <trkpt lat="48.39426" lon="2.54087">
        <ele>97.6</ele>
        <time>2014-05-29T08:48:55Z</time>
      </trkpt>
      <trkpt lat="48.3943" lon="2.54076">
        <ele>97.6</ele>
        <time>2014-05-29T08:48:57Z</time>
      </trkpt>
      <trkpt lat="48.39436" lon="2.54063">
        <ele>97.6</ele>
        <time>2014-05-29T08:49:00Z</time>
      </trkpt>
      <trkpt lat="48.3945" lon="2.54025">
        <ele>97.6</ele>
        <time>2014-05-29T08:49:06Z</time>
      </trkpt>
      <trkpt lat="48.39453" lon="2.54019">
        <ele>98</ele>
        <time>2014-05-29T08:49:07Z</time>
      </trkpt>
      <trkpt lat="48.39454" lon="2.54014">
        <ele>98.4</ele>
        <time>2014-05-29T08:49:08Z</time>
      </trkpt>
      <trkpt lat="48.39455" lon="2.54009">
        <ele>98.8</ele>
        <time>2014-05-29T08:49:09Z</time>
      </trkpt>
      <trkpt lat="48.39456" lon="2.54003">
        <ele>99.2</ele>
        <time>2014-05-29T08:49:10Z</time>
      </trkpt>
      <trkpt lat="48.39458" lon="2.53995">
        <ele>99.8</ele>
        <time>2014-05-29T08:49:11Z</time>
      </trkpt>
      <trkpt lat="48.39463" lon="2.53982">
        <ele>99.8</ele>
        <time>2014-05-29T08:49:13Z</time>
      </trkpt>
      <trkpt lat="48.39468" lon="2.53961">
        <ele>99.8</ele>
        <time>2014-05-29T08:49:17Z</time>
      </trkpt>
      <trkpt lat="48.39469" lon="2.53955">
        <ele>99.8</ele>
        <time>2014-05-29T08:49:18Z</time>
      </trkpt>
      <trkpt lat="48.3947" lon="2.53933">
        <ele>99.8</ele>
        <time>2014-05-29T08:49:21Z</time>
      </trkpt>
      <trkpt lat="48.39471" lon="2.53926">
        <ele>99.8</ele>
        <time>2014-05-29T08:49:22Z</time>
      </trkpt>
      <trkpt lat="48.39471" lon="2.53881">
        <ele>99.8</ele>
        <time>2014-05-29T08:49:28Z</time>
      </trkpt>
      <trkpt lat="48.39472" lon="2.53874">
        <ele>99.8</ele>
        <time>2014-05-29T08:49:29Z</time>
      </trkpt>
      <trkpt lat="48.39473" lon="2.53839">
        <ele>99.8</ele>
        <time>2014-05-29T08:49:34Z</time>
      </trkpt>
      <trkpt lat="48.39472" lon="2.53817">
        <ele>99.8</ele>
        <time>2014-05-29T08:49:39Z</time>
      </trkpt>
      <trkpt lat="48.39461" lon="2.53802">
        <ele>99.8</ele>
        <time>2014-05-29T08:49:44Z</time>
      </trkpt>
      <trkpt lat="48.39453" lon="2.53792">
        <ele>99.8</ele>
        <time>2014-05-29T08:49:47Z</time>
      </trkpt>
      <trkpt lat="48.3945" lon="2.53788">
        <ele>99.8</ele>
        <time>2014-05-29T08:49:48Z</time>
      </trkpt>
      <trkpt lat="48.3943" lon="2.53781">
        <ele>99.8</ele>
        <time>2014-05-29T08:49:54Z</time>
      </trkpt>
      <trkpt lat="48.39414" lon="2.5378">
        <ele>99.8</ele>
        <time>2014-05-29T08:50:00Z</time>
      </trkpt>
      <trkpt lat="48.39396" lon="2.53776">
        <ele>99.8</ele>
        <time>2014-05-29T08:50:06Z</time>
      </trkpt>
      <trkpt lat="48.39393" lon="2.53776">
        <ele>99.8</ele>
        <time>2014-05-29T08:50:07Z</time>
      </trkpt>
      <trkpt lat="48.39382" lon="2.53779">
        <ele>99.8</ele>
        <time>2014-05-29T08:50:10Z</time>
      </trkpt>
      <trkpt lat="48.39372" lon="2.53796">
        <ele>99.8</ele>
        <time>2014-05-29T08:50:14Z</time>
      </trkpt>
      <trkpt lat="48.3937" lon="2.53804">
        <ele>99.8</ele>
        <time>2014-05-29T08:50:16Z</time>
      </trkpt>
      <trkpt lat="48.39365" lon="2.53813">
        <ele>99.8</ele>
        <time>2014-05-29T08:50:18Z</time>
      </trkpt>
      <trkpt lat="48.39356" lon="2.53821">
        <ele>99.2</ele>
        <time>2014-05-29T08:50:21Z</time>
      </trkpt>
      <trkpt lat="48.39352" lon="2.53822">
        <ele>98.8</ele>
        <time>2014-05-29T08:50:22Z</time>
      </trkpt>
      <trkpt lat="48.39347" lon="2.53824">
        <ele>98.4</ele>
        <time>2014-05-29T08:50:23Z</time>
      </trkpt>
      <trkpt lat="48.39343" lon="2.53826">
        <ele>98</ele>
        <time>2014-05-29T08:50:24Z</time>
      </trkpt>
      <trkpt lat="48.3934" lon="2.53828">
        <ele>97.6</ele>
        <time>2014-05-29T08:50:25Z</time>
      </trkpt>
      <trkpt lat="48.3933" lon="2.53832">
        <ele>97.6</ele>
        <time>2014-05-29T08:50:27Z</time>
      </trkpt>
      <trkpt lat="48.39316" lon="2.53838">
        <ele>97.2</ele>
        <time>2014-05-29T08:50:30Z</time>
      </trkpt>
      <trkpt lat="48.39312" lon="2.5384">
        <ele>96.6</ele>
        <time>2014-05-29T08:50:31Z</time>
      </trkpt>
      <trkpt lat="48.39308" lon="2.53842">
        <ele>96.2</ele>
        <time>2014-05-29T08:50:32Z</time>
      </trkpt>
      <trkpt lat="48.39304" lon="2.53846">
        <ele>95.6</ele>
        <time>2014-05-29T08:50:33Z</time>
      </trkpt>
      <trkpt lat="48.39302" lon="2.5385">
        <ele>95</ele>
        <time>2014-05-29T08:50:34Z</time>
      </trkpt>
      <trkpt lat="48.39303" lon="2.53856">
        <ele>94.4</ele>
        <time>2014-05-29T08:50:35Z</time>
      </trkpt>
      <trkpt lat="48.39303" lon="2.5386">
        <ele>93.8</ele>
        <time>2014-05-29T08:50:36Z</time>
      </trkpt>
      <trkpt lat="48.39301" lon="2.53863">
        <ele>93.2</ele>
        <time>2014-05-29T08:50:37Z</time>
      </trkpt>
      <trkpt lat="48.39293" lon="2.53879">
        <ele>93.2</ele>
        <time>2014-05-29T08:50:42Z</time>
      </trkpt>
      <trkpt lat="48.39285" lon="2.53902">
        <ele>93.2</ele>
        <time>2014-05-29T08:50:47Z</time>
      </trkpt>
      <trkpt lat="48.39269" lon="2.53916">
        <ele>93.2</ele>
        <time>2014-05-29T08:50:51Z</time>
      </trkpt>
      <trkpt lat="48.39257" lon="2.53935">
        <ele>93.2</ele>
        <time>2014-05-29T08:50:57Z</time>
      </trkpt>
      <trkpt lat="48.39249" lon="2.53953">
        <ele>93.2</ele>
        <time>2014-05-29T08:51:04Z</time>
      </trkpt>
      <trkpt lat="48.39247" lon="2.53958">
        <ele>93.2</ele>
        <time>2014-05-29T08:51:06Z</time>
      </trkpt>
      <trkpt lat="48.39244" lon="2.53967">
        <ele>93.2</ele>
        <time>2014-05-29T08:51:08Z</time>
      </trkpt>
      <trkpt lat="48.39241" lon="2.53971">
        <ele>93.2</ele>
        <time>2014-05-29T08:51:09Z</time>
      </trkpt>
      <trkpt lat="48.39238" lon="2.53975">
        <ele>93.2</ele>
        <time>2014-05-29T08:51:11Z</time>
      </trkpt>
      <trkpt lat="48.39238" lon="2.53978">
        <ele>93.2</ele>
        <time>2014-05-29T08:51:12Z</time>
      </trkpt>
      <trkpt lat="48.39238" lon="2.53986">
        <ele>93.2</ele>
        <time>2014-05-29T08:51:15Z</time>
      </trkpt>
      <trkpt lat="48.3924" lon="2.53997">
        <ele>93.2</ele>
        <time>2014-05-29T08:51:17Z</time>
      </trkpt>
      <trkpt lat="48.39243" lon="2.54007">
        <ele>93.2</ele>
        <time>2014-05-29T08:51:19Z</time>
      </trkpt>
      <trkpt lat="48.39244" lon="2.54012">
        <ele>93.2</ele>
        <time>2014-05-29T08:51:20Z</time>
      </trkpt>
      <trkpt lat="48.39247" lon="2.54024">
        <ele>93.2</ele>
        <time>2014-05-29T08:51:22Z</time>
      </trkpt>
      <trkpt lat="48.39248" lon="2.54038">
        <ele>93.2</ele>
        <time>2014-05-29T08:51:25Z</time>
      </trkpt>
      <trkpt lat="48.39247" lon="2.54041">
        <ele>93.2</ele>
        <time>2014-05-29T08:51:26Z</time>
      </trkpt>
      <trkpt lat="48.39246" lon="2.54049">
        <ele>93.2</ele>
        <time>2014-05-29T08:51:28Z</time>
      </trkpt>
      <trkpt lat="48.39248" lon="2.54068">
        <ele>93.2</ele>
        <time>2014-05-29T08:51:33Z</time>
      </trkpt>
      <trkpt lat="48.39256" lon="2.54087">
        <ele>93.2</ele>
        <time>2014-05-29T08:51:39Z</time>
      </trkpt>
      <trkpt lat="48.3926" lon="2.54105">
        <ele>93.2</ele>
        <time>2014-05-29T08:51:43Z</time>
      </trkpt>
      <trkpt lat="48.39254" lon="2.54126">
        <ele>93.2</ele>
        <time>2014-05-29T08:51:47Z</time>
      </trkpt>
      <trkpt lat="48.39252" lon="2.54131">
        <ele>93.2</ele>
        <time>2014-05-29T08:51:48Z</time>
      </trkpt>
      <trkpt lat="48.39249" lon="2.54139">
        <ele>93.2</ele>
        <time>2014-05-29T08:51:50Z</time>
      </trkpt>
      <trkpt lat="48.39247" lon="2.54144">
        <ele>93.2</ele>
        <time>2014-05-29T08:51:51Z</time>
      </trkpt>
      <trkpt lat="48.39233" lon="2.54171">
        <ele>93.2</ele>
        <time>2014-05-29T08:51:57Z</time>
      </trkpt>
      <trkpt lat="48.39222" lon="2.54198">
        <ele>93.2</ele>
        <time>2014-05-29T08:52:03Z</time>
      </trkpt>
      <trkpt lat="48.39223" lon="2.54233">
        <ele>93.2</ele>
        <time>2014-05-29T08:52:10Z</time>
      </trkpt>
      <trkpt lat="48.39222" lon="2.54273">
        <ele>93.2</ele>
        <time>2014-05-29T08:52:16Z</time>
      </trkpt>
      <trkpt lat="48.39216" lon="2.54303">
        <ele>93.2</ele>
        <time>2014-05-29T08:52:20Z</time>
      </trkpt>
      <trkpt lat="48.39215" lon="2.54309">
        <ele>93.2</ele>
        <time>2014-05-29T08:52:21Z</time>
      </trkpt>
      <trkpt lat="48.39215" lon="2.54315">
        <ele>93.2</ele>
        <time>2014-05-29T08:52:22Z</time>
      </trkpt>
      <trkpt lat="48.39217" lon="2.54324">
        <ele>92.6</ele>
        <time>2014-05-29T08:52:24Z</time>
      </trkpt>
      <trkpt lat="48.39218" lon="2.54329">
        <ele>92</ele>
        <time>2014-05-29T08:52:25Z</time>
      </trkpt>
      <trkpt lat="48.39218" lon="2.54334">
        <ele>91.6</ele>
        <time>2014-05-29T08:52:26Z</time>
      </trkpt>
      <trkpt lat="48.39218" lon="2.54338">
        <ele>91</ele>
        <time>2014-05-29T08:52:27Z</time>
      </trkpt>
      <trkpt lat="48.39217" lon="2.54345">
        <ele>90.4</ele>
        <time>2014-05-29T08:52:28Z</time>
      </trkpt>
      <trkpt lat="48.39215" lon="2.5435">
        <ele>89.6</ele>
        <time>2014-05-29T08:52:29Z</time>
      </trkpt>
      <trkpt lat="48.39212" lon="2.54359">
        <ele>89</ele>
        <time>2014-05-29T08:52:30Z</time>
      </trkpt>
      <trkpt lat="48.39207" lon="2.54367">
        <ele>88.2</ele>
        <time>2014-05-29T08:52:31Z</time>
      </trkpt>
      <trkpt lat="48.39203" lon="2.54371">
        <ele>87.4</ele>
        <time>2014-05-29T08:52:32Z</time>
      </trkpt>
      <trkpt lat="48.39199" lon="2.54374">
        <ele>86.6</ele>
        <time>2014-05-29T08:52:33Z</time>
      </trkpt>
      <trkpt lat="48.39197" lon="2.5438">
        <ele>85.8</ele>
        <time>2014-05-29T08:52:34Z</time>
      </trkpt>
      <trkpt lat="48.39194" lon="2.54387">
        <ele>85</ele>
        <time>2014-05-29T08:52:35Z</time>
      </trkpt>
      <trkpt lat="48.39191" lon="2.54394">
        <ele>84.2</ele>
        <time>2014-05-29T08:52:36Z</time>
      </trkpt>
      <trkpt lat="48.39188" lon="2.54402">
        <ele>83.6</ele>
        <time>2014-05-29T08:52:37Z</time>
      </trkpt>
      <trkpt lat="48.39186" lon="2.54407">
        <ele>82.8</ele>
        <time>2014-05-29T08:52:38Z</time>
      </trkpt>
      <trkpt lat="48.39184" lon="2.54412">
        <ele>82</ele>
        <time>2014-05-29T08:52:39Z</time>
      </trkpt>
      <trkpt lat="48.39184" lon="2.54419">
        <ele>81</ele>
        <time>2014-05-29T08:52:40Z</time>
      </trkpt>
      <trkpt lat="48.39185" lon="2.5443">
        <ele>80.2</ele>
        <time>2014-05-29T08:52:41Z</time>
      </trkpt>
      <trkpt lat="48.39185" lon="2.54439">
        <ele>79.4</ele>
        <time>2014-05-29T08:52:42Z</time>
      </trkpt>
      <trkpt lat="48.39184" lon="2.54448">
        <ele>78.6</ele>
        <time>2014-05-29T08:52:43Z</time>
      </trkpt>
      <trkpt lat="48.39179" lon="2.54476">
        <ele>78.2</ele>
        <time>2014-05-29T08:52:46Z</time>
      </trkpt>
      <trkpt lat="48.39177" lon="2.54486">
        <ele>77.6</ele>
        <time>2014-05-29T08:52:47Z</time>
      </trkpt>
      <trkpt lat="48.39173" lon="2.54496">
        <ele>77.2</ele>
        <time>2014-05-29T08:52:48Z</time>
      </trkpt>
      <trkpt lat="48.39169" lon="2.54506">
        <ele>76.8</ele>
        <time>2014-05-29T08:52:49Z</time>
      </trkpt>
      <trkpt lat="48.39167" lon="2.54516">
        <ele>76.2</ele>
        <time>2014-05-29T08:52:50Z</time>
      </trkpt>
      <trkpt lat="48.39165" lon="2.54525">
        <ele>75.8</ele>
        <time>2014-05-29T08:52:51Z</time>
      </trkpt>
      <trkpt lat="48.39167" lon="2.54533">
        <ele>75.2</ele>
        <time>2014-05-29T08:52:52Z</time>
      </trkpt>
      <trkpt lat="48.39167" lon="2.54541">
        <ele>74.6</ele>
        <time>2014-05-29T08:52:53Z</time>
      </trkpt>
      <trkpt lat="48.39166" lon="2.54548">
        <ele>74</ele>
        <time>2014-05-29T08:52:54Z</time>
      </trkpt>
      <trkpt lat="48.39164" lon="2.54555">
        <ele>73.2</ele>
        <time>2014-05-29T08:52:55Z</time>
      </trkpt>
      <trkpt lat="48.39163" lon="2.54562">
        <ele>72.6</ele>
        <time>2014-05-29T08:52:56Z</time>
      </trkpt>
      <trkpt lat="48.39165" lon="2.54566">
        <ele>72</ele>
        <time>2014-05-29T08:52:57Z</time>
      </trkpt>
      <trkpt lat="48.39169" lon="2.54567">
        <ele>71.4</ele>
        <time>2014-05-29T08:52:58Z</time>
      </trkpt>
      <trkpt lat="48.39173" lon="2.54569">
        <ele>71</ele>
        <time>2014-05-29T08:52:59Z</time>
      </trkpt>
      <trkpt lat="48.39175" lon="2.54572">
        <ele>70.2</ele>
        <time>2014-05-29T08:53:00Z</time>
      </trkpt>
      <trkpt lat="48.39176" lon="2.54576">
        <ele>69.6</ele>
        <time>2014-05-29T08:53:01Z</time>
      </trkpt>
      <trkpt lat="48.39176" lon="2.5458">
        <ele>69</ele>
        <time>2014-05-29T08:53:02Z</time>
      </trkpt>
      <trkpt lat="48.39176" lon="2.54585">
        <ele>68.2</ele>
        <time>2014-05-29T08:53:03Z</time>
      </trkpt>
      <trkpt lat="48.39175" lon="2.54591">
        <ele>67.8</ele>
        <time>2014-05-29T08:53:04Z</time>
      </trkpt>
      <trkpt lat="48.39175" lon="2.54599">
        <ele>67.2</ele>
        <time>2014-05-29T08:53:05Z</time>
      </trkpt>
      <trkpt lat="48.39174" lon="2.54607">
        <ele>66.6</ele>
        <time>2014-05-29T08:53:06Z</time>
      </trkpt>
      <trkpt lat="48.39173" lon="2.54616">
        <ele>66.2</ele>
        <time>2014-05-29T08:53:07Z</time>
      </trkpt>
      <trkpt lat="48.39173" lon="2.54625">
        <ele>65.6</ele>
        <time>2014-05-29T08:53:08Z</time>
      </trkpt>
      <trkpt lat="48.39174" lon="2.54652">
        <ele>65.2</ele>
        <time>2014-05-29T08:53:11Z</time>
      </trkpt>
      <trkpt lat="48.3917" lon="2.54666">
        <ele>64.8</ele>
        <time>2014-05-29T08:53:12Z</time>
      </trkpt>
      <trkpt lat="48.39167" lon="2.54677">
        <ele>64.4</ele>
        <time>2014-05-29T08:53:13Z</time>
      </trkpt>
      <trkpt lat="48.39163" lon="2.54689">
        <ele>64</ele>
        <time>2014-05-29T08:53:14Z</time>
      </trkpt>
      <trkpt lat="48.39162" lon="2.547">
        <ele>63.4</ele>
        <time>2014-05-29T08:53:15Z</time>
      </trkpt>
      <trkpt lat="48.39161" lon="2.54712">
        <ele>63</ele>
        <time>2014-05-29T08:53:16Z</time>
      </trkpt>
      <trkpt lat="48.3916" lon="2.54722">
        <ele>62.6</ele>
        <time>2014-05-29T08:53:17Z</time>
      </trkpt>
      <trkpt lat="48.39159" lon="2.54732">
        <ele>62.2</ele>
        <time>2014-05-29T08:53:18Z</time>
      </trkpt>
      <trkpt lat="48.39157" lon="2.54743">
        <ele>61.8</ele>
        <time>2014-05-29T08:53:19Z</time>
      </trkpt>
      <trkpt lat="48.39154" lon="2.54752">
        <ele>61.4</ele>
        <time>2014-05-29T08:53:20Z</time>
      </trkpt>
      <trkpt lat="48.39146" lon="2.54766">
        <ele>60.8</ele>
        <time>2014-05-29T08:53:22Z</time>
      </trkpt>
      <trkpt lat="48.39137" lon="2.54771">
        <ele>60.4</ele>
        <time>2014-05-29T08:53:23Z</time>
      </trkpt>
      <trkpt lat="48.39131" lon="2.54776">
        <ele>59.8</ele>
        <time>2014-05-29T08:53:24Z</time>
      </trkpt>
      <trkpt lat="48.39125" lon="2.54782">
        <ele>59.4</ele>
        <time>2014-05-29T08:53:25Z</time>
      </trkpt>
      <trkpt lat="48.39118" lon="2.54788">
        <ele>58.8</ele>
        <time>2014-05-29T08:53:26Z</time>
      </trkpt>
      <trkpt lat="48.39106" lon="2.54799">
        <ele>58.4</ele>
        <time>2014-05-29T08:53:28Z</time>
      </trkpt>
      <trkpt lat="48.39102" lon="2.54804">
        <ele>58</ele>
        <time>2014-05-29T08:53:29Z</time>
      </trkpt>
      <trkpt lat="48.39098" lon="2.54809">
        <ele>57.6</ele>
        <time>2014-05-29T08:53:30Z</time>
      </trkpt>
      <trkpt lat="48.39096" lon="2.54812">
        <ele>57.2</ele>
        <time>2014-05-29T08:53:31Z</time>
      </trkpt>
      <trkpt lat="48.39094" lon="2.54813">
        <ele>56.6</ele>
        <time>2014-05-29T08:53:32Z</time>
      </trkpt>
      <trkpt lat="48.39087" lon="2.54807">
        <ele>56.6</ele>
        <time>2014-05-29T08:53:35Z</time>
      </trkpt>
      <trkpt lat="48.39081" lon="2.54799">
        <ele>56.6</ele>
        <time>2014-05-29T08:53:37Z</time>
      </trkpt>
      <trkpt lat="48.39069" lon="2.54787">
        <ele>56.6</ele>
        <time>2014-05-29T08:53:40Z</time>
      </trkpt>
      <trkpt lat="48.3906" lon="2.54777">
        <ele>56.6</ele>
        <time>2014-05-29T08:53:43Z</time>
      </trkpt>
      <trkpt lat="48.39055" lon="2.54772">
        <ele>56.6</ele>
        <time>2014-05-29T08:53:45Z</time>
      </trkpt>
      <trkpt lat="48.39054" lon="2.54769">
        <ele>56.6</ele>
        <time>2014-05-29T08:53:47Z</time>
      </trkpt>
      <trkpt lat="48.39055" lon="2.54766">
        <ele>57.2</ele>
        <time>2014-05-29T08:53:49Z</time>
      </trkpt>
      <trkpt lat="48.39054" lon="2.54766">
        <ele>58</ele>
        <time>2014-05-29T08:53:51Z</time>
      </trkpt>
      <trkpt lat="48.39054" lon="2.54766">
        <ele>58.4</ele>
        <time>2014-05-29T08:53:52Z</time>
      </trkpt>
      <trkpt lat="48.39053" lon="2.54766">
        <ele>58.8</ele>
        <time>2014-05-29T08:53:53Z</time>
      </trkpt>
      <trkpt lat="48.39049" lon="2.54757">
        <ele>58.8</ele>
        <time>2014-05-29T08:53:56Z</time>
      </trkpt>
      <trkpt lat="48.39047" lon="2.54738">
        <ele>58.8</ele>
        <time>2014-05-29T08:54:02Z</time>
      </trkpt>
      <trkpt lat="48.3904" lon="2.54717">
        <ele>58.8</ele>
        <time>2014-05-29T08:54:09Z</time>
      </trkpt>
      <trkpt lat="48.39036" lon="2.54674">
        <ele>58.8</ele>
        <time>2014-05-29T08:54:17Z</time>
      </trkpt>
      <trkpt lat="48.39036" lon="2.5466">
        <ele>59.2</ele>
        <time>2014-05-29T08:54:20Z</time>
      </trkpt>
      <trkpt lat="48.39037" lon="2.54657">
        <ele>59.8</ele>
        <time>2014-05-29T08:54:21Z</time>
      </trkpt>
      <trkpt lat="48.39037" lon="2.54653">
        <ele>60.2</ele>
        <time>2014-05-29T08:54:22Z</time>
      </trkpt>
      <trkpt lat="48.39036" lon="2.5465">
        <ele>60.6</ele>
        <time>2014-05-29T08:54:23Z</time>
      </trkpt>
      <trkpt lat="48.39035" lon="2.54647">
        <ele>61.2</ele>
        <time>2014-05-29T08:54:24Z</time>
      </trkpt>
      <trkpt lat="48.39038" lon="2.5463">
        <ele>61.2</ele>
        <time>2014-05-29T08:54:28Z</time>
      </trkpt>
      <trkpt lat="48.39037" lon="2.54607">
        <ele>61.6</ele>
        <time>2014-05-29T08:54:34Z</time>
      </trkpt>
      <trkpt lat="48.39037" lon="2.54604">
        <ele>62</ele>
        <time>2014-05-29T08:54:35Z</time>
      </trkpt>
      <trkpt lat="48.39038" lon="2.546">
        <ele>62.4</ele>
        <time>2014-05-29T08:54:36Z</time>
      </trkpt>
      <trkpt lat="48.39039" lon="2.54593">
        <ele>62.8</ele>
        <time>2014-05-29T08:54:37Z</time>
      </trkpt>
      <trkpt lat="48.39041" lon="2.54587">
        <ele>63.2</ele>
        <time>2014-05-29T08:54:38Z</time>
      </trkpt>
      <trkpt lat="48.39043" lon="2.54578">
        <ele>63.2</ele>
        <time>2014-05-29T08:54:40Z</time>
      </trkpt>
      <trkpt lat="48.39044" lon="2.54543">
        <ele>63.2</ele>
        <time>2014-05-29T08:54:45Z</time>
      </trkpt>
      <trkpt lat="48.39048" lon="2.54525">
        <ele>63.8</ele>
        <time>2014-05-29T08:54:49Z</time>
      </trkpt>
      <trkpt lat="48.39048" lon="2.54521">
        <ele>64.2</ele>
        <time>2014-05-29T08:54:50Z</time>
      </trkpt>
      <trkpt lat="48.3905" lon="2.54514">
        <ele>64.6</ele>
        <time>2014-05-29T08:54:51Z</time>
      </trkpt>
      <trkpt lat="48.3905" lon="2.54509">
        <ele>65</ele>
        <time>2014-05-29T08:54:52Z</time>
      </trkpt>
      <trkpt lat="48.39051" lon="2.54505">
        <ele>65.6</ele>
        <time>2014-05-29T08:54:53Z</time>
      </trkpt>
      <trkpt lat="48.39059" lon="2.54486">
        <ele>65.6</ele>
        <time>2014-05-29T08:54:57Z</time>
      </trkpt>
      <trkpt lat="48.39063" lon="2.54458">
        <ele>65.6</ele>
        <time>2014-05-29T08:55:03Z</time>
      </trkpt>
      <trkpt lat="48.39063" lon="2.54425">
        <ele>65.6</ele>
        <time>2014-05-29T08:55:10Z</time>
      </trkpt>
      <trkpt lat="48.39066" lon="2.54415">
        <ele>66</ele>
        <time>2014-05-29T08:55:12Z</time>
      </trkpt>
      <trkpt lat="48.39067" lon="2.54411">
        <ele>66.4</ele>
        <time>2014-05-29T08:55:13Z</time>
      </trkpt>
      <trkpt lat="48.39068" lon="2.54407">
        <ele>66.8</ele>
        <time>2014-05-29T08:55:14Z</time>
      </trkpt>
      <trkpt lat="48.39069" lon="2.54404">
        <ele>67.2</ele>
        <time>2014-05-29T08:55:15Z</time>
      </trkpt>
      <trkpt lat="48.3907" lon="2.54395">
        <ele>67.6</ele>
        <time>2014-05-29T08:55:16Z</time>
      </trkpt>
      <trkpt lat="48.39074" lon="2.54371">
        <ele>67.6</ele>
        <time>2014-05-29T08:55:21Z</time>
      </trkpt>
      <trkpt lat="48.39074" lon="2.54349">
        <ele>68</ele>
        <time>2014-05-29T08:55:26Z</time>
      </trkpt>
      <trkpt lat="48.39075" lon="2.54346">
        <ele>68.4</ele>
        <time>2014-05-29T08:55:27Z</time>
      </trkpt>
      <trkpt lat="48.39076" lon="2.54341">
        <ele>68.8</ele>
        <time>2014-05-29T08:55:28Z</time>
      </trkpt>
      <trkpt lat="48.39078" lon="2.54336">
        <ele>69.4</ele>
        <time>2014-05-29T08:55:29Z</time>
      </trkpt>
      <trkpt lat="48.39079" lon="2.54331">
        <ele>69.8</ele>
        <time>2014-05-29T08:55:30Z</time>
      </trkpt>
      <trkpt lat="48.39082" lon="2.54323">
        <ele>69.8</ele>
        <time>2014-05-29T08:55:32Z</time>
      </trkpt>
      <trkpt lat="48.39084" lon="2.54301">
        <ele>70.2</ele>
        <time>2014-05-29T08:55:36Z</time>
      </trkpt>
      <trkpt lat="48.39086" lon="2.54296">
        <ele>70.6</ele>
        <time>2014-05-29T08:55:37Z</time>
      </trkpt>
      <trkpt lat="48.39088" lon="2.54291">
        <ele>71</ele>
        <time>2014-05-29T08:55:38Z</time>
      </trkpt>
      <trkpt lat="48.39089" lon="2.54286">
        <ele>71.4</ele>
        <time>2014-05-29T08:55:39Z</time>
      </trkpt>
      <trkpt lat="48.39089" lon="2.54281">
        <ele>71.8</ele>
        <time>2014-05-29T08:55:40Z</time>
      </trkpt>
      <trkpt lat="48.39094" lon="2.54266">
        <ele>71.8</ele>
        <time>2014-05-29T08:55:44Z</time>
      </trkpt>
      <trkpt lat="48.39092" lon="2.54244">
        <ele>71.8</ele>
        <time>2014-05-29T08:55:49Z</time>
      </trkpt>
      <trkpt lat="48.39095" lon="2.5422">
        <ele>71.8</ele>
        <time>2014-05-29T08:55:55Z</time>
      </trkpt>
      <trkpt lat="48.39098" lon="2.54208">
        <ele>71.8</ele>
        <time>2014-05-29T08:55:58Z</time>
      </trkpt>
      <trkpt lat="48.39103" lon="2.54189">
        <ele>71.8</ele>
        <time>2014-05-29T08:56:02Z</time>
      </trkpt>
      <trkpt lat="48.39105" lon="2.54179">
        <ele>71.8</ele>
        <time>2014-05-29T08:56:05Z</time>
      </trkpt>
      <trkpt lat="48.39105" lon="2.54167">
        <ele>71.8</ele>
        <time>2014-05-29T08:56:07Z</time>
      </trkpt>
      <trkpt lat="48.39111" lon="2.54137">
        <ele>71.8</ele>
        <time>2014-05-29T08:56:13Z</time>
      </trkpt>
      <trkpt lat="48.39116" lon="2.54103">
        <ele>71.8</ele>
        <time>2014-05-29T08:56:19Z</time>
      </trkpt>
      <trkpt lat="48.39122" lon="2.54072">
        <ele>71.8</ele>
        <time>2014-05-29T08:56:24Z</time>
      </trkpt>
      <trkpt lat="48.39128" lon="2.5404">
        <ele>71.8</ele>
        <time>2014-05-29T08:56:30Z</time>
      </trkpt>
      <trkpt lat="48.39131" lon="2.54014">
        <ele>71.8</ele>
        <time>2014-05-29T08:56:36Z</time>
      </trkpt>
      <trkpt lat="48.39136" lon="2.53984">
        <ele>72.2</ele>
        <time>2014-05-29T08:56:41Z</time>
      </trkpt>
      <trkpt lat="48.39136" lon="2.53979">
        <ele>72.6</ele>
        <time>2014-05-29T08:56:42Z</time>
      </trkpt>
      <trkpt lat="48.39137" lon="2.53973">
        <ele>73</ele>
        <time>2014-05-29T08:56:43Z</time>
      </trkpt>
      <trkpt lat="48.39137" lon="2.53968">
        <ele>73.4</ele>
        <time>2014-05-29T08:56:44Z</time>
      </trkpt>
      <trkpt lat="48.39138" lon="2.53963">
        <ele>74</ele>
        <time>2014-05-29T08:56:45Z</time>
      </trkpt>
      <trkpt lat="48.39143" lon="2.53941">
        <ele>74</ele>
        <time>2014-05-29T08:56:49Z</time>
      </trkpt>
      <trkpt lat="48.39152" lon="2.53911">
        <ele>74</ele>
        <time>2014-05-29T08:56:54Z</time>
      </trkpt>
      <trkpt lat="48.39152" lon="2.53906">
        <ele>74</ele>
        <time>2014-05-29T08:56:55Z</time>
      </trkpt>
      <trkpt lat="48.39151" lon="2.53888">
        <ele>74.4</ele>
        <time>2014-05-29T08:56:59Z</time>
      </trkpt>
      <trkpt lat="48.39151" lon="2.53884">
        <ele>74.8</ele>
        <time>2014-05-29T08:57:00Z</time>
      </trkpt>
      <trkpt lat="48.39152" lon="2.5388">
        <ele>75.2</ele>
        <time>2014-05-29T08:57:01Z</time>
      </trkpt>
      <trkpt lat="48.39152" lon="2.53876">
        <ele>75.6</ele>
        <time>2014-05-29T08:57:02Z</time>
      </trkpt>
      <trkpt lat="48.39153" lon="2.53873">
        <ele>76</ele>
        <time>2014-05-29T08:57:03Z</time>
      </trkpt>
      <trkpt lat="48.39156" lon="2.53857">
        <ele>76</ele>
        <time>2014-05-29T08:57:06Z</time>
      </trkpt>
      <trkpt lat="48.39169" lon="2.53827">
        <ele>76</ele>
        <time>2014-05-29T08:57:11Z</time>
      </trkpt>
      <trkpt lat="48.39172" lon="2.53803">
        <ele>76.4</ele>
        <time>2014-05-29T08:57:16Z</time>
      </trkpt>
      <trkpt lat="48.39173" lon="2.53797">
        <ele>76.8</ele>
        <time>2014-05-29T08:57:17Z</time>
      </trkpt>
      <trkpt lat="48.39173" lon="2.53793">
        <ele>77.2</ele>
        <time>2014-05-29T08:57:18Z</time>
      </trkpt>
      <trkpt lat="48.39173" lon="2.5379">
        <ele>77.6</ele>
        <time>2014-05-29T08:57:19Z</time>
      </trkpt>
      <trkpt lat="48.39173" lon="2.53786">
        <ele>78</ele>
        <time>2014-05-29T08:57:20Z</time>
      </trkpt>
      <trkpt lat="48.39176" lon="2.53769">
        <ele>78.4</ele>
        <time>2014-05-29T08:57:23Z</time>
      </trkpt>
      <trkpt lat="48.39177" lon="2.53763">
        <ele>78.8</ele>
        <time>2014-05-29T08:57:24Z</time>
      </trkpt>
      <trkpt lat="48.39178" lon="2.53757">
        <ele>79.2</ele>
        <time>2014-05-29T08:57:25Z</time>
      </trkpt>
      <trkpt lat="48.39179" lon="2.53752">
        <ele>79.6</ele>
        <time>2014-05-29T08:57:26Z</time>
      </trkpt>
      <trkpt lat="48.3918" lon="2.53748">
        <ele>80</ele>
        <time>2014-05-29T08:57:27Z</time>
      </trkpt>
      <trkpt lat="48.39182" lon="2.53728">
        <ele>80</ele>
        <time>2014-05-29T08:57:32Z</time>
      </trkpt>
      <trkpt lat="48.39185" lon="2.53716">
        <ele>80</ele>
        <time>2014-05-29T08:57:35Z</time>
      </trkpt>
      <trkpt lat="48.39186" lon="2.53709">
        <ele>80</ele>
        <time>2014-05-29T08:57:37Z</time>
      </trkpt>
      <trkpt lat="48.39186" lon="2.53699">
        <ele>80.6</ele>
        <time>2014-05-29T08:57:40Z</time>
      </trkpt>
      <trkpt lat="48.39186" lon="2.53696">
        <ele>81</ele>
        <time>2014-05-29T08:57:41Z</time>
      </trkpt>
      <trkpt lat="48.39185" lon="2.53693">
        <ele>81.6</ele>
        <time>2014-05-29T08:57:42Z</time>
      </trkpt>
      <trkpt lat="48.39185" lon="2.5369">
        <ele>82</ele>
        <time>2014-05-29T08:57:43Z</time>
      </trkpt>
      <trkpt lat="48.39184" lon="2.53688">
        <ele>82.4</ele>
        <time>2014-05-29T08:57:44Z</time>
      </trkpt>
      <trkpt lat="48.39184" lon="2.53681">
        <ele>82.4</ele>
        <time>2014-05-29T08:57:46Z</time>
      </trkpt>
      <trkpt lat="48.39185" lon="2.53668">
        <ele>82.4</ele>
        <time>2014-05-29T08:57:49Z</time>
      </trkpt>
      <trkpt lat="48.39186" lon="2.53656">
        <ele>82.4</ele>
        <time>2014-05-29T08:57:51Z</time>
      </trkpt>
      <trkpt lat="48.39185" lon="2.53647">
        <ele>83</ele>
        <time>2014-05-29T08:57:53Z</time>
      </trkpt>
      <trkpt lat="48.39186" lon="2.53636">
        <ele>84</ele>
        <time>2014-05-29T08:57:57Z</time>
      </trkpt>
      <trkpt lat="48.39187" lon="2.53634">
        <ele>84.6</ele>
        <time>2014-05-29T08:57:58Z</time>
      </trkpt>
      <trkpt lat="48.39188" lon="2.53631">
        <ele>85</ele>
        <time>2014-05-29T08:57:59Z</time>
      </trkpt>
      <trkpt lat="48.39188" lon="2.53627">
        <ele>85</ele>
        <time>2014-05-29T08:58:00Z</time>
      </trkpt>
      <trkpt lat="48.39188" lon="2.53616">
        <ele>85.6</ele>
        <time>2014-05-29T08:58:04Z</time>
      </trkpt>
      <trkpt lat="48.39188" lon="2.53613">
        <ele>86</ele>
        <time>2014-05-29T08:58:05Z</time>
      </trkpt>
      <trkpt lat="48.39189" lon="2.5361">
        <ele>86.6</ele>
        <time>2014-05-29T08:58:06Z</time>
      </trkpt>
      <trkpt lat="48.39189" lon="2.53608">
        <ele>87</ele>
        <time>2014-05-29T08:58:07Z</time>
      </trkpt>
      <trkpt lat="48.3919" lon="2.53606">
        <ele>87.6</ele>
        <time>2014-05-29T08:58:08Z</time>
      </trkpt>
      <trkpt lat="48.39189" lon="2.53603">
        <ele>88</ele>
        <time>2014-05-29T08:58:10Z</time>
      </trkpt>
      <trkpt lat="48.39189" lon="2.53602">
        <ele>88.4</ele>
        <time>2014-05-29T08:58:11Z</time>
      </trkpt>
      <trkpt lat="48.3919" lon="2.536">
        <ele>88.8</ele>
        <time>2014-05-29T08:58:12Z</time>
      </trkpt>
      <trkpt lat="48.3919" lon="2.53599">
        <ele>89.4</ele>
        <time>2014-05-29T08:58:13Z</time>
      </trkpt>
      <trkpt lat="48.3919" lon="2.53598">
        <ele>89.8</ele>
        <time>2014-05-29T08:58:14Z</time>
      </trkpt>
      <trkpt lat="48.39192" lon="2.53595">
        <ele>89.8</ele>
        <time>2014-05-29T08:58:16Z</time>
      </trkpt>
      <trkpt lat="48.39191" lon="2.53584">
        <ele>90.4</ele>
        <time>2014-05-29T08:58:21Z</time>
      </trkpt>
      <trkpt lat="48.3919" lon="2.53582">
        <ele>90.8</ele>
        <time>2014-05-29T08:58:22Z</time>
      </trkpt>
      <trkpt lat="48.3919" lon="2.53575">
        <ele>91.4</ele>
        <time>2014-05-29T08:58:23Z</time>
      </trkpt>
      <trkpt lat="48.39192" lon="2.5357">
        <ele>91.8</ele>
        <time>2014-05-29T08:58:24Z</time>
      </trkpt>
      <trkpt lat="48.39192" lon="2.53565">
        <ele>92.4</ele>
        <time>2014-05-29T08:58:25Z</time>
      </trkpt>
      <trkpt lat="48.39192" lon="2.53559">
        <ele>93.4</ele>
        <time>2014-05-29T08:58:27Z</time>
      </trkpt>
      <trkpt lat="48.39192" lon="2.53556">
        <ele>93.8</ele>
        <time>2014-05-29T08:58:28Z</time>
      </trkpt>
      <trkpt lat="48.39192" lon="2.53553">
        <ele>94.2</ele>
        <time>2014-05-29T08:58:29Z</time>
      </trkpt>
      <trkpt lat="48.39191" lon="2.5355">
        <ele>94.8</ele>
        <time>2014-05-29T08:58:30Z</time>
      </trkpt>
      <trkpt lat="48.39192" lon="2.53542">
        <ele>94.8</ele>
        <time>2014-05-29T08:58:32Z</time>
      </trkpt>
      <trkpt lat="48.39195" lon="2.53521">
        <ele>94.8</ele>
        <time>2014-05-29T08:58:39Z</time>
      </trkpt>
      <trkpt lat="48.3919" lon="2.53501">
        <ele>94.8</ele>
        <time>2014-05-29T08:58:46Z</time>
      </trkpt>
      <trkpt lat="48.3919" lon="2.53494">
        <ele>95.2</ele>
        <time>2014-05-29T08:58:48Z</time>
      </trkpt>
      <trkpt lat="48.3919" lon="2.5349">
        <ele>95.6</ele>
        <time>2014-05-29T08:58:49Z</time>
      </trkpt>
      <trkpt lat="48.39189" lon="2.53488">
        <ele>96</ele>
        <time>2014-05-29T08:58:50Z</time>
      </trkpt>
      <trkpt lat="48.39187" lon="2.53486">
        <ele>96.4</ele>
        <time>2014-05-29T08:58:51Z</time>
      </trkpt>
      <trkpt lat="48.39187" lon="2.53482">
        <ele>96.8</ele>
        <time>2014-05-29T08:58:52Z</time>
      </trkpt>
      <trkpt lat="48.39186" lon="2.53465">
        <ele>96.8</ele>
        <time>2014-05-29T08:58:56Z</time>
      </trkpt>
      <trkpt lat="48.39182" lon="2.53453">
        <ele>96.8</ele>
        <time>2014-05-29T08:58:59Z</time>
      </trkpt>
      <trkpt lat="48.39178" lon="2.53444">
        <ele>96.8</ele>
        <time>2014-05-29T08:59:01Z</time>
      </trkpt>
      <trkpt lat="48.39181" lon="2.53427">
        <ele>96.8</ele>
        <time>2014-05-29T08:59:04Z</time>
      </trkpt>
      <trkpt lat="48.39183" lon="2.53417">
        <ele>96.8</ele>
        <time>2014-05-29T08:59:06Z</time>
      </trkpt>
      <trkpt lat="48.39189" lon="2.53398">
        <ele>96.8</ele>
        <time>2014-05-29T08:59:09Z</time>
      </trkpt>
      <trkpt lat="48.39192" lon="2.5339">
        <ele>96.8</ele>
        <time>2014-05-29T08:59:11Z</time>
      </trkpt>
      <trkpt lat="48.39197" lon="2.53381">
        <ele>96.8</ele>
        <time>2014-05-29T08:59:13Z</time>
      </trkpt>
      <trkpt lat="48.39204" lon="2.53372">
        <ele>96.8</ele>
        <time>2014-05-29T08:59:16Z</time>
      </trkpt>
      <trkpt lat="48.39205" lon="2.53368">
        <ele>96.8</ele>
        <time>2014-05-29T08:59:18Z</time>
      </trkpt>
      <trkpt lat="48.39206" lon="2.53364">
        <ele>96.8</ele>
        <time>2014-05-29T08:59:20Z</time>
      </trkpt>
      <trkpt lat="48.39207" lon="2.53363">
        <ele>96.8</ele>
        <time>2014-05-29T08:59:21Z</time>
      </trkpt>
      <trkpt lat="48.39207" lon="2.53361">
        <ele>96.8</ele>
        <time>2014-05-29T08:59:22Z</time>
      </trkpt>
      <trkpt lat="48.39207" lon="2.53359">
        <ele>96.8</ele>
        <time>2014-05-29T08:59:23Z</time>
      </trkpt>
      <trkpt lat="48.39208" lon="2.53357">
        <ele>96.8</ele>
        <time>2014-05-29T08:59:25Z</time>
      </trkpt>
      <trkpt lat="48.39208" lon="2.53359">
        <ele>96.8</ele>
        <time>2014-05-29T08:59:26Z</time>
      </trkpt>
      <trkpt lat="48.39211" lon="2.53363">
        <ele>96.8</ele>
        <time>2014-05-29T08:59:29Z</time>
      </trkpt>
      <trkpt lat="48.39216" lon="2.53366">
        <ele>96.8</ele>
        <time>2014-05-29T08:59:34Z</time>
      </trkpt>
      <trkpt lat="48.39218" lon="2.53364">
        <ele>96.8</ele>
        <time>2014-05-29T08:59:36Z</time>
      </trkpt>
      <trkpt lat="48.39218" lon="2.53362">
        <ele>96.8</ele>
        <time>2014-05-29T08:59:39Z</time>
      </trkpt>
      <trkpt lat="48.39211" lon="2.53366">
        <ele>94.4</ele>
        <time>2014-05-29T09:02:03Z</time>
      </trkpt>
      <trkpt lat="48.39215" lon="2.53366">
        <ele>94.4</ele>
        <time>2014-05-29T09:02:04Z</time>
      </trkpt>
      <trkpt lat="48.39221" lon="2.53367">
        <ele>94.4</ele>
        <time>2014-05-29T09:02:06Z</time>
      </trkpt>
      <trkpt lat="48.39229" lon="2.53383">
        <ele>94.4</ele>
        <time>2014-05-29T09:02:10Z</time>
      </trkpt>
      <trkpt lat="48.39237" lon="2.53408">
        <ele>94.4</ele>
        <time>2014-05-29T09:02:16Z</time>
      </trkpt>
      <trkpt lat="48.39239" lon="2.53412">
        <ele>95</ele>
        <time>2014-05-29T09:02:17Z</time>
      </trkpt>
      <trkpt lat="48.3924" lon="2.53416">
        <ele>95.4</ele>
        <time>2014-05-29T09:02:18Z</time>
      </trkpt>
      <trkpt lat="48.3924" lon="2.53421">
        <ele>95.8</ele>
        <time>2014-05-29T09:02:19Z</time>
      </trkpt>
      <trkpt lat="48.3924" lon="2.53425">
        <ele>96.2</ele>
        <time>2014-05-29T09:02:20Z</time>
      </trkpt>
      <trkpt lat="48.39241" lon="2.5343">
        <ele>96.6</ele>
        <time>2014-05-29T09:02:21Z</time>
      </trkpt>
      <trkpt lat="48.39242" lon="2.5344">
        <ele>96.6</ele>
        <time>2014-05-29T09:02:23Z</time>
      </trkpt>
      <trkpt lat="48.39242" lon="2.53444">
        <ele>96.6</ele>
        <time>2014-05-29T09:02:24Z</time>
      </trkpt>
      <trkpt lat="48.39241" lon="2.53455">
        <ele>96.6</ele>
        <time>2014-05-29T09:02:26Z</time>
      </trkpt>
      <trkpt lat="48.39241" lon="2.53471">
        <ele>96.6</ele>
        <time>2014-05-29T09:02:29Z</time>
      </trkpt>
      <trkpt lat="48.39241" lon="2.53483">
        <ele>96.6</ele>
        <time>2014-05-29T09:02:31Z</time>
      </trkpt>
      <trkpt lat="48.39243" lon="2.53504">
        <ele>96.6</ele>
        <time>2014-05-29T09:02:35Z</time>
      </trkpt>
      <trkpt lat="48.39247" lon="2.53521">
        <ele>96.6</ele>
        <time>2014-05-29T09:02:38Z</time>
      </trkpt>
      <trkpt lat="48.39249" lon="2.53534">
        <ele>96.6</ele>
        <time>2014-05-29T09:02:40Z</time>
      </trkpt>
      <trkpt lat="48.39257" lon="2.53554">
        <ele>96.6</ele>
        <time>2014-05-29T09:02:45Z</time>
      </trkpt>
      <trkpt lat="48.39261" lon="2.53561">
        <ele>96.2</ele>
        <time>2014-05-29T09:02:47Z</time>
      </trkpt>
      <trkpt lat="48.39262" lon="2.53565">
        <ele>95.8</ele>
        <time>2014-05-29T09:02:48Z</time>
      </trkpt>
      <trkpt lat="48.39261" lon="2.53575">
        <ele>95.4</ele>
        <time>2014-05-29T09:02:49Z</time>
      </trkpt>
      <trkpt lat="48.3926" lon="2.53581">
        <ele>94.8</ele>
        <time>2014-05-29T09:02:50Z</time>
      </trkpt>
      <trkpt lat="48.39259" lon="2.53585">
        <ele>94.4</ele>
        <time>2014-05-29T09:02:51Z</time>
      </trkpt>
      <trkpt lat="48.39259" lon="2.53588">
        <ele>94.4</ele>
        <time>2014-05-29T09:02:52Z</time>
      </trkpt>
      <trkpt lat="48.39258" lon="2.53589">
        <ele>94.4</ele>
        <time>2014-05-29T09:02:53Z</time>
      </trkpt>
      <trkpt lat="48.39258" lon="2.53591">
        <ele>94.4</ele>
        <time>2014-05-29T09:02:54Z</time>
      </trkpt>
      <trkpt lat="48.39258" lon="2.53594">
        <ele>94.4</ele>
        <time>2014-05-29T09:02:56Z</time>
      </trkpt>
      <trkpt lat="48.39258" lon="2.53595">
        <ele>94.4</ele>
        <time>2014-05-29T09:02:58Z</time>
      </trkpt>
      <trkpt lat="48.39255" lon="2.53618">
        <ele>92.2</ele>
        <time>2014-05-29T09:11:25Z</time>
      </trkpt>
      <trkpt lat="48.39257" lon="2.5362">
        <ele>92.2</ele>
        <time>2014-05-29T09:11:26Z</time>
      </trkpt>
      <trkpt lat="48.3926" lon="2.53632">
        <ele>92.2</ele>
        <time>2014-05-29T09:11:30Z</time>
      </trkpt>
      <trkpt lat="48.39263" lon="2.53652">
        <ele>92.2</ele>
        <time>2014-05-29T09:11:35Z</time>
      </trkpt>
      <trkpt lat="48.39263" lon="2.53656">
        <ele>92.2</ele>
        <time>2014-05-29T09:11:36Z</time>
      </trkpt>
      <trkpt lat="48.39265" lon="2.53677">
        <ele>92.2</ele>
        <time>2014-05-29T09:11:42Z</time>
      </trkpt>
      <trkpt lat="48.39261" lon="2.53693">
        <ele>92.2</ele>
        <time>2014-05-29T09:11:46Z</time>
      </trkpt>
      <trkpt lat="48.39261" lon="2.537">
        <ele>92.2</ele>
        <time>2014-05-29T09:11:48Z</time>
      </trkpt>
      <trkpt lat="48.39261" lon="2.53719">
        <ele>92.2</ele>
        <time>2014-05-29T09:11:52Z</time>
      </trkpt>
      <trkpt lat="48.39261" lon="2.53724">
        <ele>92.2</ele>
        <time>2014-05-29T09:11:53Z</time>
      </trkpt>
      <trkpt lat="48.39263" lon="2.53752">
        <ele>92.2</ele>
        <time>2014-05-29T09:12:00Z</time>
      </trkpt>
      <trkpt lat="48.39264" lon="2.53764">
        <ele>92.2</ele>
        <time>2014-05-29T09:12:04Z</time>
      </trkpt>
      <trkpt lat="48.39266" lon="2.53769">
        <ele>92.2</ele>
        <time>2014-05-29T09:12:06Z</time>
      </trkpt>
      <trkpt lat="48.39278" lon="2.53776">
        <ele>92.2</ele>
        <time>2014-05-29T09:12:11Z</time>
      </trkpt>
      <trkpt lat="48.39278" lon="2.53781">
        <ele>92.2</ele>
        <time>2014-05-29T09:12:12Z</time>
      </trkpt>
      <trkpt lat="48.39277" lon="2.53786">
        <ele>92.2</ele>
        <time>2014-05-29T09:12:13Z</time>
      </trkpt>
      <trkpt lat="48.39278" lon="2.5379">
        <ele>92.2</ele>
        <time>2014-05-29T09:12:14Z</time>
      </trkpt>
      <trkpt lat="48.39278" lon="2.53792">
        <ele>92.2</ele>
        <time>2014-05-29T09:12:15Z</time>
      </trkpt>
      <trkpt lat="48.39279" lon="2.53794">
        <ele>92.2</ele>
        <time>2014-05-29T09:12:16Z</time>
      </trkpt>
      <trkpt lat="48.39282" lon="2.53794">
        <ele>92.2</ele>
        <time>2014-05-29T09:12:18Z</time>
      </trkpt>
      <trkpt lat="48.39285" lon="2.53794">
        <ele>92.2</ele>
        <time>2014-05-29T09:12:19Z</time>
      </trkpt>
      <trkpt lat="48.39288" lon="2.53793">
        <ele>92.2</ele>
        <time>2014-05-29T09:12:20Z</time>
      </trkpt>
      <trkpt lat="48.39296" lon="2.5379">
        <ele>92.6</ele>
        <time>2014-05-29T09:12:24Z</time>
      </trkpt>
      <trkpt lat="48.39298" lon="2.5379">
        <ele>93.2</ele>
        <time>2014-05-29T09:12:25Z</time>
      </trkpt>
      <trkpt lat="48.393" lon="2.53789">
        <ele>93.6</ele>
        <time>2014-05-29T09:12:26Z</time>
      </trkpt>
      <trkpt lat="48.39302" lon="2.53789">
        <ele>94</ele>
        <time>2014-05-29T09:12:27Z</time>
      </trkpt>
      <trkpt lat="48.39304" lon="2.53789">
        <ele>94.4</ele>
        <time>2014-05-29T09:12:28Z</time>
      </trkpt>
      <trkpt lat="48.39313" lon="2.53784">
        <ele>94.4</ele>
        <time>2014-05-29T09:12:32Z</time>
      </trkpt>
      <trkpt lat="48.39328" lon="2.53779">
        <ele>94.4</ele>
        <time>2014-05-29T09:12:37Z</time>
      </trkpt>
      <trkpt lat="48.39341" lon="2.53776">
        <ele>94.4</ele>
        <time>2014-05-29T09:12:43Z</time>
      </trkpt>
      <trkpt lat="48.39353" lon="2.53765">
        <ele>94.8</ele>
        <time>2014-05-29T09:12:47Z</time>
      </trkpt>
      <trkpt lat="48.39357" lon="2.53761">
        <ele>95.4</ele>
        <time>2014-05-29T09:12:48Z</time>
      </trkpt>
      <trkpt lat="48.39359" lon="2.5376">
        <ele>95.8</ele>
        <time>2014-05-29T09:12:49Z</time>
      </trkpt>
      <trkpt lat="48.39365" lon="2.53755">
        <ele>96.2</ele>
        <time>2014-05-29T09:12:50Z</time>
      </trkpt>
      <trkpt lat="48.39369" lon="2.53752">
        <ele>96.6</ele>
        <time>2014-05-29T09:12:51Z</time>
      </trkpt>
      <trkpt lat="48.39377" lon="2.53749">
        <ele>96.6</ele>
        <time>2014-05-29T09:12:53Z</time>
      </trkpt>
      <trkpt lat="48.39394" lon="2.53747">
        <ele>96.6</ele>
        <time>2014-05-29T09:12:57Z</time>
      </trkpt>
      <trkpt lat="48.39416" lon="2.53742">
        <ele>96.6</ele>
        <time>2014-05-29T09:13:03Z</time>
      </trkpt>
      <trkpt lat="48.39427" lon="2.53738">
        <ele>96.6</ele>
        <time>2014-05-29T09:13:06Z</time>
      </trkpt>
      <trkpt lat="48.39431" lon="2.53739">
        <ele>96.6</ele>
        <time>2014-05-29T09:13:07Z</time>
      </trkpt>
      <trkpt lat="48.3945" lon="2.53756">
        <ele>96.6</ele>
        <time>2014-05-29T09:13:13Z</time>
      </trkpt>
      <trkpt lat="48.39463" lon="2.53756">
        <ele>96.6</ele>
        <time>2014-05-29T09:13:17Z</time>
      </trkpt>
      <trkpt lat="48.39469" lon="2.53752">
        <ele>96.6</ele>
        <time>2014-05-29T09:13:18Z</time>
      </trkpt>
      <trkpt lat="48.39491" lon="2.53751">
        <ele>96.6</ele>
        <time>2014-05-29T09:13:24Z</time>
      </trkpt>
      <trkpt lat="48.39497" lon="2.53753">
        <ele>97</ele>
        <time>2014-05-29T09:13:26Z</time>
      </trkpt>
      <trkpt lat="48.39501" lon="2.53757">
        <ele>97.4</ele>
        <time>2014-05-29T09:13:27Z</time>
      </trkpt>
      <trkpt lat="48.39505" lon="2.53759">
        <ele>98</ele>
        <time>2014-05-29T09:13:28Z</time>
      </trkpt>
      <trkpt lat="48.39509" lon="2.53761">
        <ele>98.4</ele>
        <time>2014-05-29T09:13:29Z</time>
      </trkpt>
      <trkpt lat="48.39513" lon="2.53761">
        <ele>98.8</ele>
        <time>2014-05-29T09:13:30Z</time>
      </trkpt>
      <trkpt lat="48.39525" lon="2.53762">
        <ele>98.8</ele>
        <time>2014-05-29T09:13:33Z</time>
      </trkpt>
      <trkpt lat="48.39546" lon="2.5377">
        <ele>98.8</ele>
        <time>2014-05-29T09:13:39Z</time>
      </trkpt>
      <trkpt lat="48.39549" lon="2.53771">
        <ele>98.8</ele>
        <time>2014-05-29T09:13:40Z</time>
      </trkpt>
      <trkpt lat="48.39552" lon="2.53771">
        <ele>98.8</ele>
        <time>2014-05-29T09:13:41Z</time>
      </trkpt>
      <trkpt lat="48.39567" lon="2.53769">
        <ele>98.8</ele>
        <time>2014-05-29T09:13:45Z</time>
      </trkpt>
      <trkpt lat="48.3957" lon="2.53773">
        <ele>98.8</ele>
        <time>2014-05-29T09:13:46Z</time>
      </trkpt>
      <trkpt lat="48.39577" lon="2.53777">
        <ele>98.8</ele>
        <time>2014-05-29T09:13:48Z</time>
      </trkpt>
      <trkpt lat="48.3958" lon="2.53777">
        <ele>98.8</ele>
        <time>2014-05-29T09:13:49Z</time>
      </trkpt>
      <trkpt lat="48.39581" lon="2.5378">
        <ele>98.8</ele>
        <time>2014-05-29T09:13:52Z</time>
      </trkpt>
      <trkpt lat="48.39585" lon="2.5378">
        <ele>98.8</ele>
        <time>2014-05-29T09:13:54Z</time>
      </trkpt>
      <trkpt lat="48.39592" lon="2.53781">
        <ele>98.8</ele>
        <time>2014-05-29T09:13:56Z</time>
      </trkpt>
      <trkpt lat="48.39596" lon="2.53783">
        <ele>98.8</ele>
        <time>2014-05-29T09:13:57Z</time>
      </trkpt>
      <trkpt lat="48.39607" lon="2.53782">
        <ele>98.8</ele>
        <time>2014-05-29T09:14:00Z</time>
      </trkpt>
      <trkpt lat="48.39613" lon="2.53785">
        <ele>98.8</ele>
        <time>2014-05-29T09:14:02Z</time>
      </trkpt>
      <trkpt lat="48.39615" lon="2.53788">
        <ele>98.8</ele>
        <time>2014-05-29T09:14:03Z</time>
      </trkpt>
      <trkpt lat="48.39616" lon="2.53791">
        <ele>98.8</ele>
        <time>2014-05-29T09:14:04Z</time>
      </trkpt>
      <trkpt lat="48.39625" lon="2.53793">
        <ele>98.8</ele>
        <time>2014-05-29T09:14:08Z</time>
      </trkpt>
      <trkpt lat="48.39629" lon="2.53789">
        <ele>98.8</ele>
        <time>2014-05-29T09:14:10Z</time>
      </trkpt>
      <trkpt lat="48.39632" lon="2.5379">
        <ele>98.8</ele>
        <time>2014-05-29T09:14:11Z</time>
      </trkpt>
      <trkpt lat="48.39643" lon="2.53788">
        <ele>98.8</ele>
        <time>2014-05-29T09:14:14Z</time>
      </trkpt>
      <trkpt lat="48.39651" lon="2.5378">
        <ele>98.8</ele>
        <time>2014-05-29T09:14:17Z</time>
      </trkpt>
      <trkpt lat="48.39651" lon="2.53775">
        <ele>98.8</ele>
        <time>2014-05-29T09:14:18Z</time>
      </trkpt>
      <trkpt lat="48.39647" lon="2.5376">
        <ele>98.8</ele>
        <time>2014-05-29T09:14:22Z</time>
      </trkpt>
      <trkpt lat="48.39641" lon="2.53755">
        <ele>98.8</ele>
        <time>2014-05-29T09:14:25Z</time>
      </trkpt>
      <trkpt lat="48.39638" lon="2.53749">
        <ele>98.8</ele>
        <time>2014-05-29T09:14:27Z</time>
      </trkpt>
      <trkpt lat="48.39637" lon="2.53723">
        <ele>98.8</ele>
        <time>2014-05-29T09:14:32Z</time>
      </trkpt>
      <trkpt lat="48.39638" lon="2.53721">
        <ele>98.8</ele>
        <time>2014-05-29T09:14:33Z</time>
      </trkpt>
      <trkpt lat="48.39638" lon="2.53717">
        <ele>98.8</ele>
        <time>2014-05-29T09:14:35Z</time>
      </trkpt>
      <trkpt lat="48.39637" lon="2.5371">
        <ele>98.8</ele>
        <time>2014-05-29T09:14:37Z</time>
      </trkpt>
      <trkpt lat="48.39637" lon="2.53701">
        <ele>98.8</ele>
        <time>2014-05-29T09:14:39Z</time>
      </trkpt>
      <trkpt lat="48.39636" lon="2.5368">
        <ele>98.8</ele>
        <time>2014-05-29T09:14:45Z</time>
      </trkpt>
      <trkpt lat="48.39637" lon="2.53679">
        <ele>98.8</ele>
        <time>2014-05-29T09:14:47Z</time>
      </trkpt>
      <trkpt lat="48.39641" lon="2.53675">
        <ele>98.8</ele>
        <time>2014-05-29T09:14:50Z</time>
      </trkpt>
      <trkpt lat="48.39642" lon="2.53673">
        <ele>98.8</ele>
        <time>2014-05-29T09:14:52Z</time>
      </trkpt>
      <trkpt lat="48.39642" lon="2.53656">
        <ele>98.8</ele>
        <time>2014-05-29T09:14:59Z</time>
      </trkpt>
      <trkpt lat="48.39656" lon="2.53643">
        <ele>98.8</ele>
        <time>2014-05-29T09:15:07Z</time>
      </trkpt>
      <trkpt lat="48.39668" lon="2.53627">
        <ele>98.8</ele>
        <time>2014-05-29T09:15:13Z</time>
      </trkpt>
      <trkpt lat="48.39671" lon="2.53626">
        <ele>98.8</ele>
        <time>2014-05-29T09:15:14Z</time>
      </trkpt>
      <trkpt lat="48.39675" lon="2.53623">
        <ele>98.8</ele>
        <time>2014-05-29T09:15:16Z</time>
      </trkpt>
      <trkpt lat="48.39676" lon="2.53621">
        <ele>98.8</ele>
        <time>2014-05-29T09:15:17Z</time>
      </trkpt>
      <trkpt lat="48.39677" lon="2.5362">
        <ele>98.8</ele>
        <time>2014-05-29T09:15:18Z</time>
      </trkpt>
      <trkpt lat="48.39678" lon="2.53619">
        <ele>98.8</ele>
        <time>2014-05-29T09:15:19Z</time>
      </trkpt>
      <trkpt lat="48.39679" lon="2.53616">
        <ele>98.8</ele>
        <time>2014-05-29T09:15:20Z</time>
      </trkpt>
      <trkpt lat="48.39681" lon="2.53596">
        <ele>98.8</ele>
        <time>2014-05-29T09:15:27Z</time>
      </trkpt>
      <trkpt lat="48.39682" lon="2.53589">
        <ele>98.8</ele>
        <time>2014-05-29T09:15:31Z</time>
      </trkpt>
      <trkpt lat="48.39678" lon="2.53581">
        <ele>98.8</ele>
        <time>2014-05-29T09:15:34Z</time>
      </trkpt>
      <trkpt lat="48.39673" lon="2.53577">
        <ele>99.2</ele>
        <time>2014-05-29T09:15:36Z</time>
      </trkpt>
      <trkpt lat="48.39672" lon="2.53575">
        <ele>99.6</ele>
        <time>2014-05-29T09:15:37Z</time>
      </trkpt>
      <trkpt lat="48.39672" lon="2.53572">
        <ele>100</ele>
        <time>2014-05-29T09:15:38Z</time>
      </trkpt>
      <trkpt lat="48.39671" lon="2.5357">
        <ele>100.4</ele>
        <time>2014-05-29T09:15:39Z</time>
      </trkpt>
      <trkpt lat="48.39671" lon="2.53565">
        <ele>100.8</ele>
        <time>2014-05-29T09:15:40Z</time>
      </trkpt>
      <trkpt lat="48.39672" lon="2.53561">
        <ele>100.8</ele>
        <time>2014-05-29T09:15:41Z</time>
      </trkpt>
      <trkpt lat="48.39671" lon="2.53547">
        <ele>100.8</ele>
        <time>2014-05-29T09:15:45Z</time>
      </trkpt>
      <trkpt lat="48.3967" lon="2.53544">
        <ele>100.8</ele>
        <time>2014-05-29T09:15:46Z</time>
      </trkpt>
      <trkpt lat="48.39672" lon="2.53523">
        <ele>100.8</ele>
        <time>2014-05-29T09:15:50Z</time>
      </trkpt>
      <trkpt lat="48.39676" lon="2.53488">
        <ele>100.8</ele>
        <time>2014-05-29T09:15:55Z</time>
      </trkpt>
      <trkpt lat="48.39684" lon="2.53462">
        <ele>100.8</ele>
        <time>2014-05-29T09:16:00Z</time>
      </trkpt>
      <trkpt lat="48.39686" lon="2.53456">
        <ele>100.8</ele>
        <time>2014-05-29T09:16:01Z</time>
      </trkpt>
      <trkpt lat="48.39701" lon="2.5342">
        <ele>100.8</ele>
        <time>2014-05-29T09:16:07Z</time>
      </trkpt>
      <trkpt lat="48.39712" lon="2.53391">
        <ele>100.8</ele>
        <time>2014-05-29T09:16:12Z</time>
      </trkpt>
      <trkpt lat="48.39716" lon="2.53381">
        <ele>100.8</ele>
        <time>2014-05-29T09:16:14Z</time>
      </trkpt>
      <trkpt lat="48.39726" lon="2.53355">
        <ele>100.8</ele>
        <time>2014-05-29T09:16:20Z</time>
      </trkpt>
      <trkpt lat="48.39734" lon="2.53325">
        <ele>100.8</ele>
        <time>2014-05-29T09:16:26Z</time>
      </trkpt>
      <trkpt lat="48.3974" lon="2.53295">
        <ele>100.8</ele>
        <time>2014-05-29T09:16:32Z</time>
      </trkpt>
      <trkpt lat="48.39743" lon="2.5329">
        <ele>100.8</ele>
        <time>2014-05-29T09:16:35Z</time>
      </trkpt>
      <trkpt lat="48.39744" lon="2.53289">
        <ele>100.8</ele>
        <time>2014-05-29T09:16:36Z</time>
      </trkpt>
      <trkpt lat="48.39746" lon="2.5327">
        <ele>100.8</ele>
        <time>2014-05-29T09:16:41Z</time>
      </trkpt>
      <trkpt lat="48.39741" lon="2.53247">
        <ele>100.8</ele>
        <time>2014-05-29T09:16:48Z</time>
      </trkpt>
      <trkpt lat="48.39735" lon="2.5323">
        <ele>100.8</ele>
        <time>2014-05-29T09:16:53Z</time>
      </trkpt>
      <trkpt lat="48.39735" lon="2.53225">
        <ele>100.8</ele>
        <time>2014-05-29T09:16:54Z</time>
      </trkpt>
      <trkpt lat="48.39736" lon="2.53219">
        <ele>100.8</ele>
        <time>2014-05-29T09:16:55Z</time>
      </trkpt>
      <trkpt lat="48.39737" lon="2.53202">
        <ele>100.8</ele>
        <time>2014-05-29T09:16:59Z</time>
      </trkpt>
      <trkpt lat="48.39733" lon="2.53195">
        <ele>100.8</ele>
        <time>2014-05-29T09:17:05Z</time>
      </trkpt>
      <trkpt lat="48.39729" lon="2.53189">
        <ele>100.8</ele>
        <time>2014-05-29T09:17:08Z</time>
      </trkpt>
      <trkpt lat="48.39722" lon="2.53182">
        <ele>100.8</ele>
        <time>2014-05-29T09:17:11Z</time>
      </trkpt>
      <trkpt lat="48.39712" lon="2.53171">
        <ele>100.8</ele>
        <time>2014-05-29T09:17:16Z</time>
      </trkpt>
      <trkpt lat="48.39704" lon="2.53164">
        <ele>100.8</ele>
        <time>2014-05-29T09:17:21Z</time>
      </trkpt>
      <trkpt lat="48.39697" lon="2.53162">
        <ele>100.8</ele>
        <time>2014-05-29T09:17:23Z</time>
      </trkpt>
      <trkpt lat="48.39684" lon="2.53137">
        <ele>100.8</ele>
        <time>2014-05-29T09:17:28Z</time>
      </trkpt>
      <trkpt lat="48.39672" lon="2.53117">
        <ele>100.8</ele>
        <time>2014-05-29T09:17:33Z</time>
      </trkpt>
      <trkpt lat="48.39669" lon="2.53106">
        <ele>100.8</ele>
        <time>2014-05-29T09:17:36Z</time>
      </trkpt>
      <trkpt lat="48.39666" lon="2.53104">
        <ele>100.8</ele>
        <time>2014-05-29T09:17:37Z</time>
      </trkpt>
      <trkpt lat="48.3966" lon="2.53098">
        <ele>100.8</ele>
        <time>2014-05-29T09:17:39Z</time>
      </trkpt>
      <trkpt lat="48.39656" lon="2.53094">
        <ele>100.8</ele>
        <time>2014-05-29T09:17:43Z</time>
      </trkpt>
      <trkpt lat="48.39655" lon="2.53089">
        <ele>100.8</ele>
        <time>2014-05-29T09:17:44Z</time>
      </trkpt>
      <trkpt lat="48.39653" lon="2.5308">
        <ele>100.8</ele>
        <time>2014-05-29T09:17:46Z</time>
      </trkpt>
      <trkpt lat="48.39648" lon="2.53068">
        <ele>100.8</ele>
        <time>2014-05-29T09:17:48Z</time>
      </trkpt>
      <trkpt lat="48.39648" lon="2.53041">
        <ele>100.8</ele>
        <time>2014-05-29T09:17:51Z</time>
      </trkpt>
      <trkpt lat="48.39655" lon="2.53011">
        <ele>100.8</ele>
        <time>2014-05-29T09:17:54Z</time>
      </trkpt>
      <trkpt lat="48.39658" lon="2.53004">
        <ele>100.8</ele>
        <time>2014-05-29T09:17:55Z</time>
      </trkpt>
      <trkpt lat="48.39661" lon="2.52998">
        <ele>100.8</ele>
        <time>2014-05-29T09:17:56Z</time>
      </trkpt>
      <trkpt lat="48.39668" lon="2.52984">
        <ele>100.8</ele>
        <time>2014-05-29T09:17:59Z</time>
      </trkpt>
      <trkpt lat="48.39675" lon="2.52978">
        <ele>100.8</ele>
        <time>2014-05-29T09:18:01Z</time>
      </trkpt>
      <trkpt lat="48.39683" lon="2.52976">
        <ele>100.8</ele>
        <time>2014-05-29T09:18:03Z</time>
      </trkpt>
      <trkpt lat="48.39689" lon="2.52978">
        <ele>100.8</ele>
        <time>2014-05-29T09:18:05Z</time>
      </trkpt>
      <trkpt lat="48.39696" lon="2.52975">
        <ele>100.8</ele>
        <time>2014-05-29T09:18:09Z</time>
      </trkpt>
      <trkpt lat="48.39698" lon="2.52973">
        <ele>100.8</ele>
        <time>2014-05-29T09:18:10Z</time>
      </trkpt>
      <trkpt lat="48.39702" lon="2.52963">
        <ele>100.8</ele>
        <time>2014-05-29T09:18:13Z</time>
      </trkpt>
      <trkpt lat="48.39702" lon="2.52954">
        <ele>101.2</ele>
        <time>2014-05-29T09:18:16Z</time>
      </trkpt>
      <trkpt lat="48.39703" lon="2.52952">
        <ele>101.6</ele>
        <time>2014-05-29T09:18:17Z</time>
      </trkpt>
      <trkpt lat="48.39704" lon="2.52949">
        <ele>102.2</ele>
        <time>2014-05-29T09:18:18Z</time>
      </trkpt>
      <trkpt lat="48.39706" lon="2.52947">
        <ele>102.6</ele>
        <time>2014-05-29T09:18:19Z</time>
      </trkpt>
      <trkpt lat="48.39708" lon="2.52945">
        <ele>103</ele>
        <time>2014-05-29T09:18:20Z</time>
      </trkpt>
      <trkpt lat="48.39711" lon="2.52941">
        <ele>103</ele>
        <time>2014-05-29T09:18:22Z</time>
      </trkpt>
      <trkpt lat="48.39716" lon="2.52943">
        <ele>103</ele>
        <time>2014-05-29T09:18:24Z</time>
      </trkpt>
      <trkpt lat="48.39719" lon="2.52945">
        <ele>103</ele>
        <time>2014-05-29T09:18:25Z</time>
      </trkpt>
      <trkpt lat="48.39725" lon="2.52953">
        <ele>103</ele>
        <time>2014-05-29T09:18:29Z</time>
      </trkpt>
      <trkpt lat="48.39728" lon="2.52952">
        <ele>103</ele>
        <time>2014-05-29T09:18:30Z</time>
      </trkpt>
      <trkpt lat="48.39739" lon="2.5295">
        <ele>103</ele>
        <time>2014-05-29T09:18:35Z</time>
      </trkpt>
      <trkpt lat="48.39742" lon="2.52946">
        <ele>103</ele>
        <time>2014-05-29T09:18:38Z</time>
      </trkpt>
      <trkpt lat="48.39743" lon="2.52944">
        <ele>103</ele>
        <time>2014-05-29T09:18:39Z</time>
      </trkpt>
      <trkpt lat="48.39744" lon="2.52943">
        <ele>103</ele>
        <time>2014-05-29T09:18:40Z</time>
      </trkpt>
      <trkpt lat="48.39746" lon="2.52941">
        <ele>103</ele>
        <time>2014-05-29T09:18:42Z</time>
      </trkpt>
      <trkpt lat="48.39753" lon="2.52928">
        <ele>103</ele>
        <time>2014-05-29T09:18:47Z</time>
      </trkpt>
      <trkpt lat="48.39754" lon="2.52916">
        <ele>103</ele>
        <time>2014-05-29T09:18:51Z</time>
      </trkpt>
      <trkpt lat="48.39753" lon="2.52909">
        <ele>103</ele>
        <time>2014-05-29T09:18:53Z</time>
      </trkpt>
      <trkpt lat="48.39754" lon="2.52906">
        <ele>103</ele>
        <time>2014-05-29T09:18:54Z</time>
      </trkpt>
      <trkpt lat="48.39766" lon="2.5289">
        <ele>103</ele>
        <time>2014-05-29T09:19:00Z</time>
      </trkpt>
      <trkpt lat="48.39768" lon="2.52872">
        <ele>103</ele>
        <time>2014-05-29T09:19:07Z</time>
      </trkpt>
      <trkpt lat="48.39769" lon="2.5286">
        <ele>102.6</ele>
        <time>2014-05-29T09:19:12Z</time>
      </trkpt>
      <trkpt lat="48.39768" lon="2.52859">
        <ele>102.2</ele>
        <time>2014-05-29T09:19:13Z</time>
      </trkpt>
      <trkpt lat="48.39768" lon="2.52859">
        <ele>101.8</ele>
        <time>2014-05-29T09:19:14Z</time>
      </trkpt>
      <trkpt lat="48.39769" lon="2.52856">
        <ele>101.8</ele>
        <time>2014-05-29T09:19:15Z</time>
      </trkpt>
      <trkpt lat="48.39771" lon="2.52853">
        <ele>101.2</ele>
        <time>2014-05-29T09:19:16Z</time>
      </trkpt>
      <trkpt lat="48.39772" lon="2.52851">
        <ele>100.8</ele>
        <time>2014-05-29T09:19:17Z</time>
      </trkpt>
      <trkpt lat="48.39773" lon="2.52851">
        <ele>100.8</ele>
        <time>2014-05-29T09:19:19Z</time>
      </trkpt>
      <trkpt lat="48.39775" lon="2.52848">
        <ele>100.8</ele>
        <time>2014-05-29T09:19:20Z</time>
      </trkpt>
      <trkpt lat="48.3978" lon="2.52847">
        <ele>100.8</ele>
        <time>2014-05-29T09:19:24Z</time>
      </trkpt>
      <trkpt lat="48.39784" lon="2.52844">
        <ele>100.8</ele>
        <time>2014-05-29T09:19:26Z</time>
      </trkpt>
      <trkpt lat="48.39789" lon="2.52836">
        <ele>100.8</ele>
        <time>2014-05-29T09:19:30Z</time>
      </trkpt>
      <trkpt lat="48.39792" lon="2.52833">
        <ele>100.8</ele>
        <time>2014-05-29T09:19:32Z</time>
      </trkpt>
      <trkpt lat="48.39792" lon="2.52832">
        <ele>100.8</ele>
        <time>2014-05-29T09:19:33Z</time>
      </trkpt>
      <trkpt lat="48.39799" lon="2.52829">
        <ele>100.8</ele>
        <time>2014-05-29T09:19:37Z</time>
      </trkpt>
      <trkpt lat="48.39804" lon="2.52826">
        <ele>100.8</ele>
        <time>2014-05-29T09:19:40Z</time>
      </trkpt>
      <trkpt lat="48.39807" lon="2.52826">
        <ele>100.8</ele>
        <time>2014-05-29T09:19:42Z</time>
      </trkpt>
      <trkpt lat="48.39817" lon="2.52834">
        <ele>100.8</ele>
        <time>2014-05-29T09:19:48Z</time>
      </trkpt>
      <trkpt lat="48.3982" lon="2.52831">
        <ele>100.8</ele>
        <time>2014-05-29T09:19:49Z</time>
      </trkpt>
      <trkpt lat="48.39824" lon="2.52831">
        <ele>100.8</ele>
        <time>2014-05-29T09:19:51Z</time>
      </trkpt>
      <trkpt lat="48.39827" lon="2.52827">
        <ele>100.8</ele>
        <time>2014-05-29T09:19:56Z</time>
      </trkpt>
      <trkpt lat="48.39828" lon="2.52827">
        <ele>100.8</ele>
        <time>2014-05-29T09:19:59Z</time>
      </trkpt>
      <trkpt lat="48.3983" lon="2.52822">
        <ele>100.8</ele>
        <time>2014-05-29T09:20:00Z</time>
      </trkpt>
      <trkpt lat="48.39829" lon="2.52806">
        <ele>100.8</ele>
        <time>2014-05-29T09:20:06Z</time>
      </trkpt>
      <trkpt lat="48.39826" lon="2.52802">
        <ele>100.8</ele>
        <time>2014-05-29T09:20:11Z</time>
      </trkpt>
      <trkpt lat="48.39825" lon="2.52801">
        <ele>100.8</ele>
        <time>2014-05-29T09:20:12Z</time>
      </trkpt>
      <trkpt lat="48.39822" lon="2.52795">
        <ele>100.8</ele>
        <time>2014-05-29T09:20:15Z</time>
      </trkpt>
      <trkpt lat="48.39821" lon="2.52793">
        <ele>100.8</ele>
        <time>2014-05-29T09:20:16Z</time>
      </trkpt>
      <trkpt lat="48.39813" lon="2.52785">
        <ele>100.8</ele>
        <time>2014-05-29T09:20:20Z</time>
      </trkpt>
      <trkpt lat="48.3981" lon="2.52783">
        <ele>100.8</ele>
        <time>2014-05-29T09:20:21Z</time>
      </trkpt>
      <trkpt lat="48.39803" lon="2.52774">
        <ele>100.8</ele>
        <time>2014-05-29T09:20:25Z</time>
      </trkpt>
      <trkpt lat="48.39802" lon="2.52771">
        <ele>100.8</ele>
        <time>2014-05-29T09:20:26Z</time>
      </trkpt>
      <trkpt lat="48.39797" lon="2.52764">
        <ele>100.8</ele>
        <time>2014-05-29T09:20:28Z</time>
      </trkpt>
      <trkpt lat="48.39796" lon="2.52761">
        <ele>100.8</ele>
        <time>2014-05-29T09:20:29Z</time>
      </trkpt>
      <trkpt lat="48.39794" lon="2.52754">
        <ele>100.8</ele>
        <time>2014-05-29T09:20:31Z</time>
      </trkpt>
      <trkpt lat="48.39794" lon="2.52752">
        <ele>100.8</ele>
        <time>2014-05-29T09:20:32Z</time>
      </trkpt>
      <trkpt lat="48.39795" lon="2.5275">
        <ele>100.8</ele>
        <time>2014-05-29T09:20:35Z</time>
      </trkpt>
      <trkpt lat="48.39794" lon="2.52751">
        <ele>100.8</ele>
        <time>2014-05-29T09:20:36Z</time>
      </trkpt>
      <trkpt lat="48.39788" lon="2.52752">
        <ele>100.8</ele>
        <time>2014-05-29T09:20:40Z</time>
      </trkpt>
      <trkpt lat="48.39788" lon="2.52751">
        <ele>100.8</ele>
        <time>2014-05-29T09:20:41Z</time>
      </trkpt>
      <trkpt lat="48.39786" lon="2.5275">
        <ele>100.8</ele>
        <time>2014-05-29T09:20:42Z</time>
      </trkpt>
      <trkpt lat="48.39781" lon="2.52747">
        <ele>100.8</ele>
        <time>2014-05-29T09:20:44Z</time>
      </trkpt>
      <trkpt lat="48.39779" lon="2.52745">
        <ele>100.8</ele>
        <time>2014-05-29T09:20:45Z</time>
      </trkpt>
      <trkpt lat="48.3977" lon="2.52724">
        <ele>100.8</ele>
        <time>2014-05-29T09:20:50Z</time>
      </trkpt>
      <trkpt lat="48.39777" lon="2.52705">
        <ele>100.8</ele>
        <time>2014-05-29T09:20:53Z</time>
      </trkpt>
      <trkpt lat="48.3978" lon="2.52698">
        <ele>100.8</ele>
        <time>2014-05-29T09:20:54Z</time>
      </trkpt>
      <trkpt lat="48.39782" lon="2.52686">
        <ele>100.8</ele>
        <time>2014-05-29T09:20:58Z</time>
      </trkpt>
      <trkpt lat="48.39776" lon="2.52661">
        <ele>100.8</ele>
        <time>2014-05-29T09:21:03Z</time>
      </trkpt>
      <trkpt lat="48.39778" lon="2.52648">
        <ele>100.8</ele>
        <time>2014-05-29T09:21:05Z</time>
      </trkpt>
      <trkpt lat="48.3978" lon="2.52643">
        <ele>100.8</ele>
        <time>2014-05-29T09:21:06Z</time>
      </trkpt>
      <trkpt lat="48.39789" lon="2.52627">
        <ele>100.8</ele>
        <time>2014-05-29T09:21:12Z</time>
      </trkpt>
      <trkpt lat="48.39793" lon="2.52609">
        <ele>100.8</ele>
        <time>2014-05-29T09:21:17Z</time>
      </trkpt>
      <trkpt lat="48.398" lon="2.52594">
        <ele>100.8</ele>
        <time>2014-05-29T09:21:22Z</time>
      </trkpt>
      <trkpt lat="48.39801" lon="2.52591">
        <ele>100.8</ele>
        <time>2014-05-29T09:21:23Z</time>
      </trkpt>
      <trkpt lat="48.39802" lon="2.52588">
        <ele>100.8</ele>
        <time>2014-05-29T09:21:24Z</time>
      </trkpt>
      <trkpt lat="48.39802" lon="2.52584">
        <ele>100.8</ele>
        <time>2014-05-29T09:21:25Z</time>
      </trkpt>
      <trkpt lat="48.39811" lon="2.52556">
        <ele>100.8</ele>
        <time>2014-05-29T09:21:31Z</time>
      </trkpt>
      <trkpt lat="48.3982" lon="2.52532">
        <ele>100.8</ele>
        <time>2014-05-29T09:21:36Z</time>
      </trkpt>
      <trkpt lat="48.39826" lon="2.52507">
        <ele>100.8</ele>
        <time>2014-05-29T09:21:41Z</time>
      </trkpt>
      <trkpt lat="48.39825" lon="2.52502">
        <ele>100.8</ele>
        <time>2014-05-29T09:21:42Z</time>
      </trkpt>
      <trkpt lat="48.39823" lon="2.52498">
        <ele>100.8</ele>
        <time>2014-05-29T09:21:46Z</time>
      </trkpt>
      <trkpt lat="48.39821" lon="2.52487">
        <ele>100.8</ele>
        <time>2014-05-29T09:21:51Z</time>
      </trkpt>
      <trkpt lat="48.39825" lon="2.52479">
        <ele>100.8</ele>
        <time>2014-05-29T09:21:54Z</time>
      </trkpt>
      <trkpt lat="48.39827" lon="2.52476">
        <ele>100.8</ele>
        <time>2014-05-29T09:21:55Z</time>
      </trkpt>
      <trkpt lat="48.3983" lon="2.52472">
        <ele>100.8</ele>
        <time>2014-05-29T09:21:56Z</time>
      </trkpt>
      <trkpt lat="48.3984" lon="2.52452">
        <ele>100.8</ele>
        <time>2014-05-29T09:22:02Z</time>
      </trkpt>
      <trkpt lat="48.39838" lon="2.52444">
        <ele>100.8</ele>
        <time>2014-05-29T09:22:04Z</time>
      </trkpt>
      <trkpt lat="48.39835" lon="2.52441">
        <ele>100.8</ele>
        <time>2014-05-29T09:22:06Z</time>
      </trkpt>
      <trkpt lat="48.39837" lon="2.52437">
        <ele>100.8</ele>
        <time>2014-05-29T09:22:08Z</time>
      </trkpt>
      <trkpt lat="48.39844" lon="2.52424">
        <ele>100.8</ele>
        <time>2014-05-29T09:22:13Z</time>
      </trkpt>
      <trkpt lat="48.39845" lon="2.52421">
        <ele>100.8</ele>
        <time>2014-05-29T09:22:17Z</time>
      </trkpt>
      <trkpt lat="48.39844" lon="2.52419">
        <ele>100.8</ele>
        <time>2014-05-29T09:22:19Z</time>
      </trkpt>
      <trkpt lat="48.39843" lon="2.52417">
        <ele>100.8</ele>
        <time>2014-05-29T09:22:20Z</time>
      </trkpt>
      <trkpt lat="48.39841" lon="2.52406">
        <ele>100.8</ele>
        <time>2014-05-29T09:22:23Z</time>
      </trkpt>
      <trkpt lat="48.39838" lon="2.52401">
        <ele>100.8</ele>
        <time>2014-05-29T09:22:27Z</time>
      </trkpt>
      <trkpt lat="48.39838" lon="2.52401">
        <ele>100.8</ele>
        <time>2014-05-29T09:22:28Z</time>
      </trkpt>
      <trkpt lat="48.39837" lon="2.52393">
        <ele>100.8</ele>
        <time>2014-05-29T09:22:31Z</time>
      </trkpt>
      <trkpt lat="48.39833" lon="2.52393">
        <ele>100.8</ele>
        <time>2014-05-29T09:22:34Z</time>
      </trkpt>
      <trkpt lat="48.39833" lon="2.52391">
        <ele>100.8</ele>
        <time>2014-05-29T09:22:35Z</time>
      </trkpt>
      <trkpt lat="48.3984" lon="2.5237">
        <ele>100.8</ele>
        <time>2014-05-29T09:22:40Z</time>
      </trkpt>
      <trkpt lat="48.39853" lon="2.52363">
        <ele>100.8</ele>
        <time>2014-05-29T09:22:43Z</time>
      </trkpt>
      <trkpt lat="48.39855" lon="2.52362">
        <ele>100.8</ele>
        <time>2014-05-29T09:22:44Z</time>
      </trkpt>
      <trkpt lat="48.39871" lon="2.52358">
        <ele>100.8</ele>
        <time>2014-05-29T09:22:49Z</time>
      </trkpt>
      <trkpt lat="48.39887" lon="2.52343">
        <ele>100.8</ele>
        <time>2014-05-29T09:22:55Z</time>
      </trkpt>
      <trkpt lat="48.39889" lon="2.52341">
        <ele>100.8</ele>
        <time>2014-05-29T09:22:56Z</time>
      </trkpt>
      <trkpt lat="48.3989" lon="2.52323">
        <ele>100.8</ele>
        <time>2014-05-29T09:23:01Z</time>
      </trkpt>
      <trkpt lat="48.39904" lon="2.52318">
        <ele>100.8</ele>
        <time>2014-05-29T09:23:05Z</time>
      </trkpt>
      <trkpt lat="48.39911" lon="2.52317">
        <ele>100.8</ele>
        <time>2014-05-29T09:23:08Z</time>
      </trkpt>
      <trkpt lat="48.39912" lon="2.52317">
        <ele>100.8</ele>
        <time>2014-05-29T09:23:09Z</time>
      </trkpt>
      <trkpt lat="48.39914" lon="2.52319">
        <ele>100.8</ele>
        <time>2014-05-29T09:23:14Z</time>
      </trkpt>
      <trkpt lat="48.39914" lon="2.52321">
        <ele>100.8</ele>
        <time>2014-05-29T09:23:18Z</time>
      </trkpt>
      <trkpt lat="48.39914" lon="2.52321">
        <ele>98.8</ele>
        <time>2014-05-29T09:23:43Z</time>
      </trkpt>
      <trkpt lat="48.39914" lon="2.52321">
        <ele>98.8</ele>
        <time>2014-05-29T09:23:55Z</time>
      </trkpt>
      <trkpt lat="48.39915" lon="2.52321">
        <ele>96.6</ele>
        <time>2014-05-29T09:24:28Z</time>
      </trkpt>
      <trkpt lat="48.39915" lon="2.5232">
        <ele>96.6</ele>
        <time>2014-05-29T09:24:30Z</time>
      </trkpt>
      <trkpt lat="48.39915" lon="2.5232">
        <ele>96.6</ele>
        <time>2014-05-29T09:24:31Z</time>
      </trkpt>
      <trkpt lat="48.39915" lon="2.5232">
        <ele>96.6</ele>
        <time>2014-05-29T09:24:32Z</time>
      </trkpt>
      <trkpt lat="48.39915" lon="2.5232">
        <ele>94.2</ele>
        <time>2014-05-29T09:24:37Z</time>
      </trkpt>
      <trkpt lat="48.39916" lon="2.5232">
        <ele>93.8</ele>
        <time>2014-05-29T09:24:38Z</time>
      </trkpt>
      <trkpt lat="48.39916" lon="2.5232">
        <ele>93.2</ele>
        <time>2014-05-29T09:24:39Z</time>
      </trkpt>
      <trkpt lat="48.39916" lon="2.52319">
        <ele>92.8</ele>
        <time>2014-05-29T09:24:40Z</time>
      </trkpt>
      <trkpt lat="48.39916" lon="2.52319">
        <ele>91.8</ele>
        <time>2014-05-29T09:24:42Z</time>
      </trkpt>
      <trkpt lat="48.39916" lon="2.52319">
        <ele>91</ele>
        <time>2014-05-29T09:24:45Z</time>
      </trkpt>
      <trkpt lat="48.39916" lon="2.52319">
        <ele>89.4</ele>
        <time>2014-05-29T09:25:06Z</time>
      </trkpt>
      <trkpt lat="48.39916" lon="2.52319">
        <ele>89.4</ele>
        <time>2014-05-29T09:25:09Z</time>
      </trkpt>
      <trkpt lat="48.39916" lon="2.52319">
        <ele>90.2</ele>
        <time>2014-05-29T09:25:12Z</time>
      </trkpt>
      <trkpt lat="48.39916" lon="2.52319">
        <ele>91.4</ele>
        <time>2014-05-29T09:25:15Z</time>
      </trkpt>
      <trkpt lat="48.39917" lon="2.52319">
        <ele>91.8</ele>
        <time>2014-05-29T09:25:22Z</time>
      </trkpt>
      <trkpt lat="48.39917" lon="2.52319">
        <ele>92.2</ele>
        <time>2014-05-29T09:25:23Z</time>
      </trkpt>
      <trkpt lat="48.39917" lon="2.52319">
        <ele>93.6</ele>
        <time>2014-05-29T09:25:32Z</time>
      </trkpt>
      <trkpt lat="48.39917" lon="2.52319">
        <ele>94.2</ele>
        <time>2014-05-29T09:25:36Z</time>
      </trkpt>
      <trkpt lat="48.39917" lon="2.52319">
        <ele>94.6</ele>
        <time>2014-05-29T09:25:37Z</time>
      </trkpt>
      <trkpt lat="48.39917" lon="2.52318">
        <ele>95</ele>
        <time>2014-05-29T09:25:38Z</time>
      </trkpt>
      <trkpt lat="48.39917" lon="2.52318">
        <ele>95.4</ele>
        <time>2014-05-29T09:25:39Z</time>
      </trkpt>
      <trkpt lat="48.39917" lon="2.52318">
        <ele>95.8</ele>
        <time>2014-05-29T09:25:40Z</time>
      </trkpt>
      <trkpt lat="48.39917" lon="2.52318">
        <ele>95.8</ele>
        <time>2014-05-29T09:25:48Z</time>
      </trkpt>
      <trkpt lat="48.39917" lon="2.52318">
        <ele>95.8</ele>
        <time>2014-05-29T09:25:49Z</time>
      </trkpt>
      <trkpt lat="48.39917" lon="2.52317">
        <ele>95.8</ele>
        <time>2014-05-29T09:25:50Z</time>
      </trkpt>
      <trkpt lat="48.39917" lon="2.52317">
        <ele>95.8</ele>
        <time>2014-05-29T09:25:51Z</time>
      </trkpt>
      <trkpt lat="48.39918" lon="2.52316">
        <ele>98</ele>
        <time>2014-05-29T09:25:56Z</time>
      </trkpt>
      <trkpt lat="48.39918" lon="2.52315">
        <ele>98</ele>
        <time>2014-05-29T09:25:57Z</time>
      </trkpt>
      <trkpt lat="48.39919" lon="2.52313">
        <ele>98</ele>
        <time>2014-05-29T09:26:01Z</time>
      </trkpt>
      <trkpt lat="48.39919" lon="2.52312">
        <ele>98</ele>
        <time>2014-05-29T09:26:02Z</time>
      </trkpt>
      <trkpt lat="48.3992" lon="2.52311">
        <ele>98</ele>
        <time>2014-05-29T09:26:03Z</time>
      </trkpt>
      <trkpt lat="48.39921" lon="2.5231">
        <ele>98</ele>
        <time>2014-05-29T09:26:04Z</time>
      </trkpt>
      <trkpt lat="48.39942" lon="2.52283">
        <ele>98</ele>
        <time>2014-05-29T09:26:10Z</time>
      </trkpt>
      <trkpt lat="48.39957" lon="2.52273">
        <ele>98</ele>
        <time>2014-05-29T09:26:13Z</time>
      </trkpt>
      <trkpt lat="48.39964" lon="2.52265">
        <ele>98</ele>
        <time>2014-05-29T09:26:14Z</time>
      </trkpt>
      <trkpt lat="48.39969" lon="2.5225">
        <ele>100</ele>
        <time>2014-05-29T09:26:20Z</time>
      </trkpt>
      <trkpt lat="48.39969" lon="2.52249">
        <ele>100</ele>
        <time>2014-05-29T09:26:21Z</time>
      </trkpt>
      <trkpt lat="48.39969" lon="2.52245">
        <ele>100</ele>
        <time>2014-05-29T09:26:24Z</time>
      </trkpt>
      <trkpt lat="48.39969" lon="2.52243">
        <ele>100</ele>
        <time>2014-05-29T09:26:26Z</time>
      </trkpt>
      <trkpt lat="48.39971" lon="2.52237">
        <ele>100</ele>
        <time>2014-05-29T09:26:29Z</time>
      </trkpt>
      <trkpt lat="48.39967" lon="2.52232">
        <ele>100</ele>
        <time>2014-05-29T09:26:36Z</time>
      </trkpt>
      <trkpt lat="48.39967" lon="2.52232">
        <ele>100</ele>
        <time>2014-05-29T09:26:37Z</time>
      </trkpt>
      <trkpt lat="48.39966" lon="2.52232">
        <ele>100</ele>
        <time>2014-05-29T09:26:38Z</time>
      </trkpt>
      <trkpt lat="48.39966" lon="2.52233">
        <ele>100</ele>
        <time>2014-05-29T09:26:39Z</time>
      </trkpt>
      <trkpt lat="48.39965" lon="2.52233">
        <ele>100</ele>
        <time>2014-05-29T09:26:40Z</time>
      </trkpt>
      <trkpt lat="48.39965" lon="2.52234">
        <ele>100.6</ele>
        <time>2014-05-29T09:26:42Z</time>
      </trkpt>
      <trkpt lat="48.39964" lon="2.52235">
        <ele>101</ele>
        <time>2014-05-29T09:26:43Z</time>
      </trkpt>
      <trkpt lat="48.39964" lon="2.52235">
        <ele>101.4</ele>
        <time>2014-05-29T09:26:44Z</time>
      </trkpt>
      <trkpt lat="48.39963" lon="2.52235">
        <ele>101.8</ele>
        <time>2014-05-29T09:26:45Z</time>
      </trkpt>
      <trkpt lat="48.39963" lon="2.52234">
        <ele>102.2</ele>
        <time>2014-05-29T09:26:46Z</time>
      </trkpt>
      <trkpt lat="48.39954" lon="2.52241">
        <ele>102.2</ele>
        <time>2014-05-29T09:26:53Z</time>
      </trkpt>
      <trkpt lat="48.39948" lon="2.52249">
        <ele>102.2</ele>
        <time>2014-05-29T09:26:59Z</time>
      </trkpt>
      <trkpt lat="48.39948" lon="2.52251">
        <ele>102.2</ele>
        <time>2014-05-29T09:27:00Z</time>
      </trkpt>
      <trkpt lat="48.39947" lon="2.52259">
        <ele>102.2</ele>
        <time>2014-05-29T09:27:02Z</time>
      </trkpt>
      <trkpt lat="48.39928" lon="2.52268">
        <ele>102.2</ele>
        <time>2014-05-29T09:27:10Z</time>
      </trkpt>
      <trkpt lat="48.39926" lon="2.52264">
        <ele>102.2</ele>
        <time>2014-05-29T09:27:11Z</time>
      </trkpt>
      <trkpt lat="48.39922" lon="2.52263">
        <ele>102.2</ele>
        <time>2014-05-29T09:27:13Z</time>
      </trkpt>
      <trkpt lat="48.39911" lon="2.52266">
        <ele>102.2</ele>
        <time>2014-05-29T09:27:19Z</time>
      </trkpt>
      <trkpt lat="48.39896" lon="2.52255">
        <ele>102.2</ele>
        <time>2014-05-29T09:27:24Z</time>
      </trkpt>
      <trkpt lat="48.39888" lon="2.52253">
        <ele>102.2</ele>
        <time>2014-05-29T09:27:29Z</time>
      </trkpt>
      <trkpt lat="48.3988" lon="2.52255">
        <ele>102.2</ele>
        <time>2014-05-29T09:27:34Z</time>
      </trkpt>
      <trkpt lat="48.39875" lon="2.52258">
        <ele>102.2</ele>
        <time>2014-05-29T09:27:37Z</time>
      </trkpt>
      <trkpt lat="48.39872" lon="2.52261">
        <ele>102.2</ele>
        <time>2014-05-29T09:27:39Z</time>
      </trkpt>
      <trkpt lat="48.39856" lon="2.52252">
        <ele>102.2</ele>
        <time>2014-05-29T09:27:48Z</time>
      </trkpt>
      <trkpt lat="48.3985" lon="2.52227">
        <ele>101.6</ele>
        <time>2014-05-29T09:27:53Z</time>
      </trkpt>
      <trkpt lat="48.39851" lon="2.52224">
        <ele>101</ele>
        <time>2014-05-29T09:27:54Z</time>
      </trkpt>
      <trkpt lat="48.39847" lon="2.52215">
        <ele>100.6</ele>
        <time>2014-05-29T09:27:55Z</time>
      </trkpt>
      <trkpt lat="48.39847" lon="2.52212">
        <ele>99.8</ele>
        <time>2014-05-29T09:27:56Z</time>
      </trkpt>
      <trkpt lat="48.39847" lon="2.52208">
        <ele>99.2</ele>
        <time>2014-05-29T09:27:57Z</time>
      </trkpt>
      <trkpt lat="48.39848" lon="2.52206">
        <ele>98.4</ele>
        <time>2014-05-29T09:27:58Z</time>
      </trkpt>
      <trkpt lat="48.3985" lon="2.52203">
        <ele>97.6</ele>
        <time>2014-05-29T09:27:59Z</time>
      </trkpt>
      <trkpt lat="48.39852" lon="2.522">
        <ele>97</ele>
        <time>2014-05-29T09:28:00Z</time>
      </trkpt>
      <trkpt lat="48.39854" lon="2.52197">
        <ele>96.2</ele>
        <time>2014-05-29T09:28:01Z</time>
      </trkpt>
      <trkpt lat="48.39856" lon="2.52195">
        <ele>95.4</ele>
        <time>2014-05-29T09:28:02Z</time>
      </trkpt>
      <trkpt lat="48.39857" lon="2.52194">
        <ele>94.4</ele>
        <time>2014-05-29T09:28:03Z</time>
      </trkpt>
      <trkpt lat="48.39857" lon="2.5219">
        <ele>93.6</ele>
        <time>2014-05-29T09:28:04Z</time>
      </trkpt>
      <trkpt lat="48.39858" lon="2.5219">
        <ele>92.8</ele>
        <time>2014-05-29T09:28:05Z</time>
      </trkpt>
      <trkpt lat="48.39858" lon="2.52186">
        <ele>91.8</ele>
        <time>2014-05-29T09:28:06Z</time>
      </trkpt>
      <trkpt lat="48.39858" lon="2.52184">
        <ele>91</ele>
        <time>2014-05-29T09:28:07Z</time>
      </trkpt>
      <trkpt lat="48.39859" lon="2.52183">
        <ele>90</ele>
        <time>2014-05-29T09:28:08Z</time>
      </trkpt>
      <trkpt lat="48.39858" lon="2.52181">
        <ele>89.2</ele>
        <time>2014-05-29T09:28:09Z</time>
      </trkpt>
      <trkpt lat="48.39858" lon="2.52179">
        <ele>89.2</ele>
        <time>2014-05-29T09:28:11Z</time>
      </trkpt>
      <trkpt lat="48.39858" lon="2.52177">
        <ele>89.2</ele>
        <time>2014-05-29T09:28:13Z</time>
      </trkpt>
      <trkpt lat="48.39862" lon="2.52166">
        <ele>88.8</ele>
        <time>2014-05-29T09:28:18Z</time>
      </trkpt>
      <trkpt lat="48.39863" lon="2.52161">
        <ele>88.2</ele>
        <time>2014-05-29T09:28:19Z</time>
      </trkpt>
      <trkpt lat="48.39863" lon="2.5216">
        <ele>87.8</ele>
        <time>2014-05-29T09:28:20Z</time>
      </trkpt>
      <trkpt lat="48.39863" lon="2.52157">
        <ele>87.2</ele>
        <time>2014-05-29T09:28:21Z</time>
      </trkpt>
      <trkpt lat="48.39861" lon="2.52152">
        <ele>86.6</ele>
        <time>2014-05-29T09:28:22Z</time>
      </trkpt>
      <trkpt lat="48.39861" lon="2.52149">
        <ele>86</ele>
        <time>2014-05-29T09:28:23Z</time>
      </trkpt>
      <trkpt lat="48.39862" lon="2.52145">
        <ele>85.4</ele>
        <time>2014-05-29T09:28:24Z</time>
      </trkpt>
      <trkpt lat="48.39864" lon="2.52139">
        <ele>84.6</ele>
        <time>2014-05-29T09:28:25Z</time>
      </trkpt>
      <trkpt lat="48.39865" lon="2.52136">
        <ele>84</ele>
        <time>2014-05-29T09:28:26Z</time>
      </trkpt>
      <trkpt lat="48.39867" lon="2.52131">
        <ele>83.2</ele>
        <time>2014-05-29T09:28:27Z</time>
      </trkpt>
      <trkpt lat="48.39871" lon="2.52128">
        <ele>82.6</ele>
        <time>2014-05-29T09:28:28Z</time>
      </trkpt>
      <trkpt lat="48.39873" lon="2.52124">
        <ele>81.8</ele>
        <time>2014-05-29T09:28:29Z</time>
      </trkpt>
      <trkpt lat="48.39874" lon="2.52121">
        <ele>80.8</ele>
        <time>2014-05-29T09:28:30Z</time>
      </trkpt>
      <trkpt lat="48.39875" lon="2.52117">
        <ele>79.8</ele>
        <time>2014-05-29T09:28:31Z</time>
      </trkpt>
      <trkpt lat="48.39876" lon="2.52115">
        <ele>78.8</ele>
        <time>2014-05-29T09:28:32Z</time>
      </trkpt>
      <trkpt lat="48.39876" lon="2.52112">
        <ele>77.6</ele>
        <time>2014-05-29T09:28:33Z</time>
      </trkpt>
      <trkpt lat="48.39876" lon="2.52109">
        <ele>76.6</ele>
        <time>2014-05-29T09:28:34Z</time>
      </trkpt>
      <trkpt lat="48.39876" lon="2.52106">
        <ele>76</ele>
        <time>2014-05-29T09:28:35Z</time>
      </trkpt>
      <trkpt lat="48.39876" lon="2.52103">
        <ele>75.2</ele>
        <time>2014-05-29T09:28:36Z</time>
      </trkpt>
      <trkpt lat="48.39878" lon="2.52099">
        <ele>74.4</ele>
        <time>2014-05-29T09:28:37Z</time>
      </trkpt>
      <trkpt lat="48.39883" lon="2.52095">
        <ele>73.8</ele>
        <time>2014-05-29T09:28:38Z</time>
      </trkpt>
      <trkpt lat="48.39897" lon="2.52071">
        <ele>72</ele>
        <time>2014-05-29T09:28:43Z</time>
      </trkpt>
      <trkpt lat="48.39901" lon="2.52068">
        <ele>71.2</ele>
        <time>2014-05-29T09:28:44Z</time>
      </trkpt>
      <trkpt lat="48.39905" lon="2.52068">
        <ele>70.2</ele>
        <time>2014-05-29T09:28:45Z</time>
      </trkpt>
      <trkpt lat="48.3991" lon="2.52071">
        <ele>69.2</ele>
        <time>2014-05-29T09:28:46Z</time>
      </trkpt>
      <trkpt lat="48.39915" lon="2.52071">
        <ele>68</ele>
        <time>2014-05-29T09:28:47Z</time>
      </trkpt>
      <trkpt lat="48.39918" lon="2.5207">
        <ele>67</ele>
        <time>2014-05-29T09:28:48Z</time>
      </trkpt>
      <trkpt lat="48.3992" lon="2.5207">
        <ele>66.4</ele>
        <time>2014-05-29T09:28:49Z</time>
      </trkpt>
      <trkpt lat="48.39923" lon="2.5207">
        <ele>65.6</ele>
        <time>2014-05-29T09:28:50Z</time>
      </trkpt>
      <trkpt lat="48.39925" lon="2.52069">
        <ele>64.8</ele>
        <time>2014-05-29T09:28:51Z</time>
      </trkpt>
      <trkpt lat="48.39927" lon="2.52066">
        <ele>64</ele>
        <time>2014-05-29T09:28:52Z</time>
      </trkpt>
      <trkpt lat="48.3993" lon="2.52065">
        <ele>63.2</ele>
        <time>2014-05-29T09:28:53Z</time>
      </trkpt>
      <trkpt lat="48.39935" lon="2.52062">
        <ele>62.8</ele>
        <time>2014-05-29T09:28:54Z</time>
      </trkpt>
      <trkpt lat="48.3994" lon="2.5206">
        <ele>62.2</ele>
        <time>2014-05-29T09:28:55Z</time>
      </trkpt>
      <trkpt lat="48.39943" lon="2.52059">
        <ele>61.6</ele>
        <time>2014-05-29T09:28:56Z</time>
      </trkpt>
      <trkpt lat="48.39946" lon="2.52055">
        <ele>61</ele>
        <time>2014-05-29T09:28:57Z</time>
      </trkpt>
      <trkpt lat="48.3995" lon="2.5205">
        <ele>60.6</ele>
        <time>2014-05-29T09:28:58Z</time>
      </trkpt>
      <trkpt lat="48.39956" lon="2.52039">
        <ele>60</ele>
        <time>2014-05-29T09:29:00Z</time>
      </trkpt>
      <trkpt lat="48.39959" lon="2.52031">
        <ele>59.6</ele>
        <time>2014-05-29T09:29:01Z</time>
      </trkpt>
      <trkpt lat="48.39961" lon="2.52025">
        <ele>59.2</ele>
        <time>2014-05-29T09:29:02Z</time>
      </trkpt>
      <trkpt lat="48.39962" lon="2.5202">
        <ele>58.8</ele>
        <time>2014-05-29T09:29:03Z</time>
      </trkpt>
      <trkpt lat="48.39962" lon="2.52018">
        <ele>58.2</ele>
        <time>2014-05-29T09:29:04Z</time>
      </trkpt>
      <trkpt lat="48.39963" lon="2.52015">
        <ele>58.2</ele>
        <time>2014-05-29T09:29:05Z</time>
      </trkpt>
      <trkpt lat="48.39961" lon="2.52005">
        <ele>58.2</ele>
        <time>2014-05-29T09:29:13Z</time>
      </trkpt>
      <trkpt lat="48.39962" lon="2.51997">
        <ele>58.2</ele>
        <time>2014-05-29T09:29:19Z</time>
      </trkpt>
      <trkpt lat="48.39962" lon="2.51995">
        <ele>58.6</ele>
        <time>2014-05-29T09:29:21Z</time>
      </trkpt>
      <trkpt lat="48.39961" lon="2.51991">
        <ele>59</ele>
        <time>2014-05-29T09:29:22Z</time>
      </trkpt>
      <trkpt lat="48.39959" lon="2.5199">
        <ele>59.4</ele>
        <time>2014-05-29T09:29:23Z</time>
      </trkpt>
      <trkpt lat="48.39958" lon="2.51987">
        <ele>59.8</ele>
        <time>2014-05-29T09:29:24Z</time>
      </trkpt>
      <trkpt lat="48.39957" lon="2.51986">
        <ele>60.4</ele>
        <time>2014-05-29T09:29:25Z</time>
      </trkpt>
      <trkpt lat="48.39949" lon="2.51976">
        <ele>60.4</ele>
        <time>2014-05-29T09:29:29Z</time>
      </trkpt>
      <trkpt lat="48.39933" lon="2.51955">
        <ele>60.4</ele>
        <time>2014-05-29T09:29:36Z</time>
      </trkpt>
      <trkpt lat="48.39931" lon="2.51945">
        <ele>60.4</ele>
        <time>2014-05-29T09:29:39Z</time>
      </trkpt>
      <trkpt lat="48.3993" lon="2.51943">
        <ele>60.4</ele>
        <time>2014-05-29T09:29:40Z</time>
      </trkpt>
      <trkpt lat="48.39931" lon="2.51943">
        <ele>60.4</ele>
        <time>2014-05-29T09:29:42Z</time>
      </trkpt>
      <trkpt lat="48.39929" lon="2.51937">
        <ele>60.4</ele>
        <time>2014-05-29T09:29:46Z</time>
      </trkpt>
      <trkpt lat="48.39929" lon="2.51935">
        <ele>60.4</ele>
        <time>2014-05-29T09:29:47Z</time>
      </trkpt>
      <trkpt lat="48.39924" lon="2.51914">
        <ele>60.4</ele>
        <time>2014-05-29T09:29:55Z</time>
      </trkpt>
      <trkpt lat="48.39923" lon="2.51911">
        <ele>59.8</ele>
        <time>2014-05-29T09:29:56Z</time>
      </trkpt>
      <trkpt lat="48.39921" lon="2.51909">
        <ele>59.2</ele>
        <time>2014-05-29T09:29:57Z</time>
      </trkpt>
      <trkpt lat="48.3992" lon="2.51905">
        <ele>58.8</ele>
        <time>2014-05-29T09:29:58Z</time>
      </trkpt>
      <trkpt lat="48.39918" lon="2.51901">
        <ele>58.2</ele>
        <time>2014-05-29T09:29:59Z</time>
      </trkpt>
      <trkpt lat="48.39916" lon="2.51899">
        <ele>57.8</ele>
        <time>2014-05-29T09:30:00Z</time>
      </trkpt>
      <trkpt lat="48.39913" lon="2.51894">
        <ele>57.4</ele>
        <time>2014-05-29T09:30:02Z</time>
      </trkpt>
      <trkpt lat="48.39911" lon="2.51892">
        <ele>56.8</ele>
        <time>2014-05-29T09:30:03Z</time>
      </trkpt>
      <trkpt lat="48.39909" lon="2.5189">
        <ele>56.4</ele>
        <time>2014-05-29T09:30:04Z</time>
      </trkpt>
      <trkpt lat="48.39907" lon="2.51888">
        <ele>56</ele>
        <time>2014-05-29T09:30:05Z</time>
      </trkpt>
      <trkpt lat="48.39907" lon="2.51885">
        <ele>55.6</ele>
        <time>2014-05-29T09:30:06Z</time>
      </trkpt>
      <trkpt lat="48.399" lon="2.5188">
        <ele>55.6</ele>
        <time>2014-05-29T09:30:08Z</time>
      </trkpt>
      <trkpt lat="48.39897" lon="2.51876">
        <ele>55.6</ele>
        <time>2014-05-29T09:30:11Z</time>
      </trkpt>
      <trkpt lat="48.39895" lon="2.51877">
        <ele>55.6</ele>
        <time>2014-05-29T09:30:12Z</time>
      </trkpt>
      <trkpt lat="48.3989" lon="2.51877">
        <ele>55.6</ele>
        <time>2014-05-29T09:30:15Z</time>
      </trkpt>
      <trkpt lat="48.39883" lon="2.51879">
        <ele>55.6</ele>
        <time>2014-05-29T09:30:19Z</time>
      </trkpt>
      <trkpt lat="48.39878" lon="2.51882">
        <ele>55.6</ele>
        <time>2014-05-29T09:30:21Z</time>
      </trkpt>
      <trkpt lat="48.39874" lon="2.51884">
        <ele>55.6</ele>
        <time>2014-05-29T09:30:25Z</time>
      </trkpt>
      <trkpt lat="48.39867" lon="2.51899">
        <ele>55.6</ele>
        <time>2014-05-29T09:30:31Z</time>
      </trkpt>
      <trkpt lat="48.39864" lon="2.51909">
        <ele>56</ele>
        <time>2014-05-29T09:30:35Z</time>
      </trkpt>
      <trkpt lat="48.39863" lon="2.51912">
        <ele>56.4</ele>
        <time>2014-05-29T09:30:36Z</time>
      </trkpt>
      <trkpt lat="48.39862" lon="2.51915">
        <ele>56.8</ele>
        <time>2014-05-29T09:30:37Z</time>
      </trkpt>
      <trkpt lat="48.39861" lon="2.51917">
        <ele>57.2</ele>
        <time>2014-05-29T09:30:38Z</time>
      </trkpt>
      <trkpt lat="48.39859" lon="2.5192">
        <ele>57.6</ele>
        <time>2014-05-29T09:30:39Z</time>
      </trkpt>
      <trkpt lat="48.39849" lon="2.5194">
        <ele>57.6</ele>
        <time>2014-05-29T09:30:46Z</time>
      </trkpt>
      <trkpt lat="48.39843" lon="2.51951">
        <ele>58.4</ele>
        <time>2014-05-29T09:30:50Z</time>
      </trkpt>
      <trkpt lat="48.39841" lon="2.51954">
        <ele>58.8</ele>
        <time>2014-05-29T09:30:51Z</time>
      </trkpt>
      <trkpt lat="48.39839" lon="2.51955">
        <ele>59.2</ele>
        <time>2014-05-29T09:30:52Z</time>
      </trkpt>
      <trkpt lat="48.39837" lon="2.51957">
        <ele>59.8</ele>
        <time>2014-05-29T09:30:53Z</time>
      </trkpt>
      <trkpt lat="48.3983" lon="2.51962">
        <ele>59.8</ele>
        <time>2014-05-29T09:30:56Z</time>
      </trkpt>
      <trkpt lat="48.39828" lon="2.51964">
        <ele>59.8</ele>
        <time>2014-05-29T09:30:57Z</time>
      </trkpt>
      <trkpt lat="48.39816" lon="2.5197">
        <ele>59.8</ele>
        <time>2014-05-29T09:31:01Z</time>
      </trkpt>
      <trkpt lat="48.39799" lon="2.51977">
        <ele>59.8</ele>
        <time>2014-05-29T09:31:07Z</time>
      </trkpt>
      <trkpt lat="48.3979" lon="2.51971">
        <ele>60.2</ele>
        <time>2014-05-29T09:31:13Z</time>
      </trkpt>
      <trkpt lat="48.39788" lon="2.51968">
        <ele>60.6</ele>
        <time>2014-05-29T09:31:14Z</time>
      </trkpt>
      <trkpt lat="48.39785" lon="2.51965">
        <ele>61</ele>
        <time>2014-05-29T09:31:15Z</time>
      </trkpt>
      <trkpt lat="48.39784" lon="2.51962">
        <ele>61.4</ele>
        <time>2014-05-29T09:31:16Z</time>
      </trkpt>
      <trkpt lat="48.39781" lon="2.5196">
        <ele>62</ele>
        <time>2014-05-29T09:31:17Z</time>
      </trkpt>
      <trkpt lat="48.39776" lon="2.51955">
        <ele>62</ele>
        <time>2014-05-29T09:31:19Z</time>
      </trkpt>
      <trkpt lat="48.39771" lon="2.5195">
        <ele>62.4</ele>
        <time>2014-05-29T09:31:22Z</time>
      </trkpt>
      <trkpt lat="48.39769" lon="2.51949">
        <ele>62.8</ele>
        <time>2014-05-29T09:31:23Z</time>
      </trkpt>
      <trkpt lat="48.39768" lon="2.51947">
        <ele>63.2</ele>
        <time>2014-05-29T09:31:24Z</time>
      </trkpt>
      <trkpt lat="48.39768" lon="2.51945">
        <ele>63.6</ele>
        <time>2014-05-29T09:31:25Z</time>
      </trkpt>
      <trkpt lat="48.39769" lon="2.51943">
        <ele>64</ele>
        <time>2014-05-29T09:31:26Z</time>
      </trkpt>
      <trkpt lat="48.39768" lon="2.51933">
        <ele>64.6</ele>
        <time>2014-05-29T09:31:30Z</time>
      </trkpt>
      <trkpt lat="48.39767" lon="2.51932">
        <ele>65</ele>
        <time>2014-05-29T09:31:31Z</time>
      </trkpt>
      <trkpt lat="48.39766" lon="2.5193">
        <ele>65.4</ele>
        <time>2014-05-29T09:31:32Z</time>
      </trkpt>
      <trkpt lat="48.39765" lon="2.51929">
        <ele>65.8</ele>
        <time>2014-05-29T09:31:33Z</time>
      </trkpt>
      <trkpt lat="48.39764" lon="2.51928">
        <ele>66.4</ele>
        <time>2014-05-29T09:31:34Z</time>
      </trkpt>
      <trkpt lat="48.39763" lon="2.51925">
        <ele>66.8</ele>
        <time>2014-05-29T09:31:38Z</time>
      </trkpt>
      <trkpt lat="48.39763" lon="2.51924">
        <ele>68.2</ele>
        <time>2014-05-29T09:31:42Z</time>
      </trkpt>
      <trkpt lat="48.39764" lon="2.51923">
        <ele>68.6</ele>
        <time>2014-05-29T09:31:43Z</time>
      </trkpt>
      <trkpt lat="48.39764" lon="2.51922">
        <ele>69</ele>
        <time>2014-05-29T09:31:45Z</time>
      </trkpt>
      <trkpt lat="48.39766" lon="2.51911">
        <ele>69.4</ele>
        <time>2014-05-29T09:31:46Z</time>
      </trkpt>
      <trkpt lat="48.39766" lon="2.51908">
        <ele>69.8</ele>
        <time>2014-05-29T09:31:47Z</time>
      </trkpt>
      <trkpt lat="48.39766" lon="2.51906">
        <ele>70.2</ele>
        <time>2014-05-29T09:31:48Z</time>
      </trkpt>
      <trkpt lat="48.39765" lon="2.51905">
        <ele>70.6</ele>
        <time>2014-05-29T09:31:49Z</time>
      </trkpt>
      <trkpt lat="48.39764" lon="2.51902">
        <ele>70.6</ele>
        <time>2014-05-29T09:31:50Z</time>
      </trkpt>
      <trkpt lat="48.39758" lon="2.51881">
        <ele>70.6</ele>
        <time>2014-05-29T09:31:57Z</time>
      </trkpt>
      <trkpt lat="48.39752" lon="2.51867">
        <ele>70.6</ele>
        <time>2014-05-29T09:32:04Z</time>
      </trkpt>
      <trkpt lat="48.39751" lon="2.51865">
        <ele>70.6</ele>
        <time>2014-05-29T09:32:06Z</time>
      </trkpt>
      <trkpt lat="48.39769" lon="2.51826">
        <ele>70.6</ele>
        <time>2014-05-29T09:32:58Z</time>
      </trkpt>
      <trkpt lat="48.3977" lon="2.51825">
        <ele>70.6</ele>
        <time>2014-05-29T09:32:59Z</time>
      </trkpt>
      <trkpt lat="48.39771" lon="2.51822">
        <ele>71</ele>
        <time>2014-05-29T09:33:00Z</time>
      </trkpt>
      <trkpt lat="48.39771" lon="2.51815">
        <ele>71.4</ele>
        <time>2014-05-29T09:33:01Z</time>
      </trkpt>
      <trkpt lat="48.39771" lon="2.51814">
        <ele>71.8</ele>
        <time>2014-05-29T09:33:02Z</time>
      </trkpt>
      <trkpt lat="48.39771" lon="2.51813">
        <ele>72.2</ele>
        <time>2014-05-29T09:33:03Z</time>
      </trkpt>
      <trkpt lat="48.39773" lon="2.51812">
        <ele>72.6</ele>
        <time>2014-05-29T09:33:04Z</time>
      </trkpt>
      <trkpt lat="48.39774" lon="2.51811">
        <ele>72.6</ele>
        <time>2014-05-29T09:33:06Z</time>
      </trkpt>
      <trkpt lat="48.3978" lon="2.51805">
        <ele>72.6</ele>
        <time>2014-05-29T09:33:11Z</time>
      </trkpt>
      <trkpt lat="48.39783" lon="2.51801">
        <ele>72.6</ele>
        <time>2014-05-29T09:33:13Z</time>
      </trkpt>
      <trkpt lat="48.39786" lon="2.51798">
        <ele>73.2</ele>
        <time>2014-05-29T09:33:15Z</time>
      </trkpt>
      <trkpt lat="48.39787" lon="2.51799">
        <ele>73.6</ele>
        <time>2014-05-29T09:33:16Z</time>
      </trkpt>
      <trkpt lat="48.39788" lon="2.51798">
        <ele>74</ele>
        <time>2014-05-29T09:33:17Z</time>
      </trkpt>
      <trkpt lat="48.39789" lon="2.51796">
        <ele>74.4</ele>
        <time>2014-05-29T09:33:18Z</time>
      </trkpt>
      <trkpt lat="48.3979" lon="2.51794">
        <ele>74.8</ele>
        <time>2014-05-29T09:33:19Z</time>
      </trkpt>
      <trkpt lat="48.39791" lon="2.51793">
        <ele>74.8</ele>
        <time>2014-05-29T09:33:20Z</time>
      </trkpt>
      <trkpt lat="48.39793" lon="2.51787">
        <ele>74.8</ele>
        <time>2014-05-29T09:33:23Z</time>
      </trkpt>
      <trkpt lat="48.39798" lon="2.51778">
        <ele>74.8</ele>
        <time>2014-05-29T09:33:26Z</time>
      </trkpt>
      <trkpt lat="48.39802" lon="2.51773">
        <ele>74.4</ele>
        <time>2014-05-29T09:33:29Z</time>
      </trkpt>
      <trkpt lat="48.39805" lon="2.51771">
        <ele>73.8</ele>
        <time>2014-05-29T09:33:30Z</time>
      </trkpt>
      <trkpt lat="48.39806" lon="2.51768">
        <ele>73.4</ele>
        <time>2014-05-29T09:33:31Z</time>
      </trkpt>
      <trkpt lat="48.39809" lon="2.51766">
        <ele>72.8</ele>
        <time>2014-05-29T09:33:32Z</time>
      </trkpt>
      <trkpt lat="48.39812" lon="2.51764">
        <ele>72.2</ele>
        <time>2014-05-29T09:33:33Z</time>
      </trkpt>
      <trkpt lat="48.39815" lon="2.51761">
        <ele>71.6</ele>
        <time>2014-05-29T09:33:34Z</time>
      </trkpt>
      <trkpt lat="48.39817" lon="2.51757">
        <ele>71</ele>
        <time>2014-05-29T09:33:35Z</time>
      </trkpt>
      <trkpt lat="48.39819" lon="2.51753">
        <ele>70.4</ele>
        <time>2014-05-29T09:33:36Z</time>
      </trkpt>
      <trkpt lat="48.39822" lon="2.5175">
        <ele>69.6</ele>
        <time>2014-05-29T09:33:37Z</time>
      </trkpt>
      <trkpt lat="48.39824" lon="2.51748">
        <ele>69</ele>
        <time>2014-05-29T09:33:38Z</time>
      </trkpt>
      <trkpt lat="48.39826" lon="2.51749">
        <ele>68.4</ele>
        <time>2014-05-29T09:33:39Z</time>
      </trkpt>
      <trkpt lat="48.39826" lon="2.5175">
        <ele>67.8</ele>
        <time>2014-05-29T09:33:40Z</time>
      </trkpt>
      <trkpt lat="48.39828" lon="2.51753">
        <ele>67.2</ele>
        <time>2014-05-29T09:33:41Z</time>
      </trkpt>
      <trkpt lat="48.39829" lon="2.51757">
        <ele>66.6</ele>
        <time>2014-05-29T09:33:42Z</time>
      </trkpt>
      <trkpt lat="48.3983" lon="2.51762">
        <ele>66</ele>
        <time>2014-05-29T09:33:43Z</time>
      </trkpt>
      <trkpt lat="48.39831" lon="2.51768">
        <ele>65.4</ele>
        <time>2014-05-29T09:33:44Z</time>
      </trkpt>
      <trkpt lat="48.39832" lon="2.51773">
        <ele>64.8</ele>
        <time>2014-05-29T09:33:45Z</time>
      </trkpt>
      <trkpt lat="48.39832" lon="2.51781">
        <ele>64.4</ele>
        <time>2014-05-29T09:33:46Z</time>
      </trkpt>
      <trkpt lat="48.39831" lon="2.51789">
        <ele>64</ele>
        <time>2014-05-29T09:33:47Z</time>
      </trkpt>
      <trkpt lat="48.39832" lon="2.51796">
        <ele>63.4</ele>
        <time>2014-05-29T09:33:48Z</time>
      </trkpt>
      <trkpt lat="48.39832" lon="2.51803">
        <ele>62.8</ele>
        <time>2014-05-29T09:33:49Z</time>
      </trkpt>
      <trkpt lat="48.39833" lon="2.51808">
        <ele>62.2</ele>
        <time>2014-05-29T09:33:50Z</time>
      </trkpt>
      <trkpt lat="48.39834" lon="2.51813">
        <ele>61.6</ele>
        <time>2014-05-29T09:33:51Z</time>
      </trkpt>
      <trkpt lat="48.39836" lon="2.51818">
        <ele>61</ele>
        <time>2014-05-29T09:33:52Z</time>
      </trkpt>
      <trkpt lat="48.39838" lon="2.51822">
        <ele>60.4</ele>
        <time>2014-05-29T09:33:53Z</time>
      </trkpt>
      <trkpt lat="48.39842" lon="2.51833">
        <ele>59.4</ele>
        <time>2014-05-29T09:33:56Z</time>
      </trkpt>
      <trkpt lat="48.39843" lon="2.51835">
        <ele>58.8</ele>
        <time>2014-05-29T09:33:57Z</time>
      </trkpt>
      <trkpt lat="48.39844" lon="2.51836">
        <ele>58.4</ele>
        <time>2014-05-29T09:33:58Z</time>
      </trkpt>
      <trkpt lat="48.39846" lon="2.51837">
        <ele>57.8</ele>
        <time>2014-05-29T09:33:59Z</time>
      </trkpt>
      <trkpt lat="48.39848" lon="2.51839">
        <ele>57.8</ele>
        <time>2014-05-29T09:34:00Z</time>
      </trkpt>
      <trkpt lat="48.39852" lon="2.51855">
        <ele>57.8</ele>
        <time>2014-05-29T09:34:03Z</time>
      </trkpt>
      <trkpt lat="48.39855" lon="2.5187">
        <ele>57.8</ele>
        <time>2014-05-29T09:34:06Z</time>
      </trkpt>
      <trkpt lat="48.39855" lon="2.51877">
        <ele>57.8</ele>
        <time>2014-05-29T09:34:08Z</time>
      </trkpt>
      <trkpt lat="48.39851" lon="2.51903">
        <ele>57.8</ele>
        <time>2014-05-29T09:34:15Z</time>
      </trkpt>
      <trkpt lat="48.39841" lon="2.51929">
        <ele>57.8</ele>
        <time>2014-05-29T09:34:22Z</time>
      </trkpt>
      <trkpt lat="48.39828" lon="2.51946">
        <ele>57.8</ele>
        <time>2014-05-29T09:34:28Z</time>
      </trkpt>
      <trkpt lat="48.39827" lon="2.51948">
        <ele>58.2</ele>
        <time>2014-05-29T09:34:29Z</time>
      </trkpt>
      <trkpt lat="48.39824" lon="2.5195">
        <ele>58.6</ele>
        <time>2014-05-29T09:34:30Z</time>
      </trkpt>
      <trkpt lat="48.39822" lon="2.51952">
        <ele>59</ele>
        <time>2014-05-29T09:34:31Z</time>
      </trkpt>
      <trkpt lat="48.39821" lon="2.51953">
        <ele>59.4</ele>
        <time>2014-05-29T09:34:32Z</time>
      </trkpt>
      <trkpt lat="48.39818" lon="2.51955">
        <ele>60</ele>
        <time>2014-05-29T09:34:33Z</time>
      </trkpt>
      <trkpt lat="48.39816" lon="2.51957">
        <ele>60</ele>
        <time>2014-05-29T09:34:34Z</time>
      </trkpt>
      <trkpt lat="48.39801" lon="2.51966">
        <ele>60</ele>
        <time>2014-05-29T09:34:39Z</time>
      </trkpt>
      <trkpt lat="48.39786" lon="2.51976">
        <ele>60.4</ele>
        <time>2014-05-29T09:34:43Z</time>
      </trkpt>
      <trkpt lat="48.39785" lon="2.51978">
        <ele>60.8</ele>
        <time>2014-05-29T09:34:44Z</time>
      </trkpt>
      <trkpt lat="48.39784" lon="2.51981">
        <ele>61.6</ele>
        <time>2014-05-29T09:34:46Z</time>
      </trkpt>
      <trkpt lat="48.39784" lon="2.51983">
        <ele>62</ele>
        <time>2014-05-29T09:34:47Z</time>
      </trkpt>
      <trkpt lat="48.39784" lon="2.51989">
        <ele>62</ele>
        <time>2014-05-29T09:34:51Z</time>
      </trkpt>
      <trkpt lat="48.39782" lon="2.51995">
        <ele>62.4</ele>
        <time>2014-05-29T09:34:53Z</time>
      </trkpt>
      <trkpt lat="48.39782" lon="2.51997">
        <ele>62.8</ele>
        <time>2014-05-29T09:34:54Z</time>
      </trkpt>
      <trkpt lat="48.39783" lon="2.51999">
        <ele>63.2</ele>
        <time>2014-05-29T09:34:55Z</time>
      </trkpt>
      <trkpt lat="48.39784" lon="2.52003">
        <ele>63.6</ele>
        <time>2014-05-29T09:34:56Z</time>
      </trkpt>
      <trkpt lat="48.39784" lon="2.52005">
        <ele>64</ele>
        <time>2014-05-29T09:34:57Z</time>
      </trkpt>
      <trkpt lat="48.39784" lon="2.52018">
        <ele>64</ele>
        <time>2014-05-29T09:35:01Z</time>
      </trkpt>
      <trkpt lat="48.39773" lon="2.52032">
        <ele>64.6</ele>
        <time>2014-05-29T09:35:05Z</time>
      </trkpt>
      <trkpt lat="48.39773" lon="2.52035">
        <ele>65</ele>
        <time>2014-05-29T09:35:06Z</time>
      </trkpt>
      <trkpt lat="48.39773" lon="2.52037">
        <ele>65.4</ele>
        <time>2014-05-29T09:35:07Z</time>
      </trkpt>
      <trkpt lat="48.39773" lon="2.5204">
        <ele>66</ele>
        <time>2014-05-29T09:35:08Z</time>
      </trkpt>
      <trkpt lat="48.39773" lon="2.52044">
        <ele>66.4</ele>
        <time>2014-05-29T09:35:09Z</time>
      </trkpt>
      <trkpt lat="48.3976" lon="2.52077">
        <ele>66.4</ele>
        <time>2014-05-29T09:35:17Z</time>
      </trkpt>
      <trkpt lat="48.3976" lon="2.52081">
        <ele>66.4</ele>
        <time>2014-05-29T09:35:18Z</time>
      </trkpt>
      <trkpt lat="48.3976" lon="2.52086">
        <ele>66.4</ele>
        <time>2014-05-29T09:35:20Z</time>
      </trkpt>
      <trkpt lat="48.3976" lon="2.52093">
        <ele>66.4</ele>
        <time>2014-05-29T09:35:22Z</time>
      </trkpt>
      <trkpt lat="48.3976" lon="2.52096">
        <ele>66.4</ele>
        <time>2014-05-29T09:35:23Z</time>
      </trkpt>
      <trkpt lat="48.39762" lon="2.52104">
        <ele>66.4</ele>
        <time>2014-05-29T09:35:26Z</time>
      </trkpt>
      <trkpt lat="48.39762" lon="2.52111">
        <ele>66.8</ele>
        <time>2014-05-29T09:35:29Z</time>
      </trkpt>
      <trkpt lat="48.39762" lon="2.52114">
        <ele>67.2</ele>
        <time>2014-05-29T09:35:30Z</time>
      </trkpt>
      <trkpt lat="48.39762" lon="2.52117">
        <ele>67.6</ele>
        <time>2014-05-29T09:35:31Z</time>
      </trkpt>
      <trkpt lat="48.39762" lon="2.52121">
        <ele>68</ele>
        <time>2014-05-29T09:35:32Z</time>
      </trkpt>
      <trkpt lat="48.39761" lon="2.52125">
        <ele>68.4</ele>
        <time>2014-05-29T09:35:33Z</time>
      </trkpt>
      <trkpt lat="48.39758" lon="2.52136">
        <ele>68.4</ele>
        <time>2014-05-29T09:35:35Z</time>
      </trkpt>
      <trkpt lat="48.39756" lon="2.52149">
        <ele>68.4</ele>
        <time>2014-05-29T09:35:38Z</time>
      </trkpt>
      <trkpt lat="48.39757" lon="2.52166">
        <ele>68.4</ele>
        <time>2014-05-29T09:35:44Z</time>
      </trkpt>
      <trkpt lat="48.39756" lon="2.52168">
        <ele>69</ele>
        <time>2014-05-29T09:35:45Z</time>
      </trkpt>
      <trkpt lat="48.39754" lon="2.52171">
        <ele>69.4</ele>
        <time>2014-05-29T09:35:46Z</time>
      </trkpt>
      <trkpt lat="48.39754" lon="2.52175">
        <ele>69.8</ele>
        <time>2014-05-29T09:35:47Z</time>
      </trkpt>
      <trkpt lat="48.39753" lon="2.52179">
        <ele>70.2</ele>
        <time>2014-05-29T09:35:48Z</time>
      </trkpt>
      <trkpt lat="48.39752" lon="2.52182">
        <ele>70.6</ele>
        <time>2014-05-29T09:35:49Z</time>
      </trkpt>
      <trkpt lat="48.39751" lon="2.52186">
        <ele>70.6</ele>
        <time>2014-05-29T09:35:50Z</time>
      </trkpt>
      <trkpt lat="48.3975" lon="2.52191">
        <ele>70.6</ele>
        <time>2014-05-29T09:35:51Z</time>
      </trkpt>
      <trkpt lat="48.39747" lon="2.52203">
        <ele>70.6</ele>
        <time>2014-05-29T09:35:54Z</time>
      </trkpt>
      <trkpt lat="48.39746" lon="2.52206">
        <ele>70.6</ele>
        <time>2014-05-29T09:35:55Z</time>
      </trkpt>
      <trkpt lat="48.39746" lon="2.52208">
        <ele>70.6</ele>
        <time>2014-05-29T09:35:56Z</time>
      </trkpt>
      <trkpt lat="48.39745" lon="2.5221">
        <ele>70.6</ele>
        <time>2014-05-29T09:35:57Z</time>
      </trkpt>
      <trkpt lat="48.39744" lon="2.52214">
        <ele>70.6</ele>
        <time>2014-05-29T09:35:59Z</time>
      </trkpt>
      <trkpt lat="48.39742" lon="2.52227">
        <ele>70.6</ele>
        <time>2014-05-29T09:36:04Z</time>
      </trkpt>
      <trkpt lat="48.39734" lon="2.52257">
        <ele>70.6</ele>
        <time>2014-05-29T09:36:11Z</time>
      </trkpt>
      <trkpt lat="48.39722" lon="2.52287">
        <ele>70.6</ele>
        <time>2014-05-29T09:36:16Z</time>
      </trkpt>
      <trkpt lat="48.39719" lon="2.52306">
        <ele>70.2</ele>
        <time>2014-05-29T09:36:19Z</time>
      </trkpt>
      <trkpt lat="48.39718" lon="2.52313">
        <ele>69.8</ele>
        <time>2014-05-29T09:36:20Z</time>
      </trkpt>
      <trkpt lat="48.39718" lon="2.52319">
        <ele>69.4</ele>
        <time>2014-05-29T09:36:21Z</time>
      </trkpt>
      <trkpt lat="48.39718" lon="2.52324">
        <ele>68.8</ele>
        <time>2014-05-29T09:36:22Z</time>
      </trkpt>
      <trkpt lat="48.39718" lon="2.52327">
        <ele>68.4</ele>
        <time>2014-05-29T09:36:23Z</time>
      </trkpt>
      <trkpt lat="48.39714" lon="2.52357">
        <ele>68.4</ele>
        <time>2014-05-29T09:36:29Z</time>
      </trkpt>
      <trkpt lat="48.39712" lon="2.52388">
        <ele>68.4</ele>
        <time>2014-05-29T09:36:35Z</time>
      </trkpt>
      <trkpt lat="48.39712" lon="2.52392">
        <ele>68.4</ele>
        <time>2014-05-29T09:36:36Z</time>
      </trkpt>
      <trkpt lat="48.39714" lon="2.52427">
        <ele>68.4</ele>
        <time>2014-05-29T09:36:42Z</time>
      </trkpt>
      <trkpt lat="48.3971" lon="2.52457">
        <ele>68.4</ele>
        <time>2014-05-29T09:36:48Z</time>
      </trkpt>
      <trkpt lat="48.39707" lon="2.52481">
        <ele>68.4</ele>
        <time>2014-05-29T09:36:53Z</time>
      </trkpt>
      <trkpt lat="48.39705" lon="2.52491">
        <ele>68.4</ele>
        <time>2014-05-29T09:36:55Z</time>
      </trkpt>
      <trkpt lat="48.39694" lon="2.52532">
        <ele>68.4</ele>
        <time>2014-05-29T09:37:03Z</time>
      </trkpt>
      <trkpt lat="48.39692" lon="2.52542">
        <ele>68.8</ele>
        <time>2014-05-29T09:37:05Z</time>
      </trkpt>
      <trkpt lat="48.39692" lon="2.52547">
        <ele>69.2</ele>
        <time>2014-05-29T09:37:06Z</time>
      </trkpt>
      <trkpt lat="48.39692" lon="2.52551">
        <ele>69.6</ele>
        <time>2014-05-29T09:37:07Z</time>
      </trkpt>
      <trkpt lat="48.39691" lon="2.52556">
        <ele>70</ele>
        <time>2014-05-29T09:37:08Z</time>
      </trkpt>
      <trkpt lat="48.3969" lon="2.52562">
        <ele>70.4</ele>
        <time>2014-05-29T09:37:09Z</time>
      </trkpt>
      <trkpt lat="48.39688" lon="2.52567">
        <ele>70.4</ele>
        <time>2014-05-29T09:37:10Z</time>
      </trkpt>
      <trkpt lat="48.39683" lon="2.52603">
        <ele>70.4</ele>
        <time>2014-05-29T09:37:17Z</time>
      </trkpt>
      <trkpt lat="48.39675" lon="2.52644">
        <ele>71</ele>
        <time>2014-05-29T09:37:25Z</time>
      </trkpt>
      <trkpt lat="48.39675" lon="2.52649">
        <ele>71.4</ele>
        <time>2014-05-29T09:37:26Z</time>
      </trkpt>
      <trkpt lat="48.39675" lon="2.52654">
        <ele>71.8</ele>
        <time>2014-05-29T09:37:27Z</time>
      </trkpt>
      <trkpt lat="48.39675" lon="2.52659">
        <ele>72.2</ele>
        <time>2014-05-29T09:37:28Z</time>
      </trkpt>
      <trkpt lat="48.39673" lon="2.52664">
        <ele>72.6</ele>
        <time>2014-05-29T09:37:29Z</time>
      </trkpt>
      <trkpt lat="48.39668" lon="2.52679">
        <ele>72.6</ele>
        <time>2014-05-29T09:37:32Z</time>
      </trkpt>
      <trkpt lat="48.3966" lon="2.52703">
        <ele>72.6</ele>
        <time>2014-05-29T09:37:38Z</time>
      </trkpt>
      <trkpt lat="48.39658" lon="2.52709">
        <ele>72.6</ele>
        <time>2014-05-29T09:37:40Z</time>
      </trkpt>
      <trkpt lat="48.39659" lon="2.52712">
        <ele>73</ele>
        <time>2014-05-29T09:37:41Z</time>
      </trkpt>
      <trkpt lat="48.39657" lon="2.52715">
        <ele>73.4</ele>
        <time>2014-05-29T09:37:42Z</time>
      </trkpt>
      <trkpt lat="48.39656" lon="2.52718">
        <ele>73.8</ele>
        <time>2014-05-29T09:37:43Z</time>
      </trkpt>
      <trkpt lat="48.39654" lon="2.52722">
        <ele>74.2</ele>
        <time>2014-05-29T09:37:44Z</time>
      </trkpt>
      <trkpt lat="48.39652" lon="2.52727">
        <ele>74.6</ele>
        <time>2014-05-29T09:37:45Z</time>
      </trkpt>
      <trkpt lat="48.39649" lon="2.52733">
        <ele>74.6</ele>
        <time>2014-05-29T09:37:46Z</time>
      </trkpt>
      <trkpt lat="48.39639" lon="2.52762">
        <ele>74.6</ele>
        <time>2014-05-29T09:37:52Z</time>
      </trkpt>
      <trkpt lat="48.39639" lon="2.52786">
        <ele>75</ele>
        <time>2014-05-29T09:37:57Z</time>
      </trkpt>
      <trkpt lat="48.3964" lon="2.5279">
        <ele>75.4</ele>
        <time>2014-05-29T09:37:58Z</time>
      </trkpt>
      <trkpt lat="48.39641" lon="2.52795">
        <ele>75.8</ele>
        <time>2014-05-29T09:37:59Z</time>
      </trkpt>
      <trkpt lat="48.39641" lon="2.52799">
        <ele>76.2</ele>
        <time>2014-05-29T09:38:00Z</time>
      </trkpt>
      <trkpt lat="48.39641" lon="2.52802">
        <ele>76.6</ele>
        <time>2014-05-29T09:38:01Z</time>
      </trkpt>
      <trkpt lat="48.39639" lon="2.52815">
        <ele>76.6</ele>
        <time>2014-05-29T09:38:04Z</time>
      </trkpt>
      <trkpt lat="48.39642" lon="2.52827">
        <ele>76.6</ele>
        <time>2014-05-29T09:38:07Z</time>
      </trkpt>
      <trkpt lat="48.39645" lon="2.52837">
        <ele>76.6</ele>
        <time>2014-05-29T09:38:10Z</time>
      </trkpt>
      <trkpt lat="48.39645" lon="2.52848">
        <ele>77</ele>
        <time>2014-05-29T09:38:12Z</time>
      </trkpt>
      <trkpt lat="48.39645" lon="2.52854">
        <ele>77.4</ele>
        <time>2014-05-29T09:38:13Z</time>
      </trkpt>
      <trkpt lat="48.39642" lon="2.5286">
        <ele>77.8</ele>
        <time>2014-05-29T09:38:14Z</time>
      </trkpt>
      <trkpt lat="48.39642" lon="2.52865">
        <ele>78.2</ele>
        <time>2014-05-29T09:38:15Z</time>
      </trkpt>
      <trkpt lat="48.39642" lon="2.5287">
        <ele>78.6</ele>
        <time>2014-05-29T09:38:16Z</time>
      </trkpt>
      <trkpt lat="48.39646" lon="2.52895">
        <ele>78.6</ele>
        <time>2014-05-29T09:38:22Z</time>
      </trkpt>
      <trkpt lat="48.39648" lon="2.52907">
        <ele>79.2</ele>
        <time>2014-05-29T09:38:25Z</time>
      </trkpt>
      <trkpt lat="48.39649" lon="2.5291">
        <ele>79.6</ele>
        <time>2014-05-29T09:38:26Z</time>
      </trkpt>
      <trkpt lat="48.39649" lon="2.52914">
        <ele>80</ele>
        <time>2014-05-29T09:38:27Z</time>
      </trkpt>
      <trkpt lat="48.39649" lon="2.52917">
        <ele>80.4</ele>
        <time>2014-05-29T09:38:28Z</time>
      </trkpt>
      <trkpt lat="48.39648" lon="2.52921">
        <ele>81</ele>
        <time>2014-05-29T09:38:29Z</time>
      </trkpt>
      <trkpt lat="48.39645" lon="2.52935">
        <ele>81.4</ele>
        <time>2014-05-29T09:38:33Z</time>
      </trkpt>
      <trkpt lat="48.39646" lon="2.52937">
        <ele>81.8</ele>
        <time>2014-05-29T09:38:34Z</time>
      </trkpt>
      <trkpt lat="48.39645" lon="2.52941">
        <ele>82.2</ele>
        <time>2014-05-29T09:38:35Z</time>
      </trkpt>
      <trkpt lat="48.39643" lon="2.52945">
        <ele>82.6</ele>
        <time>2014-05-29T09:38:36Z</time>
      </trkpt>
      <trkpt lat="48.39643" lon="2.52949">
        <ele>83</ele>
        <time>2014-05-29T09:38:37Z</time>
      </trkpt>
      <trkpt lat="48.39642" lon="2.52953">
        <ele>83</ele>
        <time>2014-05-29T09:38:38Z</time>
      </trkpt>
      <trkpt lat="48.39641" lon="2.5296">
        <ele>83</ele>
        <time>2014-05-29T09:38:40Z</time>
      </trkpt>
      <trkpt lat="48.3964" lon="2.52967">
        <ele>83</ele>
        <time>2014-05-29T09:38:42Z</time>
      </trkpt>
      <trkpt lat="48.39639" lon="2.52975">
        <ele>83</ele>
        <time>2014-05-29T09:38:44Z</time>
      </trkpt>
      <trkpt lat="48.39639" lon="2.52979">
        <ele>83.4</ele>
        <time>2014-05-29T09:38:45Z</time>
      </trkpt>
      <trkpt lat="48.39639" lon="2.52983">
        <ele>83.8</ele>
        <time>2014-05-29T09:38:46Z</time>
      </trkpt>
      <trkpt lat="48.39639" lon="2.52987">
        <ele>84.2</ele>
        <time>2014-05-29T09:38:47Z</time>
      </trkpt>
      <trkpt lat="48.39638" lon="2.5299">
        <ele>84.6</ele>
        <time>2014-05-29T09:38:48Z</time>
      </trkpt>
      <trkpt lat="48.39638" lon="2.52994">
        <ele>85.2</ele>
        <time>2014-05-29T09:38:49Z</time>
      </trkpt>
      <trkpt lat="48.39638" lon="2.52998">
        <ele>85.2</ele>
        <time>2014-05-29T09:38:50Z</time>
      </trkpt>
      <trkpt lat="48.39632" lon="2.53023">
        <ele>85.2</ele>
        <time>2014-05-29T09:38:56Z</time>
      </trkpt>
      <trkpt lat="48.3963" lon="2.53032">
        <ele>85.2</ele>
        <time>2014-05-29T09:38:58Z</time>
      </trkpt>
      <trkpt lat="48.39632" lon="2.53063">
        <ele>85.2</ele>
        <time>2014-05-29T09:39:05Z</time>
      </trkpt>
      <trkpt lat="48.39631" lon="2.53093">
        <ele>85.2</ele>
        <time>2014-05-29T09:39:11Z</time>
      </trkpt>
      <trkpt lat="48.39628" lon="2.53114">
        <ele>85.6</ele>
        <time>2014-05-29T09:39:15Z</time>
      </trkpt>
      <trkpt lat="48.39626" lon="2.53125">
        <ele>86.4</ele>
        <time>2014-05-29T09:39:17Z</time>
      </trkpt>
      <trkpt lat="48.39626" lon="2.5313">
        <ele>86.8</ele>
        <time>2014-05-29T09:39:18Z</time>
      </trkpt>
      <trkpt lat="48.39626" lon="2.53135">
        <ele>87.2</ele>
        <time>2014-05-29T09:39:19Z</time>
      </trkpt>
      <trkpt lat="48.39623" lon="2.53166">
        <ele>87.2</ele>
        <time>2014-05-29T09:39:24Z</time>
      </trkpt>
      <trkpt lat="48.39614" lon="2.53207">
        <ele>87.2</ele>
        <time>2014-05-29T09:39:31Z</time>
      </trkpt>
      <trkpt lat="48.39613" lon="2.53212">
        <ele>87.6</ele>
        <time>2014-05-29T09:39:32Z</time>
      </trkpt>
      <trkpt lat="48.39613" lon="2.53216">
        <ele>88</ele>
        <time>2014-05-29T09:39:33Z</time>
      </trkpt>
      <trkpt lat="48.39608" lon="2.53218">
        <ele>88.4</ele>
        <time>2014-05-29T09:39:34Z</time>
      </trkpt>
      <trkpt lat="48.39603" lon="2.53223">
        <ele>88.8</ele>
        <time>2014-05-29T09:39:35Z</time>
      </trkpt>
      <trkpt lat="48.39599" lon="2.53228">
        <ele>89.2</ele>
        <time>2014-05-29T09:39:36Z</time>
      </trkpt>
      <trkpt lat="48.39596" lon="2.53233">
        <ele>89.2</ele>
        <time>2014-05-29T09:39:37Z</time>
      </trkpt>
      <trkpt lat="48.39578" lon="2.53264">
        <ele>89.2</ele>
        <time>2014-05-29T09:39:43Z</time>
      </trkpt>
      <trkpt lat="48.39553" lon="2.53313">
        <ele>89.2</ele>
        <time>2014-05-29T09:39:52Z</time>
      </trkpt>
      <trkpt lat="48.39552" lon="2.53318">
        <ele>89.6</ele>
        <time>2014-05-29T09:39:53Z</time>
      </trkpt>
      <trkpt lat="48.3955" lon="2.53323">
        <ele>90</ele>
        <time>2014-05-29T09:39:54Z</time>
      </trkpt>
      <trkpt lat="48.39547" lon="2.53329">
        <ele>90.6</ele>
        <time>2014-05-29T09:39:55Z</time>
      </trkpt>
      <trkpt lat="48.39544" lon="2.53334">
        <ele>91</ele>
        <time>2014-05-29T09:39:56Z</time>
      </trkpt>
      <trkpt lat="48.39543" lon="2.53339">
        <ele>91.4</ele>
        <time>2014-05-29T09:39:57Z</time>
      </trkpt>
      <trkpt lat="48.39542" lon="2.53345">
        <ele>91.4</ele>
        <time>2014-05-29T09:39:58Z</time>
      </trkpt>
      <trkpt lat="48.39539" lon="2.53375">
        <ele>91.8</ele>
        <time>2014-05-29T09:40:04Z</time>
      </trkpt>
      <trkpt lat="48.39538" lon="2.5338">
        <ele>92.2</ele>
        <time>2014-05-29T09:40:05Z</time>
      </trkpt>
      <trkpt lat="48.39537" lon="2.53386">
        <ele>92.6</ele>
        <time>2014-05-29T09:40:06Z</time>
      </trkpt>
      <trkpt lat="48.39536" lon="2.53391">
        <ele>93</ele>
        <time>2014-05-29T09:40:07Z</time>
      </trkpt>
      <trkpt lat="48.39534" lon="2.53395">
        <ele>93.4</ele>
        <time>2014-05-29T09:40:08Z</time>
      </trkpt>
      <trkpt lat="48.39531" lon="2.53414">
        <ele>93.4</ele>
        <time>2014-05-29T09:40:12Z</time>
      </trkpt>
      <trkpt lat="48.39531" lon="2.5343">
        <ele>93.4</ele>
        <time>2014-05-29T09:40:17Z</time>
      </trkpt>
      <trkpt lat="48.39526" lon="2.53441">
        <ele>93.8</ele>
        <time>2014-05-29T09:40:22Z</time>
      </trkpt>
      <trkpt lat="48.39525" lon="2.53443">
        <ele>94.2</ele>
        <time>2014-05-29T09:40:23Z</time>
      </trkpt>
      <trkpt lat="48.39524" lon="2.53444">
        <ele>94.6</ele>
        <time>2014-05-29T09:40:24Z</time>
      </trkpt>
      <trkpt lat="48.39524" lon="2.53446">
        <ele>95</ele>
        <time>2014-05-29T09:40:25Z</time>
      </trkpt>
      <trkpt lat="48.39524" lon="2.53446">
        <ele>95.4</ele>
        <time>2014-05-29T09:40:26Z</time>
      </trkpt>
      <trkpt lat="48.39524" lon="2.53447">
        <ele>95.4</ele>
        <time>2014-05-29T09:40:27Z</time>
      </trkpt>
      <trkpt lat="48.39524" lon="2.53447">
        <ele>95.4</ele>
        <time>2014-05-29T09:40:28Z</time>
      </trkpt>
      <trkpt lat="48.39523" lon="2.53447">
        <ele>95.4</ele>
        <time>2014-05-29T09:40:42Z</time>
      </trkpt>
      <trkpt lat="48.39521" lon="2.53444">
        <ele>95.4</ele>
        <time>2014-05-29T09:40:44Z</time>
      </trkpt>
      <trkpt lat="48.39519" lon="2.53445">
        <ele>95.4</ele>
        <time>2014-05-29T09:40:45Z</time>
      </trkpt>
      <trkpt lat="48.39502" lon="2.53446">
        <ele>95.4</ele>
        <time>2014-05-29T09:40:52Z</time>
      </trkpt>
      <trkpt lat="48.39482" lon="2.53443">
        <ele>95.8</ele>
        <time>2014-05-29T09:40:59Z</time>
      </trkpt>
      <trkpt lat="48.39478" lon="2.53443">
        <ele>96.2</ele>
        <time>2014-05-29T09:41:00Z</time>
      </trkpt>
      <trkpt lat="48.39476" lon="2.53443">
        <ele>96.6</ele>
        <time>2014-05-29T09:41:01Z</time>
      </trkpt>
      <trkpt lat="48.39472" lon="2.53442">
        <ele>97</ele>
        <time>2014-05-29T09:41:02Z</time>
      </trkpt>
      <trkpt lat="48.39469" lon="2.53443">
        <ele>97.6</ele>
        <time>2014-05-29T09:41:03Z</time>
      </trkpt>
      <trkpt lat="48.3946" lon="2.53442">
        <ele>97.6</ele>
        <time>2014-05-29T09:41:06Z</time>
      </trkpt>
      <trkpt lat="48.3944" lon="2.53437">
        <ele>97.6</ele>
        <time>2014-05-29T09:41:12Z</time>
      </trkpt>
      <trkpt lat="48.39434" lon="2.53432">
        <ele>97.6</ele>
        <time>2014-05-29T09:41:14Z</time>
      </trkpt>
      <trkpt lat="48.39422" lon="2.53427">
        <ele>97.6</ele>
        <time>2014-05-29T09:41:16Z</time>
      </trkpt>
      <trkpt lat="48.39408" lon="2.53422">
        <ele>97.6</ele>
        <time>2014-05-29T09:41:19Z</time>
      </trkpt>
      <trkpt lat="48.39397" lon="2.53418">
        <ele>97.6</ele>
        <time>2014-05-29T09:41:22Z</time>
      </trkpt>
      <trkpt lat="48.39383" lon="2.53414">
        <ele>97.6</ele>
        <time>2014-05-29T09:41:25Z</time>
      </trkpt>
      <trkpt lat="48.39379" lon="2.53412">
        <ele>97.6</ele>
        <time>2014-05-29T09:41:26Z</time>
      </trkpt>
      <trkpt lat="48.39368" lon="2.53408">
        <ele>97.6</ele>
        <time>2014-05-29T09:41:29Z</time>
      </trkpt>
      <trkpt lat="48.39353" lon="2.53405">
        <ele>97.6</ele>
        <time>2014-05-29T09:41:32Z</time>
      </trkpt>
      <trkpt lat="48.39321" lon="2.53398">
        <ele>97.6</ele>
        <time>2014-05-29T09:41:39Z</time>
      </trkpt>
      <trkpt lat="48.39296" lon="2.53388">
        <ele>97.6</ele>
        <time>2014-05-29T09:41:45Z</time>
      </trkpt>
      <trkpt lat="48.39292" lon="2.53384">
        <ele>97.6</ele>
        <time>2014-05-29T09:41:46Z</time>
      </trkpt>
      <trkpt lat="48.39276" lon="2.53373">
        <ele>97</ele>
        <time>2014-05-29T09:41:49Z</time>
      </trkpt>
      <trkpt lat="48.39271" lon="2.53369">
        <ele>96.6</ele>
        <time>2014-05-29T09:41:50Z</time>
      </trkpt>
      <trkpt lat="48.39266" lon="2.53365">
        <ele>96.2</ele>
        <time>2014-05-29T09:41:51Z</time>
      </trkpt>
      <trkpt lat="48.39261" lon="2.53361">
        <ele>95.8</ele>
        <time>2014-05-29T09:41:52Z</time>
      </trkpt>
      <trkpt lat="48.39257" lon="2.53358">
        <ele>95.4</ele>
        <time>2014-05-29T09:41:53Z</time>
      </trkpt>
      <trkpt lat="48.39254" lon="2.53355">
        <ele>95.4</ele>
        <time>2014-05-29T09:41:54Z</time>
      </trkpt>
      <trkpt lat="48.39251" lon="2.53345">
        <ele>95.4</ele>
        <time>2014-05-29T09:41:58Z</time>
      </trkpt>
      <trkpt lat="48.39246" lon="2.53329">
        <ele>95.4</ele>
        <time>2014-05-29T09:42:03Z</time>
      </trkpt>
      <trkpt lat="48.3924" lon="2.53321">
        <ele>95.4</ele>
        <time>2014-05-29T09:42:05Z</time>
      </trkpt>
      <trkpt lat="48.39238" lon="2.53318">
        <ele>95.4</ele>
        <time>2014-05-29T09:42:06Z</time>
      </trkpt>
      <trkpt lat="48.39209" lon="2.53281">
        <ele>95.4</ele>
        <time>2014-05-29T09:42:14Z</time>
      </trkpt>
      <trkpt lat="48.39201" lon="2.53243">
        <ele>95.4</ele>
        <time>2014-05-29T09:42:19Z</time>
      </trkpt>
      <trkpt lat="48.39202" lon="2.53236">
        <ele>95.4</ele>
        <time>2014-05-29T09:42:20Z</time>
      </trkpt>
      <trkpt lat="48.39216" lon="2.53166">
        <ele>95.4</ele>
        <time>2014-05-29T09:42:27Z</time>
      </trkpt>
      <trkpt lat="48.39217" lon="2.53157">
        <ele>95.4</ele>
        <time>2014-05-29T09:42:28Z</time>
      </trkpt>
      <trkpt lat="48.39221" lon="2.53131">
        <ele>95.4</ele>
        <time>2014-05-29T09:42:31Z</time>
      </trkpt>
      <trkpt lat="48.39222" lon="2.53122">
        <ele>95.4</ele>
        <time>2014-05-29T09:42:32Z</time>
      </trkpt>
      <trkpt lat="48.39224" lon="2.53098">
        <ele>95.4</ele>
        <time>2014-05-29T09:42:35Z</time>
      </trkpt>
      <trkpt lat="48.39222" lon="2.53084">
        <ele>95.4</ele>
        <time>2014-05-29T09:42:37Z</time>
      </trkpt>
      <trkpt lat="48.39239" lon="2.53021">
        <ele>95.4</ele>
        <time>2014-05-29T09:42:43Z</time>
      </trkpt>
      <trkpt lat="48.39243" lon="2.53005">
        <ele>95.4</ele>
        <time>2014-05-29T09:42:45Z</time>
      </trkpt>
      <trkpt lat="48.39251" lon="2.52976">
        <ele>95.4</ele>
        <time>2014-05-29T09:42:49Z</time>
      </trkpt>
      <trkpt lat="48.39253" lon="2.52965">
        <ele>95.4</ele>
        <time>2014-05-29T09:42:51Z</time>
      </trkpt>
      <trkpt lat="48.39269" lon="2.5294">
        <ele>95.4</ele>
        <time>2014-05-29T09:42:56Z</time>
      </trkpt>
      <trkpt lat="48.39292" lon="2.52923">
        <ele>95.4</ele>
        <time>2014-05-29T09:43:02Z</time>
      </trkpt>
      <trkpt lat="48.39305" lon="2.52912">
        <ele>95.4</ele>
        <time>2014-05-29T09:43:05Z</time>
      </trkpt>
      <trkpt lat="48.3931" lon="2.5291">
        <ele>95.4</ele>
        <time>2014-05-29T09:43:06Z</time>
      </trkpt>
      <trkpt lat="48.39319" lon="2.52907">
        <ele>95.4</ele>
        <time>2014-05-29T09:43:08Z</time>
      </trkpt>
      <trkpt lat="48.39333" lon="2.52904">
        <ele>95.4</ele>
        <time>2014-05-29T09:43:11Z</time>
      </trkpt>
      <trkpt lat="48.3935" lon="2.52887">
        <ele>95.4</ele>
        <time>2014-05-29T09:43:16Z</time>
      </trkpt>
      <trkpt lat="48.39369" lon="2.52856">
        <ele>95.4</ele>
        <time>2014-05-29T09:43:22Z</time>
      </trkpt>
      <trkpt lat="48.39383" lon="2.5283">
        <ele>95.4</ele>
        <time>2014-05-29T09:43:26Z</time>
      </trkpt>
      <trkpt lat="48.39387" lon="2.52823">
        <ele>95.4</ele>
        <time>2014-05-29T09:43:27Z</time>
      </trkpt>
      <trkpt lat="48.39398" lon="2.52805">
        <ele>95.4</ele>
        <time>2014-05-29T09:43:30Z</time>
      </trkpt>
      <trkpt lat="48.3941" lon="2.52789">
        <ele>95.4</ele>
        <time>2014-05-29T09:43:33Z</time>
      </trkpt>
      <trkpt lat="48.39422" lon="2.52769">
        <ele>95.4</ele>
        <time>2014-05-29T09:43:36Z</time>
      </trkpt>
      <trkpt lat="48.39425" lon="2.52764">
        <ele>95.4</ele>
        <time>2014-05-29T09:43:37Z</time>
      </trkpt>
      <trkpt lat="48.39428" lon="2.52759">
        <ele>95.4</ele>
        <time>2014-05-29T09:43:38Z</time>
      </trkpt>
      <trkpt lat="48.39429" lon="2.52755">
        <ele>95.4</ele>
        <time>2014-05-29T09:43:39Z</time>
      </trkpt>
      <trkpt lat="48.39431" lon="2.52742">
        <ele>95.4</ele>
        <time>2014-05-29T09:43:42Z</time>
      </trkpt>
      <trkpt lat="48.39433" lon="2.52705">
        <ele>95.4</ele>
        <time>2014-05-29T09:43:49Z</time>
      </trkpt>
      <trkpt lat="48.39431" lon="2.5267">
        <ele>95.4</ele>
        <time>2014-05-29T09:43:56Z</time>
      </trkpt>
      <trkpt lat="48.39428" lon="2.52647">
        <ele>95.4</ele>
        <time>2014-05-29T09:44:01Z</time>
      </trkpt>
      <trkpt lat="48.39428" lon="2.52633">
        <ele>95.4</ele>
        <time>2014-05-29T09:44:04Z</time>
      </trkpt>
      <trkpt lat="48.39426" lon="2.52596">
        <ele>95.4</ele>
        <time>2014-05-29T09:44:10Z</time>
      </trkpt>
      <trkpt lat="48.39427" lon="2.52576">
        <ele>95.4</ele>
        <time>2014-05-29T09:44:13Z</time>
      </trkpt>
      <trkpt lat="48.39426" lon="2.52564">
        <ele>95.4</ele>
        <time>2014-05-29T09:44:15Z</time>
      </trkpt>
      <trkpt lat="48.39425" lon="2.52553">
        <ele>95.4</ele>
        <time>2014-05-29T09:44:17Z</time>
      </trkpt>
      <trkpt lat="48.3943" lon="2.52521">
        <ele>95.4</ele>
        <time>2014-05-29T09:44:22Z</time>
      </trkpt>
      <trkpt lat="48.39432" lon="2.52515">
        <ele>95</ele>
        <time>2014-05-29T09:44:24Z</time>
      </trkpt>
      <trkpt lat="48.39433" lon="2.52509">
        <ele>93.4</ele>
        <time>2014-05-29T09:44:51Z</time>
      </trkpt>
      <trkpt lat="48.39431" lon="2.52495">
        <ele>93.4</ele>
        <time>2014-05-29T09:44:53Z</time>
      </trkpt>
      <trkpt lat="48.39426" lon="2.5248">
        <ele>93.4</ele>
        <time>2014-05-29T09:44:55Z</time>
      </trkpt>
      <trkpt lat="48.3942" lon="2.52468">
        <ele>93.4</ele>
        <time>2014-05-29T09:44:57Z</time>
      </trkpt>
      <trkpt lat="48.39412" lon="2.52455">
        <ele>93</ele>
        <time>2014-05-29T09:45:00Z</time>
      </trkpt>
      <trkpt lat="48.39411" lon="2.52445">
        <ele>92.6</ele>
        <time>2014-05-29T09:45:01Z</time>
      </trkpt>
      <trkpt lat="48.39409" lon="2.5244">
        <ele>92.2</ele>
        <time>2014-05-29T09:45:02Z</time>
      </trkpt>
      <trkpt lat="48.39407" lon="2.52433">
        <ele>91.6</ele>
        <time>2014-05-29T09:45:03Z</time>
      </trkpt>
      <trkpt lat="48.39404" lon="2.52427">
        <ele>91.2</ele>
        <time>2014-05-29T09:45:04Z</time>
      </trkpt>
      <trkpt lat="48.39401" lon="2.52422">
        <ele>91.2</ele>
        <time>2014-05-29T09:45:05Z</time>
      </trkpt>
      <trkpt lat="48.3939" lon="2.52398">
        <ele>91.2</ele>
        <time>2014-05-29T09:45:09Z</time>
      </trkpt>
      <trkpt lat="48.39388" lon="2.52392">
        <ele>90.8</ele>
        <time>2014-05-29T09:45:10Z</time>
      </trkpt>
      <trkpt lat="48.39386" lon="2.52386">
        <ele>90.4</ele>
        <time>2014-05-29T09:45:11Z</time>
      </trkpt>
      <trkpt lat="48.39382" lon="2.52373">
        <ele>89.6</ele>
        <time>2014-05-29T09:45:13Z</time>
      </trkpt>
      <trkpt lat="48.3938" lon="2.52367">
        <ele>89.2</ele>
        <time>2014-05-29T09:45:14Z</time>
      </trkpt>
      <trkpt lat="48.39377" lon="2.52356">
        <ele>89.2</ele>
        <time>2014-05-29T09:45:16Z</time>
      </trkpt>
      <trkpt lat="48.39375" lon="2.52349">
        <ele>89.2</ele>
        <time>2014-05-29T09:45:17Z</time>
      </trkpt>
      <trkpt lat="48.39371" lon="2.52336">
        <ele>89.2</ele>
        <time>2014-05-29T09:45:21Z</time>
      </trkpt>
      <trkpt lat="48.39363" lon="2.5233">
        <ele>89.2</ele>
        <time>2014-05-29T09:45:25Z</time>
      </trkpt>
      <trkpt lat="48.39359" lon="2.52325">
        <ele>89.2</ele>
        <time>2014-05-29T09:45:28Z</time>
      </trkpt>
      <trkpt lat="48.39354" lon="2.52321">
        <ele>89.2</ele>
        <time>2014-05-29T09:45:31Z</time>
      </trkpt>
      <trkpt lat="48.39351" lon="2.5232">
        <ele>89.2</ele>
        <time>2014-05-29T09:45:33Z</time>
      </trkpt>
      <trkpt lat="48.39349" lon="2.52322">
        <ele>89.6</ele>
        <time>2014-05-29T09:45:36Z</time>
      </trkpt>
      <trkpt lat="48.39349" lon="2.52323">
        <ele>90</ele>
        <time>2014-05-29T09:45:37Z</time>
      </trkpt>
      <trkpt lat="48.39357" lon="2.5231">
        <ele>90.4</ele>
        <time>2014-05-29T09:45:38Z</time>
      </trkpt>
      <trkpt lat="48.39358" lon="2.5231">
        <ele>90.8</ele>
        <time>2014-05-29T09:45:39Z</time>
      </trkpt>
      <trkpt lat="48.39359" lon="2.52308">
        <ele>91.2</ele>
        <time>2014-05-29T09:45:40Z</time>
      </trkpt>
      <trkpt lat="48.39358" lon="2.5231">
        <ele>91.2</ele>
        <time>2014-05-29T09:45:41Z</time>
      </trkpt>
      <trkpt lat="48.39377" lon="2.5228">
        <ele>91.6</ele>
        <time>2014-05-29T09:45:43Z</time>
      </trkpt>
      <trkpt lat="48.39381" lon="2.52275">
        <ele>92</ele>
        <time>2014-05-29T09:45:44Z</time>
      </trkpt>
      <trkpt lat="48.39384" lon="2.52272">
        <ele>92.6</ele>
        <time>2014-05-29T09:45:45Z</time>
      </trkpt>
      <trkpt lat="48.39386" lon="2.52269">
        <ele>93</ele>
        <time>2014-05-29T09:45:46Z</time>
      </trkpt>
      <trkpt lat="48.39385" lon="2.52269">
        <ele>93.4</ele>
        <time>2014-05-29T09:45:47Z</time>
      </trkpt>
      <trkpt lat="48.39387" lon="2.5227">
        <ele>93.4</ele>
        <time>2014-05-29T09:45:52Z</time>
      </trkpt>
      <trkpt lat="48.39385" lon="2.52273">
        <ele>93.4</ele>
        <time>2014-05-29T09:45:54Z</time>
      </trkpt>
      <trkpt lat="48.3938" lon="2.5229">
        <ele>93.4</ele>
        <time>2014-05-29T09:46:02Z</time>
      </trkpt>
      <trkpt lat="48.39374" lon="2.52306">
        <ele>93.4</ele>
        <time>2014-05-29T09:46:08Z</time>
      </trkpt>
      <trkpt lat="48.39374" lon="2.52313">
        <ele>93.4</ele>
        <time>2014-05-29T09:46:10Z</time>
      </trkpt>
      <trkpt lat="48.39373" lon="2.52326">
        <ele>93</ele>
        <time>2014-05-29T09:46:14Z</time>
      </trkpt>
      <trkpt lat="48.39374" lon="2.5233">
        <ele>92.4</ele>
        <time>2014-05-29T09:46:15Z</time>
      </trkpt>
      <trkpt lat="48.39374" lon="2.52334">
        <ele>92</ele>
        <time>2014-05-29T09:46:16Z</time>
      </trkpt>
      <trkpt lat="48.39373" lon="2.52338">
        <ele>91.6</ele>
        <time>2014-05-29T09:46:17Z</time>
      </trkpt>
      <trkpt lat="48.39373" lon="2.52341">
        <ele>91</ele>
        <time>2014-05-29T09:46:18Z</time>
      </trkpt>
      <trkpt lat="48.39372" lon="2.52349">
        <ele>90.6</ele>
        <time>2014-05-29T09:46:20Z</time>
      </trkpt>
      <trkpt lat="48.39372" lon="2.52353">
        <ele>90.2</ele>
        <time>2014-05-29T09:46:21Z</time>
      </trkpt>
      <trkpt lat="48.39372" lon="2.52359">
        <ele>89.8</ele>
        <time>2014-05-29T09:46:22Z</time>
      </trkpt>
      <trkpt lat="48.39371" lon="2.52365">
        <ele>89.2</ele>
        <time>2014-05-29T09:46:23Z</time>
      </trkpt>
      <trkpt lat="48.3937" lon="2.5237">
        <ele>88.8</ele>
        <time>2014-05-29T09:46:24Z</time>
      </trkpt>
      <trkpt lat="48.39367" lon="2.52378">
        <ele>87.6</ele>
        <time>2014-05-29T09:46:26Z</time>
      </trkpt>
      <trkpt lat="48.39366" lon="2.52383">
        <ele>87</ele>
        <time>2014-05-29T09:46:27Z</time>
      </trkpt>
      <trkpt lat="48.39367" lon="2.52392">
        <ele>85.8</ele>
        <time>2014-05-29T09:46:29Z</time>
      </trkpt>
      <trkpt lat="48.39368" lon="2.52396">
        <ele>85.2</ele>
        <time>2014-05-29T09:46:30Z</time>
      </trkpt>
      <trkpt lat="48.39369" lon="2.52399">
        <ele>84.6</ele>
        <time>2014-05-29T09:46:31Z</time>
      </trkpt>
      <trkpt lat="48.39371" lon="2.52403">
        <ele>84.6</ele>
        <time>2014-05-29T09:46:32Z</time>
      </trkpt>
      <trkpt lat="48.39372" lon="2.52413">
        <ele>84.6</ele>
        <time>2014-05-29T09:46:34Z</time>
      </trkpt>
      <trkpt lat="48.39373" lon="2.52421">
        <ele>84.6</ele>
        <time>2014-05-29T09:46:36Z</time>
      </trkpt>
      <trkpt lat="48.39376" lon="2.52426">
        <ele>84.6</ele>
        <time>2014-05-29T09:46:40Z</time>
      </trkpt>
      <trkpt lat="48.39383" lon="2.52432">
        <ele>84.2</ele>
        <time>2014-05-29T09:46:46Z</time>
      </trkpt>
      <trkpt lat="48.39383" lon="2.52432">
        <ele>83.8</ele>
        <time>2014-05-29T09:46:47Z</time>
      </trkpt>
      <trkpt lat="48.39383" lon="2.52433">
        <ele>83.4</ele>
        <time>2014-05-29T09:46:48Z</time>
      </trkpt>
      <trkpt lat="48.39385" lon="2.52432">
        <ele>83</ele>
        <time>2014-05-29T09:46:49Z</time>
      </trkpt>
      <trkpt lat="48.39387" lon="2.52434">
        <ele>83.4</ele>
        <time>2014-05-29T09:46:50Z</time>
      </trkpt>
      <trkpt lat="48.39389" lon="2.52437">
        <ele>83.8</ele>
        <time>2014-05-29T09:46:51Z</time>
      </trkpt>
      <trkpt lat="48.39389" lon="2.52439">
        <ele>84.2</ele>
        <time>2014-05-29T09:46:52Z</time>
      </trkpt>
      <trkpt lat="48.3939" lon="2.5244">
        <ele>84.6</ele>
        <time>2014-05-29T09:46:53Z</time>
      </trkpt>
      <trkpt lat="48.39391" lon="2.52443">
        <ele>85</ele>
        <time>2014-05-29T09:46:54Z</time>
      </trkpt>
      <trkpt lat="48.39391" lon="2.52447">
        <ele>85.4</ele>
        <time>2014-05-29T09:46:55Z</time>
      </trkpt>
      <trkpt lat="48.39392" lon="2.52449">
        <ele>86</ele>
        <time>2014-05-29T09:46:56Z</time>
      </trkpt>
      <trkpt lat="48.39392" lon="2.52451">
        <ele>86.4</ele>
        <time>2014-05-29T09:46:57Z</time>
      </trkpt>
      <trkpt lat="48.39392" lon="2.52453">
        <ele>87</ele>
        <time>2014-05-29T09:46:58Z</time>
      </trkpt>
      <trkpt lat="48.39393" lon="2.52456">
        <ele>87</ele>
        <time>2014-05-29T09:47:01Z</time>
      </trkpt>
      <trkpt lat="48.39392" lon="2.52457">
        <ele>87</ele>
        <time>2014-05-29T09:47:02Z</time>
      </trkpt>
      <trkpt lat="48.39392" lon="2.52458">
        <ele>88.6</ele>
        <time>2014-05-29T09:47:11Z</time>
      </trkpt>
      <trkpt lat="48.39393" lon="2.52459">
        <ele>89</ele>
        <time>2014-05-29T09:48:17Z</time>
      </trkpt>
      <trkpt lat="48.39393" lon="2.52459">
        <ele>89.8</ele>
        <time>2014-05-29T09:48:24Z</time>
      </trkpt>
      <trkpt lat="48.39393" lon="2.52459">
        <ele>90.2</ele>
        <time>2014-05-29T09:48:25Z</time>
      </trkpt>
      <trkpt lat="48.39393" lon="2.5246">
        <ele>90.8</ele>
        <time>2014-05-29T09:48:26Z</time>
      </trkpt>
      <trkpt lat="48.39393" lon="2.52461">
        <ele>91.2</ele>
        <time>2014-05-29T09:48:27Z</time>
      </trkpt>
      <trkpt lat="48.39398" lon="2.52485">
        <ele>91.6</ele>
        <time>2014-05-29T09:48:33Z</time>
      </trkpt>
      <trkpt lat="48.39399" lon="2.52487">
        <ele>92</ele>
        <time>2014-05-29T09:48:34Z</time>
      </trkpt>
      <trkpt lat="48.39402" lon="2.52494">
        <ele>92.8</ele>
        <time>2014-05-29T09:48:36Z</time>
      </trkpt>
      <trkpt lat="48.39402" lon="2.52497">
        <ele>93.2</ele>
        <time>2014-05-29T09:48:37Z</time>
      </trkpt>
      <trkpt lat="48.39405" lon="2.52525">
        <ele>93.2</ele>
        <time>2014-05-29T09:48:42Z</time>
      </trkpt>
      <trkpt lat="48.39405" lon="2.5255">
        <ele>93.2</ele>
        <time>2014-05-29T09:48:47Z</time>
      </trkpt>
      <trkpt lat="48.39408" lon="2.52571">
        <ele>93.2</ele>
        <time>2014-05-29T09:48:53Z</time>
      </trkpt>
      <trkpt lat="48.39407" lon="2.52598">
        <ele>93.2</ele>
        <time>2014-05-29T09:48:58Z</time>
      </trkpt>
      <trkpt lat="48.39399" lon="2.52638">
        <ele>93.2</ele>
        <time>2014-05-29T09:49:04Z</time>
      </trkpt>
      <trkpt lat="48.39398" lon="2.52649">
        <ele>92.8</ele>
        <time>2014-05-29T09:49:05Z</time>
      </trkpt>
      <trkpt lat="48.39397" lon="2.52657">
        <ele>92.4</ele>
        <time>2014-05-29T09:49:06Z</time>
      </trkpt>
      <trkpt lat="48.39397" lon="2.52663">
        <ele>92</ele>
        <time>2014-05-29T09:49:07Z</time>
      </trkpt>
      <trkpt lat="48.39397" lon="2.5267">
        <ele>91.4</ele>
        <time>2014-05-29T09:49:08Z</time>
      </trkpt>
      <trkpt lat="48.39397" lon="2.52678">
        <ele>90.8</ele>
        <time>2014-05-29T09:49:09Z</time>
      </trkpt>
      <trkpt lat="48.39395" lon="2.52685">
        <ele>90.2</ele>
        <time>2014-05-29T09:49:10Z</time>
      </trkpt>
      <trkpt lat="48.39393" lon="2.52691">
        <ele>89.2</ele>
        <time>2014-05-29T09:49:11Z</time>
      </trkpt>
      <trkpt lat="48.39393" lon="2.52696">
        <ele>88.2</ele>
        <time>2014-05-29T09:49:12Z</time>
      </trkpt>
      <trkpt lat="48.39394" lon="2.52698">
        <ele>87.2</ele>
        <time>2014-05-29T09:49:13Z</time>
      </trkpt>
      <trkpt lat="48.39395" lon="2.52699">
        <ele>86.2</ele>
        <time>2014-05-29T09:49:14Z</time>
      </trkpt>
      <trkpt lat="48.39395" lon="2.527">
        <ele>85.4</ele>
        <time>2014-05-29T09:49:15Z</time>
      </trkpt>
      <trkpt lat="48.39397" lon="2.52702">
        <ele>85.4</ele>
        <time>2014-05-29T09:49:16Z</time>
      </trkpt>
      <trkpt lat="48.39398" lon="2.52701">
        <ele>85.4</ele>
        <time>2014-05-29T09:49:17Z</time>
      </trkpt>
      <trkpt lat="48.39398" lon="2.52702">
        <ele>85.4</ele>
        <time>2014-05-29T09:49:19Z</time>
      </trkpt>
      <trkpt lat="48.39399" lon="2.52704">
        <ele>85.4</ele>
        <time>2014-05-29T09:49:22Z</time>
      </trkpt>
      <trkpt lat="48.39397" lon="2.52706">
        <ele>85.4</ele>
        <time>2014-05-29T09:49:23Z</time>
      </trkpt>
      <trkpt lat="48.39397" lon="2.52707">
        <ele>85.4</ele>
        <time>2014-05-29T09:49:24Z</time>
      </trkpt>
      <trkpt lat="48.39399" lon="2.52712">
        <ele>85.8</ele>
        <time>2014-05-29T09:49:30Z</time>
      </trkpt>
      <trkpt lat="48.39399" lon="2.52712">
        <ele>87.4</ele>
        <time>2014-05-29T09:49:36Z</time>
      </trkpt>
      <trkpt lat="48.39399" lon="2.52712">
        <ele>88</ele>
        <time>2014-05-29T09:49:43Z</time>
      </trkpt>
      <trkpt lat="48.394" lon="2.52712">
        <ele>89.8</ele>
        <time>2014-05-29T09:49:49Z</time>
      </trkpt>
      <trkpt lat="48.394" lon="2.52712">
        <ele>93.4</ele>
        <time>2014-05-29T09:50:06Z</time>
      </trkpt>
      <trkpt lat="48.394" lon="2.52712">
        <ele>93.8</ele>
        <time>2014-05-29T09:50:07Z</time>
      </trkpt>
      <trkpt lat="48.39401" lon="2.52712">
        <ele>93.8</ele>
        <time>2014-05-29T09:50:09Z</time>
      </trkpt>
      <trkpt lat="48.39412" lon="2.52715">
        <ele>93.8</ele>
        <time>2014-05-29T09:50:11Z</time>
      </trkpt>
      <trkpt lat="48.39425" lon="2.52712">
        <ele>93.8</ele>
        <time>2014-05-29T09:50:13Z</time>
      </trkpt>
      <trkpt lat="48.39435" lon="2.5272">
        <ele>93.8</ele>
        <time>2014-05-29T09:50:19Z</time>
      </trkpt>
      <trkpt lat="48.39436" lon="2.52752">
        <ele>93.8</ele>
        <time>2014-05-29T09:50:27Z</time>
      </trkpt>
      <trkpt lat="48.39435" lon="2.52767">
        <ele>93.8</ele>
        <time>2014-05-29T09:50:31Z</time>
      </trkpt>
      <trkpt lat="48.39434" lon="2.52779">
        <ele>93.8</ele>
        <time>2014-05-29T09:50:34Z</time>
      </trkpt>
      <trkpt lat="48.3943" lon="2.52798">
        <ele>93.8</ele>
        <time>2014-05-29T09:50:38Z</time>
      </trkpt>
      <trkpt lat="48.39427" lon="2.52807">
        <ele>94.4</ele>
        <time>2014-05-29T09:50:40Z</time>
      </trkpt>
      <trkpt lat="48.39426" lon="2.52811">
        <ele>94.8</ele>
        <time>2014-05-29T09:50:41Z</time>
      </trkpt>
      <trkpt lat="48.39423" lon="2.52819">
        <ele>95.2</ele>
        <time>2014-05-29T09:50:42Z</time>
      </trkpt>
      <trkpt lat="48.39419" lon="2.52828">
        <ele>95.6</ele>
        <time>2014-05-29T09:50:43Z</time>
      </trkpt>
      <trkpt lat="48.39417" lon="2.52833">
        <ele>96.2</ele>
        <time>2014-05-29T09:50:44Z</time>
      </trkpt>
      <trkpt lat="48.39417" lon="2.52838">
        <ele>96.2</ele>
        <time>2014-05-29T09:50:45Z</time>
      </trkpt>
      <trkpt lat="48.39402" lon="2.52866">
        <ele>96.2</ele>
        <time>2014-05-29T09:50:50Z</time>
      </trkpt>
      <trkpt lat="48.3938" lon="2.52898">
        <ele>96.2</ele>
        <time>2014-05-29T09:50:57Z</time>
      </trkpt>
      <trkpt lat="48.39376" lon="2.52902">
        <ele>96.2</ele>
        <time>2014-05-29T09:50:58Z</time>
      </trkpt>
      <trkpt lat="48.39371" lon="2.52908">
        <ele>96.2</ele>
        <time>2014-05-29T09:51:00Z</time>
      </trkpt>
      <trkpt lat="48.39357" lon="2.52912">
        <ele>96.2</ele>
        <time>2014-05-29T09:51:03Z</time>
      </trkpt>
      <trkpt lat="48.39353" lon="2.52913">
        <ele>96.2</ele>
        <time>2014-05-29T09:51:04Z</time>
      </trkpt>
      <trkpt lat="48.3934" lon="2.52916">
        <ele>96.2</ele>
        <time>2014-05-29T09:51:07Z</time>
      </trkpt>
      <trkpt lat="48.39333" lon="2.52922">
        <ele>96.2</ele>
        <time>2014-05-29T09:51:09Z</time>
      </trkpt>
      <trkpt lat="48.39301" lon="2.52943">
        <ele>96.2</ele>
        <time>2014-05-29T09:51:15Z</time>
      </trkpt>
      <trkpt lat="48.39297" lon="2.52948">
        <ele>96.2</ele>
        <time>2014-05-29T09:51:16Z</time>
      </trkpt>
      <trkpt lat="48.39286" lon="2.52976">
        <ele>96.2</ele>
        <time>2014-05-29T09:51:20Z</time>
      </trkpt>
      <trkpt lat="48.3928" lon="2.52998">
        <ele>96.2</ele>
        <time>2014-05-29T09:51:23Z</time>
      </trkpt>
      <trkpt lat="48.39277" lon="2.53013">
        <ele>96.2</ele>
        <time>2014-05-29T09:51:25Z</time>
      </trkpt>
      <trkpt lat="48.39271" lon="2.53045">
        <ele>96.2</ele>
        <time>2014-05-29T09:51:29Z</time>
      </trkpt>
      <trkpt lat="48.39271" lon="2.5306">
        <ele>96.2</ele>
        <time>2014-05-29T09:51:31Z</time>
      </trkpt>
      <trkpt lat="48.39253" lon="2.53157">
        <ele>96.2</ele>
        <time>2014-05-29T09:51:43Z</time>
      </trkpt>
      <trkpt lat="48.39244" lon="2.53188">
        <ele>96.2</ele>
        <time>2014-05-29T09:51:47Z</time>
      </trkpt>
      <trkpt lat="48.39241" lon="2.53204">
        <ele>96.2</ele>
        <time>2014-05-29T09:51:49Z</time>
      </trkpt>
      <trkpt lat="48.39241" lon="2.5322">
        <ele>96.2</ele>
        <time>2014-05-29T09:51:51Z</time>
      </trkpt>
      <trkpt lat="48.3924" lon="2.53252">
        <ele>96.2</ele>
        <time>2014-05-29T09:51:55Z</time>
      </trkpt>
      <trkpt lat="48.39241" lon="2.53273">
        <ele>96.2</ele>
        <time>2014-05-29T09:51:58Z</time>
      </trkpt>
      <trkpt lat="48.3924" lon="2.53292">
        <ele>96.2</ele>
        <time>2014-05-29T09:52:01Z</time>
      </trkpt>
      <trkpt lat="48.39237" lon="2.53305">
        <ele>96.2</ele>
        <time>2014-05-29T09:52:03Z</time>
      </trkpt>
      <trkpt lat="48.39231" lon="2.53313">
        <ele>96.2</ele>
        <time>2014-05-29T09:52:05Z</time>
      </trkpt>
      <trkpt lat="48.39218" lon="2.53317">
        <ele>95.8</ele>
        <time>2014-05-29T09:52:08Z</time>
      </trkpt>
      <trkpt lat="48.39215" lon="2.53315">
        <ele>95.4</ele>
        <time>2014-05-29T09:52:09Z</time>
      </trkpt>
      <trkpt lat="48.39212" lon="2.53312">
        <ele>95</ele>
        <time>2014-05-29T09:52:10Z</time>
      </trkpt>
      <trkpt lat="48.39208" lon="2.53309">
        <ele>94.6</ele>
        <time>2014-05-29T09:52:11Z</time>
      </trkpt>
      <trkpt lat="48.39205" lon="2.53305">
        <ele>94.2</ele>
        <time>2014-05-29T09:52:12Z</time>
      </trkpt>
      <trkpt lat="48.39201" lon="2.533">
        <ele>94.2</ele>
        <time>2014-05-29T09:52:13Z</time>
      </trkpt>
      <trkpt lat="48.39198" lon="2.53295">
        <ele>94.2</ele>
        <time>2014-05-29T09:52:14Z</time>
      </trkpt>
      <trkpt lat="48.3918" lon="2.53283">
        <ele>94.2</ele>
        <time>2014-05-29T09:52:17Z</time>
      </trkpt>
      <trkpt lat="48.3917" lon="2.53275">
        <ele>94.2</ele>
        <time>2014-05-29T09:52:19Z</time>
      </trkpt>
      <trkpt lat="48.39147" lon="2.53247">
        <ele>94.2</ele>
        <time>2014-05-29T09:52:24Z</time>
      </trkpt>
      <trkpt lat="48.39144" lon="2.5324">
        <ele>94.2</ele>
        <time>2014-05-29T09:52:25Z</time>
      </trkpt>
      <trkpt lat="48.39126" lon="2.53206">
        <ele>94.2</ele>
        <time>2014-05-29T09:52:30Z</time>
      </trkpt>
      <trkpt lat="48.39118" lon="2.53193">
        <ele>94.2</ele>
        <time>2014-05-29T09:52:32Z</time>
      </trkpt>
      <trkpt lat="48.39104" lon="2.53167">
        <ele>94.2</ele>
        <time>2014-05-29T09:52:36Z</time>
      </trkpt>
      <trkpt lat="48.39103" lon="2.5315">
        <ele>94.2</ele>
        <time>2014-05-29T09:52:38Z</time>
      </trkpt>
      <trkpt lat="48.39103" lon="2.53135">
        <ele>93.6</ele>
        <time>2014-05-29T09:52:40Z</time>
      </trkpt>
      <trkpt lat="48.39103" lon="2.53128">
        <ele>93.2</ele>
        <time>2014-05-29T09:52:41Z</time>
      </trkpt>
      <trkpt lat="48.39103" lon="2.5312">
        <ele>92.8</ele>
        <time>2014-05-29T09:52:42Z</time>
      </trkpt>
      <trkpt lat="48.39103" lon="2.53113">
        <ele>92.2</ele>
        <time>2014-05-29T09:52:43Z</time>
      </trkpt>
      <trkpt lat="48.39103" lon="2.53105">
        <ele>91.8</ele>
        <time>2014-05-29T09:52:44Z</time>
      </trkpt>
      <trkpt lat="48.39108" lon="2.53048">
        <ele>91.8</ele>
        <time>2014-05-29T09:52:49Z</time>
      </trkpt>
      <trkpt lat="48.3911" lon="2.53033">
        <ele>91.8</ele>
        <time>2014-05-29T09:52:51Z</time>
      </trkpt>
      <trkpt lat="48.39112" lon="2.53024">
        <ele>91.4</ele>
        <time>2014-05-29T09:52:52Z</time>
      </trkpt>
      <trkpt lat="48.39116" lon="2.53012">
        <ele>91</ele>
        <time>2014-05-29T09:52:53Z</time>
      </trkpt>
      <trkpt lat="48.3912" lon="2.53002">
        <ele>90.4</ele>
        <time>2014-05-29T09:52:54Z</time>
      </trkpt>
      <trkpt lat="48.39122" lon="2.52996">
        <ele>90</ele>
        <time>2014-05-29T09:52:55Z</time>
      </trkpt>
      <trkpt lat="48.39124" lon="2.52988">
        <ele>89.6</ele>
        <time>2014-05-29T09:52:56Z</time>
      </trkpt>
      <trkpt lat="48.39129" lon="2.52974">
        <ele>89.6</ele>
        <time>2014-05-29T09:52:58Z</time>
      </trkpt>
      <trkpt lat="48.3913" lon="2.52967">
        <ele>89.6</ele>
        <time>2014-05-29T09:52:59Z</time>
      </trkpt>
      <trkpt lat="48.39133" lon="2.5295">
        <ele>89.6</ele>
        <time>2014-05-29T09:53:01Z</time>
      </trkpt>
      <trkpt lat="48.39134" lon="2.52944">
        <ele>89.2</ele>
        <time>2014-05-29T09:53:02Z</time>
      </trkpt>
      <trkpt lat="48.39134" lon="2.52938">
        <ele>88.8</ele>
        <time>2014-05-29T09:53:03Z</time>
      </trkpt>
      <trkpt lat="48.39134" lon="2.52933">
        <ele>88.4</ele>
        <time>2014-05-29T09:53:04Z</time>
      </trkpt>
      <trkpt lat="48.39135" lon="2.52927">
        <ele>88</ele>
        <time>2014-05-29T09:53:05Z</time>
      </trkpt>
      <trkpt lat="48.39136" lon="2.52921">
        <ele>87.6</ele>
        <time>2014-05-29T09:53:06Z</time>
      </trkpt>
      <trkpt lat="48.3914" lon="2.52907">
        <ele>87.6</ele>
        <time>2014-05-29T09:53:08Z</time>
      </trkpt>
      <trkpt lat="48.39143" lon="2.52893">
        <ele>87.6</ele>
        <time>2014-05-29T09:53:10Z</time>
      </trkpt>
      <trkpt lat="48.39144" lon="2.52885">
        <ele>87.2</ele>
        <time>2014-05-29T09:53:11Z</time>
      </trkpt>
      <trkpt lat="48.39145" lon="2.52879">
        <ele>86.8</ele>
        <time>2014-05-29T09:53:12Z</time>
      </trkpt>
      <trkpt lat="48.39148" lon="2.52871">
        <ele>86.4</ele>
        <time>2014-05-29T09:53:13Z</time>
      </trkpt>
      <trkpt lat="48.39153" lon="2.52858">
        <ele>85.8</ele>
        <time>2014-05-29T09:53:14Z</time>
      </trkpt>
      <trkpt lat="48.39156" lon="2.52851">
        <ele>85.4</ele>
        <time>2014-05-29T09:53:15Z</time>
      </trkpt>
      <trkpt lat="48.39158" lon="2.52844">
        <ele>85.4</ele>
        <time>2014-05-29T09:53:16Z</time>
      </trkpt>
      <trkpt lat="48.3916" lon="2.52836">
        <ele>85</ele>
        <time>2014-05-29T09:53:17Z</time>
      </trkpt>
      <trkpt lat="48.39166" lon="2.52812">
        <ele>83.8</ele>
        <time>2014-05-29T09:53:20Z</time>
      </trkpt>
      <trkpt lat="48.39168" lon="2.52804">
        <ele>83</ele>
        <time>2014-05-29T09:53:21Z</time>
      </trkpt>
      <trkpt lat="48.39169" lon="2.52798">
        <ele>82.4</ele>
        <time>2014-05-29T09:53:22Z</time>
      </trkpt>
      <trkpt lat="48.3917" lon="2.52792">
        <ele>81.8</ele>
        <time>2014-05-29T09:53:23Z</time>
      </trkpt>
      <trkpt lat="48.39171" lon="2.52788">
        <ele>81.2</ele>
        <time>2014-05-29T09:53:24Z</time>
      </trkpt>
      <trkpt lat="48.39173" lon="2.52781">
        <ele>80.6</ele>
        <time>2014-05-29T09:53:25Z</time>
      </trkpt>
      <trkpt lat="48.39174" lon="2.52775">
        <ele>80.6</ele>
        <time>2014-05-29T09:53:26Z</time>
      </trkpt>
      <trkpt lat="48.39174" lon="2.52769">
        <ele>80</ele>
        <time>2014-05-29T09:53:27Z</time>
      </trkpt>
      <trkpt lat="48.39173" lon="2.52764">
        <ele>79.6</ele>
        <time>2014-05-29T09:53:28Z</time>
      </trkpt>
      <trkpt lat="48.39169" lon="2.5276">
        <ele>79</ele>
        <time>2014-05-29T09:53:29Z</time>
      </trkpt>
      <trkpt lat="48.39166" lon="2.52755">
        <ele>78.6</ele>
        <time>2014-05-29T09:53:30Z</time>
      </trkpt>
      <trkpt lat="48.39165" lon="2.52751">
        <ele>78.2</ele>
        <time>2014-05-29T09:53:31Z</time>
      </trkpt>
      <trkpt lat="48.39164" lon="2.52747">
        <ele>78.2</ele>
        <time>2014-05-29T09:53:32Z</time>
      </trkpt>
      <trkpt lat="48.39167" lon="2.52731">
        <ele>78.2</ele>
        <time>2014-05-29T09:53:35Z</time>
      </trkpt>
      <trkpt lat="48.3917" lon="2.52725">
        <ele>77.6</ele>
        <time>2014-05-29T09:53:36Z</time>
      </trkpt>
      <trkpt lat="48.39171" lon="2.5272">
        <ele>77.2</ele>
        <time>2014-05-29T09:53:37Z</time>
      </trkpt>
      <trkpt lat="48.39173" lon="2.52715">
        <ele>76.6</ele>
        <time>2014-05-29T09:53:38Z</time>
      </trkpt>
      <trkpt lat="48.39177" lon="2.52707">
        <ele>76.2</ele>
        <time>2014-05-29T09:53:39Z</time>
      </trkpt>
      <trkpt lat="48.39177" lon="2.52702">
        <ele>75.8</ele>
        <time>2014-05-29T09:53:40Z</time>
      </trkpt>
      <trkpt lat="48.39183" lon="2.52625">
        <ele>75.8</ele>
        <time>2014-05-29T09:53:49Z</time>
      </trkpt>
      <trkpt lat="48.39199" lon="2.52565">
        <ele>75.8</ele>
        <time>2014-05-29T09:53:55Z</time>
      </trkpt>
      <trkpt lat="48.39202" lon="2.52557">
        <ele>75.2</ele>
        <time>2014-05-29T09:53:56Z</time>
      </trkpt>
      <trkpt lat="48.39203" lon="2.52549">
        <ele>74.8</ele>
        <time>2014-05-29T09:53:57Z</time>
      </trkpt>
      <trkpt lat="48.39206" lon="2.52541">
        <ele>74.4</ele>
        <time>2014-05-29T09:53:58Z</time>
      </trkpt>
      <trkpt lat="48.3921" lon="2.52532">
        <ele>74</ele>
        <time>2014-05-29T09:53:59Z</time>
      </trkpt>
      <trkpt lat="48.39213" lon="2.52523">
        <ele>73.4</ele>
        <time>2014-05-29T09:54:00Z</time>
      </trkpt>
      <trkpt lat="48.39217" lon="2.52517">
        <ele>73.4</ele>
        <time>2014-05-29T09:54:01Z</time>
      </trkpt>
      <trkpt lat="48.39224" lon="2.52503">
        <ele>73</ele>
        <time>2014-05-29T09:54:03Z</time>
      </trkpt>
      <trkpt lat="48.39227" lon="2.52497">
        <ele>72.6</ele>
        <time>2014-05-29T09:54:04Z</time>
      </trkpt>
      <trkpt lat="48.39229" lon="2.52491">
        <ele>72.2</ele>
        <time>2014-05-29T09:54:05Z</time>
      </trkpt>
      <trkpt lat="48.39231" lon="2.52486">
        <ele>71.8</ele>
        <time>2014-05-29T09:54:06Z</time>
      </trkpt>
      <trkpt lat="48.39233" lon="2.52479">
        <ele>71.4</ele>
        <time>2014-05-29T09:54:08Z</time>
      </trkpt>
      <trkpt lat="48.39235" lon="2.52474">
        <ele>71.4</ele>
        <time>2014-05-29T09:54:10Z</time>
      </trkpt>
      <trkpt lat="48.39239" lon="2.5246">
        <ele>71.4</ele>
        <time>2014-05-29T09:54:17Z</time>
      </trkpt>
      <trkpt lat="48.39265" lon="2.52437">
        <ele>71.4</ele>
        <time>2014-05-29T09:54:23Z</time>
      </trkpt>
      <trkpt lat="48.39269" lon="2.52432">
        <ele>70.8</ele>
        <time>2014-05-29T09:54:24Z</time>
      </trkpt>
      <trkpt lat="48.39273" lon="2.52428">
        <ele>70.4</ele>
        <time>2014-05-29T09:54:25Z</time>
      </trkpt>
      <trkpt lat="48.39276" lon="2.52422">
        <ele>69.8</ele>
        <time>2014-05-29T09:54:26Z</time>
      </trkpt>
      <trkpt lat="48.39279" lon="2.52412">
        <ele>68.6</ele>
        <time>2014-05-29T09:54:28Z</time>
      </trkpt>
      <trkpt lat="48.3928" lon="2.52408">
        <ele>68.2</ele>
        <time>2014-05-29T09:54:29Z</time>
      </trkpt>
      <trkpt lat="48.39278" lon="2.52406">
        <ele>67.6</ele>
        <time>2014-05-29T09:54:30Z</time>
      </trkpt>
      <trkpt lat="48.39277" lon="2.52405">
        <ele>67</ele>
        <time>2014-05-29T09:54:31Z</time>
      </trkpt>
      <trkpt lat="48.39277" lon="2.52403">
        <ele>66.4</ele>
        <time>2014-05-29T09:54:32Z</time>
      </trkpt>
      <trkpt lat="48.39277" lon="2.52402">
        <ele>66.4</ele>
        <time>2014-05-29T09:54:33Z</time>
      </trkpt>
      <trkpt lat="48.39275" lon="2.52392">
        <ele>66.4</ele>
        <time>2014-05-29T09:54:38Z</time>
      </trkpt>
      <trkpt lat="48.39277" lon="2.52382">
        <ele>66.4</ele>
        <time>2014-05-29T09:54:41Z</time>
      </trkpt>
      <trkpt lat="48.39278" lon="2.52369">
        <ele>66.4</ele>
        <time>2014-05-29T09:54:44Z</time>
      </trkpt>
      <trkpt lat="48.39271" lon="2.52356">
        <ele>66.4</ele>
        <time>2014-05-29T09:54:48Z</time>
      </trkpt>
      <trkpt lat="48.39264" lon="2.52345">
        <ele>66</ele>
        <time>2014-05-29T09:54:51Z</time>
      </trkpt>
      <trkpt lat="48.39262" lon="2.52342">
        <ele>65.6</ele>
        <time>2014-05-29T09:54:52Z</time>
      </trkpt>
      <trkpt lat="48.3926" lon="2.52337">
        <ele>65.2</ele>
        <time>2014-05-29T09:54:53Z</time>
      </trkpt>
      <trkpt lat="48.39259" lon="2.52334">
        <ele>64.8</ele>
        <time>2014-05-29T09:54:54Z</time>
      </trkpt>
      <trkpt lat="48.39257" lon="2.5233">
        <ele>64.4</ele>
        <time>2014-05-29T09:54:55Z</time>
      </trkpt>
      <trkpt lat="48.39247" lon="2.52318">
        <ele>64.4</ele>
        <time>2014-05-29T09:55:00Z</time>
      </trkpt>
      <trkpt lat="48.39247" lon="2.523">
        <ele>64.4</ele>
        <time>2014-05-29T09:55:06Z</time>
      </trkpt>
      <trkpt lat="48.39245" lon="2.5228">
        <ele>63.8</ele>
        <time>2014-05-29T09:55:10Z</time>
      </trkpt>
      <trkpt lat="48.39244" lon="2.52276">
        <ele>63.4</ele>
        <time>2014-05-29T09:55:11Z</time>
      </trkpt>
      <trkpt lat="48.39242" lon="2.52272">
        <ele>63</ele>
        <time>2014-05-29T09:55:12Z</time>
      </trkpt>
      <trkpt lat="48.3924" lon="2.52267">
        <ele>62.6</ele>
        <time>2014-05-29T09:55:13Z</time>
      </trkpt>
      <trkpt lat="48.39238" lon="2.52263">
        <ele>62.2</ele>
        <time>2014-05-29T09:55:14Z</time>
      </trkpt>
      <trkpt lat="48.39232" lon="2.52257">
        <ele>61.8</ele>
        <time>2014-05-29T09:55:16Z</time>
      </trkpt>
      <trkpt lat="48.39228" lon="2.52254">
        <ele>61.4</ele>
        <time>2014-05-29T09:55:17Z</time>
      </trkpt>
      <trkpt lat="48.39223" lon="2.5225">
        <ele>61</ele>
        <time>2014-05-29T09:55:18Z</time>
      </trkpt>
      <trkpt lat="48.39219" lon="2.52245">
        <ele>60.6</ele>
        <time>2014-05-29T09:55:19Z</time>
      </trkpt>
      <trkpt lat="48.39215" lon="2.52239">
        <ele>60</ele>
        <time>2014-05-29T09:55:20Z</time>
      </trkpt>
      <trkpt lat="48.39208" lon="2.52228">
        <ele>60</ele>
        <time>2014-05-29T09:55:22Z</time>
      </trkpt>
      <trkpt lat="48.39199" lon="2.52209">
        <ele>59.6</ele>
        <time>2014-05-29T09:55:25Z</time>
      </trkpt>
      <trkpt lat="48.39194" lon="2.52205">
        <ele>59</ele>
        <time>2014-05-29T09:55:26Z</time>
      </trkpt>
      <trkpt lat="48.3919" lon="2.52202">
        <ele>58.6</ele>
        <time>2014-05-29T09:55:27Z</time>
      </trkpt>
      <trkpt lat="48.39187" lon="2.522">
        <ele>58.2</ele>
        <time>2014-05-29T09:55:28Z</time>
      </trkpt>
      <trkpt lat="48.39183" lon="2.52195">
        <ele>57.6</ele>
        <time>2014-05-29T09:55:29Z</time>
      </trkpt>
      <trkpt lat="48.3918" lon="2.52192">
        <ele>57.6</ele>
        <time>2014-05-29T09:55:30Z</time>
      </trkpt>
      <trkpt lat="48.39173" lon="2.52178">
        <ele>57.6</ele>
        <time>2014-05-29T09:55:35Z</time>
      </trkpt>
      <trkpt lat="48.3918" lon="2.52153">
        <ele>57.6</ele>
        <time>2014-05-29T09:55:39Z</time>
      </trkpt>
      <trkpt lat="48.39186" lon="2.52133">
        <ele>57.6</ele>
        <time>2014-05-29T09:55:44Z</time>
      </trkpt>
      <trkpt lat="48.39191" lon="2.52109">
        <ele>57.6</ele>
        <time>2014-05-29T09:55:51Z</time>
      </trkpt>
      <trkpt lat="48.39199" lon="2.52093">
        <ele>57.6</ele>
        <time>2014-05-29T09:55:55Z</time>
      </trkpt>
      <trkpt lat="48.39201" lon="2.52088">
        <ele>58</ele>
        <time>2014-05-29T09:55:56Z</time>
      </trkpt>
      <trkpt lat="48.39203" lon="2.52084">
        <ele>58.6</ele>
        <time>2014-05-29T09:55:57Z</time>
      </trkpt>
      <trkpt lat="48.39204" lon="2.52081">
        <ele>59</ele>
        <time>2014-05-29T09:55:58Z</time>
      </trkpt>
      <trkpt lat="48.39209" lon="2.52075">
        <ele>59.8</ele>
        <time>2014-05-29T09:56:00Z</time>
      </trkpt>
      <trkpt lat="48.39212" lon="2.52071">
        <ele>59.8</ele>
        <time>2014-05-29T09:56:01Z</time>
      </trkpt>
      <trkpt lat="48.39216" lon="2.52065">
        <ele>59.8</ele>
        <time>2014-05-29T09:56:03Z</time>
      </trkpt>
      <trkpt lat="48.39218" lon="2.5206">
        <ele>59.8</ele>
        <time>2014-05-29T09:56:04Z</time>
      </trkpt>
      <trkpt lat="48.39227" lon="2.52049">
        <ele>60.2</ele>
        <time>2014-05-29T09:56:08Z</time>
      </trkpt>
      <trkpt lat="48.39228" lon="2.52047">
        <ele>60.6</ele>
        <time>2014-05-29T09:56:09Z</time>
      </trkpt>
      <trkpt lat="48.39229" lon="2.52045">
        <ele>61</ele>
        <time>2014-05-29T09:56:10Z</time>
      </trkpt>
      <trkpt lat="48.3923" lon="2.52041">
        <ele>62</ele>
        <time>2014-05-29T09:56:12Z</time>
      </trkpt>
      <trkpt lat="48.39237" lon="2.52023">
        <ele>62</ele>
        <time>2014-05-29T09:56:17Z</time>
      </trkpt>
      <trkpt lat="48.39241" lon="2.52008">
        <ele>62.4</ele>
        <time>2014-05-29T09:56:21Z</time>
      </trkpt>
      <trkpt lat="48.39242" lon="2.52004">
        <ele>62.8</ele>
        <time>2014-05-29T09:56:22Z</time>
      </trkpt>
      <trkpt lat="48.39243" lon="2.52">
        <ele>63.2</ele>
        <time>2014-05-29T09:56:23Z</time>
      </trkpt>
      <trkpt lat="48.39245" lon="2.51996">
        <ele>63.6</ele>
        <time>2014-05-29T09:56:24Z</time>
      </trkpt>
      <trkpt lat="48.39246" lon="2.51992">
        <ele>64</ele>
        <time>2014-05-29T09:56:25Z</time>
      </trkpt>
      <trkpt lat="48.39255" lon="2.51973">
        <ele>64.4</ele>
        <time>2014-05-29T09:56:31Z</time>
      </trkpt>
      <trkpt lat="48.39255" lon="2.51969">
        <ele>64.8</ele>
        <time>2014-05-29T09:56:32Z</time>
      </trkpt>
      <trkpt lat="48.39256" lon="2.51966">
        <ele>65.4</ele>
        <time>2014-05-29T09:56:33Z</time>
      </trkpt>
      <trkpt lat="48.39258" lon="2.51962">
        <ele>65.8</ele>
        <time>2014-05-29T09:56:34Z</time>
      </trkpt>
      <trkpt lat="48.39259" lon="2.5196">
        <ele>66.4</ele>
        <time>2014-05-29T09:56:35Z</time>
      </trkpt>
      <trkpt lat="48.39261" lon="2.51958">
        <ele>66.4</ele>
        <time>2014-05-29T09:56:36Z</time>
      </trkpt>
      <trkpt lat="48.39265" lon="2.51953">
        <ele>66.4</ele>
        <time>2014-05-29T09:56:38Z</time>
      </trkpt>
      <trkpt lat="48.39267" lon="2.51951">
        <ele>66.4</ele>
        <time>2014-05-29T09:56:39Z</time>
      </trkpt>
      <trkpt lat="48.39272" lon="2.51945">
        <ele>66.8</ele>
        <time>2014-05-29T09:56:42Z</time>
      </trkpt>
      <trkpt lat="48.39274" lon="2.51943">
        <ele>67.2</ele>
        <time>2014-05-29T09:56:43Z</time>
      </trkpt>
      <trkpt lat="48.39276" lon="2.51938">
        <ele>67.6</ele>
        <time>2014-05-29T09:56:44Z</time>
      </trkpt>
      <trkpt lat="48.39278" lon="2.51935">
        <ele>68</ele>
        <time>2014-05-29T09:56:45Z</time>
      </trkpt>
      <trkpt lat="48.3928" lon="2.51932">
        <ele>68.4</ele>
        <time>2014-05-29T09:56:46Z</time>
      </trkpt>
      <trkpt lat="48.39294" lon="2.51917">
        <ele>68.8</ele>
        <time>2014-05-29T09:56:53Z</time>
      </trkpt>
      <trkpt lat="48.39295" lon="2.51915">
        <ele>69.2</ele>
        <time>2014-05-29T09:56:54Z</time>
      </trkpt>
      <trkpt lat="48.39297" lon="2.51912">
        <ele>69.6</ele>
        <time>2014-05-29T09:56:55Z</time>
      </trkpt>
      <trkpt lat="48.39298" lon="2.51909">
        <ele>70</ele>
        <time>2014-05-29T09:56:56Z</time>
      </trkpt>
      <trkpt lat="48.39299" lon="2.51904">
        <ele>70.6</ele>
        <time>2014-05-29T09:56:57Z</time>
      </trkpt>
      <trkpt lat="48.39304" lon="2.51894">
        <ele>70.6</ele>
        <time>2014-05-29T09:57:00Z</time>
      </trkpt>
      <trkpt lat="48.39307" lon="2.5189">
        <ele>71</ele>
        <time>2014-05-29T09:57:02Z</time>
      </trkpt>
      <trkpt lat="48.39308" lon="2.51889">
        <ele>71.4</ele>
        <time>2014-05-29T09:57:03Z</time>
      </trkpt>
      <trkpt lat="48.39312" lon="2.51887">
        <ele>71.8</ele>
        <time>2014-05-29T09:57:04Z</time>
      </trkpt>
      <trkpt lat="48.39315" lon="2.51886">
        <ele>72.2</ele>
        <time>2014-05-29T09:57:05Z</time>
      </trkpt>
      <trkpt lat="48.39317" lon="2.51885">
        <ele>72.6</ele>
        <time>2014-05-29T09:57:06Z</time>
      </trkpt>
      <trkpt lat="48.39319" lon="2.51883">
        <ele>72.6</ele>
        <time>2014-05-29T09:57:07Z</time>
      </trkpt>
      <trkpt lat="48.39328" lon="2.51875">
        <ele>73</ele>
        <time>2014-05-29T09:57:13Z</time>
      </trkpt>
      <trkpt lat="48.3933" lon="2.51873">
        <ele>73.6</ele>
        <time>2014-05-29T09:57:14Z</time>
      </trkpt>
      <trkpt lat="48.3933" lon="2.5187">
        <ele>74</ele>
        <time>2014-05-29T09:57:15Z</time>
      </trkpt>
      <trkpt lat="48.39332" lon="2.51868">
        <ele>74.4</ele>
        <time>2014-05-29T09:57:16Z</time>
      </trkpt>
      <trkpt lat="48.39333" lon="2.51865">
        <ele>75</ele>
        <time>2014-05-29T09:57:17Z</time>
      </trkpt>
      <trkpt lat="48.39337" lon="2.51858">
        <ele>75</ele>
        <time>2014-05-29T09:57:20Z</time>
      </trkpt>
      <trkpt lat="48.39339" lon="2.51854">
        <ele>75</ele>
        <time>2014-05-29T09:57:23Z</time>
      </trkpt>
      <trkpt lat="48.39341" lon="2.51853">
        <ele>75</ele>
        <time>2014-05-29T09:57:30Z</time>
      </trkpt>
      <trkpt lat="48.3934" lon="2.51852">
        <ele>75</ele>
        <time>2014-05-29T09:57:32Z</time>
      </trkpt>
      <trkpt lat="48.3934" lon="2.51853">
        <ele>77</ele>
        <time>2014-05-29T09:58:22Z</time>
      </trkpt>
      <trkpt lat="48.39341" lon="2.51844">
        <ele>77</ele>
        <time>2014-05-29T09:58:23Z</time>
      </trkpt>
      <trkpt lat="48.39342" lon="2.51836">
        <ele>77</ele>
        <time>2014-05-29T09:58:24Z</time>
      </trkpt>
      <trkpt lat="48.39345" lon="2.51812">
        <ele>77</ele>
        <time>2014-05-29T09:58:30Z</time>
      </trkpt>
      <trkpt lat="48.39347" lon="2.51811">
        <ele>77</ele>
        <time>2014-05-29T09:58:31Z</time>
      </trkpt>
      <trkpt lat="48.39348" lon="2.5181">
        <ele>77</ele>
        <time>2014-05-29T09:58:32Z</time>
      </trkpt>
      <trkpt lat="48.3935" lon="2.51805">
        <ele>77</ele>
        <time>2014-05-29T09:58:33Z</time>
      </trkpt>
      <trkpt lat="48.39351" lon="2.518">
        <ele>77</ele>
        <time>2014-05-29T09:58:35Z</time>
      </trkpt>
      <trkpt lat="48.39352" lon="2.51799">
        <ele>77</ele>
        <time>2014-05-29T09:58:36Z</time>
      </trkpt>
      <trkpt lat="48.39354" lon="2.51798">
        <ele>77.4</ele>
        <time>2014-05-29T09:58:37Z</time>
      </trkpt>
      <trkpt lat="48.39356" lon="2.51797">
        <ele>78</ele>
        <time>2014-05-29T09:58:38Z</time>
      </trkpt>
      <trkpt lat="48.39358" lon="2.51796">
        <ele>78.4</ele>
        <time>2014-05-29T09:58:39Z</time>
      </trkpt>
      <trkpt lat="48.39358" lon="2.51795">
        <ele>78.8</ele>
        <time>2014-05-29T09:58:40Z</time>
      </trkpt>
      <trkpt lat="48.39362" lon="2.51795">
        <ele>79.2</ele>
        <time>2014-05-29T09:58:41Z</time>
      </trkpt>
      <trkpt lat="48.39363" lon="2.51794">
        <ele>79.2</ele>
        <time>2014-05-29T09:58:42Z</time>
      </trkpt>
      <trkpt lat="48.39364" lon="2.51794">
        <ele>79.2</ele>
        <time>2014-05-29T09:58:43Z</time>
      </trkpt>
      <trkpt lat="48.39365" lon="2.51794">
        <ele>79.2</ele>
        <time>2014-05-29T09:58:44Z</time>
      </trkpt>
      <trkpt lat="48.39367" lon="2.51792">
        <ele>79.2</ele>
        <time>2014-05-29T09:58:47Z</time>
      </trkpt>
      <trkpt lat="48.39368" lon="2.51791">
        <ele>79.2</ele>
        <time>2014-05-29T09:58:48Z</time>
      </trkpt>
      <trkpt lat="48.39369" lon="2.51791">
        <ele>79.2</ele>
        <time>2014-05-29T09:58:50Z</time>
      </trkpt>
      <trkpt lat="48.39373" lon="2.51787">
        <ele>79.2</ele>
        <time>2014-05-29T09:58:56Z</time>
      </trkpt>
      <trkpt lat="48.39376" lon="2.51783">
        <ele>79.2</ele>
        <time>2014-05-29T09:58:58Z</time>
      </trkpt>
      <trkpt lat="48.39377" lon="2.51779">
        <ele>78.8</ele>
        <time>2014-05-29T09:59:00Z</time>
      </trkpt>
      <trkpt lat="48.3938" lon="2.51772">
        <ele>78</ele>
        <time>2014-05-29T09:59:02Z</time>
      </trkpt>
      <trkpt lat="48.39381" lon="2.51768">
        <ele>77.6</ele>
        <time>2014-05-29T09:59:03Z</time>
      </trkpt>
      <trkpt lat="48.39382" lon="2.51764">
        <ele>77</ele>
        <time>2014-05-29T09:59:04Z</time>
      </trkpt>
      <trkpt lat="48.39384" lon="2.51763">
        <ele>76.4</ele>
        <time>2014-05-29T09:59:05Z</time>
      </trkpt>
      <trkpt lat="48.39384" lon="2.5176">
        <ele>76</ele>
        <time>2014-05-29T09:59:06Z</time>
      </trkpt>
      <trkpt lat="48.39384" lon="2.51757">
        <ele>75.4</ele>
        <time>2014-05-29T09:59:07Z</time>
      </trkpt>
      <trkpt lat="48.39384" lon="2.51755">
        <ele>74.8</ele>
        <time>2014-05-29T09:59:08Z</time>
      </trkpt>
      <trkpt lat="48.39385" lon="2.51752">
        <ele>74.2</ele>
        <time>2014-05-29T09:59:09Z</time>
      </trkpt>
      <trkpt lat="48.39386" lon="2.51749">
        <ele>73.6</ele>
        <time>2014-05-29T09:59:10Z</time>
      </trkpt>
      <trkpt lat="48.39387" lon="2.51746">
        <ele>73</ele>
        <time>2014-05-29T09:59:11Z</time>
      </trkpt>
      <trkpt lat="48.39388" lon="2.51745">
        <ele>72.4</ele>
        <time>2014-05-29T09:59:12Z</time>
      </trkpt>
      <trkpt lat="48.39387" lon="2.51742">
        <ele>72</ele>
        <time>2014-05-29T09:59:13Z</time>
      </trkpt>
      <trkpt lat="48.39385" lon="2.51739">
        <ele>71.6</ele>
        <time>2014-05-29T09:59:14Z</time>
      </trkpt>
      <trkpt lat="48.39381" lon="2.51736">
        <ele>71.2</ele>
        <time>2014-05-29T09:59:15Z</time>
      </trkpt>
      <trkpt lat="48.39378" lon="2.51734">
        <ele>70.6</ele>
        <time>2014-05-29T09:59:16Z</time>
      </trkpt>
      <trkpt lat="48.39375" lon="2.51733">
        <ele>70.2</ele>
        <time>2014-05-29T09:59:17Z</time>
      </trkpt>
      <trkpt lat="48.3937" lon="2.51732">
        <ele>70.2</ele>
        <time>2014-05-29T09:59:19Z</time>
      </trkpt>
      <trkpt lat="48.39369" lon="2.51731">
        <ele>69.8</ele>
        <time>2014-05-29T09:59:20Z</time>
      </trkpt>
      <trkpt lat="48.39368" lon="2.5173">
        <ele>69.2</ele>
        <time>2014-05-29T09:59:21Z</time>
      </trkpt>
      <trkpt lat="48.39367" lon="2.5173">
        <ele>68.6</ele>
        <time>2014-05-29T09:59:22Z</time>
      </trkpt>
      <trkpt lat="48.39367" lon="2.5173">
        <ele>68.2</ele>
        <time>2014-05-29T09:59:23Z</time>
      </trkpt>
      <trkpt lat="48.39368" lon="2.51731">
        <ele>67.6</ele>
        <time>2014-05-29T09:59:24Z</time>
      </trkpt>
      <trkpt lat="48.39365" lon="2.51727">
        <ele>67.2</ele>
        <time>2014-05-29T09:59:29Z</time>
      </trkpt>
      <trkpt lat="48.39364" lon="2.51726">
        <ele>66.8</ele>
        <time>2014-05-29T09:59:30Z</time>
      </trkpt>
      <trkpt lat="48.39364" lon="2.51725">
        <ele>66.2</ele>
        <time>2014-05-29T09:59:31Z</time>
      </trkpt>
      <trkpt lat="48.39366" lon="2.51719">
        <ele>65.8</ele>
        <time>2014-05-29T09:59:32Z</time>
      </trkpt>
      <trkpt lat="48.39365" lon="2.51715">
        <ele>65.4</ele>
        <time>2014-05-29T09:59:33Z</time>
      </trkpt>
      <trkpt lat="48.39364" lon="2.51713">
        <ele>64.8</ele>
        <time>2014-05-29T09:59:34Z</time>
      </trkpt>
      <trkpt lat="48.39361" lon="2.51711">
        <ele>64.4</ele>
        <time>2014-05-29T09:59:35Z</time>
      </trkpt>
      <trkpt lat="48.39352" lon="2.51704">
        <ele>63.4</ele>
        <time>2014-05-29T09:59:37Z</time>
      </trkpt>
      <trkpt lat="48.39349" lon="2.51695">
        <ele>63</ele>
        <time>2014-05-29T09:59:39Z</time>
      </trkpt>
      <trkpt lat="48.39347" lon="2.5169">
        <ele>62.6</ele>
        <time>2014-05-29T09:59:40Z</time>
      </trkpt>
      <trkpt lat="48.39345" lon="2.51685">
        <ele>62</ele>
        <time>2014-05-29T09:59:41Z</time>
      </trkpt>
      <trkpt lat="48.39339" lon="2.51676">
        <ele>61.2</ele>
        <time>2014-05-29T09:59:43Z</time>
      </trkpt>
      <trkpt lat="48.39337" lon="2.51672">
        <ele>60.8</ele>
        <time>2014-05-29T09:59:44Z</time>
      </trkpt>
      <trkpt lat="48.39335" lon="2.5167">
        <ele>60.4</ele>
        <time>2014-05-29T09:59:45Z</time>
      </trkpt>
      <trkpt lat="48.39333" lon="2.51668">
        <ele>59.8</ele>
        <time>2014-05-29T09:59:46Z</time>
      </trkpt>
      <trkpt lat="48.39329" lon="2.51664">
        <ele>59.4</ele>
        <time>2014-05-29T09:59:47Z</time>
      </trkpt>
      <trkpt lat="48.39327" lon="2.51662">
        <ele>59</ele>
        <time>2014-05-29T09:59:48Z</time>
      </trkpt>
      <trkpt lat="48.3932" lon="2.51655">
        <ele>58.4</ele>
        <time>2014-05-29T09:59:50Z</time>
      </trkpt>
      <trkpt lat="48.39317" lon="2.51652">
        <ele>58</ele>
        <time>2014-05-29T09:59:51Z</time>
      </trkpt>
      <trkpt lat="48.39314" lon="2.51649">
        <ele>57.6</ele>
        <time>2014-05-29T09:59:52Z</time>
      </trkpt>
      <trkpt lat="48.39312" lon="2.51646">
        <ele>57.2</ele>
        <time>2014-05-29T09:59:53Z</time>
      </trkpt>
      <trkpt lat="48.39306" lon="2.51637">
        <ele>56.8</ele>
        <time>2014-05-29T09:59:55Z</time>
      </trkpt>
      <trkpt lat="48.39301" lon="2.51629">
        <ele>56.8</ele>
        <time>2014-05-29T09:59:57Z</time>
      </trkpt>
      <trkpt lat="48.39298" lon="2.51626">
        <ele>56.2</ele>
        <time>2014-05-29T09:59:58Z</time>
      </trkpt>
      <trkpt lat="48.39295" lon="2.51622">
        <ele>55.6</ele>
        <time>2014-05-29T09:59:59Z</time>
      </trkpt>
      <trkpt lat="48.39293" lon="2.5162">
        <ele>55</ele>
        <time>2014-05-29T10:00:00Z</time>
      </trkpt>
      <trkpt lat="48.39291" lon="2.51618">
        <ele>54.4</ele>
        <time>2014-05-29T10:00:01Z</time>
      </trkpt>
      <trkpt lat="48.39289" lon="2.51617">
        <ele>53.8</ele>
        <time>2014-05-29T10:00:02Z</time>
      </trkpt>
      <trkpt lat="48.39287" lon="2.51616">
        <ele>53.8</ele>
        <time>2014-05-29T10:00:03Z</time>
      </trkpt>
      <trkpt lat="48.39278" lon="2.51613">
        <ele>53.4</ele>
        <time>2014-05-29T10:00:06Z</time>
      </trkpt>
      <trkpt lat="48.39276" lon="2.5161">
        <ele>52.8</ele>
        <time>2014-05-29T10:00:07Z</time>
      </trkpt>
      <trkpt lat="48.39272" lon="2.51608">
        <ele>52.4</ele>
        <time>2014-05-29T10:00:08Z</time>
      </trkpt>
      <trkpt lat="48.39268" lon="2.51606">
        <ele>51.8</ele>
        <time>2014-05-29T10:00:09Z</time>
      </trkpt>
      <trkpt lat="48.39265" lon="2.51601">
        <ele>51.4</ele>
        <time>2014-05-29T10:00:10Z</time>
      </trkpt>
      <trkpt lat="48.39262" lon="2.5159">
        <ele>51.4</ele>
        <time>2014-05-29T10:00:13Z</time>
      </trkpt>
      <trkpt lat="48.39261" lon="2.51588">
        <ele>51</ele>
        <time>2014-05-29T10:00:14Z</time>
      </trkpt>
      <trkpt lat="48.39259" lon="2.51586">
        <ele>50.4</ele>
        <time>2014-05-29T10:00:15Z</time>
      </trkpt>
      <trkpt lat="48.39257" lon="2.51583">
        <ele>50</ele>
        <time>2014-05-29T10:00:16Z</time>
      </trkpt>
      <trkpt lat="48.39256" lon="2.5158">
        <ele>49.6</ele>
        <time>2014-05-29T10:00:17Z</time>
      </trkpt>
      <trkpt lat="48.39256" lon="2.51576">
        <ele>49</ele>
        <time>2014-05-29T10:00:18Z</time>
      </trkpt>
      <trkpt lat="48.39253" lon="2.51569">
        <ele>49</ele>
        <time>2014-05-29T10:00:20Z</time>
      </trkpt>
      <trkpt lat="48.3925" lon="2.51532">
        <ele>49</ele>
        <time>2014-05-29T10:00:26Z</time>
      </trkpt>
      <trkpt lat="48.39251" lon="2.51527">
        <ele>48.6</ele>
        <time>2014-05-29T10:00:27Z</time>
      </trkpt>
      <trkpt lat="48.39251" lon="2.51523">
        <ele>48.2</ele>
        <time>2014-05-29T10:00:28Z</time>
      </trkpt>
      <trkpt lat="48.39248" lon="2.51518">
        <ele>47.8</ele>
        <time>2014-05-29T10:00:29Z</time>
      </trkpt>
      <trkpt lat="48.39245" lon="2.51514">
        <ele>47.4</ele>
        <time>2014-05-29T10:00:30Z</time>
      </trkpt>
      <trkpt lat="48.39241" lon="2.51509">
        <ele>47</ele>
        <time>2014-05-29T10:00:31Z</time>
      </trkpt>
      <trkpt lat="48.39231" lon="2.51486">
        <ele>47</ele>
        <time>2014-05-29T10:00:36Z</time>
      </trkpt>
      <trkpt lat="48.39226" lon="2.51475">
        <ele>47</ele>
        <time>2014-05-29T10:00:39Z</time>
      </trkpt>
      <trkpt lat="48.39216" lon="2.51463">
        <ele>47</ele>
        <time>2014-05-29T10:00:42Z</time>
      </trkpt>
      <trkpt lat="48.392" lon="2.51451">
        <ele>46.6</ele>
        <time>2014-05-29T10:00:46Z</time>
      </trkpt>
      <trkpt lat="48.39197" lon="2.51448">
        <ele>46.2</ele>
        <time>2014-05-29T10:00:47Z</time>
      </trkpt>
      <trkpt lat="48.39194" lon="2.51445">
        <ele>45.8</ele>
        <time>2014-05-29T10:00:48Z</time>
      </trkpt>
      <trkpt lat="48.39191" lon="2.51443">
        <ele>45.4</ele>
        <time>2014-05-29T10:00:49Z</time>
      </trkpt>
      <trkpt lat="48.39187" lon="2.51439">
        <ele>44.8</ele>
        <time>2014-05-29T10:00:50Z</time>
      </trkpt>
      <trkpt lat="48.39185" lon="2.51434">
        <ele>44.8</ele>
        <time>2014-05-29T10:00:51Z</time>
      </trkpt>
      <trkpt lat="48.39172" lon="2.51417">
        <ele>44.8</ele>
        <time>2014-05-29T10:00:58Z</time>
      </trkpt>
      <trkpt lat="48.39166" lon="2.51414">
        <ele>44.8</ele>
        <time>2014-05-29T10:01:00Z</time>
      </trkpt>
      <trkpt lat="48.39159" lon="2.51409">
        <ele>44.8</ele>
        <time>2014-05-29T10:01:02Z</time>
      </trkpt>
      <trkpt lat="48.39157" lon="2.51405">
        <ele>44.8</ele>
        <time>2014-05-29T10:01:03Z</time>
      </trkpt>
      <trkpt lat="48.3915" lon="2.51391">
        <ele>44.8</ele>
        <time>2014-05-29T10:01:06Z</time>
      </trkpt>
      <trkpt lat="48.39148" lon="2.51385">
        <ele>44.8</ele>
        <time>2014-05-29T10:01:07Z</time>
      </trkpt>
      <trkpt lat="48.39143" lon="2.51375">
        <ele>44.8</ele>
        <time>2014-05-29T10:01:10Z</time>
      </trkpt>
      <trkpt lat="48.39141" lon="2.51372">
        <ele>45.4</ele>
        <time>2014-05-29T10:01:11Z</time>
      </trkpt>
      <trkpt lat="48.39138" lon="2.51369">
        <ele>45.8</ele>
        <time>2014-05-29T10:01:12Z</time>
      </trkpt>
      <trkpt lat="48.39133" lon="2.51366">
        <ele>46.2</ele>
        <time>2014-05-29T10:01:13Z</time>
      </trkpt>
      <trkpt lat="48.39128" lon="2.51361">
        <ele>46.6</ele>
        <time>2014-05-29T10:01:14Z</time>
      </trkpt>
      <trkpt lat="48.39126" lon="2.51357">
        <ele>47</ele>
        <time>2014-05-29T10:01:15Z</time>
      </trkpt>
      <trkpt lat="48.39122" lon="2.51353">
        <ele>47</ele>
        <time>2014-05-29T10:01:16Z</time>
      </trkpt>
      <trkpt lat="48.39101" lon="2.51329">
        <ele>47</ele>
        <time>2014-05-29T10:01:22Z</time>
      </trkpt>
      <trkpt lat="48.39071" lon="2.51304">
        <ele>47</ele>
        <time>2014-05-29T10:01:28Z</time>
      </trkpt>
      <trkpt lat="48.39065" lon="2.51301">
        <ele>47</ele>
        <time>2014-05-29T10:01:30Z</time>
      </trkpt>
      <trkpt lat="48.39058" lon="2.51296">
        <ele>47</ele>
        <time>2014-05-29T10:01:32Z</time>
      </trkpt>
      <trkpt lat="48.39042" lon="2.5127">
        <ele>47</ele>
        <time>2014-05-29T10:01:36Z</time>
      </trkpt>
      <trkpt lat="48.39026" lon="2.51237">
        <ele>47</ele>
        <time>2014-05-29T10:01:41Z</time>
      </trkpt>
      <trkpt lat="48.39023" lon="2.51231">
        <ele>47</ele>
        <time>2014-05-29T10:01:42Z</time>
      </trkpt>
      <trkpt lat="48.39006" lon="2.512">
        <ele>47</ele>
        <time>2014-05-29T10:01:47Z</time>
      </trkpt>
      <trkpt lat="48.38978" lon="2.51157">
        <ele>47</ele>
        <time>2014-05-29T10:01:53Z</time>
      </trkpt>
      <trkpt lat="48.38955" lon="2.51107">
        <ele>47</ele>
        <time>2014-05-29T10:02:00Z</time>
      </trkpt>
      <trkpt lat="48.38927" lon="2.51079">
        <ele>47</ele>
        <time>2014-05-29T10:02:06Z</time>
      </trkpt>
      <trkpt lat="48.38922" lon="2.51068">
        <ele>46.6</ele>
        <time>2014-05-29T10:02:08Z</time>
      </trkpt>
      <trkpt lat="48.38918" lon="2.51061">
        <ele>46.2</ele>
        <time>2014-05-29T10:02:09Z</time>
      </trkpt>
      <trkpt lat="48.38913" lon="2.51053">
        <ele>45.8</ele>
        <time>2014-05-29T10:02:10Z</time>
      </trkpt>
      <trkpt lat="48.38907" lon="2.51047">
        <ele>45.4</ele>
        <time>2014-05-29T10:02:11Z</time>
      </trkpt>
      <trkpt lat="48.38903" lon="2.51042">
        <ele>45</ele>
        <time>2014-05-29T10:02:12Z</time>
      </trkpt>
      <trkpt lat="48.38862" lon="2.50996">
        <ele>45</ele>
        <time>2014-05-29T10:02:21Z</time>
      </trkpt>
      <trkpt lat="48.38834" lon="2.50954">
        <ele>45</ele>
        <time>2014-05-29T10:02:28Z</time>
      </trkpt>
      <trkpt lat="48.38794" lon="2.50884">
        <ele>45</ele>
        <time>2014-05-29T10:02:36Z</time>
      </trkpt>
      <trkpt lat="48.38763" lon="2.5085">
        <ele>45</ele>
        <time>2014-05-29T10:02:42Z</time>
      </trkpt>
      <trkpt lat="48.3874" lon="2.50822">
        <ele>45</ele>
        <time>2014-05-29T10:02:48Z</time>
      </trkpt>
      <trkpt lat="48.38735" lon="2.50823">
        <ele>45</ele>
        <time>2014-05-29T10:02:49Z</time>
      </trkpt>
      <trkpt lat="48.38703" lon="2.50818">
        <ele>45</ele>
        <time>2014-05-29T10:02:54Z</time>
      </trkpt>
      <trkpt lat="48.38693" lon="2.50799">
        <ele>45</ele>
        <time>2014-05-29T10:02:58Z</time>
      </trkpt>
      <trkpt lat="48.38689" lon="2.50772">
        <ele>45</ele>
        <time>2014-05-29T10:03:02Z</time>
      </trkpt>
      <trkpt lat="48.38687" lon="2.50765">
        <ele>45</ele>
        <time>2014-05-29T10:03:03Z</time>
      </trkpt>
      <trkpt lat="48.38676" lon="2.50727">
        <ele>45</ele>
        <time>2014-05-29T10:03:08Z</time>
      </trkpt>
      <trkpt lat="48.38656" lon="2.50684">
        <ele>45</ele>
        <time>2014-05-29T10:03:14Z</time>
      </trkpt>
      <trkpt lat="48.38635" lon="2.50636">
        <ele>45</ele>
        <time>2014-05-29T10:03:21Z</time>
      </trkpt>
      <trkpt lat="48.38614" lon="2.50577">
        <ele>45</ele>
        <time>2014-05-29T10:03:28Z</time>
      </trkpt>
      <trkpt lat="48.38596" lon="2.50521">
        <ele>45</ele>
        <time>2014-05-29T10:03:35Z</time>
      </trkpt>
      <trkpt lat="48.38593" lon="2.505">
        <ele>45</ele>
        <time>2014-05-29T10:03:37Z</time>
      </trkpt>
      <trkpt lat="48.3859" lon="2.50484">
        <ele>45</ele>
        <time>2014-05-29T10:03:39Z</time>
      </trkpt>
      <trkpt lat="48.3858" lon="2.5044">
        <ele>45</ele>
        <time>2014-05-29T10:03:44Z</time>
      </trkpt>
      <trkpt lat="48.38566" lon="2.50378">
        <ele>45</ele>
        <time>2014-05-29T10:03:51Z</time>
      </trkpt>
      <trkpt lat="48.38559" lon="2.50354">
        <ele>45</ele>
        <time>2014-05-29T10:03:56Z</time>
      </trkpt>
      <trkpt lat="48.38557" lon="2.50353">
        <ele>45</ele>
        <time>2014-05-29T10:03:57Z</time>
      </trkpt>
      <trkpt lat="48.38547" lon="2.5035">
        <ele>45</ele>
        <time>2014-05-29T10:04:00Z</time>
      </trkpt>
      <trkpt lat="48.38545" lon="2.50349">
        <ele>45</ele>
        <time>2014-05-29T10:04:01Z</time>
      </trkpt>
      <trkpt lat="48.3853" lon="2.50342">
        <ele>45</ele>
        <time>2014-05-29T10:04:05Z</time>
      </trkpt>
      <trkpt lat="48.38521" lon="2.50338">
        <ele>45</ele>
        <time>2014-05-29T10:04:07Z</time>
      </trkpt>
      <trkpt lat="48.38492" lon="2.50334">
        <ele>45.4</ele>
        <time>2014-05-29T10:04:13Z</time>
      </trkpt>
      <trkpt lat="48.38486" lon="2.50334">
        <ele>45.8</ele>
        <time>2014-05-29T10:04:14Z</time>
      </trkpt>
      <trkpt lat="48.38479" lon="2.50335">
        <ele>46.2</ele>
        <time>2014-05-29T10:04:15Z</time>
      </trkpt>
      <trkpt lat="48.38474" lon="2.50336">
        <ele>46.6</ele>
        <time>2014-05-29T10:04:16Z</time>
      </trkpt>
      <trkpt lat="48.38469" lon="2.50335">
        <ele>47</ele>
        <time>2014-05-29T10:04:17Z</time>
      </trkpt>
      <trkpt lat="48.38456" lon="2.50336">
        <ele>47</ele>
        <time>2014-05-29T10:04:20Z</time>
      </trkpt>
      <trkpt lat="48.38446" lon="2.50335">
        <ele>47</ele>
        <time>2014-05-29T10:04:22Z</time>
      </trkpt>
      <trkpt lat="48.38432" lon="2.50332">
        <ele>47</ele>
        <time>2014-05-29T10:04:25Z</time>
      </trkpt>
      <trkpt lat="48.38422" lon="2.50321">
        <ele>47</ele>
        <time>2014-05-29T10:04:27Z</time>
      </trkpt>
      <trkpt lat="48.38411" lon="2.50312">
        <ele>47</ele>
        <time>2014-05-29T10:04:29Z</time>
      </trkpt>
      <trkpt lat="48.38387" lon="2.50285">
        <ele>46.6</ele>
        <time>2014-05-29T10:04:34Z</time>
      </trkpt>
      <trkpt lat="48.38382" lon="2.50281">
        <ele>46.2</ele>
        <time>2014-05-29T10:04:35Z</time>
      </trkpt>
      <trkpt lat="48.38377" lon="2.50277">
        <ele>45.8</ele>
        <time>2014-05-29T10:04:36Z</time>
      </trkpt>
      <trkpt lat="48.38373" lon="2.50273">
        <ele>45.4</ele>
        <time>2014-05-29T10:04:37Z</time>
      </trkpt>
      <trkpt lat="48.38367" lon="2.50268">
        <ele>45</ele>
        <time>2014-05-29T10:04:38Z</time>
      </trkpt>
      <trkpt lat="48.38347" lon="2.50251">
        <ele>45</ele>
        <time>2014-05-29T10:04:42Z</time>
      </trkpt>
      <trkpt lat="48.38317" lon="2.50229">
        <ele>45</ele>
        <time>2014-05-29T10:04:49Z</time>
      </trkpt>
      <trkpt lat="48.38287" lon="2.50202">
        <ele>45</ele>
        <time>2014-05-29T10:04:55Z</time>
      </trkpt>
      <trkpt lat="48.38251" lon="2.50171">
        <ele>45</ele>
        <time>2014-05-29T10:05:02Z</time>
      </trkpt>
      <trkpt lat="48.38225" lon="2.50143">
        <ele>45</ele>
        <time>2014-05-29T10:05:09Z</time>
      </trkpt>
      <trkpt lat="48.38217" lon="2.50134">
        <ele>45</ele>
        <time>2014-05-29T10:05:11Z</time>
      </trkpt>
      <trkpt lat="48.38185" lon="2.5009">
        <ele>45</ele>
        <time>2014-05-29T10:05:18Z</time>
      </trkpt>
      <trkpt lat="48.38173" lon="2.50077">
        <ele>45</ele>
        <time>2014-05-29T10:05:20Z</time>
      </trkpt>
      <trkpt lat="48.38146" lon="2.50044">
        <ele>45</ele>
        <time>2014-05-29T10:05:26Z</time>
      </trkpt>
      <trkpt lat="48.38142" lon="2.50038">
        <ele>45</ele>
        <time>2014-05-29T10:05:27Z</time>
      </trkpt>
      <trkpt lat="48.38124" lon="2.50015">
        <ele>45</ele>
        <time>2014-05-29T10:05:31Z</time>
      </trkpt>
      <trkpt lat="48.38095" lon="2.4997">
        <ele>45</ele>
        <time>2014-05-29T10:05:38Z</time>
      </trkpt>
      <trkpt lat="48.38077" lon="2.49937">
        <ele>45</ele>
        <time>2014-05-29T10:05:43Z</time>
      </trkpt>
      <trkpt lat="48.38075" lon="2.4993">
        <ele>45</ele>
        <time>2014-05-29T10:05:44Z</time>
      </trkpt>
      <trkpt lat="48.38074" lon="2.49904">
        <ele>45</ele>
        <time>2014-05-29T10:05:47Z</time>
      </trkpt>
      <trkpt lat="48.38078" lon="2.49879">
        <ele>45</ele>
        <time>2014-05-29T10:05:49Z</time>
      </trkpt>
      <trkpt lat="48.3808" lon="2.49855">
        <ele>45</ele>
        <time>2014-05-29T10:05:51Z</time>
      </trkpt>
      <trkpt lat="48.38089" lon="2.49804">
        <ele>45</ele>
        <time>2014-05-29T10:05:56Z</time>
      </trkpt>
      <trkpt lat="48.38091" lon="2.49796">
        <ele>45</ele>
        <time>2014-05-29T10:05:57Z</time>
      </trkpt>
      <trkpt lat="48.38104" lon="2.49729">
        <ele>45</ele>
        <time>2014-05-29T10:06:05Z</time>
      </trkpt>
      <trkpt lat="48.38116" lon="2.49681">
        <ele>45</ele>
        <time>2014-05-29T10:06:11Z</time>
      </trkpt>
      <trkpt lat="48.38126" lon="2.49626">
        <ele>45</ele>
        <time>2014-05-29T10:06:17Z</time>
      </trkpt>
      <trkpt lat="48.38131" lon="2.49592">
        <ele>45</ele>
        <time>2014-05-29T10:06:21Z</time>
      </trkpt>
      <trkpt lat="48.38127" lon="2.49582">
        <ele>45</ele>
        <time>2014-05-29T10:06:23Z</time>
      </trkpt>
      <trkpt lat="48.3811" lon="2.49562">
        <ele>45</ele>
        <time>2014-05-29T10:06:26Z</time>
      </trkpt>
      <trkpt lat="48.38077" lon="2.49529">
        <ele>45</ele>
        <time>2014-05-29T10:06:33Z</time>
      </trkpt>
      <trkpt lat="48.3804" lon="2.49491">
        <ele>45</ele>
        <time>2014-05-29T10:06:40Z</time>
      </trkpt>
      <trkpt lat="48.38014" lon="2.49467">
        <ele>45</ele>
        <time>2014-05-29T10:06:45Z</time>
      </trkpt>
      <trkpt lat="48.3798" lon="2.49423">
        <ele>45</ele>
        <time>2014-05-29T10:06:53Z</time>
      </trkpt>
      <trkpt lat="48.37979" lon="2.49407">
        <ele>45</ele>
        <time>2014-05-29T10:06:55Z</time>
      </trkpt>
      <trkpt lat="48.3798" lon="2.49398">
        <ele>45</ele>
        <time>2014-05-29T10:06:56Z</time>
      </trkpt>
      <trkpt lat="48.37982" lon="2.49355">
        <ele>45</ele>
        <time>2014-05-29T10:07:01Z</time>
      </trkpt>
      <trkpt lat="48.37979" lon="2.49347">
        <ele>45</ele>
        <time>2014-05-29T10:07:02Z</time>
      </trkpt>
      <trkpt lat="48.37981" lon="2.49301">
        <ele>45</ele>
        <time>2014-05-29T10:07:08Z</time>
      </trkpt>
      <trkpt lat="48.37991" lon="2.49261">
        <ele>45</ele>
        <time>2014-05-29T10:07:13Z</time>
      </trkpt>
      <trkpt lat="48.37996" lon="2.49256">
        <ele>45</ele>
        <time>2014-05-29T10:07:14Z</time>
      </trkpt>
      <trkpt lat="48.37993" lon="2.49244">
        <ele>45</ele>
        <time>2014-05-29T10:07:16Z</time>
      </trkpt>
      <trkpt lat="48.37983" lon="2.49228">
        <ele>45</ele>
        <time>2014-05-29T10:07:19Z</time>
      </trkpt>
      <trkpt lat="48.37977" lon="2.49224">
        <ele>45</ele>
        <time>2014-05-29T10:07:20Z</time>
      </trkpt>
      <trkpt lat="48.37957" lon="2.4921">
        <ele>45</ele>
        <time>2014-05-29T10:07:24Z</time>
      </trkpt>
      <trkpt lat="48.37944" lon="2.49194">
        <ele>45</ele>
        <time>2014-05-29T10:07:27Z</time>
      </trkpt>
      <trkpt lat="48.37935" lon="2.49181">
        <ele>45</ele>
        <time>2014-05-29T10:07:29Z</time>
      </trkpt>
      <trkpt lat="48.37929" lon="2.49166">
        <ele>45</ele>
        <time>2014-05-29T10:07:31Z</time>
      </trkpt>
      <trkpt lat="48.37921" lon="2.49145">
        <ele>45</ele>
        <time>2014-05-29T10:07:34Z</time>
      </trkpt>
      <trkpt lat="48.37914" lon="2.49124">
        <ele>45</ele>
        <time>2014-05-29T10:07:37Z</time>
      </trkpt>
      <trkpt lat="48.37901" lon="2.49085">
        <ele>45</ele>
        <time>2014-05-29T10:07:42Z</time>
      </trkpt>
      <trkpt lat="48.37898" lon="2.49063">
        <ele>45</ele>
        <time>2014-05-29T10:07:44Z</time>
      </trkpt>
      <trkpt lat="48.37884" lon="2.4901">
        <ele>45</ele>
        <time>2014-05-29T10:07:50Z</time>
      </trkpt>
      <trkpt lat="48.37878" lon="2.4898">
        <ele>45</ele>
        <time>2014-05-29T10:07:53Z</time>
      </trkpt>
      <trkpt lat="48.37863" lon="2.48915">
        <ele>45</ele>
        <time>2014-05-29T10:08:00Z</time>
      </trkpt>
      <trkpt lat="48.3786" lon="2.48886">
        <ele>45</ele>
        <time>2014-05-29T10:08:03Z</time>
      </trkpt>
      <trkpt lat="48.37842" lon="2.4882">
        <ele>45</ele>
        <time>2014-05-29T10:08:11Z</time>
      </trkpt>
      <trkpt lat="48.37823" lon="2.48761">
        <ele>45</ele>
        <time>2014-05-29T10:08:19Z</time>
      </trkpt>
      <trkpt lat="48.37817" lon="2.48749">
        <ele>45</ele>
        <time>2014-05-29T10:08:21Z</time>
      </trkpt>
      <trkpt lat="48.37813" lon="2.48742">
        <ele>45</ele>
        <time>2014-05-29T10:08:22Z</time>
      </trkpt>
      <trkpt lat="48.37797" lon="2.48718">
        <ele>45</ele>
        <time>2014-05-29T10:08:26Z</time>
      </trkpt>
      <trkpt lat="48.37773" lon="2.48673">
        <ele>45</ele>
        <time>2014-05-29T10:08:33Z</time>
      </trkpt>
      <trkpt lat="48.37761" lon="2.48642">
        <ele>45</ele>
        <time>2014-05-29T10:08:38Z</time>
      </trkpt>
      <trkpt lat="48.37752" lon="2.48628">
        <ele>45</ele>
        <time>2014-05-29T10:08:41Z</time>
      </trkpt>
      <trkpt lat="48.37745" lon="2.48619">
        <ele>45</ele>
        <time>2014-05-29T10:08:43Z</time>
      </trkpt>
      <trkpt lat="48.37721" lon="2.48586">
        <ele>45</ele>
        <time>2014-05-29T10:08:50Z</time>
      </trkpt>
      <trkpt lat="48.37701" lon="2.48557">
        <ele>45</ele>
        <time>2014-05-29T10:08:56Z</time>
      </trkpt>
      <trkpt lat="48.37684" lon="2.48548">
        <ele>45</ele>
        <time>2014-05-29T10:08:59Z</time>
      </trkpt>
      <trkpt lat="48.37674" lon="2.48548">
        <ele>45</ele>
        <time>2014-05-29T10:09:01Z</time>
      </trkpt>
      <trkpt lat="48.37663" lon="2.48549">
        <ele>45</ele>
        <time>2014-05-29T10:09:04Z</time>
      </trkpt>
      <trkpt lat="48.37633" lon="2.48554">
        <ele>45</ele>
        <time>2014-05-29T10:09:12Z</time>
      </trkpt>
      <trkpt lat="48.3763" lon="2.48553">
        <ele>45</ele>
        <time>2014-05-29T10:09:13Z</time>
      </trkpt>
      <trkpt lat="48.37615" lon="2.48548">
        <ele>45</ele>
        <time>2014-05-29T10:09:17Z</time>
      </trkpt>
      <trkpt lat="48.37612" lon="2.48549">
        <ele>45</ele>
        <time>2014-05-29T10:09:18Z</time>
      </trkpt>
      <trkpt lat="48.37588" lon="2.48553">
        <ele>45</ele>
        <time>2014-05-29T10:09:22Z</time>
      </trkpt>
      <trkpt lat="48.37542" lon="2.48565">
        <ele>45</ele>
        <time>2014-05-29T10:09:28Z</time>
      </trkpt>
      <trkpt lat="48.37536" lon="2.48566">
        <ele>45</ele>
        <time>2014-05-29T10:09:29Z</time>
      </trkpt>
      <trkpt lat="48.3749" lon="2.48583">
        <ele>45</ele>
        <time>2014-05-29T10:09:37Z</time>
      </trkpt>
      <trkpt lat="48.37457" lon="2.48587">
        <ele>45</ele>
        <time>2014-05-29T10:09:43Z</time>
      </trkpt>
      <trkpt lat="48.37424" lon="2.48572">
        <ele>45</ele>
        <time>2014-05-29T10:09:50Z</time>
      </trkpt>
      <trkpt lat="48.3741" lon="2.48568">
        <ele>45</ele>
        <time>2014-05-29T10:09:54Z</time>
      </trkpt>
      <trkpt lat="48.37409" lon="2.48566">
        <ele>45</ele>
        <time>2014-05-29T10:09:55Z</time>
      </trkpt>
      <trkpt lat="48.37408" lon="2.48566">
        <ele>45</ele>
        <time>2014-05-29T10:09:56Z</time>
      </trkpt>
      <trkpt lat="48.37405" lon="2.48573">
        <ele>45</ele>
        <time>2014-05-29T10:09:58Z</time>
      </trkpt>
      <trkpt lat="48.37396" lon="2.48602">
        <ele>45</ele>
        <time>2014-05-29T10:10:03Z</time>
      </trkpt>
      <trkpt lat="48.37389" lon="2.48649">
        <ele>45</ele>
        <time>2014-05-29T10:10:09Z</time>
      </trkpt>
      <trkpt lat="48.37384" lon="2.4871">
        <ele>45</ele>
        <time>2014-05-29T10:10:16Z</time>
      </trkpt>
      <trkpt lat="48.37375" lon="2.48793">
        <ele>45</ele>
        <time>2014-05-29T10:10:25Z</time>
      </trkpt>
      <trkpt lat="48.37363" lon="2.4888">
        <ele>45</ele>
        <time>2014-05-29T10:10:34Z</time>
      </trkpt>
      <trkpt lat="48.3736" lon="2.48959">
        <ele>45</ele>
        <time>2014-05-29T10:10:42Z</time>
      </trkpt>
      <trkpt lat="48.37344" lon="2.49035">
        <ele>45</ele>
        <time>2014-05-29T10:10:50Z</time>
      </trkpt>
      <trkpt lat="48.37319" lon="2.49105">
        <ele>45</ele>
        <time>2014-05-29T10:10:58Z</time>
      </trkpt>
      <trkpt lat="48.37306" lon="2.49168">
        <ele>45</ele>
        <time>2014-05-29T10:11:05Z</time>
      </trkpt>
      <trkpt lat="48.37303" lon="2.49202">
        <ele>45</ele>
        <time>2014-05-29T10:11:09Z</time>
      </trkpt>
      <trkpt lat="48.37308" lon="2.49219">
        <ele>45</ele>
        <time>2014-05-29T10:11:11Z</time>
      </trkpt>
      <trkpt lat="48.37313" lon="2.49233">
        <ele>45</ele>
        <time>2014-05-29T10:11:13Z</time>
      </trkpt>
      <trkpt lat="48.37312" lon="2.49249">
        <ele>45</ele>
        <time>2014-05-29T10:11:15Z</time>
      </trkpt>
      <trkpt lat="48.37264" lon="2.49331">
        <ele>45</ele>
        <time>2014-05-29T10:11:27Z</time>
      </trkpt>
      <trkpt lat="48.37225" lon="2.49388">
        <ele>45</ele>
        <time>2014-05-29T10:11:36Z</time>
      </trkpt>
      <trkpt lat="48.37217" lon="2.49401">
        <ele>45.8</ele>
        <time>2014-05-29T10:11:38Z</time>
      </trkpt>
      <trkpt lat="48.37214" lon="2.49407">
        <ele>46.2</ele>
        <time>2014-05-29T10:11:39Z</time>
      </trkpt>
      <trkpt lat="48.3721" lon="2.49413">
        <ele>46.6</ele>
        <time>2014-05-29T10:11:40Z</time>
      </trkpt>
      <trkpt lat="48.37206" lon="2.49419">
        <ele>47</ele>
        <time>2014-05-29T10:11:41Z</time>
      </trkpt>
      <trkpt lat="48.37191" lon="2.49455">
        <ele>47</ele>
        <time>2014-05-29T10:11:46Z</time>
      </trkpt>
      <trkpt lat="48.37179" lon="2.49493">
        <ele>47</ele>
        <time>2014-05-29T10:11:51Z</time>
      </trkpt>
      <trkpt lat="48.37177" lon="2.49501">
        <ele>47</ele>
        <time>2014-05-29T10:11:52Z</time>
      </trkpt>
      <trkpt lat="48.37171" lon="2.49542">
        <ele>47</ele>
        <time>2014-05-29T10:11:58Z</time>
      </trkpt>
      <trkpt lat="48.37161" lon="2.49563">
        <ele>47</ele>
        <time>2014-05-29T10:12:02Z</time>
      </trkpt>
      <trkpt lat="48.37144" lon="2.49566">
        <ele>47</ele>
        <time>2014-05-29T10:12:06Z</time>
      </trkpt>
      <trkpt lat="48.3714" lon="2.49564">
        <ele>47</ele>
        <time>2014-05-29T10:12:07Z</time>
      </trkpt>
      <trkpt lat="48.37109" lon="2.49557">
        <ele>47</ele>
        <time>2014-05-29T10:12:15Z</time>
      </trkpt>
      <trkpt lat="48.37105" lon="2.49556">
        <ele>47.4</ele>
        <time>2014-05-29T10:12:17Z</time>
      </trkpt>
      <trkpt lat="48.37102" lon="2.49555">
        <ele>47.8</ele>
        <time>2014-05-29T10:12:18Z</time>
      </trkpt>
      <trkpt lat="48.37101" lon="2.49554">
        <ele>48.2</ele>
        <time>2014-05-29T10:12:19Z</time>
      </trkpt>
      <trkpt lat="48.371" lon="2.49553">
        <ele>48.6</ele>
        <time>2014-05-29T10:12:20Z</time>
      </trkpt>
      <trkpt lat="48.37099" lon="2.49554">
        <ele>49</ele>
        <time>2014-05-29T10:12:25Z</time>
      </trkpt>
      <trkpt lat="48.37099" lon="2.49554">
        <ele>49</ele>
        <time>2014-05-29T10:12:26Z</time>
      </trkpt>
    </trkseg>
  </trk>
</gpx>